<?xml version="1.0" encoding="UTF-8" standalone="no" ?>
<gpx xmlns="http://www.topografix.com/GPX/1/1" xmlns:xsi="http://www.w3.org/2001/XMLSchema-instance" xsi:schemaLocation="http://www.topografix.com/GPX/1/1 http://www.topografix.com/GPX/1/1/gpx.xsd" version="1.1" creator="VisuGPX - https://www.visugpx.com">
  <metadata>
    <name>Champagnat Cyclisme sur route</name>
  </metadata>
  <trk>
    <name><![CDATA[Champagnat Cyclisme sur route_1]]></name>
    <trkseg>
      <trkpt lat="46.48273" lon="5.36841">
        <ele>261.4</ele>
        <time>2021-11-22T11:53:53Z</time>
      </trkpt>
      <trkpt lat="46.48265" lon="5.36829">
        <ele>260.8</ele>
        <time>2021-11-22T11:53:54Z</time>
      </trkpt>
      <trkpt lat="46.48255" lon="5.36818">
        <ele>259.8</ele>
        <time>2021-11-22T11:53:55Z</time>
      </trkpt>
      <trkpt lat="46.48234" lon="5.36801">
        <ele>258.2</ele>
        <time>2021-11-22T11:53:57Z</time>
      </trkpt>
      <trkpt lat="46.48224" lon="5.36792">
        <ele>257.6</ele>
        <time>2021-11-22T11:53:58Z</time>
      </trkpt>
      <trkpt lat="46.48213" lon="5.36784">
        <ele>256.4</ele>
        <time>2021-11-22T11:53:59Z</time>
      </trkpt>
      <trkpt lat="46.48192" lon="5.36767">
        <ele>254.6</ele>
        <time>2021-11-22T11:54:01Z</time>
      </trkpt>
      <trkpt lat="46.48171" lon="5.3675">
        <ele>253.4</ele>
        <time>2021-11-22T11:54:03Z</time>
      </trkpt>
      <trkpt lat="46.4815" lon="5.36733">
        <ele>252.2</ele>
        <time>2021-11-22T11:54:05Z</time>
      </trkpt>
      <trkpt lat="46.48141" lon="5.36725">
        <ele>251.2</ele>
        <time>2021-11-22T11:54:06Z</time>
      </trkpt>
      <trkpt lat="46.48119" lon="5.36707">
        <ele>249.6</ele>
        <time>2021-11-22T11:54:09Z</time>
      </trkpt>
      <trkpt lat="46.48114" lon="5.36702">
        <ele>249.2</ele>
        <time>2021-11-22T11:54:10Z</time>
      </trkpt>
      <trkpt lat="46.4811" lon="5.36697">
        <ele>248.6</ele>
        <time>2021-11-22T11:54:11Z</time>
      </trkpt>
      <trkpt lat="46.48109" lon="5.3669">
        <ele>248.2</ele>
        <time>2021-11-22T11:54:12Z</time>
      </trkpt>
      <trkpt lat="46.48115" lon="5.36675">
        <ele>247.4</ele>
        <time>2021-11-22T11:54:14Z</time>
      </trkpt>
      <trkpt lat="46.4812" lon="5.3667">
        <ele>247.2</ele>
        <time>2021-11-22T11:54:15Z</time>
      </trkpt>
      <trkpt lat="46.48138" lon="5.36652">
        <ele>246</ele>
        <time>2021-11-22T11:54:18Z</time>
      </trkpt>
      <trkpt lat="46.48151" lon="5.36642">
        <ele>245</ele>
        <time>2021-11-22T11:54:20Z</time>
      </trkpt>
      <trkpt lat="46.48158" lon="5.36638">
        <ele>244.8</ele>
        <time>2021-11-22T11:54:21Z</time>
      </trkpt>
      <trkpt lat="46.48165" lon="5.36632">
        <ele>244.2</ele>
        <time>2021-11-22T11:54:22Z</time>
      </trkpt>
      <trkpt lat="46.48178" lon="5.36619">
        <ele>243.4</ele>
        <time>2021-11-22T11:54:24Z</time>
      </trkpt>
      <trkpt lat="46.48185" lon="5.36613">
        <ele>243.4</ele>
        <time>2021-11-22T11:54:25Z</time>
      </trkpt>
      <trkpt lat="46.482" lon="5.36607">
        <ele>243</ele>
        <time>2021-11-22T11:54:27Z</time>
      </trkpt>
      <trkpt lat="46.48213" lon="5.366">
        <ele>242.8</ele>
        <time>2021-11-22T11:54:29Z</time>
      </trkpt>
      <trkpt lat="46.48218" lon="5.36593">
        <ele>242.8</ele>
        <time>2021-11-22T11:54:30Z</time>
      </trkpt>
      <trkpt lat="46.48222" lon="5.36584">
        <ele>242.6</ele>
        <time>2021-11-22T11:54:31Z</time>
      </trkpt>
      <trkpt lat="46.48228" lon="5.36565">
        <ele>242.4</ele>
        <time>2021-11-22T11:54:33Z</time>
      </trkpt>
      <trkpt lat="46.48232" lon="5.36556">
        <ele>242.2</ele>
        <time>2021-11-22T11:54:34Z</time>
      </trkpt>
      <trkpt lat="46.48238" lon="5.36549">
        <ele>242</ele>
        <time>2021-11-22T11:54:35Z</time>
      </trkpt>
      <trkpt lat="46.48243" lon="5.36543">
        <ele>241.8</ele>
        <time>2021-11-22T11:54:36Z</time>
      </trkpt>
      <trkpt lat="46.48279" lon="5.36504">
        <ele>241</ele>
        <time>2021-11-22T11:54:42Z</time>
      </trkpt>
      <trkpt lat="46.48309" lon="5.3647">
        <ele>240.4</ele>
        <time>2021-11-22T11:54:47Z</time>
      </trkpt>
      <trkpt lat="46.48315" lon="5.36463">
        <ele>240.2</ele>
        <time>2021-11-22T11:54:48Z</time>
      </trkpt>
      <trkpt lat="46.48327" lon="5.36449">
        <ele>239.8</ele>
        <time>2021-11-22T11:54:50Z</time>
      </trkpt>
      <trkpt lat="46.48359" lon="5.36416">
        <ele>238.8</ele>
        <time>2021-11-22T11:54:55Z</time>
      </trkpt>
      <trkpt lat="46.48365" lon="5.36409">
        <ele>238.4</ele>
        <time>2021-11-22T11:54:56Z</time>
      </trkpt>
      <trkpt lat="46.48384" lon="5.36388">
        <ele>237.2</ele>
        <time>2021-11-22T11:54:59Z</time>
      </trkpt>
      <trkpt lat="46.48417" lon="5.3636">
        <ele>236.2</ele>
        <time>2021-11-22T11:55:04Z</time>
      </trkpt>
      <trkpt lat="46.48451" lon="5.36348">
        <ele>235.6</ele>
        <time>2021-11-22T11:55:09Z</time>
      </trkpt>
      <trkpt lat="46.48506" lon="5.3634">
        <ele>235.2</ele>
        <time>2021-11-22T11:55:17Z</time>
      </trkpt>
      <trkpt lat="46.48532" lon="5.36335">
        <ele>235</ele>
        <time>2021-11-22T11:55:21Z</time>
      </trkpt>
      <trkpt lat="46.48577" lon="5.36327">
        <ele>234.6</ele>
        <time>2021-11-22T11:55:28Z</time>
      </trkpt>
      <trkpt lat="46.48613" lon="5.36321">
        <ele>234</ele>
        <time>2021-11-22T11:55:33Z</time>
      </trkpt>
      <trkpt lat="46.4862" lon="5.36316">
        <ele>234</ele>
        <time>2021-11-22T11:55:34Z</time>
      </trkpt>
      <trkpt lat="46.48625" lon="5.36309">
        <ele>233.6</ele>
        <time>2021-11-22T11:55:35Z</time>
      </trkpt>
      <trkpt lat="46.48634" lon="5.36289">
        <ele>232.8</ele>
        <time>2021-11-22T11:55:37Z</time>
      </trkpt>
      <trkpt lat="46.4864" lon="5.36253">
        <ele>231.4</ele>
        <time>2021-11-22T11:55:40Z</time>
      </trkpt>
      <trkpt lat="46.48641" lon="5.36241">
        <ele>231</ele>
        <time>2021-11-22T11:55:41Z</time>
      </trkpt>
      <trkpt lat="46.48643" lon="5.36217">
        <ele>230.2</ele>
        <time>2021-11-22T11:55:43Z</time>
      </trkpt>
      <trkpt lat="46.48646" lon="5.36168">
        <ele>228.8</ele>
        <time>2021-11-22T11:55:47Z</time>
      </trkpt>
      <trkpt lat="46.48648" lon="5.36156">
        <ele>228.6</ele>
        <time>2021-11-22T11:55:48Z</time>
      </trkpt>
      <trkpt lat="46.48658" lon="5.36098">
        <ele>227.8</ele>
        <time>2021-11-22T11:55:53Z</time>
      </trkpt>
      <trkpt lat="46.4866" lon="5.36087">
        <ele>227.6</ele>
        <time>2021-11-22T11:55:54Z</time>
      </trkpt>
      <trkpt lat="46.48672" lon="5.36039">
        <ele>227.4</ele>
        <time>2021-11-22T11:55:59Z</time>
      </trkpt>
      <trkpt lat="46.48684" lon="5.35979">
        <ele>228.6</ele>
        <time>2021-11-22T11:56:06Z</time>
      </trkpt>
      <trkpt lat="46.48685" lon="5.35969">
        <ele>229</ele>
        <time>2021-11-22T11:56:07Z</time>
      </trkpt>
      <trkpt lat="46.48691" lon="5.35929">
        <ele>229.6</ele>
        <time>2021-11-22T11:56:11Z</time>
      </trkpt>
      <trkpt lat="46.48693" lon="5.35919">
        <ele>229.6</ele>
        <time>2021-11-22T11:56:12Z</time>
      </trkpt>
      <trkpt lat="46.48706" lon="5.35879">
        <ele>229.4</ele>
        <time>2021-11-22T11:56:16Z</time>
      </trkpt>
      <trkpt lat="46.48733" lon="5.35809">
        <ele>228</ele>
        <time>2021-11-22T11:56:23Z</time>
      </trkpt>
      <trkpt lat="46.48741" lon="5.35791">
        <ele>227.6</ele>
        <time>2021-11-22T11:56:25Z</time>
      </trkpt>
      <trkpt lat="46.48769" lon="5.35726">
        <ele>226.6</ele>
        <time>2021-11-22T11:56:32Z</time>
      </trkpt>
      <trkpt lat="46.48777" lon="5.35707">
        <ele>226.4</ele>
        <time>2021-11-22T11:56:34Z</time>
      </trkpt>
      <trkpt lat="46.48809" lon="5.3564">
        <ele>226.4</ele>
        <time>2021-11-22T11:56:42Z</time>
      </trkpt>
      <trkpt lat="46.4884" lon="5.35574">
        <ele>226.6</ele>
        <time>2021-11-22T11:56:50Z</time>
      </trkpt>
      <trkpt lat="46.48844" lon="5.35568">
        <ele>226.6</ele>
        <time>2021-11-22T11:56:51Z</time>
      </trkpt>
      <trkpt lat="46.4885" lon="5.35564">
        <ele>226.6</ele>
        <time>2021-11-22T11:56:52Z</time>
      </trkpt>
      <trkpt lat="46.48863" lon="5.3556">
        <ele>226.6</ele>
        <time>2021-11-22T11:56:54Z</time>
      </trkpt>
      <trkpt lat="46.48914" lon="5.35559">
        <ele>226.2</ele>
        <time>2021-11-22T11:57:01Z</time>
      </trkpt>
      <trkpt lat="46.48937" lon="5.35558">
        <ele>225.2</ele>
        <time>2021-11-22T11:57:04Z</time>
      </trkpt>
      <trkpt lat="46.48969" lon="5.35556">
        <ele>224.2</ele>
        <time>2021-11-22T11:57:08Z</time>
      </trkpt>
      <trkpt lat="46.48985" lon="5.35555">
        <ele>223.6</ele>
        <time>2021-11-22T11:57:10Z</time>
      </trkpt>
      <trkpt lat="46.48993" lon="5.35555">
        <ele>223.2</ele>
        <time>2021-11-22T11:57:11Z</time>
      </trkpt>
      <trkpt lat="46.49043" lon="5.35551">
        <ele>222.6</ele>
        <time>2021-11-22T11:57:18Z</time>
      </trkpt>
      <trkpt lat="46.49082" lon="5.35551">
        <ele>223.4</ele>
        <time>2021-11-22T11:57:24Z</time>
      </trkpt>
      <trkpt lat="46.49115" lon="5.35548">
        <ele>224.2</ele>
        <time>2021-11-22T11:57:30Z</time>
      </trkpt>
      <trkpt lat="46.49147" lon="5.35545">
        <ele>225.2</ele>
        <time>2021-11-22T11:57:36Z</time>
      </trkpt>
      <trkpt lat="46.49157" lon="5.35545">
        <ele>225.4</ele>
        <time>2021-11-22T11:57:38Z</time>
      </trkpt>
      <trkpt lat="46.49162" lon="5.35545">
        <ele>225.8</ele>
        <time>2021-11-22T11:57:39Z</time>
      </trkpt>
      <trkpt lat="46.49174" lon="5.35545">
        <ele>226.2</ele>
        <time>2021-11-22T11:57:41Z</time>
      </trkpt>
      <trkpt lat="46.49179" lon="5.35545">
        <ele>226.4</ele>
        <time>2021-11-22T11:57:42Z</time>
      </trkpt>
      <trkpt lat="46.49186" lon="5.35544">
        <ele>226.4</ele>
        <time>2021-11-22T11:57:43Z</time>
      </trkpt>
      <trkpt lat="46.49236" lon="5.35541">
        <ele>227.2</ele>
        <time>2021-11-22T11:57:51Z</time>
      </trkpt>
      <trkpt lat="46.4928" lon="5.35539">
        <ele>227.4</ele>
        <time>2021-11-22T11:57:57Z</time>
      </trkpt>
      <trkpt lat="46.49336" lon="5.35537">
        <ele>227</ele>
        <time>2021-11-22T11:58:05Z</time>
      </trkpt>
      <trkpt lat="46.49393" lon="5.35539">
        <ele>226.2</ele>
        <time>2021-11-22T11:58:13Z</time>
      </trkpt>
      <trkpt lat="46.49427" lon="5.35552">
        <ele>225</ele>
        <time>2021-11-22T11:58:18Z</time>
      </trkpt>
      <trkpt lat="46.49447" lon="5.3556">
        <ele>224.8</ele>
        <time>2021-11-22T11:58:21Z</time>
      </trkpt>
      <trkpt lat="46.495" lon="5.35582">
        <ele>224.4</ele>
        <time>2021-11-22T11:58:29Z</time>
      </trkpt>
      <trkpt lat="46.49512" lon="5.35587">
        <ele>224.4</ele>
        <time>2021-11-22T11:58:31Z</time>
      </trkpt>
      <trkpt lat="46.49553" lon="5.35603">
        <ele>224</ele>
        <time>2021-11-22T11:58:37Z</time>
      </trkpt>
      <trkpt lat="46.49573" lon="5.3561">
        <ele>223.4</ele>
        <time>2021-11-22T11:58:40Z</time>
      </trkpt>
      <trkpt lat="46.49607" lon="5.35621">
        <ele>222.6</ele>
        <time>2021-11-22T11:58:45Z</time>
      </trkpt>
      <trkpt lat="46.49614" lon="5.35623">
        <ele>222.6</ele>
        <time>2021-11-22T11:58:46Z</time>
      </trkpt>
      <trkpt lat="46.49654" lon="5.35635">
        <ele>222</ele>
        <time>2021-11-22T11:58:52Z</time>
      </trkpt>
      <trkpt lat="46.49684" lon="5.35646">
        <ele>221.6</ele>
        <time>2021-11-22T11:58:57Z</time>
      </trkpt>
      <trkpt lat="46.49689" lon="5.35647">
        <ele>221.4</ele>
        <time>2021-11-22T11:58:58Z</time>
      </trkpt>
      <trkpt lat="46.49692" lon="5.35649">
        <ele>221.2</ele>
        <time>2021-11-22T11:58:59Z</time>
      </trkpt>
      <trkpt lat="46.49698" lon="5.35652">
        <ele>220.8</ele>
        <time>2021-11-22T11:59:02Z</time>
      </trkpt>
      <trkpt lat="46.49703" lon="5.35645">
        <ele>220.4</ele>
        <time>2021-11-22T11:59:04Z</time>
      </trkpt>
      <trkpt lat="46.49704" lon="5.35639">
        <ele>220.4</ele>
        <time>2021-11-22T11:59:05Z</time>
      </trkpt>
      <trkpt lat="46.49709" lon="5.35599">
        <ele>220.2</ele>
        <time>2021-11-22T11:59:10Z</time>
      </trkpt>
      <trkpt lat="46.49717" lon="5.35528">
        <ele>220</ele>
        <time>2021-11-22T11:59:17Z</time>
      </trkpt>
      <trkpt lat="46.49726" lon="5.35457">
        <ele>219.2</ele>
        <time>2021-11-22T11:59:24Z</time>
      </trkpt>
      <trkpt lat="46.49731" lon="5.35414">
        <ele>218.6</ele>
        <time>2021-11-22T11:59:28Z</time>
      </trkpt>
      <trkpt lat="46.49733" lon="5.35393">
        <ele>218.2</ele>
        <time>2021-11-22T11:59:30Z</time>
      </trkpt>
      <trkpt lat="46.49735" lon="5.3534">
        <ele>217.4</ele>
        <time>2021-11-22T11:59:35Z</time>
      </trkpt>
      <trkpt lat="46.49729" lon="5.35292">
        <ele>217.2</ele>
        <time>2021-11-22T11:59:40Z</time>
      </trkpt>
      <trkpt lat="46.49717" lon="5.35231">
        <ele>218.2</ele>
        <time>2021-11-22T11:59:47Z</time>
      </trkpt>
      <trkpt lat="46.49703" lon="5.35168">
        <ele>219</ele>
        <time>2021-11-22T11:59:54Z</time>
      </trkpt>
      <trkpt lat="46.49691" lon="5.35108">
        <ele>218.6</ele>
        <time>2021-11-22T12:00:00Z</time>
      </trkpt>
      <trkpt lat="46.49676" lon="5.35033">
        <ele>218.2</ele>
        <time>2021-11-22T12:00:08Z</time>
      </trkpt>
      <trkpt lat="46.49665" lon="5.34976">
        <ele>218.8</ele>
        <time>2021-11-22T12:00:15Z</time>
      </trkpt>
      <trkpt lat="46.49662" lon="5.3496">
        <ele>219.2</ele>
        <time>2021-11-22T12:00:17Z</time>
      </trkpt>
      <trkpt lat="46.49654" lon="5.34909">
        <ele>220.4</ele>
        <time>2021-11-22T12:00:23Z</time>
      </trkpt>
      <trkpt lat="46.49643" lon="5.3484">
        <ele>220.8</ele>
        <time>2021-11-22T12:00:31Z</time>
      </trkpt>
      <trkpt lat="46.49635" lon="5.34779">
        <ele>220.6</ele>
        <time>2021-11-22T12:00:37Z</time>
      </trkpt>
      <trkpt lat="46.49637" lon="5.3472">
        <ele>218.8</ele>
        <time>2021-11-22T12:00:42Z</time>
      </trkpt>
      <trkpt lat="46.49639" lon="5.34668">
        <ele>217.2</ele>
        <time>2021-11-22T12:00:46Z</time>
      </trkpt>
      <trkpt lat="46.4964" lon="5.34655">
        <ele>217</ele>
        <time>2021-11-22T12:00:47Z</time>
      </trkpt>
      <trkpt lat="46.49643" lon="5.34629">
        <ele>216</ele>
        <time>2021-11-22T12:00:49Z</time>
      </trkpt>
      <trkpt lat="46.49647" lon="5.34588">
        <ele>214.8</ele>
        <time>2021-11-22T12:00:52Z</time>
      </trkpt>
      <trkpt lat="46.49649" lon="5.34575">
        <ele>214.2</ele>
        <time>2021-11-22T12:00:53Z</time>
      </trkpt>
      <trkpt lat="46.49652" lon="5.3455">
        <ele>213.4</ele>
        <time>2021-11-22T12:00:55Z</time>
      </trkpt>
      <trkpt lat="46.4966" lon="5.34517">
        <ele>212.4</ele>
        <time>2021-11-22T12:00:58Z</time>
      </trkpt>
      <trkpt lat="46.49662" lon="5.34507">
        <ele>212.2</ele>
        <time>2021-11-22T12:00:59Z</time>
      </trkpt>
      <trkpt lat="46.49678" lon="5.3445">
        <ele>212.4</ele>
        <time>2021-11-22T12:01:05Z</time>
      </trkpt>
      <trkpt lat="46.49686" lon="5.34417">
        <ele>213.6</ele>
        <time>2021-11-22T12:01:09Z</time>
      </trkpt>
      <trkpt lat="46.49692" lon="5.34402">
        <ele>214</ele>
        <time>2021-11-22T12:01:11Z</time>
      </trkpt>
      <trkpt lat="46.49695" lon="5.34395">
        <ele>214.2</ele>
        <time>2021-11-22T12:01:12Z</time>
      </trkpt>
      <trkpt lat="46.49698" lon="5.3438">
        <ele>214.6</ele>
        <time>2021-11-22T12:01:14Z</time>
      </trkpt>
      <trkpt lat="46.497" lon="5.34373">
        <ele>214.8</ele>
        <time>2021-11-22T12:01:15Z</time>
      </trkpt>
      <trkpt lat="46.49703" lon="5.34366">
        <ele>215</ele>
        <time>2021-11-22T12:01:16Z</time>
      </trkpt>
      <trkpt lat="46.49709" lon="5.34347">
        <ele>215.8</ele>
        <time>2021-11-22T12:01:19Z</time>
      </trkpt>
      <trkpt lat="46.49711" lon="5.3434">
        <ele>216</ele>
        <time>2021-11-22T12:01:20Z</time>
      </trkpt>
      <trkpt lat="46.49717" lon="5.34327">
        <ele>216.8</ele>
        <time>2021-11-22T12:01:22Z</time>
      </trkpt>
      <trkpt lat="46.49724" lon="5.34313">
        <ele>217</ele>
        <time>2021-11-22T12:01:24Z</time>
      </trkpt>
      <trkpt lat="46.49727" lon="5.34305">
        <ele>217.2</ele>
        <time>2021-11-22T12:01:25Z</time>
      </trkpt>
      <trkpt lat="46.49753" lon="5.3426">
        <ele>217.8</ele>
        <time>2021-11-22T12:01:31Z</time>
      </trkpt>
      <trkpt lat="46.49757" lon="5.34253">
        <ele>217.8</ele>
        <time>2021-11-22T12:01:32Z</time>
      </trkpt>
      <trkpt lat="46.49779" lon="5.34215">
        <ele>217.8</ele>
        <time>2021-11-22T12:01:37Z</time>
      </trkpt>
      <trkpt lat="46.4979" lon="5.34191">
        <ele>217.8</ele>
        <time>2021-11-22T12:01:40Z</time>
      </trkpt>
      <trkpt lat="46.49798" lon="5.34178">
        <ele>218</ele>
        <time>2021-11-22T12:01:42Z</time>
      </trkpt>
      <trkpt lat="46.49805" lon="5.34164">
        <ele>218.2</ele>
        <time>2021-11-22T12:01:44Z</time>
      </trkpt>
      <trkpt lat="46.49818" lon="5.34144">
        <ele>218</ele>
        <time>2021-11-22T12:01:47Z</time>
      </trkpt>
      <trkpt lat="46.49838" lon="5.34111">
        <ele>218.2</ele>
        <time>2021-11-22T12:01:52Z</time>
      </trkpt>
      <trkpt lat="46.49843" lon="5.34104">
        <ele>218.2</ele>
        <time>2021-11-22T12:01:53Z</time>
      </trkpt>
      <trkpt lat="46.49884" lon="5.34045">
        <ele>218</ele>
        <time>2021-11-22T12:02:02Z</time>
      </trkpt>
      <trkpt lat="46.49925" lon="5.33998">
        <ele>218.2</ele>
        <time>2021-11-22T12:02:11Z</time>
      </trkpt>
      <trkpt lat="46.49939" lon="5.3398">
        <ele>219.2</ele>
        <time>2021-11-22T12:02:15Z</time>
      </trkpt>
      <trkpt lat="46.49948" lon="5.33971">
        <ele>219.6</ele>
        <time>2021-11-22T12:02:17Z</time>
      </trkpt>
      <trkpt lat="46.4997" lon="5.33949">
        <ele>220.2</ele>
        <time>2021-11-22T12:02:22Z</time>
      </trkpt>
      <trkpt lat="46.4998" lon="5.3394">
        <ele>220.6</ele>
        <time>2021-11-22T12:02:24Z</time>
      </trkpt>
      <trkpt lat="46.49991" lon="5.33929">
        <ele>220.8</ele>
        <time>2021-11-22T12:02:26Z</time>
      </trkpt>
      <trkpt lat="46.50001" lon="5.33918">
        <ele>221.2</ele>
        <time>2021-11-22T12:02:28Z</time>
      </trkpt>
      <trkpt lat="46.50012" lon="5.33908">
        <ele>221.2</ele>
        <time>2021-11-22T12:02:30Z</time>
      </trkpt>
      <trkpt lat="46.50029" lon="5.33889">
        <ele>221.4</ele>
        <time>2021-11-22T12:02:33Z</time>
      </trkpt>
      <trkpt lat="46.5005" lon="5.33863">
        <ele>221.2</ele>
        <time>2021-11-22T12:02:37Z</time>
      </trkpt>
      <trkpt lat="46.50072" lon="5.33837">
        <ele>220.6</ele>
        <time>2021-11-22T12:02:41Z</time>
      </trkpt>
      <trkpt lat="46.5009" lon="5.33818">
        <ele>220.2</ele>
        <time>2021-11-22T12:02:44Z</time>
      </trkpt>
      <trkpt lat="46.50119" lon="5.33786">
        <ele>218.8</ele>
        <time>2021-11-22T12:02:49Z</time>
      </trkpt>
      <trkpt lat="46.50125" lon="5.3378">
        <ele>218.8</ele>
        <time>2021-11-22T12:02:50Z</time>
      </trkpt>
      <trkpt lat="46.50173" lon="5.33727">
        <ele>218.4</ele>
        <time>2021-11-22T12:02:59Z</time>
      </trkpt>
      <trkpt lat="46.5022" lon="5.33678">
        <ele>219</ele>
        <time>2021-11-22T12:03:08Z</time>
      </trkpt>
      <trkpt lat="46.50225" lon="5.33673">
        <ele>219</ele>
        <time>2021-11-22T12:03:09Z</time>
      </trkpt>
      <trkpt lat="46.50267" lon="5.33627">
        <ele>218.8</ele>
        <time>2021-11-22T12:03:17Z</time>
      </trkpt>
      <trkpt lat="46.50316" lon="5.33574">
        <ele>218</ele>
        <time>2021-11-22T12:03:26Z</time>
      </trkpt>
      <trkpt lat="46.50327" lon="5.33563">
        <ele>218</ele>
        <time>2021-11-22T12:03:28Z</time>
      </trkpt>
      <trkpt lat="46.50349" lon="5.3354">
        <ele>217.6</ele>
        <time>2021-11-22T12:03:32Z</time>
      </trkpt>
      <trkpt lat="46.5037" lon="5.33517">
        <ele>217.4</ele>
        <time>2021-11-22T12:03:36Z</time>
      </trkpt>
      <trkpt lat="46.50405" lon="5.33481">
        <ele>217</ele>
        <time>2021-11-22T12:03:42Z</time>
      </trkpt>
      <trkpt lat="46.50422" lon="5.33461">
        <ele>216.4</ele>
        <time>2021-11-22T12:03:45Z</time>
      </trkpt>
      <trkpt lat="46.50439" lon="5.3344">
        <ele>216.2</ele>
        <time>2021-11-22T12:03:48Z</time>
      </trkpt>
      <trkpt lat="46.50454" lon="5.33416">
        <ele>215.8</ele>
        <time>2021-11-22T12:03:51Z</time>
      </trkpt>
      <trkpt lat="46.50462" lon="5.33396">
        <ele>215.4</ele>
        <time>2021-11-22T12:03:53Z</time>
      </trkpt>
      <trkpt lat="46.50464" lon="5.33386">
        <ele>215</ele>
        <time>2021-11-22T12:03:54Z</time>
      </trkpt>
      <trkpt lat="46.50469" lon="5.33366">
        <ele>214.8</ele>
        <time>2021-11-22T12:03:56Z</time>
      </trkpt>
      <trkpt lat="46.5047" lon="5.33355">
        <ele>214.6</ele>
        <time>2021-11-22T12:03:57Z</time>
      </trkpt>
      <trkpt lat="46.50472" lon="5.33334">
        <ele>214.6</ele>
        <time>2021-11-22T12:03:59Z</time>
      </trkpt>
      <trkpt lat="46.50473" lon="5.33303">
        <ele>214.4</ele>
        <time>2021-11-22T12:04:02Z</time>
      </trkpt>
      <trkpt lat="46.50473" lon="5.33257">
        <ele>214.6</ele>
        <time>2021-11-22T12:04:07Z</time>
      </trkpt>
      <trkpt lat="46.50475" lon="5.3323">
        <ele>215</ele>
        <time>2021-11-22T12:04:10Z</time>
      </trkpt>
      <trkpt lat="46.50474" lon="5.33201">
        <ele>215.2</ele>
        <time>2021-11-22T12:04:13Z</time>
      </trkpt>
      <trkpt lat="46.50473" lon="5.3314">
        <ele>215</ele>
        <time>2021-11-22T12:04:19Z</time>
      </trkpt>
      <trkpt lat="46.50473" lon="5.33129">
        <ele>215</ele>
        <time>2021-11-22T12:04:20Z</time>
      </trkpt>
      <trkpt lat="46.50478" lon="5.33075">
        <ele>214.2</ele>
        <time>2021-11-22T12:04:25Z</time>
      </trkpt>
      <trkpt lat="46.50477" lon="5.33063">
        <ele>213.6</ele>
        <time>2021-11-22T12:04:26Z</time>
      </trkpt>
      <trkpt lat="46.50476" lon="5.33023">
        <ele>212.2</ele>
        <time>2021-11-22T12:04:29Z</time>
      </trkpt>
      <trkpt lat="46.50476" lon="5.33009">
        <ele>212</ele>
        <time>2021-11-22T12:04:30Z</time>
      </trkpt>
      <trkpt lat="46.50477" lon="5.32982">
        <ele>211</ele>
        <time>2021-11-22T12:04:32Z</time>
      </trkpt>
      <trkpt lat="46.50478" lon="5.32939">
        <ele>209.2</ele>
        <time>2021-11-22T12:04:35Z</time>
      </trkpt>
      <trkpt lat="46.50478" lon="5.32914">
        <ele>208.2</ele>
        <time>2021-11-22T12:04:37Z</time>
      </trkpt>
      <trkpt lat="46.50478" lon="5.32899">
        <ele>207.4</ele>
        <time>2021-11-22T12:04:38Z</time>
      </trkpt>
      <trkpt lat="46.50477" lon="5.32855">
        <ele>206.2</ele>
        <time>2021-11-22T12:04:41Z</time>
      </trkpt>
      <trkpt lat="46.50477" lon="5.32826">
        <ele>204.8</ele>
        <time>2021-11-22T12:04:43Z</time>
      </trkpt>
      <trkpt lat="46.50478" lon="5.32794">
        <ele>203.6</ele>
        <time>2021-11-22T12:04:45Z</time>
      </trkpt>
      <trkpt lat="46.50478" lon="5.32767">
        <ele>202.8</ele>
        <time>2021-11-22T12:04:47Z</time>
      </trkpt>
      <trkpt lat="46.50478" lon="5.32741">
        <ele>202.4</ele>
        <time>2021-11-22T12:04:49Z</time>
      </trkpt>
      <trkpt lat="46.50479" lon="5.32663">
        <ele>201.6</ele>
        <time>2021-11-22T12:04:55Z</time>
      </trkpt>
      <trkpt lat="46.5048" lon="5.32638">
        <ele>201.4</ele>
        <time>2021-11-22T12:04:57Z</time>
      </trkpt>
      <trkpt lat="46.50477" lon="5.32563">
        <ele>200.6</ele>
        <time>2021-11-22T12:05:03Z</time>
      </trkpt>
      <trkpt lat="46.50474" lon="5.32513">
        <ele>200.2</ele>
        <time>2021-11-22T12:05:07Z</time>
      </trkpt>
      <trkpt lat="46.50468" lon="5.3244">
        <ele>199.4</ele>
        <time>2021-11-22T12:05:13Z</time>
      </trkpt>
      <trkpt lat="46.50466" lon="5.32428">
        <ele>199.2</ele>
        <time>2021-11-22T12:05:14Z</time>
      </trkpt>
      <trkpt lat="46.50452" lon="5.32361">
        <ele>198.4</ele>
        <time>2021-11-22T12:05:20Z</time>
      </trkpt>
      <trkpt lat="46.50442" lon="5.32318">
        <ele>198.2</ele>
        <time>2021-11-22T12:05:24Z</time>
      </trkpt>
      <trkpt lat="46.50435" lon="5.32275">
        <ele>198.2</ele>
        <time>2021-11-22T12:05:28Z</time>
      </trkpt>
      <trkpt lat="46.50433" lon="5.32209">
        <ele>198.4</ele>
        <time>2021-11-22T12:05:34Z</time>
      </trkpt>
      <trkpt lat="46.50436" lon="5.3213">
        <ele>197.8</ele>
        <time>2021-11-22T12:05:41Z</time>
      </trkpt>
      <trkpt lat="46.50436" lon="5.32095">
        <ele>197.4</ele>
        <time>2021-11-22T12:05:44Z</time>
      </trkpt>
      <trkpt lat="46.50436" lon="5.32071">
        <ele>197.2</ele>
        <time>2021-11-22T12:05:46Z</time>
      </trkpt>
      <trkpt lat="46.50438" lon="5.31989">
        <ele>196.2</ele>
        <time>2021-11-22T12:05:53Z</time>
      </trkpt>
      <trkpt lat="46.50438" lon="5.31978">
        <ele>196.2</ele>
        <time>2021-11-22T12:05:54Z</time>
      </trkpt>
      <trkpt lat="46.50438" lon="5.31966">
        <ele>196</ele>
        <time>2021-11-22T12:05:55Z</time>
      </trkpt>
      <trkpt lat="46.5044" lon="5.31889">
        <ele>195.4</ele>
        <time>2021-11-22T12:06:02Z</time>
      </trkpt>
      <trkpt lat="46.50433" lon="5.31838">
        <ele>195.2</ele>
        <time>2021-11-22T12:06:07Z</time>
      </trkpt>
      <trkpt lat="46.50431" lon="5.31828">
        <ele>195</ele>
        <time>2021-11-22T12:06:08Z</time>
      </trkpt>
      <trkpt lat="46.50413" lon="5.31759">
        <ele>194.6</ele>
        <time>2021-11-22T12:06:15Z</time>
      </trkpt>
      <trkpt lat="46.5039" lon="5.31704">
        <ele>194.8</ele>
        <time>2021-11-22T12:06:21Z</time>
      </trkpt>
      <trkpt lat="46.50358" lon="5.31659">
        <ele>194.6</ele>
        <time>2021-11-22T12:06:27Z</time>
      </trkpt>
      <trkpt lat="46.50319" lon="5.31627">
        <ele>193.8</ele>
        <time>2021-11-22T12:06:33Z</time>
      </trkpt>
      <trkpt lat="46.5027" lon="5.31588">
        <ele>193.4</ele>
        <time>2021-11-22T12:06:41Z</time>
      </trkpt>
      <trkpt lat="46.50237" lon="5.3155">
        <ele>193.6</ele>
        <time>2021-11-22T12:06:47Z</time>
      </trkpt>
      <trkpt lat="46.50216" lon="5.31508">
        <ele>194</ele>
        <time>2021-11-22T12:06:53Z</time>
      </trkpt>
      <trkpt lat="46.50204" lon="5.31475">
        <ele>194.8</ele>
        <time>2021-11-22T12:06:58Z</time>
      </trkpt>
      <trkpt lat="46.50199" lon="5.31462">
        <ele>195.2</ele>
        <time>2021-11-22T12:07:00Z</time>
      </trkpt>
      <trkpt lat="46.50193" lon="5.31444">
        <ele>196.2</ele>
        <time>2021-11-22T12:07:03Z</time>
      </trkpt>
      <trkpt lat="46.50181" lon="5.3141">
        <ele>197.4</ele>
        <time>2021-11-22T12:07:09Z</time>
      </trkpt>
      <trkpt lat="46.50179" lon="5.31404">
        <ele>197.8</ele>
        <time>2021-11-22T12:07:10Z</time>
      </trkpt>
      <trkpt lat="46.50172" lon="5.31381">
        <ele>198.6</ele>
        <time>2021-11-22T12:07:14Z</time>
      </trkpt>
      <trkpt lat="46.50163" lon="5.31358">
        <ele>199.6</ele>
        <time>2021-11-22T12:07:18Z</time>
      </trkpt>
      <trkpt lat="46.50161" lon="5.31353">
        <ele>200</ele>
        <time>2021-11-22T12:07:19Z</time>
      </trkpt>
      <trkpt lat="46.50148" lon="5.31315">
        <ele>200.8</ele>
        <time>2021-11-22T12:07:25Z</time>
      </trkpt>
      <trkpt lat="46.50144" lon="5.31301">
        <ele>201.2</ele>
        <time>2021-11-22T12:07:27Z</time>
      </trkpt>
      <trkpt lat="46.50132" lon="5.31264">
        <ele>202.2</ele>
        <time>2021-11-22T12:07:32Z</time>
      </trkpt>
      <trkpt lat="46.50124" lon="5.3124">
        <ele>202.2</ele>
        <time>2021-11-22T12:07:35Z</time>
      </trkpt>
      <trkpt lat="46.50098" lon="5.31165">
        <ele>201.2</ele>
        <time>2021-11-22T12:07:43Z</time>
      </trkpt>
      <trkpt lat="46.50094" lon="5.31155">
        <ele>201</ele>
        <time>2021-11-22T12:07:44Z</time>
      </trkpt>
      <trkpt lat="46.5008" lon="5.31116">
        <ele>199.8</ele>
        <time>2021-11-22T12:07:48Z</time>
      </trkpt>
      <trkpt lat="46.50072" lon="5.31089">
        <ele>199.6</ele>
        <time>2021-11-22T12:07:51Z</time>
      </trkpt>
      <trkpt lat="46.50057" lon="5.31044">
        <ele>199.6</ele>
        <time>2021-11-22T12:07:57Z</time>
      </trkpt>
      <trkpt lat="46.50047" lon="5.31015">
        <ele>201.2</ele>
        <time>2021-11-22T12:08:02Z</time>
      </trkpt>
      <trkpt lat="46.50044" lon="5.31004">
        <ele>202</ele>
        <time>2021-11-22T12:08:04Z</time>
      </trkpt>
      <trkpt lat="46.50041" lon="5.30995">
        <ele>202.4</ele>
        <time>2021-11-22T12:08:06Z</time>
      </trkpt>
      <trkpt lat="46.50032" lon="5.30972">
        <ele>203.6</ele>
        <time>2021-11-22T12:08:10Z</time>
      </trkpt>
      <trkpt lat="46.50025" lon="5.3095">
        <ele>204.8</ele>
        <time>2021-11-22T12:08:14Z</time>
      </trkpt>
      <trkpt lat="46.50019" lon="5.30934">
        <ele>205.6</ele>
        <time>2021-11-22T12:08:17Z</time>
      </trkpt>
      <trkpt lat="46.50017" lon="5.30929">
        <ele>206</ele>
        <time>2021-11-22T12:08:18Z</time>
      </trkpt>
      <trkpt lat="46.50007" lon="5.30904">
        <ele>206.8</ele>
        <time>2021-11-22T12:08:23Z</time>
      </trkpt>
      <trkpt lat="46.50005" lon="5.30898">
        <ele>207</ele>
        <time>2021-11-22T12:08:24Z</time>
      </trkpt>
      <trkpt lat="46.50004" lon="5.30893">
        <ele>207.4</ele>
        <time>2021-11-22T12:08:25Z</time>
      </trkpt>
      <trkpt lat="46.49997" lon="5.30877">
        <ele>208</ele>
        <time>2021-11-22T12:08:28Z</time>
      </trkpt>
      <trkpt lat="46.49994" lon="5.30867">
        <ele>208.6</ele>
        <time>2021-11-22T12:08:30Z</time>
      </trkpt>
      <trkpt lat="46.4999" lon="5.30856">
        <ele>209.2</ele>
        <time>2021-11-22T12:08:32Z</time>
      </trkpt>
      <trkpt lat="46.49986" lon="5.30844">
        <ele>209.6</ele>
        <time>2021-11-22T12:08:34Z</time>
      </trkpt>
      <trkpt lat="46.49982" lon="5.30833">
        <ele>210.2</ele>
        <time>2021-11-22T12:08:36Z</time>
      </trkpt>
      <trkpt lat="46.49973" lon="5.30797">
        <ele>211</ele>
        <time>2021-11-22T12:08:42Z</time>
      </trkpt>
      <trkpt lat="46.49969" lon="5.30777">
        <ele>211.4</ele>
        <time>2021-11-22T12:08:45Z</time>
      </trkpt>
      <trkpt lat="46.49968" lon="5.30772">
        <ele>211.4</ele>
        <time>2021-11-22T12:08:46Z</time>
      </trkpt>
      <trkpt lat="46.49964" lon="5.30753">
        <ele>211.8</ele>
        <time>2021-11-22T12:08:49Z</time>
      </trkpt>
      <trkpt lat="46.49958" lon="5.30727">
        <ele>212.4</ele>
        <time>2021-11-22T12:08:53Z</time>
      </trkpt>
      <trkpt lat="46.49956" lon="5.30713">
        <ele>212.6</ele>
        <time>2021-11-22T12:08:55Z</time>
      </trkpt>
      <trkpt lat="46.49948" lon="5.30663">
        <ele>212.2</ele>
        <time>2021-11-22T12:09:01Z</time>
      </trkpt>
      <trkpt lat="46.49937" lon="5.30604">
        <ele>211</ele>
        <time>2021-11-22T12:09:07Z</time>
      </trkpt>
      <trkpt lat="46.49935" lon="5.30592">
        <ele>210.6</ele>
        <time>2021-11-22T12:09:08Z</time>
      </trkpt>
      <trkpt lat="46.49934" lon="5.30581">
        <ele>210.4</ele>
        <time>2021-11-22T12:09:09Z</time>
      </trkpt>
      <trkpt lat="46.49936" lon="5.30546">
        <ele>209.6</ele>
        <time>2021-11-22T12:09:12Z</time>
      </trkpt>
      <trkpt lat="46.49943" lon="5.30513">
        <ele>208.4</ele>
        <time>2021-11-22T12:09:15Z</time>
      </trkpt>
      <trkpt lat="46.49947" lon="5.30502">
        <ele>208.2</ele>
        <time>2021-11-22T12:09:16Z</time>
      </trkpt>
      <trkpt lat="46.4996" lon="5.30472">
        <ele>207.2</ele>
        <time>2021-11-22T12:09:19Z</time>
      </trkpt>
      <trkpt lat="46.49966" lon="5.30463">
        <ele>206.8</ele>
        <time>2021-11-22T12:09:20Z</time>
      </trkpt>
      <trkpt lat="46.49986" lon="5.3044">
        <ele>205.8</ele>
        <time>2021-11-22T12:09:23Z</time>
      </trkpt>
      <trkpt lat="46.49994" lon="5.30433">
        <ele>205.4</ele>
        <time>2021-11-22T12:09:24Z</time>
      </trkpt>
      <trkpt lat="46.50009" lon="5.30421">
        <ele>204.4</ele>
        <time>2021-11-22T12:09:26Z</time>
      </trkpt>
      <trkpt lat="46.50031" lon="5.30403">
        <ele>203.4</ele>
        <time>2021-11-22T12:09:29Z</time>
      </trkpt>
      <trkpt lat="46.50038" lon="5.30397">
        <ele>202.8</ele>
        <time>2021-11-22T12:09:30Z</time>
      </trkpt>
      <trkpt lat="46.50056" lon="5.30375">
        <ele>202.2</ele>
        <time>2021-11-22T12:09:33Z</time>
      </trkpt>
      <trkpt lat="46.50061" lon="5.30367">
        <ele>202.2</ele>
        <time>2021-11-22T12:09:34Z</time>
      </trkpt>
      <trkpt lat="46.50078" lon="5.30324">
        <ele>202.4</ele>
        <time>2021-11-22T12:09:39Z</time>
      </trkpt>
      <trkpt lat="46.50086" lon="5.30291">
        <ele>203.2</ele>
        <time>2021-11-22T12:09:43Z</time>
      </trkpt>
      <trkpt lat="46.50087" lon="5.30282">
        <ele>203.4</ele>
        <time>2021-11-22T12:09:44Z</time>
      </trkpt>
      <trkpt lat="46.50088" lon="5.30274">
        <ele>203.4</ele>
        <time>2021-11-22T12:09:45Z</time>
      </trkpt>
      <trkpt lat="46.50089" lon="5.30241">
        <ele>204.6</ele>
        <time>2021-11-22T12:09:49Z</time>
      </trkpt>
      <trkpt lat="46.5009" lon="5.30223">
        <ele>205.2</ele>
        <time>2021-11-22T12:09:51Z</time>
      </trkpt>
      <trkpt lat="46.50092" lon="5.30196">
        <ele>205.6</ele>
        <time>2021-11-22T12:09:54Z</time>
      </trkpt>
      <trkpt lat="46.50092" lon="5.30177">
        <ele>205.8</ele>
        <time>2021-11-22T12:09:56Z</time>
      </trkpt>
      <trkpt lat="46.50092" lon="5.30106">
        <ele>206.6</ele>
        <time>2021-11-22T12:10:04Z</time>
      </trkpt>
      <trkpt lat="46.50092" lon="5.3008">
        <ele>206.8</ele>
        <time>2021-11-22T12:10:07Z</time>
      </trkpt>
      <trkpt lat="46.50091" lon="5.30018">
        <ele>207.2</ele>
        <time>2021-11-22T12:10:14Z</time>
      </trkpt>
      <trkpt lat="46.50081" lon="5.29965">
        <ele>207.4</ele>
        <time>2021-11-22T12:10:20Z</time>
      </trkpt>
      <trkpt lat="46.50058" lon="5.29914">
        <ele>207.4</ele>
        <time>2021-11-22T12:10:26Z</time>
      </trkpt>
      <trkpt lat="46.50028" lon="5.29876">
        <ele>206.8</ele>
        <time>2021-11-22T12:10:32Z</time>
      </trkpt>
      <trkpt lat="46.50024" lon="5.2987">
        <ele>206.6</ele>
        <time>2021-11-22T12:10:33Z</time>
      </trkpt>
      <trkpt lat="46.50023" lon="5.29856">
        <ele>206.2</ele>
        <time>2021-11-22T12:10:35Z</time>
      </trkpt>
      <trkpt lat="46.50029" lon="5.29843">
        <ele>206</ele>
        <time>2021-11-22T12:10:37Z</time>
      </trkpt>
      <trkpt lat="46.50034" lon="5.29837">
        <ele>205.8</ele>
        <time>2021-11-22T12:10:38Z</time>
      </trkpt>
      <trkpt lat="46.50039" lon="5.2983">
        <ele>205.8</ele>
        <time>2021-11-22T12:10:39Z</time>
      </trkpt>
      <trkpt lat="46.50049" lon="5.29817">
        <ele>205.4</ele>
        <time>2021-11-22T12:10:41Z</time>
      </trkpt>
      <trkpt lat="46.50066" lon="5.29803">
        <ele>205.2</ele>
        <time>2021-11-22T12:10:44Z</time>
      </trkpt>
      <trkpt lat="46.50104" lon="5.2979">
        <ele>205.6</ele>
        <time>2021-11-22T12:10:50Z</time>
      </trkpt>
      <trkpt lat="46.50138" lon="5.29781">
        <ele>206.6</ele>
        <time>2021-11-22T12:10:56Z</time>
      </trkpt>
      <trkpt lat="46.50143" lon="5.2978">
        <ele>207</ele>
        <time>2021-11-22T12:10:57Z</time>
      </trkpt>
      <trkpt lat="46.50158" lon="5.29777">
        <ele>207.8</ele>
        <time>2021-11-22T12:11:00Z</time>
      </trkpt>
      <trkpt lat="46.50179" lon="5.29774">
        <ele>209</ele>
        <time>2021-11-22T12:11:04Z</time>
      </trkpt>
      <trkpt lat="46.50188" lon="5.29773">
        <ele>209.6</ele>
        <time>2021-11-22T12:11:06Z</time>
      </trkpt>
      <trkpt lat="46.50211" lon="5.29774">
        <ele>210.2</ele>
        <time>2021-11-22T12:11:10Z</time>
      </trkpt>
      <trkpt lat="46.50222" lon="5.29775">
        <ele>210.4</ele>
        <time>2021-11-22T12:11:12Z</time>
      </trkpt>
      <trkpt lat="46.50255" lon="5.29769">
        <ele>210.6</ele>
        <time>2021-11-22T12:11:18Z</time>
      </trkpt>
      <trkpt lat="46.50298" lon="5.29753">
        <ele>211.2</ele>
        <time>2021-11-22T12:11:26Z</time>
      </trkpt>
      <trkpt lat="46.50303" lon="5.29751">
        <ele>211.2</ele>
        <time>2021-11-22T12:11:27Z</time>
      </trkpt>
      <trkpt lat="46.50355" lon="5.2973">
        <ele>211.6</ele>
        <time>2021-11-22T12:11:37Z</time>
      </trkpt>
      <trkpt lat="46.50386" lon="5.29714">
        <ele>212.2</ele>
        <time>2021-11-22T12:11:43Z</time>
      </trkpt>
      <trkpt lat="46.50402" lon="5.29704">
        <ele>212.4</ele>
        <time>2021-11-22T12:11:46Z</time>
      </trkpt>
      <trkpt lat="46.50452" lon="5.2967">
        <ele>212</ele>
        <time>2021-11-22T12:11:55Z</time>
      </trkpt>
      <trkpt lat="46.50457" lon="5.29666">
        <ele>212</ele>
        <time>2021-11-22T12:11:56Z</time>
      </trkpt>
      <trkpt lat="46.50507" lon="5.29631">
        <ele>211.4</ele>
        <time>2021-11-22T12:12:05Z</time>
      </trkpt>
      <trkpt lat="46.50557" lon="5.29595">
        <ele>211.4</ele>
        <time>2021-11-22T12:12:14Z</time>
      </trkpt>
      <trkpt lat="46.50606" lon="5.29557">
        <ele>211.4</ele>
        <time>2021-11-22T12:12:23Z</time>
      </trkpt>
      <trkpt lat="46.50617" lon="5.29548">
        <ele>211.2</ele>
        <time>2021-11-22T12:12:25Z</time>
      </trkpt>
      <trkpt lat="46.5064" lon="5.29532">
        <ele>211.2</ele>
        <time>2021-11-22T12:12:29Z</time>
      </trkpt>
      <trkpt lat="46.50652" lon="5.29528">
        <ele>211.2</ele>
        <time>2021-11-22T12:12:31Z</time>
      </trkpt>
      <trkpt lat="46.50658" lon="5.29528">
        <ele>211</ele>
        <time>2021-11-22T12:12:32Z</time>
      </trkpt>
      <trkpt lat="46.50672" lon="5.29529">
        <ele>211</ele>
        <time>2021-11-22T12:12:34Z</time>
      </trkpt>
      <trkpt lat="46.50678" lon="5.29531">
        <ele>210.8</ele>
        <time>2021-11-22T12:12:35Z</time>
      </trkpt>
      <trkpt lat="46.50698" lon="5.2954">
        <ele>210</ele>
        <time>2021-11-22T12:12:38Z</time>
      </trkpt>
      <trkpt lat="46.50724" lon="5.29552">
        <ele>209.2</ele>
        <time>2021-11-22T12:12:42Z</time>
      </trkpt>
      <trkpt lat="46.50731" lon="5.29555">
        <ele>209</ele>
        <time>2021-11-22T12:12:43Z</time>
      </trkpt>
      <trkpt lat="46.5076" lon="5.29566">
        <ele>208.2</ele>
        <time>2021-11-22T12:12:47Z</time>
      </trkpt>
      <trkpt lat="46.50768" lon="5.29567">
        <ele>207.6</ele>
        <time>2021-11-22T12:12:48Z</time>
      </trkpt>
      <trkpt lat="46.50808" lon="5.29568">
        <ele>206.4</ele>
        <time>2021-11-22T12:12:53Z</time>
      </trkpt>
      <trkpt lat="46.50825" lon="5.29569">
        <ele>206</ele>
        <time>2021-11-22T12:12:55Z</time>
      </trkpt>
      <trkpt lat="46.50843" lon="5.29571">
        <ele>204.8</ele>
        <time>2021-11-22T12:12:57Z</time>
      </trkpt>
      <trkpt lat="46.5086" lon="5.29573">
        <ele>203.6</ele>
        <time>2021-11-22T12:12:59Z</time>
      </trkpt>
      <trkpt lat="46.50886" lon="5.29575">
        <ele>202.6</ele>
        <time>2021-11-22T12:13:02Z</time>
      </trkpt>
      <trkpt lat="46.50895" lon="5.29573">
        <ele>202.4</ele>
        <time>2021-11-22T12:13:03Z</time>
      </trkpt>
      <trkpt lat="46.50904" lon="5.2957">
        <ele>201.4</ele>
        <time>2021-11-22T12:13:04Z</time>
      </trkpt>
      <trkpt lat="46.50922" lon="5.29561">
        <ele>200.2</ele>
        <time>2021-11-22T12:13:06Z</time>
      </trkpt>
      <trkpt lat="46.5095" lon="5.29541">
        <ele>198.8</ele>
        <time>2021-11-22T12:13:09Z</time>
      </trkpt>
      <trkpt lat="46.50968" lon="5.29526">
        <ele>197.6</ele>
        <time>2021-11-22T12:13:11Z</time>
      </trkpt>
      <trkpt lat="46.50977" lon="5.29518">
        <ele>197.2</ele>
        <time>2021-11-22T12:13:12Z</time>
      </trkpt>
      <trkpt lat="46.50987" lon="5.29511">
        <ele>196.2</ele>
        <time>2021-11-22T12:13:13Z</time>
      </trkpt>
      <trkpt lat="46.51006" lon="5.29496">
        <ele>194.8</ele>
        <time>2021-11-22T12:13:15Z</time>
      </trkpt>
      <trkpt lat="46.51015" lon="5.29488">
        <ele>193.4</ele>
        <time>2021-11-22T12:13:16Z</time>
      </trkpt>
      <trkpt lat="46.51034" lon="5.29473">
        <ele>191.6</ele>
        <time>2021-11-22T12:13:18Z</time>
      </trkpt>
      <trkpt lat="46.51043" lon="5.29467">
        <ele>191.2</ele>
        <time>2021-11-22T12:13:19Z</time>
      </trkpt>
      <trkpt lat="46.51062" lon="5.29455">
        <ele>190.4</ele>
        <time>2021-11-22T12:13:21Z</time>
      </trkpt>
      <trkpt lat="46.5108" lon="5.29447">
        <ele>188.6</ele>
        <time>2021-11-22T12:13:23Z</time>
      </trkpt>
      <trkpt lat="46.51089" lon="5.29443">
        <ele>188.4</ele>
        <time>2021-11-22T12:13:24Z</time>
      </trkpt>
      <trkpt lat="46.51107" lon="5.29438">
        <ele>187.6</ele>
        <time>2021-11-22T12:13:26Z</time>
      </trkpt>
      <trkpt lat="46.5114" lon="5.29428">
        <ele>187</ele>
        <time>2021-11-22T12:13:30Z</time>
      </trkpt>
      <trkpt lat="46.51194" lon="5.29414">
        <ele>186.8</ele>
        <time>2021-11-22T12:13:37Z</time>
      </trkpt>
      <trkpt lat="46.51254" lon="5.294">
        <ele>186.6</ele>
        <time>2021-11-22T12:13:45Z</time>
      </trkpt>
      <trkpt lat="46.51262" lon="5.29398">
        <ele>186.6</ele>
        <time>2021-11-22T12:13:46Z</time>
      </trkpt>
      <trkpt lat="46.51269" lon="5.29396">
        <ele>186.6</ele>
        <time>2021-11-22T12:13:47Z</time>
      </trkpt>
      <trkpt lat="46.51296" lon="5.29382">
        <ele>186.2</ele>
        <time>2021-11-22T12:13:51Z</time>
      </trkpt>
      <trkpt lat="46.51347" lon="5.29352">
        <ele>185.8</ele>
        <time>2021-11-22T12:13:59Z</time>
      </trkpt>
      <trkpt lat="46.51359" lon="5.29342">
        <ele>186</ele>
        <time>2021-11-22T12:14:01Z</time>
      </trkpt>
      <trkpt lat="46.51369" lon="5.2933">
        <ele>186</ele>
        <time>2021-11-22T12:14:03Z</time>
      </trkpt>
      <trkpt lat="46.51382" lon="5.29308">
        <ele>186.2</ele>
        <time>2021-11-22T12:14:06Z</time>
      </trkpt>
      <trkpt lat="46.51411" lon="5.29256">
        <ele>186.4</ele>
        <time>2021-11-22T12:14:13Z</time>
      </trkpt>
      <trkpt lat="46.51444" lon="5.29199">
        <ele>186.6</ele>
        <time>2021-11-22T12:14:21Z</time>
      </trkpt>
      <trkpt lat="46.51455" lon="5.29153">
        <ele>186.8</ele>
        <time>2021-11-22T12:14:26Z</time>
      </trkpt>
      <trkpt lat="46.51469" lon="5.29075">
        <ele>186</ele>
        <time>2021-11-22T12:14:34Z</time>
      </trkpt>
      <trkpt lat="46.51472" lon="5.29056">
        <ele>185.8</ele>
        <time>2021-11-22T12:14:36Z</time>
      </trkpt>
      <trkpt lat="46.51487" lon="5.28976">
        <ele>185.4</ele>
        <time>2021-11-22T12:14:44Z</time>
      </trkpt>
      <trkpt lat="46.51488" lon="5.28966">
        <ele>185.2</ele>
        <time>2021-11-22T12:14:45Z</time>
      </trkpt>
      <trkpt lat="46.51492" lon="5.28945">
        <ele>185</ele>
        <time>2021-11-22T12:14:47Z</time>
      </trkpt>
      <trkpt lat="46.51504" lon="5.28865">
        <ele>184.4</ele>
        <time>2021-11-22T12:14:55Z</time>
      </trkpt>
      <trkpt lat="46.51506" lon="5.28855">
        <ele>184.2</ele>
        <time>2021-11-22T12:14:56Z</time>
      </trkpt>
      <trkpt lat="46.5151" lon="5.28836">
        <ele>184.2</ele>
        <time>2021-11-22T12:14:58Z</time>
      </trkpt>
      <trkpt lat="46.51512" lon="5.28817">
        <ele>184</ele>
        <time>2021-11-22T12:15:00Z</time>
      </trkpt>
      <trkpt lat="46.51511" lon="5.28798">
        <ele>184.2</ele>
        <time>2021-11-22T12:15:02Z</time>
      </trkpt>
      <trkpt lat="46.51504" lon="5.28745">
        <ele>184.4</ele>
        <time>2021-11-22T12:15:08Z</time>
      </trkpt>
      <trkpt lat="46.51488" lon="5.28689">
        <ele>184.6</ele>
        <time>2021-11-22T12:15:14Z</time>
      </trkpt>
      <trkpt lat="46.51464" lon="5.28617">
        <ele>184.4</ele>
        <time>2021-11-22T12:15:22Z</time>
      </trkpt>
      <trkpt lat="46.5144" lon="5.28541">
        <ele>184.6</ele>
        <time>2021-11-22T12:15:31Z</time>
      </trkpt>
      <trkpt lat="46.51423" lon="5.28492">
        <ele>184.8</ele>
        <time>2021-11-22T12:15:37Z</time>
      </trkpt>
      <trkpt lat="46.51421" lon="5.28483">
        <ele>184.8</ele>
        <time>2021-11-22T12:15:38Z</time>
      </trkpt>
      <trkpt lat="46.51421" lon="5.28474">
        <ele>185</ele>
        <time>2021-11-22T12:15:39Z</time>
      </trkpt>
      <trkpt lat="46.51422" lon="5.28456">
        <ele>185</ele>
        <time>2021-11-22T12:15:41Z</time>
      </trkpt>
      <trkpt lat="46.51423" lon="5.28448">
        <ele>185</ele>
        <time>2021-11-22T12:15:42Z</time>
      </trkpt>
      <trkpt lat="46.51425" lon="5.2844">
        <ele>185.2</ele>
        <time>2021-11-22T12:15:43Z</time>
      </trkpt>
      <trkpt lat="46.51428" lon="5.28433">
        <ele>185.4</ele>
        <time>2021-11-22T12:15:44Z</time>
      </trkpt>
      <trkpt lat="46.51435" lon="5.2842">
        <ele>185.6</ele>
        <time>2021-11-22T12:15:46Z</time>
      </trkpt>
      <trkpt lat="46.51447" lon="5.28396">
        <ele>186.4</ele>
        <time>2021-11-22T12:15:50Z</time>
      </trkpt>
      <trkpt lat="46.51453" lon="5.28385">
        <ele>186.6</ele>
        <time>2021-11-22T12:15:52Z</time>
      </trkpt>
      <trkpt lat="46.51461" lon="5.28367">
        <ele>187.4</ele>
        <time>2021-11-22T12:15:55Z</time>
      </trkpt>
      <trkpt lat="46.51478" lon="5.28334">
        <ele>188.4</ele>
        <time>2021-11-22T12:16:01Z</time>
      </trkpt>
      <trkpt lat="46.5148" lon="5.28329">
        <ele>188.8</ele>
        <time>2021-11-22T12:16:02Z</time>
      </trkpt>
      <trkpt lat="46.51493" lon="5.283">
        <ele>190</ele>
        <time>2021-11-22T12:16:07Z</time>
      </trkpt>
      <trkpt lat="46.51499" lon="5.2829">
        <ele>190.2</ele>
        <time>2021-11-22T12:16:09Z</time>
      </trkpt>
      <trkpt lat="46.51511" lon="5.28269">
        <ele>191.2</ele>
        <time>2021-11-22T12:16:13Z</time>
      </trkpt>
      <trkpt lat="46.51522" lon="5.28248">
        <ele>192</ele>
        <time>2021-11-22T12:16:17Z</time>
      </trkpt>
      <trkpt lat="46.51524" lon="5.28243">
        <ele>192.2</ele>
        <time>2021-11-22T12:16:18Z</time>
      </trkpt>
      <trkpt lat="46.5154" lon="5.28206">
        <ele>193.4</ele>
        <time>2021-11-22T12:16:25Z</time>
      </trkpt>
      <trkpt lat="46.51549" lon="5.28178">
        <ele>194.6</ele>
        <time>2021-11-22T12:16:30Z</time>
      </trkpt>
      <trkpt lat="46.51554" lon="5.28161">
        <ele>195.2</ele>
        <time>2021-11-22T12:16:33Z</time>
      </trkpt>
      <trkpt lat="46.51559" lon="5.28143">
        <ele>195.8</ele>
        <time>2021-11-22T12:16:36Z</time>
      </trkpt>
      <trkpt lat="46.5157" lon="5.28109">
        <ele>196.6</ele>
        <time>2021-11-22T12:16:42Z</time>
      </trkpt>
      <trkpt lat="46.51582" lon="5.2807">
        <ele>197.8</ele>
        <time>2021-11-22T12:16:49Z</time>
      </trkpt>
      <trkpt lat="46.5159" lon="5.28049">
        <ele>199</ele>
        <time>2021-11-22T12:16:53Z</time>
      </trkpt>
      <trkpt lat="46.51613" lon="5.28004">
        <ele>200</ele>
        <time>2021-11-22T12:17:02Z</time>
      </trkpt>
      <trkpt lat="46.51622" lon="5.27991">
        <ele>200.4</ele>
        <time>2021-11-22T12:17:05Z</time>
      </trkpt>
      <trkpt lat="46.51642" lon="5.27969">
        <ele>201.2</ele>
        <time>2021-11-22T12:17:10Z</time>
      </trkpt>
      <trkpt lat="46.51647" lon="5.27965">
        <ele>201.2</ele>
        <time>2021-11-22T12:17:11Z</time>
      </trkpt>
      <trkpt lat="46.51671" lon="5.2794">
        <ele>201.2</ele>
        <time>2021-11-22T12:17:16Z</time>
      </trkpt>
      <trkpt lat="46.51708" lon="5.27903">
        <ele>200.4</ele>
        <time>2021-11-22T12:17:23Z</time>
      </trkpt>
      <trkpt lat="46.51725" lon="5.27886">
        <ele>200</ele>
        <time>2021-11-22T12:17:26Z</time>
      </trkpt>
      <trkpt lat="46.51754" lon="5.27856">
        <ele>198.8</ele>
        <time>2021-11-22T12:17:31Z</time>
      </trkpt>
      <trkpt lat="46.51767" lon="5.27843">
        <ele>198.4</ele>
        <time>2021-11-22T12:17:33Z</time>
      </trkpt>
      <trkpt lat="46.5178" lon="5.2783">
        <ele>197.8</ele>
        <time>2021-11-22T12:17:35Z</time>
      </trkpt>
      <trkpt lat="46.518" lon="5.27809">
        <ele>196.8</ele>
        <time>2021-11-22T12:17:38Z</time>
      </trkpt>
      <trkpt lat="46.51813" lon="5.27795">
        <ele>196</ele>
        <time>2021-11-22T12:17:40Z</time>
      </trkpt>
      <trkpt lat="46.51827" lon="5.27781">
        <ele>195.4</ele>
        <time>2021-11-22T12:17:42Z</time>
      </trkpt>
      <trkpt lat="46.51847" lon="5.27759">
        <ele>194</ele>
        <time>2021-11-22T12:17:45Z</time>
      </trkpt>
      <trkpt lat="46.51876" lon="5.2773">
        <ele>192.6</ele>
        <time>2021-11-22T12:17:49Z</time>
      </trkpt>
      <trkpt lat="46.51883" lon="5.27722">
        <ele>192.4</ele>
        <time>2021-11-22T12:17:50Z</time>
      </trkpt>
      <trkpt lat="46.51898" lon="5.27707">
        <ele>191.6</ele>
        <time>2021-11-22T12:17:52Z</time>
      </trkpt>
      <trkpt lat="46.51921" lon="5.27683">
        <ele>190.6</ele>
        <time>2021-11-22T12:17:55Z</time>
      </trkpt>
      <trkpt lat="46.51942" lon="5.27657">
        <ele>189.2</ele>
        <time>2021-11-22T12:17:58Z</time>
      </trkpt>
      <trkpt lat="46.51949" lon="5.27649">
        <ele>188.8</ele>
        <time>2021-11-22T12:17:59Z</time>
      </trkpt>
      <trkpt lat="46.51963" lon="5.27631">
        <ele>187.8</ele>
        <time>2021-11-22T12:18:01Z</time>
      </trkpt>
      <trkpt lat="46.5199" lon="5.27595">
        <ele>186.6</ele>
        <time>2021-11-22T12:18:05Z</time>
      </trkpt>
      <trkpt lat="46.52014" lon="5.27563">
        <ele>186</ele>
        <time>2021-11-22T12:18:09Z</time>
      </trkpt>
      <trkpt lat="46.52052" lon="5.27513">
        <ele>186.2</ele>
        <time>2021-11-22T12:18:16Z</time>
      </trkpt>
      <trkpt lat="46.52083" lon="5.27472">
        <ele>187.8</ele>
        <time>2021-11-22T12:18:23Z</time>
      </trkpt>
      <trkpt lat="46.52098" lon="5.27449">
        <ele>189</ele>
        <time>2021-11-22T12:18:27Z</time>
      </trkpt>
      <trkpt lat="46.52104" lon="5.27438">
        <ele>189.2</ele>
        <time>2021-11-22T12:18:29Z</time>
      </trkpt>
      <trkpt lat="46.52113" lon="5.27421">
        <ele>190</ele>
        <time>2021-11-22T12:18:32Z</time>
      </trkpt>
      <trkpt lat="46.52119" lon="5.27402">
        <ele>190.8</ele>
        <time>2021-11-22T12:18:35Z</time>
      </trkpt>
      <trkpt lat="46.52123" lon="5.2739">
        <ele>191</ele>
        <time>2021-11-22T12:18:37Z</time>
      </trkpt>
      <trkpt lat="46.52127" lon="5.27365">
        <ele>191.8</ele>
        <time>2021-11-22T12:18:41Z</time>
      </trkpt>
      <trkpt lat="46.52127" lon="5.27359">
        <ele>192.2</ele>
        <time>2021-11-22T12:18:42Z</time>
      </trkpt>
      <trkpt lat="46.52125" lon="5.27347">
        <ele>192.4</ele>
        <time>2021-11-22T12:18:44Z</time>
      </trkpt>
      <trkpt lat="46.52124" lon="5.27341">
        <ele>192.6</ele>
        <time>2021-11-22T12:18:45Z</time>
      </trkpt>
      <trkpt lat="46.52121" lon="5.27335">
        <ele>192.8</ele>
        <time>2021-11-22T12:18:46Z</time>
      </trkpt>
      <trkpt lat="46.52116" lon="5.27323">
        <ele>193.2</ele>
        <time>2021-11-22T12:18:48Z</time>
      </trkpt>
      <trkpt lat="46.5211" lon="5.27314">
        <ele>193.6</ele>
        <time>2021-11-22T12:18:50Z</time>
      </trkpt>
      <trkpt lat="46.52104" lon="5.27307">
        <ele>194</ele>
        <time>2021-11-22T12:18:52Z</time>
      </trkpt>
      <trkpt lat="46.52099" lon="5.27304">
        <ele>194.4</ele>
        <time>2021-11-22T12:18:53Z</time>
      </trkpt>
      <trkpt lat="46.52095" lon="5.27302">
        <ele>194.6</ele>
        <time>2021-11-22T12:18:54Z</time>
      </trkpt>
      <trkpt lat="46.52085" lon="5.27297">
        <ele>195.2</ele>
        <time>2021-11-22T12:18:56Z</time>
      </trkpt>
      <trkpt lat="46.52081" lon="5.27294">
        <ele>195.4</ele>
        <time>2021-11-22T12:18:57Z</time>
      </trkpt>
      <trkpt lat="46.52076" lon="5.27292">
        <ele>195.6</ele>
        <time>2021-11-22T12:18:58Z</time>
      </trkpt>
      <trkpt lat="46.52067" lon="5.27286">
        <ele>196.2</ele>
        <time>2021-11-22T12:19:00Z</time>
      </trkpt>
      <trkpt lat="46.52063" lon="5.27283">
        <ele>196.4</ele>
        <time>2021-11-22T12:19:01Z</time>
      </trkpt>
      <trkpt lat="46.52047" lon="5.27266">
        <ele>197.2</ele>
        <time>2021-11-22T12:19:05Z</time>
      </trkpt>
      <trkpt lat="46.52043" lon="5.27261">
        <ele>197.2</ele>
        <time>2021-11-22T12:19:06Z</time>
      </trkpt>
      <trkpt lat="46.52039" lon="5.27256">
        <ele>197.6</ele>
        <time>2021-11-22T12:19:07Z</time>
      </trkpt>
      <trkpt lat="46.52033" lon="5.27248">
        <ele>197.8</ele>
        <time>2021-11-22T12:19:09Z</time>
      </trkpt>
      <trkpt lat="46.52025" lon="5.27226">
        <ele>198.2</ele>
        <time>2021-11-22T12:19:13Z</time>
      </trkpt>
      <trkpt lat="46.52023" lon="5.27221">
        <ele>198.6</ele>
        <time>2021-11-22T12:19:14Z</time>
      </trkpt>
      <trkpt lat="46.52021" lon="5.27216">
        <ele>198.6</ele>
        <time>2021-11-22T12:19:15Z</time>
      </trkpt>
      <trkpt lat="46.52019" lon="5.2721">
        <ele>199</ele>
        <time>2021-11-22T12:19:16Z</time>
      </trkpt>
      <trkpt lat="46.52015" lon="5.27194">
        <ele>199.4</ele>
        <time>2021-11-22T12:19:19Z</time>
      </trkpt>
      <trkpt lat="46.52014" lon="5.27189">
        <ele>199.6</ele>
        <time>2021-11-22T12:19:20Z</time>
      </trkpt>
      <trkpt lat="46.52012" lon="5.27183">
        <ele>200</ele>
        <time>2021-11-22T12:19:21Z</time>
      </trkpt>
      <trkpt lat="46.52007" lon="5.27162">
        <ele>200.8</ele>
        <time>2021-11-22T12:19:25Z</time>
      </trkpt>
      <trkpt lat="46.52005" lon="5.27151">
        <ele>201</ele>
        <time>2021-11-22T12:19:27Z</time>
      </trkpt>
      <trkpt lat="46.52001" lon="5.27124">
        <ele>202.2</ele>
        <time>2021-11-22T12:19:32Z</time>
      </trkpt>
      <trkpt lat="46.52001" lon="5.27119">
        <ele>202.2</ele>
        <time>2021-11-22T12:19:33Z</time>
      </trkpt>
      <trkpt lat="46.51997" lon="5.27078">
        <ele>203.2</ele>
        <time>2021-11-22T12:19:40Z</time>
      </trkpt>
      <trkpt lat="46.51996" lon="5.27067">
        <ele>203.8</ele>
        <time>2021-11-22T12:19:42Z</time>
      </trkpt>
      <trkpt lat="46.51994" lon="5.27049">
        <ele>204.6</ele>
        <time>2021-11-22T12:19:45Z</time>
      </trkpt>
      <trkpt lat="46.51989" lon="5.27005">
        <ele>205.8</ele>
        <time>2021-11-22T12:19:52Z</time>
      </trkpt>
      <trkpt lat="46.51985" lon="5.26981">
        <ele>206.6</ele>
        <time>2021-11-22T12:19:56Z</time>
      </trkpt>
      <trkpt lat="46.51983" lon="5.26969">
        <ele>206.8</ele>
        <time>2021-11-22T12:19:58Z</time>
      </trkpt>
      <trkpt lat="46.51982" lon="5.26963">
        <ele>206.8</ele>
        <time>2021-11-22T12:19:59Z</time>
      </trkpt>
      <trkpt lat="46.51975" lon="5.26938">
        <ele>207.2</ele>
        <time>2021-11-22T12:20:03Z</time>
      </trkpt>
      <trkpt lat="46.5197" lon="5.26917">
        <ele>207.4</ele>
        <time>2021-11-22T12:20:06Z</time>
      </trkpt>
      <trkpt lat="46.51955" lon="5.26873">
        <ele>207.4</ele>
        <time>2021-11-22T12:20:12Z</time>
      </trkpt>
      <trkpt lat="46.51953" lon="5.26864">
        <ele>207.4</ele>
        <time>2021-11-22T12:20:13Z</time>
      </trkpt>
      <trkpt lat="46.51953" lon="5.26844">
        <ele>207</ele>
        <time>2021-11-22T12:20:15Z</time>
      </trkpt>
      <trkpt lat="46.51956" lon="5.26821">
        <ele>206.6</ele>
        <time>2021-11-22T12:20:17Z</time>
      </trkpt>
      <trkpt lat="46.51963" lon="5.268">
        <ele>206</ele>
        <time>2021-11-22T12:20:19Z</time>
      </trkpt>
      <trkpt lat="46.51969" lon="5.26791">
        <ele>205</ele>
        <time>2021-11-22T12:20:20Z</time>
      </trkpt>
      <trkpt lat="46.51982" lon="5.26776">
        <ele>203.8</ele>
        <time>2021-11-22T12:20:22Z</time>
      </trkpt>
      <trkpt lat="46.5199" lon="5.26769">
        <ele>203.4</ele>
        <time>2021-11-22T12:20:23Z</time>
      </trkpt>
      <trkpt lat="46.51997" lon="5.26762">
        <ele>202.8</ele>
        <time>2021-11-22T12:20:24Z</time>
      </trkpt>
      <trkpt lat="46.52013" lon="5.2675">
        <ele>201.6</ele>
        <time>2021-11-22T12:20:26Z</time>
      </trkpt>
      <trkpt lat="46.52028" lon="5.26738">
        <ele>200.4</ele>
        <time>2021-11-22T12:20:28Z</time>
      </trkpt>
      <trkpt lat="46.52045" lon="5.26725">
        <ele>199.6</ele>
        <time>2021-11-22T12:20:30Z</time>
      </trkpt>
      <trkpt lat="46.52053" lon="5.26718">
        <ele>198.8</ele>
        <time>2021-11-22T12:20:31Z</time>
      </trkpt>
      <trkpt lat="46.52078" lon="5.26696">
        <ele>197.4</ele>
        <time>2021-11-22T12:20:34Z</time>
      </trkpt>
      <trkpt lat="46.52096" lon="5.26682">
        <ele>196.8</ele>
        <time>2021-11-22T12:20:36Z</time>
      </trkpt>
      <trkpt lat="46.52113" lon="5.26666">
        <ele>196</ele>
        <time>2021-11-22T12:20:38Z</time>
      </trkpt>
      <trkpt lat="46.52129" lon="5.26648">
        <ele>195</ele>
        <time>2021-11-22T12:20:40Z</time>
      </trkpt>
      <trkpt lat="46.52136" lon="5.26638">
        <ele>194.2</ele>
        <time>2021-11-22T12:20:41Z</time>
      </trkpt>
      <trkpt lat="46.52143" lon="5.26627">
        <ele>193.8</ele>
        <time>2021-11-22T12:20:42Z</time>
      </trkpt>
      <trkpt lat="46.52155" lon="5.26606">
        <ele>192.6</ele>
        <time>2021-11-22T12:20:44Z</time>
      </trkpt>
      <trkpt lat="46.52167" lon="5.26585">
        <ele>191.8</ele>
        <time>2021-11-22T12:20:46Z</time>
      </trkpt>
      <trkpt lat="46.52173" lon="5.26575">
        <ele>191.4</ele>
        <time>2021-11-22T12:20:47Z</time>
      </trkpt>
      <trkpt lat="46.52185" lon="5.26557">
        <ele>191</ele>
        <time>2021-11-22T12:20:49Z</time>
      </trkpt>
      <trkpt lat="46.52192" lon="5.26549">
        <ele>190.8</ele>
        <time>2021-11-22T12:20:50Z</time>
      </trkpt>
      <trkpt lat="46.52208" lon="5.26536">
        <ele>190.6</ele>
        <time>2021-11-22T12:20:52Z</time>
      </trkpt>
      <trkpt lat="46.52225" lon="5.26527">
        <ele>190.4</ele>
        <time>2021-11-22T12:20:54Z</time>
      </trkpt>
      <trkpt lat="46.52259" lon="5.26511">
        <ele>189.2</ele>
        <time>2021-11-22T12:20:59Z</time>
      </trkpt>
      <trkpt lat="46.5231" lon="5.26487">
        <ele>188</ele>
        <time>2021-11-22T12:21:04Z</time>
      </trkpt>
      <trkpt lat="46.52319" lon="5.26483">
        <ele>187.6</ele>
        <time>2021-11-22T12:21:05Z</time>
      </trkpt>
      <trkpt lat="46.52346" lon="5.26472">
        <ele>186.4</ele>
        <time>2021-11-22T12:21:08Z</time>
      </trkpt>
      <trkpt lat="46.52371" lon="5.2646">
        <ele>185.2</ele>
        <time>2021-11-22T12:21:11Z</time>
      </trkpt>
      <trkpt lat="46.52378" lon="5.26454">
        <ele>184.6</ele>
        <time>2021-11-22T12:21:12Z</time>
      </trkpt>
      <trkpt lat="46.52386" lon="5.26446">
        <ele>184.4</ele>
        <time>2021-11-22T12:21:13Z</time>
      </trkpt>
      <trkpt lat="46.52392" lon="5.26438">
        <ele>184.2</ele>
        <time>2021-11-22T12:21:14Z</time>
      </trkpt>
      <trkpt lat="46.52398" lon="5.26427">
        <ele>184</ele>
        <time>2021-11-22T12:21:15Z</time>
      </trkpt>
      <trkpt lat="46.52403" lon="5.26416">
        <ele>183.8</ele>
        <time>2021-11-22T12:21:16Z</time>
      </trkpt>
      <trkpt lat="46.52416" lon="5.26385">
        <ele>182.8</ele>
        <time>2021-11-22T12:21:19Z</time>
      </trkpt>
      <trkpt lat="46.52434" lon="5.26334">
        <ele>182.2</ele>
        <time>2021-11-22T12:21:24Z</time>
      </trkpt>
      <trkpt lat="46.52455" lon="5.26274">
        <ele>182</ele>
        <time>2021-11-22T12:21:30Z</time>
      </trkpt>
      <trkpt lat="46.52478" lon="5.26218">
        <ele>182</ele>
        <time>2021-11-22T12:21:36Z</time>
      </trkpt>
      <trkpt lat="46.52504" lon="5.26147">
        <ele>182</ele>
        <time>2021-11-22T12:21:44Z</time>
      </trkpt>
      <trkpt lat="46.52507" lon="5.26139">
        <ele>182</ele>
        <time>2021-11-22T12:21:45Z</time>
      </trkpt>
      <trkpt lat="46.52511" lon="5.26131">
        <ele>182.2</ele>
        <time>2021-11-22T12:21:46Z</time>
      </trkpt>
      <trkpt lat="46.52522" lon="5.2612">
        <ele>182.4</ele>
        <time>2021-11-22T12:21:48Z</time>
      </trkpt>
      <trkpt lat="46.52535" lon="5.26117">
        <ele>182.6</ele>
        <time>2021-11-22T12:21:50Z</time>
      </trkpt>
      <trkpt lat="46.52548" lon="5.26118">
        <ele>182.6</ele>
        <time>2021-11-22T12:21:52Z</time>
      </trkpt>
      <trkpt lat="46.52554" lon="5.26119">
        <ele>182.8</ele>
        <time>2021-11-22T12:21:53Z</time>
      </trkpt>
      <trkpt lat="46.52565" lon="5.26129">
        <ele>182.8</ele>
        <time>2021-11-22T12:21:55Z</time>
      </trkpt>
      <trkpt lat="46.5258" lon="5.26158">
        <ele>182.6</ele>
        <time>2021-11-22T12:21:59Z</time>
      </trkpt>
      <trkpt lat="46.52614" lon="5.26209">
        <ele>182.6</ele>
        <time>2021-11-22T12:22:07Z</time>
      </trkpt>
      <trkpt lat="46.52628" lon="5.26223">
        <ele>183</ele>
        <time>2021-11-22T12:22:10Z</time>
      </trkpt>
      <trkpt lat="46.52643" lon="5.26234">
        <ele>183.2</ele>
        <time>2021-11-22T12:22:13Z</time>
      </trkpt>
      <trkpt lat="46.52668" lon="5.26249">
        <ele>184</ele>
        <time>2021-11-22T12:22:18Z</time>
      </trkpt>
      <trkpt lat="46.52679" lon="5.26255">
        <ele>184.4</ele>
        <time>2021-11-22T12:22:20Z</time>
      </trkpt>
      <trkpt lat="46.52714" lon="5.26271">
        <ele>188.6</ele>
        <time>2021-11-22T12:22:27Z</time>
      </trkpt>
      <trkpt lat="46.52724" lon="5.26275">
        <ele>185</ele>
        <time>2021-11-22T12:22:29Z</time>
      </trkpt>
      <trkpt lat="46.52764" lon="5.26294">
        <ele>185.2</ele>
        <time>2021-11-22T12:22:37Z</time>
      </trkpt>
      <trkpt lat="46.52809" lon="5.26312">
        <ele>185.8</ele>
        <time>2021-11-22T12:22:46Z</time>
      </trkpt>
      <trkpt lat="46.52825" lon="5.26312">
        <ele>185.8</ele>
        <time>2021-11-22T12:22:49Z</time>
      </trkpt>
      <trkpt lat="46.52841" lon="5.26311">
        <ele>185.8</ele>
        <time>2021-11-22T12:22:52Z</time>
      </trkpt>
      <trkpt lat="46.52891" lon="5.26313">
        <ele>185.8</ele>
        <time>2021-11-22T12:23:01Z</time>
      </trkpt>
      <trkpt lat="46.52931" lon="5.26333">
        <ele>185.6</ele>
        <time>2021-11-22T12:23:08Z</time>
      </trkpt>
      <trkpt lat="46.52977" lon="5.26359">
        <ele>185.2</ele>
        <time>2021-11-22T12:23:16Z</time>
      </trkpt>
      <trkpt lat="46.53031" lon="5.26389">
        <ele>184.8</ele>
        <time>2021-11-22T12:23:25Z</time>
      </trkpt>
      <trkpt lat="46.53037" lon="5.26393">
        <ele>184.8</ele>
        <time>2021-11-22T12:23:26Z</time>
      </trkpt>
      <trkpt lat="46.53088" lon="5.26421">
        <ele>184</ele>
        <time>2021-11-22T12:23:35Z</time>
      </trkpt>
      <trkpt lat="46.53094" lon="5.26424">
        <ele>184</ele>
        <time>2021-11-22T12:23:36Z</time>
      </trkpt>
      <trkpt lat="46.531" lon="5.26426">
        <ele>184</ele>
        <time>2021-11-22T12:23:37Z</time>
      </trkpt>
      <trkpt lat="46.53129" lon="5.26433">
        <ele>183.4</ele>
        <time>2021-11-22T12:23:42Z</time>
      </trkpt>
      <trkpt lat="46.53177" lon="5.2644">
        <ele>182.8</ele>
        <time>2021-11-22T12:23:50Z</time>
      </trkpt>
      <trkpt lat="46.53183" lon="5.26441">
        <ele>182.8</ele>
        <time>2021-11-22T12:23:51Z</time>
      </trkpt>
      <trkpt lat="46.53237" lon="5.26449">
        <ele>183</ele>
        <time>2021-11-22T12:24:00Z</time>
      </trkpt>
      <trkpt lat="46.53249" lon="5.26451">
        <ele>183</ele>
        <time>2021-11-22T12:24:02Z</time>
      </trkpt>
      <trkpt lat="46.53303" lon="5.26459">
        <ele>182.8</ele>
        <time>2021-11-22T12:24:11Z</time>
      </trkpt>
      <trkpt lat="46.53309" lon="5.2646">
        <ele>182.8</ele>
        <time>2021-11-22T12:24:12Z</time>
      </trkpt>
      <trkpt lat="46.53364" lon="5.26465">
        <ele>182.6</ele>
        <time>2021-11-22T12:24:21Z</time>
      </trkpt>
      <trkpt lat="46.53372" lon="5.26465">
        <ele>182.6</ele>
        <time>2021-11-22T12:24:22Z</time>
      </trkpt>
      <trkpt lat="46.5342" lon="5.26465">
        <ele>182.8</ele>
        <time>2021-11-22T12:24:30Z</time>
      </trkpt>
      <trkpt lat="46.53474" lon="5.26468">
        <ele>182</ele>
        <time>2021-11-22T12:24:39Z</time>
      </trkpt>
      <trkpt lat="46.53533" lon="5.26476">
        <ele>182.2</ele>
        <time>2021-11-22T12:24:49Z</time>
      </trkpt>
      <trkpt lat="46.53574" lon="5.2648">
        <ele>182.2</ele>
        <time>2021-11-22T12:24:56Z</time>
      </trkpt>
      <trkpt lat="46.5358" lon="5.26479">
        <ele>182.2</ele>
        <time>2021-11-22T12:24:57Z</time>
      </trkpt>
      <trkpt lat="46.5362" lon="5.26478">
        <ele>182.2</ele>
        <time>2021-11-22T12:25:04Z</time>
      </trkpt>
      <trkpt lat="46.53669" lon="5.26483">
        <ele>182.8</ele>
        <time>2021-11-22T12:25:13Z</time>
      </trkpt>
      <trkpt lat="46.53701" lon="5.26473">
        <ele>183.6</ele>
        <time>2021-11-22T12:25:19Z</time>
      </trkpt>
      <trkpt lat="46.53717" lon="5.26466">
        <ele>184</ele>
        <time>2021-11-22T12:25:22Z</time>
      </trkpt>
      <trkpt lat="46.53768" lon="5.26444">
        <ele>184.4</ele>
        <time>2021-11-22T12:25:32Z</time>
      </trkpt>
      <trkpt lat="46.53782" lon="5.26439">
        <ele>184.6</ele>
        <time>2021-11-22T12:25:35Z</time>
      </trkpt>
      <trkpt lat="46.5379" lon="5.26438">
        <ele>184.6</ele>
        <time>2021-11-22T12:25:37Z</time>
      </trkpt>
      <trkpt lat="46.53795" lon="5.2644">
        <ele>184.6</ele>
        <time>2021-11-22T12:25:38Z</time>
      </trkpt>
      <trkpt lat="46.53806" lon="5.2645">
        <ele>184.4</ele>
        <time>2021-11-22T12:25:41Z</time>
      </trkpt>
      <trkpt lat="46.53807" lon="5.26453">
        <ele>184.4</ele>
        <time>2021-11-22T12:25:42Z</time>
      </trkpt>
      <trkpt lat="46.53806" lon="5.26458">
        <ele>184.2</ele>
        <time>2021-11-22T12:25:43Z</time>
      </trkpt>
      <trkpt lat="46.53806" lon="5.26466">
        <ele>184</ele>
        <time>2021-11-22T12:25:44Z</time>
      </trkpt>
      <trkpt lat="46.53808" lon="5.26484">
        <ele>183.8</ele>
        <time>2021-11-22T12:25:46Z</time>
      </trkpt>
      <trkpt lat="46.5381" lon="5.26495">
        <ele>183.8</ele>
        <time>2021-11-22T12:25:47Z</time>
      </trkpt>
      <trkpt lat="46.53813" lon="5.26516">
        <ele>183.6</ele>
        <time>2021-11-22T12:25:49Z</time>
      </trkpt>
      <trkpt lat="46.53815" lon="5.26526">
        <ele>183.6</ele>
        <time>2021-11-22T12:25:50Z</time>
      </trkpt>
      <trkpt lat="46.53825" lon="5.26577">
        <ele>183.2</ele>
        <time>2021-11-22T12:25:55Z</time>
      </trkpt>
      <trkpt lat="46.53832" lon="5.26606">
        <ele>182.8</ele>
        <time>2021-11-22T12:25:58Z</time>
      </trkpt>
      <trkpt lat="46.5384" lon="5.26632">
        <ele>182.2</ele>
        <time>2021-11-22T12:26:01Z</time>
      </trkpt>
      <trkpt lat="46.53843" lon="5.26637">
        <ele>182</ele>
        <time>2021-11-22T12:26:02Z</time>
      </trkpt>
      <trkpt lat="46.53846" lon="5.2664">
        <ele>181.8</ele>
        <time>2021-11-22T12:26:03Z</time>
      </trkpt>
      <trkpt lat="46.5385" lon="5.26641">
        <ele>181.6</ele>
        <time>2021-11-22T12:26:04Z</time>
      </trkpt>
      <trkpt lat="46.53853" lon="5.26639">
        <ele>181.4</ele>
        <time>2021-11-22T12:26:05Z</time>
      </trkpt>
      <trkpt lat="46.53867" lon="5.26621">
        <ele>181</ele>
        <time>2021-11-22T12:26:10Z</time>
      </trkpt>
      <trkpt lat="46.53886" lon="5.26593">
        <ele>181.4</ele>
        <time>2021-11-22T12:26:16Z</time>
      </trkpt>
      <trkpt lat="46.53891" lon="5.26583">
        <ele>181.6</ele>
        <time>2021-11-22T12:26:18Z</time>
      </trkpt>
      <trkpt lat="46.53896" lon="5.26572">
        <ele>181.8</ele>
        <time>2021-11-22T12:26:20Z</time>
      </trkpt>
      <trkpt lat="46.53903" lon="5.26549">
        <ele>182.6</ele>
        <time>2021-11-22T12:26:24Z</time>
      </trkpt>
      <trkpt lat="46.53909" lon="5.26533">
        <ele>183.8</ele>
        <time>2021-11-22T12:26:27Z</time>
      </trkpt>
      <trkpt lat="46.53916" lon="5.2651">
        <ele>184.6</ele>
        <time>2021-11-22T12:26:31Z</time>
      </trkpt>
      <trkpt lat="46.53919" lon="5.26504">
        <ele>184.8</ele>
        <time>2021-11-22T12:26:32Z</time>
      </trkpt>
      <trkpt lat="46.53935" lon="5.2646">
        <ele>186</ele>
        <time>2021-11-22T12:26:39Z</time>
      </trkpt>
      <trkpt lat="46.53952" lon="5.2641">
        <ele>186.8</ele>
        <time>2021-11-22T12:26:47Z</time>
      </trkpt>
      <trkpt lat="46.53954" lon="5.26404">
        <ele>187</ele>
        <time>2021-11-22T12:26:48Z</time>
      </trkpt>
      <trkpt lat="46.53967" lon="5.26367">
        <ele>188</ele>
        <time>2021-11-22T12:26:54Z</time>
      </trkpt>
      <trkpt lat="46.53969" lon="5.26361">
        <ele>188.2</ele>
        <time>2021-11-22T12:26:55Z</time>
      </trkpt>
      <trkpt lat="46.53978" lon="5.26337">
        <ele>188.6</ele>
        <time>2021-11-22T12:26:59Z</time>
      </trkpt>
      <trkpt lat="46.53984" lon="5.26319">
        <ele>189</ele>
        <time>2021-11-22T12:27:02Z</time>
      </trkpt>
      <trkpt lat="46.53987" lon="5.26308">
        <ele>189.2</ele>
        <time>2021-11-22T12:27:04Z</time>
      </trkpt>
      <trkpt lat="46.53999" lon="5.26275">
        <ele>190.4</ele>
        <time>2021-11-22T12:27:10Z</time>
      </trkpt>
      <trkpt lat="46.5401" lon="5.2625">
        <ele>191.4</ele>
        <time>2021-11-22T12:27:15Z</time>
      </trkpt>
      <trkpt lat="46.54013" lon="5.26245">
        <ele>191.6</ele>
        <time>2021-11-22T12:27:16Z</time>
      </trkpt>
      <trkpt lat="46.54016" lon="5.26241">
        <ele>191.8</ele>
        <time>2021-11-22T12:27:17Z</time>
      </trkpt>
      <trkpt lat="46.54025" lon="5.2623">
        <ele>192.6</ele>
        <time>2021-11-22T12:27:20Z</time>
      </trkpt>
      <trkpt lat="46.54034" lon="5.26221">
        <ele>193</ele>
        <time>2021-11-22T12:27:23Z</time>
      </trkpt>
      <trkpt lat="46.54045" lon="5.26212">
        <ele>193.6</ele>
        <time>2021-11-22T12:27:26Z</time>
      </trkpt>
      <trkpt lat="46.54057" lon="5.26204">
        <ele>194.8</ele>
        <time>2021-11-22T12:27:29Z</time>
      </trkpt>
      <trkpt lat="46.54065" lon="5.262">
        <ele>195.2</ele>
        <time>2021-11-22T12:27:31Z</time>
      </trkpt>
      <trkpt lat="46.54083" lon="5.26191">
        <ele>195.8</ele>
        <time>2021-11-22T12:27:35Z</time>
      </trkpt>
      <trkpt lat="46.54106" lon="5.26178">
        <ele>196.6</ele>
        <time>2021-11-22T12:27:40Z</time>
      </trkpt>
      <trkpt lat="46.5411" lon="5.26174">
        <ele>196.6</ele>
        <time>2021-11-22T12:27:41Z</time>
      </trkpt>
      <trkpt lat="46.54117" lon="5.26166">
        <ele>196.6</ele>
        <time>2021-11-22T12:27:43Z</time>
      </trkpt>
      <trkpt lat="46.54123" lon="5.26157">
        <ele>196.8</ele>
        <time>2021-11-22T12:27:45Z</time>
      </trkpt>
      <trkpt lat="46.54126" lon="5.26145">
        <ele>197</ele>
        <time>2021-11-22T12:27:47Z</time>
      </trkpt>
      <trkpt lat="46.54127" lon="5.26131">
        <ele>197</ele>
        <time>2021-11-22T12:27:49Z</time>
      </trkpt>
      <trkpt lat="46.54122" lon="5.26092">
        <ele>197.4</ele>
        <time>2021-11-22T12:27:55Z</time>
      </trkpt>
      <trkpt lat="46.5412" lon="5.26079">
        <ele>197.6</ele>
        <time>2021-11-22T12:27:57Z</time>
      </trkpt>
      <trkpt lat="46.54119" lon="5.26073">
        <ele>197.8</ele>
        <time>2021-11-22T12:27:58Z</time>
      </trkpt>
      <trkpt lat="46.54117" lon="5.2606">
        <ele>198.2</ele>
        <time>2021-11-22T12:28:00Z</time>
      </trkpt>
      <trkpt lat="46.54116" lon="5.26013">
        <ele>199</ele>
        <time>2021-11-22T12:28:07Z</time>
      </trkpt>
      <trkpt lat="46.54116" lon="5.26006">
        <ele>199.2</ele>
        <time>2021-11-22T12:28:08Z</time>
      </trkpt>
      <trkpt lat="46.54122" lon="5.25951">
        <ele>200</ele>
        <time>2021-11-22T12:28:16Z</time>
      </trkpt>
      <trkpt lat="46.54124" lon="5.25944">
        <ele>200</ele>
        <time>2021-11-22T12:28:17Z</time>
      </trkpt>
      <trkpt lat="46.54135" lon="5.25896">
        <ele>200.8</ele>
        <time>2021-11-22T12:28:24Z</time>
      </trkpt>
      <trkpt lat="46.5414" lon="5.25875">
        <ele>201</ele>
        <time>2021-11-22T12:28:27Z</time>
      </trkpt>
      <trkpt lat="46.54151" lon="5.25836">
        <ele>201.4</ele>
        <time>2021-11-22T12:28:33Z</time>
      </trkpt>
      <trkpt lat="46.54159" lon="5.25804">
        <ele>201.6</ele>
        <time>2021-11-22T12:28:37Z</time>
      </trkpt>
      <trkpt lat="46.54168" lon="5.25782">
        <ele>201.4</ele>
        <time>2021-11-22T12:28:40Z</time>
      </trkpt>
      <trkpt lat="46.54178" lon="5.25771">
        <ele>201.4</ele>
        <time>2021-11-22T12:28:42Z</time>
      </trkpt>
      <trkpt lat="46.54189" lon="5.25764">
        <ele>201.2</ele>
        <time>2021-11-22T12:28:44Z</time>
      </trkpt>
      <trkpt lat="46.54226" lon="5.25759">
        <ele>200.4</ele>
        <time>2021-11-22T12:28:50Z</time>
      </trkpt>
      <trkpt lat="46.54267" lon="5.25755">
        <ele>200.2</ele>
        <time>2021-11-22T12:28:57Z</time>
      </trkpt>
      <trkpt lat="46.5432" lon="5.2575">
        <ele>200.4</ele>
        <time>2021-11-22T12:29:06Z</time>
      </trkpt>
      <trkpt lat="46.54325" lon="5.25747">
        <ele>200.4</ele>
        <time>2021-11-22T12:29:07Z</time>
      </trkpt>
      <trkpt lat="46.5433" lon="5.25742">
        <ele>200.4</ele>
        <time>2021-11-22T12:29:08Z</time>
      </trkpt>
      <trkpt lat="46.54338" lon="5.25731">
        <ele>200.6</ele>
        <time>2021-11-22T12:29:10Z</time>
      </trkpt>
      <trkpt lat="46.54341" lon="5.25724">
        <ele>200.6</ele>
        <time>2021-11-22T12:29:11Z</time>
      </trkpt>
      <trkpt lat="46.54346" lon="5.25708">
        <ele>200.8</ele>
        <time>2021-11-22T12:29:13Z</time>
      </trkpt>
      <trkpt lat="46.54351" lon="5.25687">
        <ele>201.2</ele>
        <time>2021-11-22T12:29:16Z</time>
      </trkpt>
      <trkpt lat="46.54359" lon="5.25665">
        <ele>201.2</ele>
        <time>2021-11-22T12:29:19Z</time>
      </trkpt>
      <trkpt lat="46.54367" lon="5.25652">
        <ele>201.4</ele>
        <time>2021-11-22T12:29:21Z</time>
      </trkpt>
      <trkpt lat="46.54376" lon="5.25643">
        <ele>201.6</ele>
        <time>2021-11-22T12:29:23Z</time>
      </trkpt>
      <trkpt lat="46.54382" lon="5.2564">
        <ele>201.6</ele>
        <time>2021-11-22T12:29:25Z</time>
      </trkpt>
      <trkpt lat="46.54434" lon="5.25619">
        <ele>201.6</ele>
        <time>2021-11-22T12:29:33Z</time>
      </trkpt>
      <trkpt lat="46.5444" lon="5.25616">
        <ele>201.6</ele>
        <time>2021-11-22T12:29:34Z</time>
      </trkpt>
      <trkpt lat="46.54446" lon="5.25613">
        <ele>201.4</ele>
        <time>2021-11-22T12:29:35Z</time>
      </trkpt>
      <trkpt lat="46.54455" lon="5.25602">
        <ele>201.4</ele>
        <time>2021-11-22T12:29:37Z</time>
      </trkpt>
      <trkpt lat="46.5446" lon="5.25587">
        <ele>201.4</ele>
        <time>2021-11-22T12:29:39Z</time>
      </trkpt>
      <trkpt lat="46.54461" lon="5.25578">
        <ele>201.2</ele>
        <time>2021-11-22T12:29:40Z</time>
      </trkpt>
      <trkpt lat="46.54463" lon="5.25539">
        <ele>201.2</ele>
        <time>2021-11-22T12:29:45Z</time>
      </trkpt>
      <trkpt lat="46.54468" lon="5.25453">
        <ele>199.6</ele>
        <time>2021-11-22T12:29:52Z</time>
      </trkpt>
      <trkpt lat="46.54475" lon="5.25409">
        <ele>198.6</ele>
        <time>2021-11-22T12:29:56Z</time>
      </trkpt>
      <trkpt lat="46.54478" lon="5.25398">
        <ele>198</ele>
        <time>2021-11-22T12:29:57Z</time>
      </trkpt>
      <trkpt lat="46.54488" lon="5.25364">
        <ele>197.4</ele>
        <time>2021-11-22T12:30:00Z</time>
      </trkpt>
      <trkpt lat="46.54498" lon="5.2533">
        <ele>196.8</ele>
        <time>2021-11-22T12:30:03Z</time>
      </trkpt>
      <trkpt lat="46.54502" lon="5.25319">
        <ele>196</ele>
        <time>2021-11-22T12:30:04Z</time>
      </trkpt>
      <trkpt lat="46.54511" lon="5.25298">
        <ele>195.6</ele>
        <time>2021-11-22T12:30:06Z</time>
      </trkpt>
      <trkpt lat="46.54521" lon="5.25279">
        <ele>194.8</ele>
        <time>2021-11-22T12:30:08Z</time>
      </trkpt>
      <trkpt lat="46.54538" lon="5.25256">
        <ele>193.8</ele>
        <time>2021-11-22T12:30:11Z</time>
      </trkpt>
      <trkpt lat="46.54549" lon="5.2524">
        <ele>193.2</ele>
        <time>2021-11-22T12:30:14Z</time>
      </trkpt>
      <trkpt lat="46.54564" lon="5.25215">
        <ele>193.2</ele>
        <time>2021-11-22T12:30:16Z</time>
      </trkpt>
      <trkpt lat="46.5457" lon="5.25195">
        <ele>193.4</ele>
        <time>2021-11-22T12:30:18Z</time>
      </trkpt>
      <trkpt lat="46.54587" lon="5.25118">
        <ele>193.8</ele>
        <time>2021-11-22T12:30:26Z</time>
      </trkpt>
      <trkpt lat="46.54596" lon="5.25076">
        <ele>194.2</ele>
        <time>2021-11-22T12:30:31Z</time>
      </trkpt>
      <trkpt lat="46.54603" lon="5.25045">
        <ele>195</ele>
        <time>2021-11-22T12:30:35Z</time>
      </trkpt>
      <trkpt lat="46.54606" lon="5.25033">
        <ele>195.4</ele>
        <time>2021-11-22T12:30:37Z</time>
      </trkpt>
      <trkpt lat="46.5461" lon="5.25018">
        <ele>196</ele>
        <time>2021-11-22T12:30:39Z</time>
      </trkpt>
      <trkpt lat="46.54615" lon="5.25">
        <ele>197.2</ele>
        <time>2021-11-22T12:30:42Z</time>
      </trkpt>
      <trkpt lat="46.54619" lon="5.24987">
        <ele>198</ele>
        <time>2021-11-22T12:30:44Z</time>
      </trkpt>
      <trkpt lat="46.5462" lon="5.24981">
        <ele>198.6</ele>
        <time>2021-11-22T12:30:45Z</time>
      </trkpt>
      <trkpt lat="46.54622" lon="5.24975">
        <ele>198.6</ele>
        <time>2021-11-22T12:30:46Z</time>
      </trkpt>
      <trkpt lat="46.54628" lon="5.24958">
        <ele>199.4</ele>
        <time>2021-11-22T12:30:49Z</time>
      </trkpt>
      <trkpt lat="46.5463" lon="5.24953">
        <ele>199.6</ele>
        <time>2021-11-22T12:30:50Z</time>
      </trkpt>
      <trkpt lat="46.54633" lon="5.24944">
        <ele>200.4</ele>
        <time>2021-11-22T12:30:55Z</time>
      </trkpt>
      <trkpt lat="46.54633" lon="5.24944">
        <ele>200.6</ele>
        <time>2021-11-22T12:30:56Z</time>
      </trkpt>
      <trkpt lat="46.54635" lon="5.24942">
        <ele>201.2</ele>
        <time>2021-11-22T12:33:37Z</time>
      </trkpt>
      <trkpt lat="46.5464" lon="5.24932">
        <ele>201.2</ele>
        <time>2021-11-22T12:33:40Z</time>
      </trkpt>
      <trkpt lat="46.54656" lon="5.249">
        <ele>200.8</ele>
        <time>2021-11-22T12:33:46Z</time>
      </trkpt>
      <trkpt lat="46.5468" lon="5.24853">
        <ele>201</ele>
        <time>2021-11-22T12:33:53Z</time>
      </trkpt>
      <trkpt lat="46.54706" lon="5.24798">
        <ele>201.2</ele>
        <time>2021-11-22T12:34:01Z</time>
      </trkpt>
      <trkpt lat="46.54721" lon="5.24769">
        <ele>201.2</ele>
        <time>2021-11-22T12:34:05Z</time>
      </trkpt>
      <trkpt lat="46.54738" lon="5.24734">
        <ele>201.6</ele>
        <time>2021-11-22T12:34:10Z</time>
      </trkpt>
      <trkpt lat="46.54769" lon="5.24667">
        <ele>201</ele>
        <time>2021-11-22T12:34:19Z</time>
      </trkpt>
      <trkpt lat="46.54776" lon="5.24652">
        <ele>200.8</ele>
        <time>2021-11-22T12:34:21Z</time>
      </trkpt>
      <trkpt lat="46.54794" lon="5.24614">
        <ele>200</ele>
        <time>2021-11-22T12:34:26Z</time>
      </trkpt>
      <trkpt lat="46.54808" lon="5.24588">
        <ele>199.6</ele>
        <time>2021-11-22T12:34:30Z</time>
      </trkpt>
      <trkpt lat="46.54823" lon="5.24558">
        <ele>199.6</ele>
        <time>2021-11-22T12:34:35Z</time>
      </trkpt>
      <trkpt lat="46.54826" lon="5.24553">
        <ele>199.8</ele>
        <time>2021-11-22T12:34:36Z</time>
      </trkpt>
      <trkpt lat="46.54831" lon="5.24549">
        <ele>199.8</ele>
        <time>2021-11-22T12:34:37Z</time>
      </trkpt>
      <trkpt lat="46.5485" lon="5.24536">
        <ele>200.6</ele>
        <time>2021-11-22T12:34:41Z</time>
      </trkpt>
      <trkpt lat="46.54865" lon="5.24528">
        <ele>201</ele>
        <time>2021-11-22T12:34:44Z</time>
      </trkpt>
      <trkpt lat="46.54896" lon="5.2451">
        <ele>201.8</ele>
        <time>2021-11-22T12:34:50Z</time>
      </trkpt>
      <trkpt lat="46.54913" lon="5.245">
        <ele>202</ele>
        <time>2021-11-22T12:34:53Z</time>
      </trkpt>
      <trkpt lat="46.54958" lon="5.24474">
        <ele>202.6</ele>
        <time>2021-11-22T12:35:01Z</time>
      </trkpt>
      <trkpt lat="46.54986" lon="5.24458">
        <ele>203.2</ele>
        <time>2021-11-22T12:35:06Z</time>
      </trkpt>
      <trkpt lat="46.55002" lon="5.24448">
        <ele>203.4</ele>
        <time>2021-11-22T12:35:09Z</time>
      </trkpt>
      <trkpt lat="46.55052" lon="5.24416">
        <ele>203</ele>
        <time>2021-11-22T12:35:18Z</time>
      </trkpt>
      <trkpt lat="46.55109" lon="5.24382">
        <ele>202.2</ele>
        <time>2021-11-22T12:35:27Z</time>
      </trkpt>
      <trkpt lat="46.55121" lon="5.24375">
        <ele>201.8</ele>
        <time>2021-11-22T12:35:29Z</time>
      </trkpt>
      <trkpt lat="46.5515" lon="5.24362">
        <ele>200.8</ele>
        <time>2021-11-22T12:35:33Z</time>
      </trkpt>
      <trkpt lat="46.55157" lon="5.2436">
        <ele>200.4</ele>
        <time>2021-11-22T12:35:34Z</time>
      </trkpt>
      <trkpt lat="46.55188" lon="5.24355">
        <ele>199.4</ele>
        <time>2021-11-22T12:35:38Z</time>
      </trkpt>
      <trkpt lat="46.55194" lon="5.24354">
        <ele>199.2</ele>
        <time>2021-11-22T12:35:39Z</time>
      </trkpt>
      <trkpt lat="46.55236" lon="5.2435">
        <ele>198.2</ele>
        <time>2021-11-22T12:35:45Z</time>
      </trkpt>
      <trkpt lat="46.55258" lon="5.24349">
        <ele>198</ele>
        <time>2021-11-22T12:35:48Z</time>
      </trkpt>
      <trkpt lat="46.55317" lon="5.24345">
        <ele>198.2</ele>
        <time>2021-11-22T12:35:57Z</time>
      </trkpt>
      <trkpt lat="46.55329" lon="5.24344">
        <ele>198.2</ele>
        <time>2021-11-22T12:35:59Z</time>
      </trkpt>
      <trkpt lat="46.55375" lon="5.24341">
        <ele>198.8</ele>
        <time>2021-11-22T12:36:07Z</time>
      </trkpt>
      <trkpt lat="46.55419" lon="5.24339">
        <ele>198.8</ele>
        <time>2021-11-22T12:36:14Z</time>
      </trkpt>
      <trkpt lat="46.55486" lon="5.24334">
        <ele>198</ele>
        <time>2021-11-22T12:36:24Z</time>
      </trkpt>
      <trkpt lat="46.55544" lon="5.2433">
        <ele>197.2</ele>
        <time>2021-11-22T12:36:32Z</time>
      </trkpt>
      <trkpt lat="46.55552" lon="5.24329">
        <ele>197</ele>
        <time>2021-11-22T12:36:33Z</time>
      </trkpt>
      <trkpt lat="46.55612" lon="5.24323">
        <ele>196.2</ele>
        <time>2021-11-22T12:36:42Z</time>
      </trkpt>
      <trkpt lat="46.55668" lon="5.24319">
        <ele>196.2</ele>
        <time>2021-11-22T12:36:51Z</time>
      </trkpt>
      <trkpt lat="46.55674" lon="5.24319">
        <ele>196.4</ele>
        <time>2021-11-22T12:36:53Z</time>
      </trkpt>
      <trkpt lat="46.55733" lon="5.24315">
        <ele>196.6</ele>
        <time>2021-11-22T12:37:02Z</time>
      </trkpt>
      <trkpt lat="46.55777" lon="5.24312">
        <ele>197</ele>
        <time>2021-11-22T12:37:10Z</time>
      </trkpt>
      <trkpt lat="46.55819" lon="5.24308">
        <ele>197.8</ele>
        <time>2021-11-22T12:37:18Z</time>
      </trkpt>
      <trkpt lat="46.55866" lon="5.24303">
        <ele>199</ele>
        <time>2021-11-22T12:37:27Z</time>
      </trkpt>
      <trkpt lat="46.55881" lon="5.24302">
        <ele>199.4</ele>
        <time>2021-11-22T12:37:30Z</time>
      </trkpt>
      <trkpt lat="46.55901" lon="5.243">
        <ele>200</ele>
        <time>2021-11-22T12:37:34Z</time>
      </trkpt>
      <trkpt lat="46.55931" lon="5.24298">
        <ele>200.8</ele>
        <time>2021-11-22T12:37:40Z</time>
      </trkpt>
      <trkpt lat="46.5594" lon="5.24299">
        <ele>201</ele>
        <time>2021-11-22T12:37:42Z</time>
      </trkpt>
      <trkpt lat="46.55946" lon="5.243">
        <ele>201</ele>
        <time>2021-11-22T12:37:43Z</time>
      </trkpt>
      <trkpt lat="46.55961" lon="5.24301">
        <ele>201.8</ele>
        <time>2021-11-22T12:37:46Z</time>
      </trkpt>
      <trkpt lat="46.55971" lon="5.24302">
        <ele>202</ele>
        <time>2021-11-22T12:37:48Z</time>
      </trkpt>
      <trkpt lat="46.56008" lon="5.2431">
        <ele>202.8</ele>
        <time>2021-11-22T12:37:55Z</time>
      </trkpt>
      <trkpt lat="46.5603" lon="5.24317">
        <ele>203</ele>
        <time>2021-11-22T12:37:59Z</time>
      </trkpt>
      <trkpt lat="46.56051" lon="5.24324">
        <ele>203.4</ele>
        <time>2021-11-22T12:38:03Z</time>
      </trkpt>
      <trkpt lat="46.56103" lon="5.24343">
        <ele>203.8</ele>
        <time>2021-11-22T12:38:13Z</time>
      </trkpt>
      <trkpt lat="46.56109" lon="5.24345">
        <ele>203.6</ele>
        <time>2021-11-22T12:38:14Z</time>
      </trkpt>
      <trkpt lat="46.56162" lon="5.24365">
        <ele>203.6</ele>
        <time>2021-11-22T12:38:24Z</time>
      </trkpt>
      <trkpt lat="46.56173" lon="5.24368">
        <ele>203.6</ele>
        <time>2021-11-22T12:38:26Z</time>
      </trkpt>
      <trkpt lat="46.56227" lon="5.24386">
        <ele>203.8</ele>
        <time>2021-11-22T12:38:36Z</time>
      </trkpt>
      <trkpt lat="46.56243" lon="5.24392">
        <ele>203.8</ele>
        <time>2021-11-22T12:38:39Z</time>
      </trkpt>
      <trkpt lat="46.56281" lon="5.24406">
        <ele>204</ele>
        <time>2021-11-22T12:38:46Z</time>
      </trkpt>
      <trkpt lat="46.56286" lon="5.24408">
        <ele>204.2</ele>
        <time>2021-11-22T12:38:47Z</time>
      </trkpt>
      <trkpt lat="46.56344" lon="5.24428">
        <ele>204.2</ele>
        <time>2021-11-22T12:38:57Z</time>
      </trkpt>
      <trkpt lat="46.56397" lon="5.24445">
        <ele>203</ele>
        <time>2021-11-22T12:39:05Z</time>
      </trkpt>
      <trkpt lat="46.56404" lon="5.24448">
        <ele>202.8</ele>
        <time>2021-11-22T12:39:06Z</time>
      </trkpt>
      <trkpt lat="46.56426" lon="5.24455">
        <ele>201.6</ele>
        <time>2021-11-22T12:39:10Z</time>
      </trkpt>
      <trkpt lat="46.56469" lon="5.2447">
        <ele>200.6</ele>
        <time>2021-11-22T12:39:15Z</time>
      </trkpt>
      <trkpt lat="46.56498" lon="5.2448">
        <ele>199.4</ele>
        <time>2021-11-22T12:39:19Z</time>
      </trkpt>
      <trkpt lat="46.56534" lon="5.24492">
        <ele>198.4</ele>
        <time>2021-11-22T12:39:24Z</time>
      </trkpt>
      <trkpt lat="46.56561" lon="5.24502">
        <ele>197.8</ele>
        <time>2021-11-22T12:39:28Z</time>
      </trkpt>
      <trkpt lat="46.56589" lon="5.24512">
        <ele>197.2</ele>
        <time>2021-11-22T12:39:32Z</time>
      </trkpt>
      <trkpt lat="46.56648" lon="5.24532">
        <ele>195.8</ele>
        <time>2021-11-22T12:39:40Z</time>
      </trkpt>
      <trkpt lat="46.56673" lon="5.24541">
        <ele>194.6</ele>
        <time>2021-11-22T12:39:43Z</time>
      </trkpt>
      <trkpt lat="46.56698" lon="5.2455">
        <ele>193.4</ele>
        <time>2021-11-22T12:39:46Z</time>
      </trkpt>
      <trkpt lat="46.56722" lon="5.24559">
        <ele>192.6</ele>
        <time>2021-11-22T12:39:49Z</time>
      </trkpt>
      <trkpt lat="46.5673" lon="5.24561">
        <ele>192.4</ele>
        <time>2021-11-22T12:39:50Z</time>
      </trkpt>
      <trkpt lat="46.56747" lon="5.24567">
        <ele>191.2</ele>
        <time>2021-11-22T12:39:52Z</time>
      </trkpt>
      <trkpt lat="46.56769" lon="5.24574">
        <ele>190</ele>
        <time>2021-11-22T12:39:55Z</time>
      </trkpt>
      <trkpt lat="46.56794" lon="5.24583">
        <ele>189.2</ele>
        <time>2021-11-22T12:39:58Z</time>
      </trkpt>
      <trkpt lat="46.56802" lon="5.24586">
        <ele>189</ele>
        <time>2021-11-22T12:39:59Z</time>
      </trkpt>
      <trkpt lat="46.56839" lon="5.24599">
        <ele>188</ele>
        <time>2021-11-22T12:40:04Z</time>
      </trkpt>
      <trkpt lat="46.5686" lon="5.24606">
        <ele>187.2</ele>
        <time>2021-11-22T12:40:07Z</time>
      </trkpt>
      <trkpt lat="46.56909" lon="5.24623">
        <ele>186.8</ele>
        <time>2021-11-22T12:40:15Z</time>
      </trkpt>
      <trkpt lat="46.56922" lon="5.24627">
        <ele>186.6</ele>
        <time>2021-11-22T12:40:16Z</time>
      </trkpt>
      <trkpt lat="46.56975" lon="5.24646">
        <ele>185.6</ele>
        <time>2021-11-22T12:40:23Z</time>
      </trkpt>
      <trkpt lat="46.56997" lon="5.24653">
        <ele>185</ele>
        <time>2021-11-22T12:40:26Z</time>
      </trkpt>
      <trkpt lat="46.57011" lon="5.24658">
        <ele>184.6</ele>
        <time>2021-11-22T12:40:28Z</time>
      </trkpt>
      <trkpt lat="46.57057" lon="5.24674">
        <ele>183.4</ele>
        <time>2021-11-22T12:40:34Z</time>
      </trkpt>
      <trkpt lat="46.57087" lon="5.24684">
        <ele>182.6</ele>
        <time>2021-11-22T12:40:38Z</time>
      </trkpt>
      <trkpt lat="46.57095" lon="5.24686">
        <ele>182.4</ele>
        <time>2021-11-22T12:40:39Z</time>
      </trkpt>
      <trkpt lat="46.57142" lon="5.24696">
        <ele>181.4</ele>
        <time>2021-11-22T12:40:45Z</time>
      </trkpt>
      <trkpt lat="46.5715" lon="5.24695">
        <ele>181.2</ele>
        <time>2021-11-22T12:40:46Z</time>
      </trkpt>
      <trkpt lat="46.5718" lon="5.24684">
        <ele>179.8</ele>
        <time>2021-11-22T12:40:50Z</time>
      </trkpt>
      <trkpt lat="46.57216" lon="5.24671">
        <ele>178.8</ele>
        <time>2021-11-22T12:40:55Z</time>
      </trkpt>
      <trkpt lat="46.57224" lon="5.24668">
        <ele>178.6</ele>
        <time>2021-11-22T12:40:56Z</time>
      </trkpt>
      <trkpt lat="46.57264" lon="5.24655">
        <ele>177.8</ele>
        <time>2021-11-22T12:41:02Z</time>
      </trkpt>
      <trkpt lat="46.57276" lon="5.24656">
        <ele>177.6</ele>
        <time>2021-11-22T12:41:04Z</time>
      </trkpt>
      <trkpt lat="46.57281" lon="5.2466">
        <ele>177.6</ele>
        <time>2021-11-22T12:41:05Z</time>
      </trkpt>
      <trkpt lat="46.57285" lon="5.24667">
        <ele>177.4</ele>
        <time>2021-11-22T12:41:06Z</time>
      </trkpt>
      <trkpt lat="46.57289" lon="5.24683">
        <ele>177.6</ele>
        <time>2021-11-22T12:41:08Z</time>
      </trkpt>
      <trkpt lat="46.57298" lon="5.24707">
        <ele>177.8</ele>
        <time>2021-11-22T12:41:11Z</time>
      </trkpt>
      <trkpt lat="46.57306" lon="5.24721">
        <ele>178</ele>
        <time>2021-11-22T12:41:13Z</time>
      </trkpt>
      <trkpt lat="46.57338" lon="5.24754">
        <ele>178.4</ele>
        <time>2021-11-22T12:41:19Z</time>
      </trkpt>
      <trkpt lat="46.57363" lon="5.24777">
        <ele>178.6</ele>
        <time>2021-11-22T12:41:24Z</time>
      </trkpt>
      <trkpt lat="46.57378" lon="5.24797">
        <ele>178.8</ele>
        <time>2021-11-22T12:41:27Z</time>
      </trkpt>
      <trkpt lat="46.574" lon="5.24843">
        <ele>178.8</ele>
        <time>2021-11-22T12:41:33Z</time>
      </trkpt>
      <trkpt lat="46.57432" lon="5.24915">
        <ele>178.6</ele>
        <time>2021-11-22T12:41:42Z</time>
      </trkpt>
      <trkpt lat="46.57436" lon="5.24922">
        <ele>178.6</ele>
        <time>2021-11-22T12:41:43Z</time>
      </trkpt>
      <trkpt lat="46.57466" lon="5.24989">
        <ele>179.2</ele>
        <time>2021-11-22T12:41:52Z</time>
      </trkpt>
      <trkpt lat="46.57469" lon="5.24997">
        <ele>179.2</ele>
        <time>2021-11-22T12:41:53Z</time>
      </trkpt>
      <trkpt lat="46.57498" lon="5.25066">
        <ele>179.6</ele>
        <time>2021-11-22T12:42:02Z</time>
      </trkpt>
      <trkpt lat="46.57501" lon="5.25073">
        <ele>179.6</ele>
        <time>2021-11-22T12:42:03Z</time>
      </trkpt>
      <trkpt lat="46.57508" lon="5.25086">
        <ele>179.6</ele>
        <time>2021-11-22T12:42:05Z</time>
      </trkpt>
      <trkpt lat="46.57525" lon="5.2511">
        <ele>179.6</ele>
        <time>2021-11-22T12:42:09Z</time>
      </trkpt>
      <trkpt lat="46.57552" lon="5.25134">
        <ele>180.2</ele>
        <time>2021-11-22T12:42:15Z</time>
      </trkpt>
      <trkpt lat="46.57571" lon="5.25142">
        <ele>180.8</ele>
        <time>2021-11-22T12:42:19Z</time>
      </trkpt>
      <trkpt lat="46.57581" lon="5.25144">
        <ele>181</ele>
        <time>2021-11-22T12:42:21Z</time>
      </trkpt>
      <trkpt lat="46.5761" lon="5.25145">
        <ele>181.8</ele>
        <time>2021-11-22T12:42:27Z</time>
      </trkpt>
      <trkpt lat="46.5762" lon="5.25143">
        <ele>182.2</ele>
        <time>2021-11-22T12:42:29Z</time>
      </trkpt>
      <trkpt lat="46.57646" lon="5.25129">
        <ele>182.8</ele>
        <time>2021-11-22T12:42:35Z</time>
      </trkpt>
      <trkpt lat="46.57653" lon="5.25124">
        <ele>183.4</ele>
        <time>2021-11-22T12:42:37Z</time>
      </trkpt>
      <trkpt lat="46.57661" lon="5.25119">
        <ele>183.8</ele>
        <time>2021-11-22T12:42:39Z</time>
      </trkpt>
      <trkpt lat="46.57685" lon="5.25107">
        <ele>185</ele>
        <time>2021-11-22T12:42:45Z</time>
      </trkpt>
      <trkpt lat="46.57693" lon="5.25104">
        <ele>185.4</ele>
        <time>2021-11-22T12:42:47Z</time>
      </trkpt>
      <trkpt lat="46.57714" lon="5.25098">
        <ele>186.2</ele>
        <time>2021-11-22T12:42:52Z</time>
      </trkpt>
      <trkpt lat="46.57723" lon="5.25097">
        <ele>186.4</ele>
        <time>2021-11-22T12:42:54Z</time>
      </trkpt>
      <trkpt lat="46.57757" lon="5.25097">
        <ele>187.4</ele>
        <time>2021-11-22T12:43:01Z</time>
      </trkpt>
      <trkpt lat="46.57771" lon="5.25098">
        <ele>187.8</ele>
        <time>2021-11-22T12:43:04Z</time>
      </trkpt>
      <trkpt lat="46.57828" lon="5.251">
        <ele>187.6</ele>
        <time>2021-11-22T12:43:15Z</time>
      </trkpt>
      <trkpt lat="46.57886" lon="5.25101">
        <ele>186</ele>
        <time>2021-11-22T12:43:24Z</time>
      </trkpt>
      <trkpt lat="46.57917" lon="5.25101">
        <ele>185</ele>
        <time>2021-11-22T12:43:29Z</time>
      </trkpt>
      <trkpt lat="46.57957" lon="5.25099">
        <ele>183.8</ele>
        <time>2021-11-22T12:43:35Z</time>
      </trkpt>
      <trkpt lat="46.57968" lon="5.25109">
        <ele>183.6</ele>
        <time>2021-11-22T12:43:37Z</time>
      </trkpt>
      <trkpt lat="46.5797" lon="5.25117">
        <ele>183.4</ele>
        <time>2021-11-22T12:43:38Z</time>
      </trkpt>
      <trkpt lat="46.57968" lon="5.25126">
        <ele>183.2</ele>
        <time>2021-11-22T12:43:39Z</time>
      </trkpt>
      <trkpt lat="46.57965" lon="5.25132">
        <ele>183.2</ele>
        <time>2021-11-22T12:43:40Z</time>
      </trkpt>
      <trkpt lat="46.5796" lon="5.25136">
        <ele>183</ele>
        <time>2021-11-22T12:43:41Z</time>
      </trkpt>
      <trkpt lat="46.57953" lon="5.25138">
        <ele>182.8</ele>
        <time>2021-11-22T12:43:42Z</time>
      </trkpt>
      <trkpt lat="46.57944" lon="5.25138">
        <ele>182.8</ele>
        <time>2021-11-22T12:43:43Z</time>
      </trkpt>
      <trkpt lat="46.57922" lon="5.25135">
        <ele>182.2</ele>
        <time>2021-11-22T12:43:46Z</time>
      </trkpt>
      <trkpt lat="46.57898" lon="5.25131">
        <ele>181.6</ele>
        <time>2021-11-22T12:43:49Z</time>
      </trkpt>
      <trkpt lat="46.57867" lon="5.25126">
        <ele>180.8</ele>
        <time>2021-11-22T12:43:53Z</time>
      </trkpt>
      <trkpt lat="46.57829" lon="5.2513">
        <ele>180.8</ele>
        <time>2021-11-22T12:43:58Z</time>
      </trkpt>
      <trkpt lat="46.57829" lon="5.2513">
        <ele>180.6</ele>
        <time>2021-11-22T12:43:59Z</time>
      </trkpt>
      <trkpt lat="46.57814" lon="5.25136">
        <ele>180.6</ele>
        <time>2021-11-22T12:44:00Z</time>
      </trkpt>
      <trkpt lat="46.57807" lon="5.2514">
        <ele>180.6</ele>
        <time>2021-11-22T12:44:01Z</time>
      </trkpt>
      <trkpt lat="46.57792" lon="5.25151">
        <ele>180.4</ele>
        <time>2021-11-22T12:44:03Z</time>
      </trkpt>
      <trkpt lat="46.57745" lon="5.2519">
        <ele>180.2</ele>
        <time>2021-11-22T12:44:10Z</time>
      </trkpt>
      <trkpt lat="46.5772" lon="5.25212">
        <ele>180.2</ele>
        <time>2021-11-22T12:44:14Z</time>
      </trkpt>
      <trkpt lat="46.57673" lon="5.25253">
        <ele>180.4</ele>
        <time>2021-11-22T12:44:22Z</time>
      </trkpt>
      <trkpt lat="46.57673" lon="5.25253">
        <ele>180.4</ele>
        <time>2021-11-22T12:44:23Z</time>
      </trkpt>
      <trkpt lat="46.57622" lon="5.25295">
        <ele>181</ele>
        <time>2021-11-22T12:44:31Z</time>
      </trkpt>
      <trkpt lat="46.57601" lon="5.25311">
        <ele>181.6</ele>
        <time>2021-11-22T12:44:35Z</time>
      </trkpt>
      <trkpt lat="46.57591" lon="5.2532">
        <ele>182</ele>
        <time>2021-11-22T12:44:38Z</time>
      </trkpt>
      <trkpt lat="46.57582" lon="5.2533">
        <ele>182.4</ele>
        <time>2021-11-22T12:44:39Z</time>
      </trkpt>
      <trkpt lat="46.57574" lon="5.25343">
        <ele>182.8</ele>
        <time>2021-11-22T12:44:41Z</time>
      </trkpt>
      <trkpt lat="46.57569" lon="5.25359">
        <ele>183</ele>
        <time>2021-11-22T12:44:43Z</time>
      </trkpt>
      <trkpt lat="46.57567" lon="5.25376">
        <ele>183</ele>
        <time>2021-11-22T12:44:45Z</time>
      </trkpt>
      <trkpt lat="46.57569" lon="5.25433">
        <ele>183.8</ele>
        <time>2021-11-22T12:44:52Z</time>
      </trkpt>
      <trkpt lat="46.57571" lon="5.25463">
        <ele>185.2</ele>
        <time>2021-11-22T12:44:57Z</time>
      </trkpt>
      <trkpt lat="46.57571" lon="5.25469">
        <ele>185.4</ele>
        <time>2021-11-22T12:44:58Z</time>
      </trkpt>
      <trkpt lat="46.57573" lon="5.2548">
        <ele>186.2</ele>
        <time>2021-11-22T12:45:00Z</time>
      </trkpt>
      <trkpt lat="46.57575" lon="5.25501">
        <ele>187.8</ele>
        <time>2021-11-22T12:45:04Z</time>
      </trkpt>
      <trkpt lat="46.57576" lon="5.25506">
        <ele>188</ele>
        <time>2021-11-22T12:45:05Z</time>
      </trkpt>
      <trkpt lat="46.57577" lon="5.25521">
        <ele>188.8</ele>
        <time>2021-11-22T12:45:08Z</time>
      </trkpt>
      <trkpt lat="46.57578" lon="5.2554">
        <ele>189.8</ele>
        <time>2021-11-22T12:45:12Z</time>
      </trkpt>
      <trkpt lat="46.57578" lon="5.25545">
        <ele>190.2</ele>
        <time>2021-11-22T12:45:13Z</time>
      </trkpt>
      <trkpt lat="46.5758" lon="5.25565">
        <ele>191.4</ele>
        <time>2021-11-22T12:45:17Z</time>
      </trkpt>
      <trkpt lat="46.57581" lon="5.25575">
        <ele>191.8</ele>
        <time>2021-11-22T12:45:19Z</time>
      </trkpt>
      <trkpt lat="46.57582" lon="5.25584">
        <ele>192.6</ele>
        <time>2021-11-22T12:45:21Z</time>
      </trkpt>
      <trkpt lat="46.57586" lon="5.25604">
        <ele>194</ele>
        <time>2021-11-22T12:45:25Z</time>
      </trkpt>
      <trkpt lat="46.57588" lon="5.25614">
        <ele>194.6</ele>
        <time>2021-11-22T12:45:27Z</time>
      </trkpt>
      <trkpt lat="46.5759" lon="5.25624">
        <ele>195.2</ele>
        <time>2021-11-22T12:45:29Z</time>
      </trkpt>
      <trkpt lat="46.57598" lon="5.25644">
        <ele>196</ele>
        <time>2021-11-22T12:45:33Z</time>
      </trkpt>
      <trkpt lat="46.57599" lon="5.25649">
        <ele>196.2</ele>
        <time>2021-11-22T12:45:34Z</time>
      </trkpt>
      <trkpt lat="46.57604" lon="5.2567">
        <ele>197.6</ele>
        <time>2021-11-22T12:45:38Z</time>
      </trkpt>
      <trkpt lat="46.57607" lon="5.25678">
        <ele>198.2</ele>
        <time>2021-11-22T12:45:40Z</time>
      </trkpt>
      <trkpt lat="46.5761" lon="5.25691">
        <ele>199</ele>
        <time>2021-11-22T12:45:43Z</time>
      </trkpt>
      <trkpt lat="46.57613" lon="5.25698">
        <ele>199.4</ele>
        <time>2021-11-22T12:45:45Z</time>
      </trkpt>
      <trkpt lat="46.57629" lon="5.257">
        <ele>200.2</ele>
        <time>2021-11-22T12:45:49Z</time>
      </trkpt>
      <trkpt lat="46.57647" lon="5.25701">
        <ele>200.8</ele>
        <time>2021-11-22T12:45:53Z</time>
      </trkpt>
      <trkpt lat="46.57656" lon="5.25702">
        <ele>201</ele>
        <time>2021-11-22T12:45:55Z</time>
      </trkpt>
      <trkpt lat="46.5766" lon="5.25702">
        <ele>201.2</ele>
        <time>2021-11-22T12:45:56Z</time>
      </trkpt>
      <trkpt lat="46.57669" lon="5.25704">
        <ele>201.2</ele>
        <time>2021-11-22T12:45:58Z</time>
      </trkpt>
      <trkpt lat="46.5771" lon="5.25709">
        <ele>201.4</ele>
        <time>2021-11-22T12:46:06Z</time>
      </trkpt>
      <trkpt lat="46.57741" lon="5.25727">
        <ele>201.4</ele>
        <time>2021-11-22T12:46:12Z</time>
      </trkpt>
      <trkpt lat="46.57778" lon="5.25752">
        <ele>201</ele>
        <time>2021-11-22T12:46:19Z</time>
      </trkpt>
      <trkpt lat="46.57815" lon="5.25766">
        <ele>200.8</ele>
        <time>2021-11-22T12:46:25Z</time>
      </trkpt>
      <trkpt lat="46.57857" lon="5.25769">
        <ele>200.2</ele>
        <time>2021-11-22T12:46:31Z</time>
      </trkpt>
      <trkpt lat="46.57903" lon="5.25768">
        <ele>199</ele>
        <time>2021-11-22T12:46:38Z</time>
      </trkpt>
      <trkpt lat="46.57925" lon="5.25767">
        <ele>198.6</ele>
        <time>2021-11-22T12:46:41Z</time>
      </trkpt>
      <trkpt lat="46.57946" lon="5.25769">
        <ele>198.4</ele>
        <time>2021-11-22T12:46:44Z</time>
      </trkpt>
      <trkpt lat="46.57959" lon="5.25775">
        <ele>198.2</ele>
        <time>2021-11-22T12:46:46Z</time>
      </trkpt>
      <trkpt lat="46.57966" lon="5.2578">
        <ele>198</ele>
        <time>2021-11-22T12:46:47Z</time>
      </trkpt>
      <trkpt lat="46.57971" lon="5.25787">
        <ele>198</ele>
        <time>2021-11-22T12:46:48Z</time>
      </trkpt>
      <trkpt lat="46.57975" lon="5.25796">
        <ele>198</ele>
        <time>2021-11-22T12:46:49Z</time>
      </trkpt>
      <trkpt lat="46.57992" lon="5.25833">
        <ele>197.2</ele>
        <time>2021-11-22T12:46:53Z</time>
      </trkpt>
      <trkpt lat="46.57999" lon="5.25844">
        <ele>197</ele>
        <time>2021-11-22T12:46:54Z</time>
      </trkpt>
      <trkpt lat="46.58017" lon="5.25864">
        <ele>196.2</ele>
        <time>2021-11-22T12:46:57Z</time>
      </trkpt>
      <trkpt lat="46.58026" lon="5.25872">
        <ele>195.4</ele>
        <time>2021-11-22T12:46:58Z</time>
      </trkpt>
      <trkpt lat="46.58042" lon="5.25883">
        <ele>194.2</ele>
        <time>2021-11-22T12:47:00Z</time>
      </trkpt>
      <trkpt lat="46.58058" lon="5.25895">
        <ele>192.6</ele>
        <time>2021-11-22T12:47:02Z</time>
      </trkpt>
      <trkpt lat="46.58066" lon="5.259">
        <ele>192.4</ele>
        <time>2021-11-22T12:47:03Z</time>
      </trkpt>
      <trkpt lat="46.58074" lon="5.25906">
        <ele>191.4</ele>
        <time>2021-11-22T12:47:04Z</time>
      </trkpt>
      <trkpt lat="46.58088" lon="5.25916">
        <ele>190.4</ele>
        <time>2021-11-22T12:47:06Z</time>
      </trkpt>
      <trkpt lat="46.58119" lon="5.25939">
        <ele>189.2</ele>
        <time>2021-11-22T12:47:10Z</time>
      </trkpt>
      <trkpt lat="46.58158" lon="5.25966">
        <ele>188.8</ele>
        <time>2021-11-22T12:47:16Z</time>
      </trkpt>
      <trkpt lat="46.58188" lon="5.25992">
        <ele>190.2</ele>
        <time>2021-11-22T12:47:22Z</time>
      </trkpt>
      <trkpt lat="46.58192" lon="5.25995">
        <ele>190.4</ele>
        <time>2021-11-22T12:47:23Z</time>
      </trkpt>
      <trkpt lat="46.58208" lon="5.26013">
        <ele>191.8</ele>
        <time>2021-11-22T12:47:27Z</time>
      </trkpt>
      <trkpt lat="46.58216" lon="5.26021">
        <ele>192.4</ele>
        <time>2021-11-22T12:47:29Z</time>
      </trkpt>
      <trkpt lat="46.58219" lon="5.26025">
        <ele>192.8</ele>
        <time>2021-11-22T12:47:30Z</time>
      </trkpt>
      <trkpt lat="46.5823" lon="5.26037">
        <ele>193.8</ele>
        <time>2021-11-22T12:47:33Z</time>
      </trkpt>
      <trkpt lat="46.58245" lon="5.2605">
        <ele>195.4</ele>
        <time>2021-11-22T12:47:37Z</time>
      </trkpt>
      <trkpt lat="46.58248" lon="5.26053">
        <ele>195.6</ele>
        <time>2021-11-22T12:47:38Z</time>
      </trkpt>
      <trkpt lat="46.58252" lon="5.26056">
        <ele>196</ele>
        <time>2021-11-22T12:47:39Z</time>
      </trkpt>
      <trkpt lat="46.58258" lon="5.26064">
        <ele>196.6</ele>
        <time>2021-11-22T12:47:41Z</time>
      </trkpt>
      <trkpt lat="46.58267" lon="5.26078">
        <ele>197.2</ele>
        <time>2021-11-22T12:47:44Z</time>
      </trkpt>
      <trkpt lat="46.58272" lon="5.26087">
        <ele>198.2</ele>
        <time>2021-11-22T12:47:46Z</time>
      </trkpt>
      <trkpt lat="46.58275" lon="5.26092">
        <ele>198.4</ele>
        <time>2021-11-22T12:47:47Z</time>
      </trkpt>
      <trkpt lat="46.58278" lon="5.26104">
        <ele>199</ele>
        <time>2021-11-22T12:47:49Z</time>
      </trkpt>
      <trkpt lat="46.5828" lon="5.26111">
        <ele>199.2</ele>
        <time>2021-11-22T12:47:50Z</time>
      </trkpt>
      <trkpt lat="46.5829" lon="5.26146">
        <ele>199.6</ele>
        <time>2021-11-22T12:47:55Z</time>
      </trkpt>
      <trkpt lat="46.58306" lon="5.26206">
        <ele>200.2</ele>
        <time>2021-11-22T12:48:04Z</time>
      </trkpt>
      <trkpt lat="46.5831" lon="5.2622">
        <ele>200.4</ele>
        <time>2021-11-22T12:48:06Z</time>
      </trkpt>
      <trkpt lat="46.58316" lon="5.2624">
        <ele>200.4</ele>
        <time>2021-11-22T12:48:09Z</time>
      </trkpt>
      <trkpt lat="46.58324" lon="5.26268">
        <ele>200.8</ele>
        <time>2021-11-22T12:48:13Z</time>
      </trkpt>
      <trkpt lat="46.58343" lon="5.26335">
        <ele>201.2</ele>
        <time>2021-11-22T12:48:22Z</time>
      </trkpt>
      <trkpt lat="46.58351" lon="5.26366">
        <ele>201.2</ele>
        <time>2021-11-22T12:48:26Z</time>
      </trkpt>
      <trkpt lat="46.58363" lon="5.26405">
        <ele>201.2</ele>
        <time>2021-11-22T12:48:31Z</time>
      </trkpt>
      <trkpt lat="46.58381" lon="5.26465">
        <ele>200.6</ele>
        <time>2021-11-22T12:48:39Z</time>
      </trkpt>
      <trkpt lat="46.58398" lon="5.26504">
        <ele>200.8</ele>
        <time>2021-11-22T12:48:45Z</time>
      </trkpt>
      <trkpt lat="46.58403" lon="5.26511">
        <ele>200.8</ele>
        <time>2021-11-22T12:48:46Z</time>
      </trkpt>
      <trkpt lat="46.58427" lon="5.26541">
        <ele>201.4</ele>
        <time>2021-11-22T12:48:52Z</time>
      </trkpt>
      <trkpt lat="46.5847" lon="5.26579">
        <ele>201.4</ele>
        <time>2021-11-22T12:49:01Z</time>
      </trkpt>
      <trkpt lat="46.58479" lon="5.26586">
        <ele>201.4</ele>
        <time>2021-11-22T12:49:03Z</time>
      </trkpt>
      <trkpt lat="46.58488" lon="5.2659">
        <ele>201.2</ele>
        <time>2021-11-22T12:49:05Z</time>
      </trkpt>
      <trkpt lat="46.58498" lon="5.26582">
        <ele>200.8</ele>
        <time>2021-11-22T12:49:07Z</time>
      </trkpt>
      <trkpt lat="46.58502" lon="5.26569">
        <ele>201.2</ele>
        <time>2021-11-22T12:49:09Z</time>
      </trkpt>
      <trkpt lat="46.58507" lon="5.26551">
        <ele>201.4</ele>
        <time>2021-11-22T12:49:11Z</time>
      </trkpt>
      <trkpt lat="46.5851" lon="5.26543">
        <ele>201.4</ele>
        <time>2021-11-22T12:49:12Z</time>
      </trkpt>
      <trkpt lat="46.58524" lon="5.26505">
        <ele>201.4</ele>
        <time>2021-11-22T12:49:17Z</time>
      </trkpt>
      <trkpt lat="46.58553" lon="5.26433">
        <ele>201.4</ele>
        <time>2021-11-22T12:49:26Z</time>
      </trkpt>
      <trkpt lat="46.58584" lon="5.26376">
        <ele>201.2</ele>
        <time>2021-11-22T12:49:34Z</time>
      </trkpt>
      <trkpt lat="46.58621" lon="5.26309">
        <ele>201</ele>
        <time>2021-11-22T12:49:43Z</time>
      </trkpt>
      <trkpt lat="46.58629" lon="5.26295">
        <ele>200.8</ele>
        <time>2021-11-22T12:49:45Z</time>
      </trkpt>
      <trkpt lat="46.58664" lon="5.26238">
        <ele>200.6</ele>
        <time>2021-11-22T12:49:53Z</time>
      </trkpt>
      <trkpt lat="46.587" lon="5.26185">
        <ele>200.8</ele>
        <time>2021-11-22T12:50:01Z</time>
      </trkpt>
      <trkpt lat="46.58708" lon="5.26173">
        <ele>201</ele>
        <time>2021-11-22T12:50:03Z</time>
      </trkpt>
      <trkpt lat="46.58726" lon="5.26145">
        <ele>201.2</ele>
        <time>2021-11-22T12:50:07Z</time>
      </trkpt>
      <trkpt lat="46.5875" lon="5.26105">
        <ele>200.6</ele>
        <time>2021-11-22T12:50:13Z</time>
      </trkpt>
      <trkpt lat="46.58753" lon="5.26097">
        <ele>200.6</ele>
        <time>2021-11-22T12:50:14Z</time>
      </trkpt>
      <trkpt lat="46.5877" lon="5.26045">
        <ele>200.8</ele>
        <time>2021-11-22T12:50:20Z</time>
      </trkpt>
      <trkpt lat="46.58774" lon="5.26019">
        <ele>200.8</ele>
        <time>2021-11-22T12:50:23Z</time>
      </trkpt>
      <trkpt lat="46.58775" lon="5.25999">
        <ele>200.8</ele>
        <time>2021-11-22T12:50:25Z</time>
      </trkpt>
      <trkpt lat="46.58771" lon="5.25915">
        <ele>201</ele>
        <time>2021-11-22T12:50:34Z</time>
      </trkpt>
      <trkpt lat="46.58767" lon="5.25836">
        <ele>200.8</ele>
        <time>2021-11-22T12:50:42Z</time>
      </trkpt>
      <trkpt lat="46.58763" lon="5.25755">
        <ele>200.6</ele>
        <time>2021-11-22T12:50:50Z</time>
      </trkpt>
      <trkpt lat="46.58758" lon="5.25718">
        <ele>200.4</ele>
        <time>2021-11-22T12:50:54Z</time>
      </trkpt>
      <trkpt lat="46.58737" lon="5.25642">
        <ele>200.6</ele>
        <time>2021-11-22T12:51:02Z</time>
      </trkpt>
      <trkpt lat="46.58722" lon="5.25575">
        <ele>200.4</ele>
        <time>2021-11-22T12:51:08Z</time>
      </trkpt>
      <trkpt lat="46.58723" lon="5.25553">
        <ele>200.2</ele>
        <time>2021-11-22T12:51:10Z</time>
      </trkpt>
      <trkpt lat="46.58725" lon="5.25542">
        <ele>200</ele>
        <time>2021-11-22T12:51:11Z</time>
      </trkpt>
      <trkpt lat="46.58726" lon="5.25531">
        <ele>200</ele>
        <time>2021-11-22T12:51:12Z</time>
      </trkpt>
      <trkpt lat="46.58739" lon="5.25462">
        <ele>199.4</ele>
        <time>2021-11-22T12:51:19Z</time>
      </trkpt>
      <trkpt lat="46.58754" lon="5.25384">
        <ele>200.2</ele>
        <time>2021-11-22T12:51:27Z</time>
      </trkpt>
      <trkpt lat="46.58756" lon="5.25375">
        <ele>200.2</ele>
        <time>2021-11-22T12:51:28Z</time>
      </trkpt>
      <trkpt lat="46.58765" lon="5.25336">
        <ele>200</ele>
        <time>2021-11-22T12:51:32Z</time>
      </trkpt>
      <trkpt lat="46.58773" lon="5.25319">
        <ele>200</ele>
        <time>2021-11-22T12:51:34Z</time>
      </trkpt>
      <trkpt lat="46.58807" lon="5.25255">
        <ele>199.4</ele>
        <time>2021-11-22T12:51:42Z</time>
      </trkpt>
      <trkpt lat="46.58836" lon="5.25198">
        <ele>199.4</ele>
        <time>2021-11-22T12:51:49Z</time>
      </trkpt>
      <trkpt lat="46.58859" lon="5.25145">
        <ele>198.8</ele>
        <time>2021-11-22T12:51:55Z</time>
      </trkpt>
      <trkpt lat="46.58873" lon="5.25109">
        <ele>198.4</ele>
        <time>2021-11-22T12:51:59Z</time>
      </trkpt>
      <trkpt lat="46.58896" lon="5.25051">
        <ele>198.6</ele>
        <time>2021-11-22T12:52:06Z</time>
      </trkpt>
      <trkpt lat="46.58925" lon="5.24976">
        <ele>199.4</ele>
        <time>2021-11-22T12:52:15Z</time>
      </trkpt>
      <trkpt lat="46.58928" lon="5.24968">
        <ele>199.4</ele>
        <time>2021-11-22T12:52:16Z</time>
      </trkpt>
      <trkpt lat="46.58957" lon="5.24894">
        <ele>199.6</ele>
        <time>2021-11-22T12:52:25Z</time>
      </trkpt>
      <trkpt lat="46.58982" lon="5.24821">
        <ele>199.4</ele>
        <time>2021-11-22T12:52:34Z</time>
      </trkpt>
      <trkpt lat="46.58999" lon="5.2476">
        <ele>199.4</ele>
        <time>2021-11-22T12:52:42Z</time>
      </trkpt>
      <trkpt lat="46.59004" lon="5.24747">
        <ele>199.4</ele>
        <time>2021-11-22T12:52:44Z</time>
      </trkpt>
      <trkpt lat="46.59007" lon="5.24732">
        <ele>199.4</ele>
        <time>2021-11-22T12:52:46Z</time>
      </trkpt>
      <trkpt lat="46.5901" lon="5.24703">
        <ele>199.2</ele>
        <time>2021-11-22T12:52:49Z</time>
      </trkpt>
      <trkpt lat="46.5901" lon="5.24683">
        <ele>199.2</ele>
        <time>2021-11-22T12:52:51Z</time>
      </trkpt>
      <trkpt lat="46.59005" lon="5.24614">
        <ele>199.4</ele>
        <time>2021-11-22T12:52:58Z</time>
      </trkpt>
      <trkpt lat="46.58991" lon="5.24546">
        <ele>199.4</ele>
        <time>2021-11-22T12:53:05Z</time>
      </trkpt>
      <trkpt lat="46.58967" lon="5.24468">
        <ele>198.6</ele>
        <time>2021-11-22T12:53:13Z</time>
      </trkpt>
      <trkpt lat="46.58964" lon="5.24457">
        <ele>198.4</ele>
        <time>2021-11-22T12:53:14Z</time>
      </trkpt>
      <trkpt lat="46.58963" lon="5.24435">
        <ele>197.8</ele>
        <time>2021-11-22T12:53:16Z</time>
      </trkpt>
      <trkpt lat="46.58963" lon="5.24423">
        <ele>197.6</ele>
        <time>2021-11-22T12:53:17Z</time>
      </trkpt>
      <trkpt lat="46.58967" lon="5.24366">
        <ele>196.6</ele>
        <time>2021-11-22T12:53:22Z</time>
      </trkpt>
      <trkpt lat="46.58969" lon="5.2432">
        <ele>195.8</ele>
        <time>2021-11-22T12:53:26Z</time>
      </trkpt>
      <trkpt lat="46.58969" lon="5.24308">
        <ele>195.6</ele>
        <time>2021-11-22T12:53:27Z</time>
      </trkpt>
      <trkpt lat="46.58966" lon="5.24287">
        <ele>195.4</ele>
        <time>2021-11-22T12:53:29Z</time>
      </trkpt>
      <trkpt lat="46.58963" lon="5.24276">
        <ele>195.4</ele>
        <time>2021-11-22T12:53:30Z</time>
      </trkpt>
      <trkpt lat="46.58945" lon="5.24198">
        <ele>195.4</ele>
        <time>2021-11-22T12:53:38Z</time>
      </trkpt>
      <trkpt lat="46.58936" lon="5.24154">
        <ele>196</ele>
        <time>2021-11-22T12:53:43Z</time>
      </trkpt>
      <trkpt lat="46.58936" lon="5.24145">
        <ele>196.2</ele>
        <time>2021-11-22T12:53:44Z</time>
      </trkpt>
      <trkpt lat="46.58936" lon="5.24136">
        <ele>196.4</ele>
        <time>2021-11-22T12:53:45Z</time>
      </trkpt>
      <trkpt lat="46.58937" lon="5.24127">
        <ele>196.6</ele>
        <time>2021-11-22T12:53:46Z</time>
      </trkpt>
      <trkpt lat="46.58939" lon="5.24118">
        <ele>196.8</ele>
        <time>2021-11-22T12:53:47Z</time>
      </trkpt>
      <trkpt lat="46.58942" lon="5.24109">
        <ele>196.8</ele>
        <time>2021-11-22T12:53:48Z</time>
      </trkpt>
      <trkpt lat="46.58951" lon="5.24079">
        <ele>197</ele>
        <time>2021-11-22T12:53:51Z</time>
      </trkpt>
      <trkpt lat="46.58973" lon="5.24012">
        <ele>194.8</ele>
        <time>2021-11-22T12:53:57Z</time>
      </trkpt>
      <trkpt lat="46.58986" lon="5.23995">
        <ele>193.2</ele>
        <time>2021-11-22T12:53:59Z</time>
      </trkpt>
      <trkpt lat="46.58995" lon="5.23991">
        <ele>192.2</ele>
        <time>2021-11-22T12:54:00Z</time>
      </trkpt>
      <trkpt lat="46.59003" lon="5.23989">
        <ele>191.8</ele>
        <time>2021-11-22T12:54:01Z</time>
      </trkpt>
      <trkpt lat="46.59029" lon="5.23988">
        <ele>191</ele>
        <time>2021-11-22T12:54:04Z</time>
      </trkpt>
      <trkpt lat="46.59036" lon="5.23988">
        <ele>190.6</ele>
        <time>2021-11-22T12:54:05Z</time>
      </trkpt>
      <trkpt lat="46.59058" lon="5.23986">
        <ele>190.4</ele>
        <time>2021-11-22T12:54:08Z</time>
      </trkpt>
      <trkpt lat="46.59103" lon="5.23984">
        <ele>190.8</ele>
        <time>2021-11-22T12:54:15Z</time>
      </trkpt>
      <trkpt lat="46.59161" lon="5.2398">
        <ele>191.2</ele>
        <time>2021-11-22T12:54:24Z</time>
      </trkpt>
      <trkpt lat="46.59174" lon="5.23979">
        <ele>191.2</ele>
        <time>2021-11-22T12:54:26Z</time>
      </trkpt>
      <trkpt lat="46.59224" lon="5.2398">
        <ele>190.4</ele>
        <time>2021-11-22T12:54:33Z</time>
      </trkpt>
      <trkpt lat="46.59249" lon="5.23986">
        <ele>189.6</ele>
        <time>2021-11-22T12:54:36Z</time>
      </trkpt>
      <trkpt lat="46.59273" lon="5.23996">
        <ele>188</ele>
        <time>2021-11-22T12:54:39Z</time>
      </trkpt>
      <trkpt lat="46.59288" lon="5.24004">
        <ele>187</ele>
        <time>2021-11-22T12:54:41Z</time>
      </trkpt>
      <trkpt lat="46.59302" lon="5.24011">
        <ele>185.8</ele>
        <time>2021-11-22T12:54:43Z</time>
      </trkpt>
      <trkpt lat="46.59322" lon="5.24018">
        <ele>185.2</ele>
        <time>2021-11-22T12:54:46Z</time>
      </trkpt>
      <trkpt lat="46.5935" lon="5.24019">
        <ele>185.4</ele>
        <time>2021-11-22T12:54:51Z</time>
      </trkpt>
      <trkpt lat="46.59353" lon="5.24017">
        <ele>185.8</ele>
        <time>2021-11-22T12:54:52Z</time>
      </trkpt>
      <trkpt lat="46.59359" lon="5.24009">
        <ele>186.4</ele>
        <time>2021-11-22T12:54:54Z</time>
      </trkpt>
      <trkpt lat="46.59361" lon="5.23994">
        <ele>187</ele>
        <time>2021-11-22T12:54:56Z</time>
      </trkpt>
      <trkpt lat="46.59361" lon="5.23976">
        <ele>187</ele>
        <time>2021-11-22T12:54:58Z</time>
      </trkpt>
      <trkpt lat="46.5936" lon="5.23938">
        <ele>187</ele>
        <time>2021-11-22T12:55:02Z</time>
      </trkpt>
      <trkpt lat="46.59361" lon="5.2393">
        <ele>186.6</ele>
        <time>2021-11-22T12:55:03Z</time>
      </trkpt>
      <trkpt lat="46.59365" lon="5.23924">
        <ele>186.4</ele>
        <time>2021-11-22T12:55:04Z</time>
      </trkpt>
      <trkpt lat="46.59369" lon="5.23921">
        <ele>186.2</ele>
        <time>2021-11-22T12:55:05Z</time>
      </trkpt>
      <trkpt lat="46.59374" lon="5.23921">
        <ele>186.2</ele>
        <time>2021-11-22T12:55:06Z</time>
      </trkpt>
      <trkpt lat="46.59388" lon="5.23925">
        <ele>186</ele>
        <time>2021-11-22T12:55:09Z</time>
      </trkpt>
      <trkpt lat="46.59411" lon="5.23935">
        <ele>188.4</ele>
        <time>2021-11-22T12:55:15Z</time>
      </trkpt>
      <trkpt lat="46.59418" lon="5.23937">
        <ele>189.8</ele>
        <time>2021-11-22T12:55:17Z</time>
      </trkpt>
      <trkpt lat="46.59429" lon="5.23938">
        <ele>191.2</ele>
        <time>2021-11-22T12:55:20Z</time>
      </trkpt>
      <trkpt lat="46.59439" lon="5.23939">
        <ele>192</ele>
        <time>2021-11-22T12:55:23Z</time>
      </trkpt>
      <trkpt lat="46.59443" lon="5.23939">
        <ele>192.2</ele>
        <time>2021-11-22T12:55:24Z</time>
      </trkpt>
      <trkpt lat="46.59453" lon="5.23937">
        <ele>193.4</ele>
        <time>2021-11-22T12:55:27Z</time>
      </trkpt>
      <trkpt lat="46.5946" lon="5.23936">
        <ele>193.6</ele>
        <time>2021-11-22T12:55:29Z</time>
      </trkpt>
      <trkpt lat="46.59486" lon="5.23931">
        <ele>194.8</ele>
        <time>2021-11-22T12:55:36Z</time>
      </trkpt>
      <trkpt lat="46.5949" lon="5.2393">
        <ele>195</ele>
        <time>2021-11-22T12:55:37Z</time>
      </trkpt>
      <trkpt lat="46.59516" lon="5.23927">
        <ele>195.8</ele>
        <time>2021-11-22T12:55:43Z</time>
      </trkpt>
      <trkpt lat="46.59529" lon="5.23925">
        <ele>196</ele>
        <time>2021-11-22T12:55:46Z</time>
      </trkpt>
      <trkpt lat="46.59567" lon="5.23919">
        <ele>195.8</ele>
        <time>2021-11-22T12:55:54Z</time>
      </trkpt>
      <trkpt lat="46.59614" lon="5.23908">
        <ele>195.2</ele>
        <time>2021-11-22T12:56:03Z</time>
      </trkpt>
      <trkpt lat="46.59658" lon="5.23893">
        <ele>195</ele>
        <time>2021-11-22T12:56:11Z</time>
      </trkpt>
      <trkpt lat="46.59674" lon="5.23887">
        <ele>194.6</ele>
        <time>2021-11-22T12:56:14Z</time>
      </trkpt>
      <trkpt lat="46.59689" lon="5.23877">
        <ele>194.6</ele>
        <time>2021-11-22T12:56:17Z</time>
      </trkpt>
      <trkpt lat="46.59694" lon="5.23873">
        <ele>194.6</ele>
        <time>2021-11-22T12:56:18Z</time>
      </trkpt>
      <trkpt lat="46.59698" lon="5.23868">
        <ele>194.4</ele>
        <time>2021-11-22T12:56:19Z</time>
      </trkpt>
      <trkpt lat="46.59703" lon="5.23855">
        <ele>194.4</ele>
        <time>2021-11-22T12:56:21Z</time>
      </trkpt>
      <trkpt lat="46.59703" lon="5.23839">
        <ele>194.4</ele>
        <time>2021-11-22T12:56:23Z</time>
      </trkpt>
      <trkpt lat="46.59701" lon="5.23831">
        <ele>194.4</ele>
        <time>2021-11-22T12:56:24Z</time>
      </trkpt>
      <trkpt lat="46.59689" lon="5.23782">
        <ele>194.6</ele>
        <time>2021-11-22T12:56:30Z</time>
      </trkpt>
      <trkpt lat="46.59669" lon="5.23733">
        <ele>195.6</ele>
        <time>2021-11-22T12:56:37Z</time>
      </trkpt>
      <trkpt lat="46.59661" lon="5.23722">
        <ele>195.8</ele>
        <time>2021-11-22T12:56:39Z</time>
      </trkpt>
      <trkpt lat="46.59647" lon="5.23708">
        <ele>196.2</ele>
        <time>2021-11-22T12:56:42Z</time>
      </trkpt>
      <trkpt lat="46.59609" lon="5.23673">
        <ele>196.6</ele>
        <time>2021-11-22T12:56:49Z</time>
      </trkpt>
      <trkpt lat="46.59599" lon="5.23664">
        <ele>196.6</ele>
        <time>2021-11-22T12:56:51Z</time>
      </trkpt>
      <trkpt lat="46.59592" lon="5.2365">
        <ele>196.6</ele>
        <time>2021-11-22T12:56:53Z</time>
      </trkpt>
      <trkpt lat="46.59591" lon="5.23634">
        <ele>196.6</ele>
        <time>2021-11-22T12:56:55Z</time>
      </trkpt>
      <trkpt lat="46.59591" lon="5.23626">
        <ele>196.6</ele>
        <time>2021-11-22T12:56:56Z</time>
      </trkpt>
      <trkpt lat="46.59593" lon="5.23601">
        <ele>196.6</ele>
        <time>2021-11-22T12:56:59Z</time>
      </trkpt>
      <trkpt lat="46.59594" lon="5.23594">
        <ele>197</ele>
        <time>2021-11-22T12:57:00Z</time>
      </trkpt>
      <trkpt lat="46.59596" lon="5.23579">
        <ele>197.6</ele>
        <time>2021-11-22T12:57:02Z</time>
      </trkpt>
      <trkpt lat="46.59598" lon="5.23563">
        <ele>197.8</ele>
        <time>2021-11-22T12:57:04Z</time>
      </trkpt>
      <trkpt lat="46.59599" lon="5.23556">
        <ele>198.2</ele>
        <time>2021-11-22T12:57:05Z</time>
      </trkpt>
      <trkpt lat="46.59599" lon="5.23541">
        <ele>198.6</ele>
        <time>2021-11-22T12:57:07Z</time>
      </trkpt>
      <trkpt lat="46.59599" lon="5.23535">
        <ele>198.8</ele>
        <time>2021-11-22T12:57:08Z</time>
      </trkpt>
      <trkpt lat="46.59598" lon="5.23528">
        <ele>198.8</ele>
        <time>2021-11-22T12:57:09Z</time>
      </trkpt>
      <trkpt lat="46.59597" lon="5.23514">
        <ele>198.8</ele>
        <time>2021-11-22T12:57:11Z</time>
      </trkpt>
      <trkpt lat="46.59597" lon="5.23507">
        <ele>198.8</ele>
        <time>2021-11-22T12:57:12Z</time>
      </trkpt>
      <trkpt lat="46.59599" lon="5.23499">
        <ele>199</ele>
        <time>2021-11-22T12:57:13Z</time>
      </trkpt>
      <trkpt lat="46.59605" lon="5.23486">
        <ele>198.8</ele>
        <time>2021-11-22T12:57:15Z</time>
      </trkpt>
      <trkpt lat="46.59631" lon="5.23451">
        <ele>198.4</ele>
        <time>2021-11-22T12:57:20Z</time>
      </trkpt>
      <trkpt lat="46.59659" lon="5.23413">
        <ele>197.8</ele>
        <time>2021-11-22T12:57:25Z</time>
      </trkpt>
      <trkpt lat="46.59664" lon="5.23405">
        <ele>197.6</ele>
        <time>2021-11-22T12:57:26Z</time>
      </trkpt>
      <trkpt lat="46.59692" lon="5.23368">
        <ele>196.6</ele>
        <time>2021-11-22T12:57:31Z</time>
      </trkpt>
      <trkpt lat="46.59698" lon="5.2336">
        <ele>196.4</ele>
        <time>2021-11-22T12:57:32Z</time>
      </trkpt>
      <trkpt lat="46.59735" lon="5.23306">
        <ele>195.4</ele>
        <time>2021-11-22T12:57:39Z</time>
      </trkpt>
      <trkpt lat="46.59751" lon="5.23284">
        <ele>194.8</ele>
        <time>2021-11-22T12:57:42Z</time>
      </trkpt>
      <trkpt lat="46.59787" lon="5.23233">
        <ele>194.4</ele>
        <time>2021-11-22T12:57:49Z</time>
      </trkpt>
      <trkpt lat="46.59826" lon="5.23174">
        <ele>194.2</ele>
        <time>2021-11-22T12:57:57Z</time>
      </trkpt>
      <trkpt lat="46.59841" lon="5.23126">
        <ele>193.8</ele>
        <time>2021-11-22T12:58:02Z</time>
      </trkpt>
      <trkpt lat="46.5985" lon="5.23062">
        <ele>193.6</ele>
        <time>2021-11-22T12:58:08Z</time>
      </trkpt>
      <trkpt lat="46.59856" lon="5.2303">
        <ele>193.4</ele>
        <time>2021-11-22T12:58:11Z</time>
      </trkpt>
      <trkpt lat="46.59868" lon="5.2299">
        <ele>193.4</ele>
        <time>2021-11-22T12:58:15Z</time>
      </trkpt>
      <trkpt lat="46.59876" lon="5.22973">
        <ele>193.4</ele>
        <time>2021-11-22T12:58:17Z</time>
      </trkpt>
      <trkpt lat="46.59886" lon="5.22959">
        <ele>193.4</ele>
        <time>2021-11-22T12:58:19Z</time>
      </trkpt>
      <trkpt lat="46.59906" lon="5.22922">
        <ele>193.6</ele>
        <time>2021-11-22T12:58:24Z</time>
      </trkpt>
      <trkpt lat="46.59926" lon="5.22889">
        <ele>194</ele>
        <time>2021-11-22T12:58:29Z</time>
      </trkpt>
      <trkpt lat="46.59933" lon="5.22876">
        <ele>194.2</ele>
        <time>2021-11-22T12:58:31Z</time>
      </trkpt>
      <trkpt lat="46.59937" lon="5.22869">
        <ele>194.4</ele>
        <time>2021-11-22T12:58:32Z</time>
      </trkpt>
      <trkpt lat="46.59948" lon="5.2285">
        <ele>195.6</ele>
        <time>2021-11-22T12:58:35Z</time>
      </trkpt>
      <trkpt lat="46.59969" lon="5.22805">
        <ele>196.8</ele>
        <time>2021-11-22T12:58:41Z</time>
      </trkpt>
      <trkpt lat="46.5999" lon="5.22751">
        <ele>196.8</ele>
        <time>2021-11-22T12:58:47Z</time>
      </trkpt>
      <trkpt lat="46.60011" lon="5.22685">
        <ele>195.8</ele>
        <time>2021-11-22T12:58:54Z</time>
      </trkpt>
      <trkpt lat="46.60029" lon="5.22601">
        <ele>195.8</ele>
        <time>2021-11-22T12:59:03Z</time>
      </trkpt>
      <trkpt lat="46.60044" lon="5.22545">
        <ele>196.2</ele>
        <time>2021-11-22T12:59:10Z</time>
      </trkpt>
      <trkpt lat="46.60059" lon="5.22495">
        <ele>197</ele>
        <time>2021-11-22T12:59:16Z</time>
      </trkpt>
      <trkpt lat="46.60067" lon="5.22469">
        <ele>197</ele>
        <time>2021-11-22T12:59:19Z</time>
      </trkpt>
      <trkpt lat="46.60087" lon="5.22398">
        <ele>197</ele>
        <time>2021-11-22T12:59:27Z</time>
      </trkpt>
      <trkpt lat="46.60099" lon="5.22323">
        <ele>196.6</ele>
        <time>2021-11-22T12:59:35Z</time>
      </trkpt>
      <trkpt lat="46.60103" lon="5.22237">
        <ele>196.6</ele>
        <time>2021-11-22T12:59:44Z</time>
      </trkpt>
      <trkpt lat="46.60107" lon="5.22152">
        <ele>196.8</ele>
        <time>2021-11-22T12:59:53Z</time>
      </trkpt>
      <trkpt lat="46.60108" lon="5.22142">
        <ele>196.8</ele>
        <time>2021-11-22T12:59:54Z</time>
      </trkpt>
      <trkpt lat="46.60112" lon="5.22124">
        <ele>196.6</ele>
        <time>2021-11-22T12:59:56Z</time>
      </trkpt>
      <trkpt lat="46.60119" lon="5.22106">
        <ele>196.6</ele>
        <time>2021-11-22T12:59:58Z</time>
      </trkpt>
      <trkpt lat="46.60123" lon="5.22098">
        <ele>196.4</ele>
        <time>2021-11-22T12:59:59Z</time>
      </trkpt>
      <trkpt lat="46.60133" lon="5.22084">
        <ele>196.4</ele>
        <time>2021-11-22T13:00:01Z</time>
      </trkpt>
      <trkpt lat="46.60138" lon="5.22077">
        <ele>196.2</ele>
        <time>2021-11-22T13:00:02Z</time>
      </trkpt>
      <trkpt lat="46.60169" lon="5.22055">
        <ele>196</ele>
        <time>2021-11-22T13:00:07Z</time>
      </trkpt>
      <trkpt lat="46.60217" lon="5.22024">
        <ele>195.8</ele>
        <time>2021-11-22T13:00:15Z</time>
      </trkpt>
      <trkpt lat="46.60236" lon="5.22019">
        <ele>195.6</ele>
        <time>2021-11-22T13:00:18Z</time>
      </trkpt>
      <trkpt lat="46.60248" lon="5.22019">
        <ele>195.6</ele>
        <time>2021-11-22T13:00:20Z</time>
      </trkpt>
      <trkpt lat="46.60285" lon="5.22028">
        <ele>195.8</ele>
        <time>2021-11-22T13:00:26Z</time>
      </trkpt>
      <trkpt lat="46.60317" lon="5.22033">
        <ele>196.2</ele>
        <time>2021-11-22T13:00:31Z</time>
      </trkpt>
      <trkpt lat="46.60324" lon="5.22032">
        <ele>196.2</ele>
        <time>2021-11-22T13:00:32Z</time>
      </trkpt>
      <trkpt lat="46.60368" lon="5.22015">
        <ele>196.4</ele>
        <time>2021-11-22T13:00:39Z</time>
      </trkpt>
      <trkpt lat="46.60417" lon="5.21996">
        <ele>196.4</ele>
        <time>2021-11-22T13:00:47Z</time>
      </trkpt>
      <trkpt lat="46.60423" lon="5.21996">
        <ele>196.4</ele>
        <time>2021-11-22T13:00:48Z</time>
      </trkpt>
      <trkpt lat="46.60467" lon="5.21997">
        <ele>196.4</ele>
        <time>2021-11-22T13:00:55Z</time>
      </trkpt>
      <trkpt lat="46.60516" lon="5.22003">
        <ele>196.4</ele>
        <time>2021-11-22T13:01:03Z</time>
      </trkpt>
      <trkpt lat="46.60553" lon="5.22005">
        <ele>196.8</ele>
        <time>2021-11-22T13:01:09Z</time>
      </trkpt>
      <trkpt lat="46.60565" lon="5.22004">
        <ele>196.8</ele>
        <time>2021-11-22T13:01:11Z</time>
      </trkpt>
      <trkpt lat="46.60611" lon="5.21992">
        <ele>196.8</ele>
        <time>2021-11-22T13:01:18Z</time>
      </trkpt>
      <trkpt lat="46.6067" lon="5.21979">
        <ele>195.8</ele>
        <time>2021-11-22T13:01:27Z</time>
      </trkpt>
      <trkpt lat="46.6069" lon="5.21978">
        <ele>195.4</ele>
        <time>2021-11-22T13:01:30Z</time>
      </trkpt>
      <trkpt lat="46.6073" lon="5.2198">
        <ele>195.2</ele>
        <time>2021-11-22T13:01:36Z</time>
      </trkpt>
      <trkpt lat="46.60789" lon="5.21987">
        <ele>194.6</ele>
        <time>2021-11-22T13:01:45Z</time>
      </trkpt>
      <trkpt lat="46.60796" lon="5.21988">
        <ele>194.4</ele>
        <time>2021-11-22T13:01:46Z</time>
      </trkpt>
      <trkpt lat="46.60836" lon="5.21992">
        <ele>193.8</ele>
        <time>2021-11-22T13:01:52Z</time>
      </trkpt>
      <trkpt lat="46.60891" lon="5.22004">
        <ele>193.6</ele>
        <time>2021-11-22T13:02:00Z</time>
      </trkpt>
      <trkpt lat="46.60903" lon="5.22011">
        <ele>193.4</ele>
        <time>2021-11-22T13:02:02Z</time>
      </trkpt>
      <trkpt lat="46.60921" lon="5.22026">
        <ele>193.4</ele>
        <time>2021-11-22T13:02:05Z</time>
      </trkpt>
      <trkpt lat="46.60952" lon="5.22063">
        <ele>193</ele>
        <time>2021-11-22T13:02:11Z</time>
      </trkpt>
      <trkpt lat="46.6098" lon="5.22104">
        <ele>192.2</ele>
        <time>2021-11-22T13:02:17Z</time>
      </trkpt>
      <trkpt lat="46.60985" lon="5.22111">
        <ele>192.4</ele>
        <time>2021-11-22T13:02:18Z</time>
      </trkpt>
      <trkpt lat="46.61013" lon="5.22148">
        <ele>191.8</ele>
        <time>2021-11-22T13:02:24Z</time>
      </trkpt>
      <trkpt lat="46.61044" lon="5.22171">
        <ele>191.6</ele>
        <time>2021-11-22T13:02:29Z</time>
      </trkpt>
      <trkpt lat="46.61083" lon="5.22183">
        <ele>191.2</ele>
        <time>2021-11-22T13:02:35Z</time>
      </trkpt>
      <trkpt lat="46.6109" lon="5.22184">
        <ele>191.2</ele>
        <time>2021-11-22T13:02:36Z</time>
      </trkpt>
      <trkpt lat="46.61143" lon="5.22191">
        <ele>191.2</ele>
        <time>2021-11-22T13:02:44Z</time>
      </trkpt>
      <trkpt lat="46.61196" lon="5.22199">
        <ele>191</ele>
        <time>2021-11-22T13:02:52Z</time>
      </trkpt>
      <trkpt lat="46.61209" lon="5.22202">
        <ele>190.8</ele>
        <time>2021-11-22T13:02:54Z</time>
      </trkpt>
      <trkpt lat="46.61259" lon="5.22223">
        <ele>190.4</ele>
        <time>2021-11-22T13:03:03Z</time>
      </trkpt>
      <trkpt lat="46.61288" lon="5.22245">
        <ele>190.2</ele>
        <time>2021-11-22T13:03:08Z</time>
      </trkpt>
      <trkpt lat="46.613" lon="5.22255">
        <ele>190</ele>
        <time>2021-11-22T13:03:10Z</time>
      </trkpt>
      <trkpt lat="46.6133" lon="5.22282">
        <ele>189.2</ele>
        <time>2021-11-22T13:03:15Z</time>
      </trkpt>
      <trkpt lat="46.61342" lon="5.22294">
        <ele>189</ele>
        <time>2021-11-22T13:03:17Z</time>
      </trkpt>
      <trkpt lat="46.61374" lon="5.22323">
        <ele>187.8</ele>
        <time>2021-11-22T13:03:22Z</time>
      </trkpt>
      <trkpt lat="46.61395" lon="5.22341">
        <ele>187</ele>
        <time>2021-11-22T13:03:25Z</time>
      </trkpt>
      <trkpt lat="46.61402" lon="5.22347">
        <ele>186.8</ele>
        <time>2021-11-22T13:03:26Z</time>
      </trkpt>
      <trkpt lat="46.61426" lon="5.22364">
        <ele>185.2</ele>
        <time>2021-11-22T13:03:29Z</time>
      </trkpt>
      <trkpt lat="46.61434" lon="5.22367">
        <ele>184.8</ele>
        <time>2021-11-22T13:03:30Z</time>
      </trkpt>
      <trkpt lat="46.61443" lon="5.22367">
        <ele>184</ele>
        <time>2021-11-22T13:03:31Z</time>
      </trkpt>
      <trkpt lat="46.6146" lon="5.22363">
        <ele>183.4</ele>
        <time>2021-11-22T13:03:33Z</time>
      </trkpt>
      <trkpt lat="46.61468" lon="5.22359">
        <ele>182.8</ele>
        <time>2021-11-22T13:03:34Z</time>
      </trkpt>
      <trkpt lat="46.61492" lon="5.22346">
        <ele>182.4</ele>
        <time>2021-11-22T13:03:37Z</time>
      </trkpt>
      <trkpt lat="46.61501" lon="5.22342">
        <ele>182</ele>
        <time>2021-11-22T13:03:38Z</time>
      </trkpt>
      <trkpt lat="46.61508" lon="5.22336">
        <ele>182</ele>
        <time>2021-11-22T13:03:39Z</time>
      </trkpt>
      <trkpt lat="46.61515" lon="5.2233">
        <ele>181.6</ele>
        <time>2021-11-22T13:03:40Z</time>
      </trkpt>
      <trkpt lat="46.6153" lon="5.22315">
        <ele>181</ele>
        <time>2021-11-22T13:03:42Z</time>
      </trkpt>
      <trkpt lat="46.61537" lon="5.22307">
        <ele>180.4</ele>
        <time>2021-11-22T13:03:43Z</time>
      </trkpt>
      <trkpt lat="46.61568" lon="5.22276">
        <ele>178.8</ele>
        <time>2021-11-22T13:03:47Z</time>
      </trkpt>
      <trkpt lat="46.61577" lon="5.22271">
        <ele>178.4</ele>
        <time>2021-11-22T13:03:48Z</time>
      </trkpt>
      <trkpt lat="46.61586" lon="5.22268">
        <ele>177.8</ele>
        <time>2021-11-22T13:03:49Z</time>
      </trkpt>
      <trkpt lat="46.61595" lon="5.22269">
        <ele>176.6</ele>
        <time>2021-11-22T13:03:50Z</time>
      </trkpt>
      <trkpt lat="46.61603" lon="5.22276">
        <ele>176</ele>
        <time>2021-11-22T13:03:51Z</time>
      </trkpt>
      <trkpt lat="46.61609" lon="5.22286">
        <ele>175.2</ele>
        <time>2021-11-22T13:03:52Z</time>
      </trkpt>
      <trkpt lat="46.61612" lon="5.22297">
        <ele>174.8</ele>
        <time>2021-11-22T13:03:53Z</time>
      </trkpt>
      <trkpt lat="46.61614" lon="5.22321">
        <ele>174.2</ele>
        <time>2021-11-22T13:03:55Z</time>
      </trkpt>
      <trkpt lat="46.61614" lon="5.22331">
        <ele>174</ele>
        <time>2021-11-22T13:03:56Z</time>
      </trkpt>
      <trkpt lat="46.61614" lon="5.22374">
        <ele>174</ele>
        <time>2021-11-22T13:04:00Z</time>
      </trkpt>
      <trkpt lat="46.61612" lon="5.22385">
        <ele>174</ele>
        <time>2021-11-22T13:04:01Z</time>
      </trkpt>
      <trkpt lat="46.61609" lon="5.22395">
        <ele>174</ele>
        <time>2021-11-22T13:04:02Z</time>
      </trkpt>
      <trkpt lat="46.61595" lon="5.22434">
        <ele>174.2</ele>
        <time>2021-11-22T13:04:06Z</time>
      </trkpt>
      <trkpt lat="46.61589" lon="5.22454">
        <ele>174.4</ele>
        <time>2021-11-22T13:04:08Z</time>
      </trkpt>
      <trkpt lat="46.61585" lon="5.22486">
        <ele>174.4</ele>
        <time>2021-11-22T13:04:11Z</time>
      </trkpt>
      <trkpt lat="46.61581" lon="5.22527">
        <ele>174.4</ele>
        <time>2021-11-22T13:04:15Z</time>
      </trkpt>
      <trkpt lat="46.61583" lon="5.22546">
        <ele>174.4</ele>
        <time>2021-11-22T13:04:17Z</time>
      </trkpt>
      <trkpt lat="46.61589" lon="5.22561">
        <ele>174.4</ele>
        <time>2021-11-22T13:04:19Z</time>
      </trkpt>
      <trkpt lat="46.61597" lon="5.22574">
        <ele>174.2</ele>
        <time>2021-11-22T13:04:21Z</time>
      </trkpt>
      <trkpt lat="46.61599" lon="5.2258">
        <ele>174.2</ele>
        <time>2021-11-22T13:04:22Z</time>
      </trkpt>
      <trkpt lat="46.61602" lon="5.22588">
        <ele>174.2</ele>
        <time>2021-11-22T13:04:24Z</time>
      </trkpt>
      <trkpt lat="46.61602" lon="5.22592">
        <ele>174.2</ele>
        <time>2021-11-22T13:04:26Z</time>
      </trkpt>
      <trkpt lat="46.61602" lon="5.22593">
        <ele>174.2</ele>
        <time>2021-11-22T13:04:27Z</time>
      </trkpt>
      <trkpt lat="46.616" lon="5.22594">
        <ele>174.4</ele>
        <time>2021-11-22T13:04:28Z</time>
      </trkpt>
      <trkpt lat="46.61592" lon="5.22596">
        <ele>174.4</ele>
        <time>2021-11-22T13:04:30Z</time>
      </trkpt>
      <trkpt lat="46.61568" lon="5.22598">
        <ele>174.6</ele>
        <time>2021-11-22T13:04:34Z</time>
      </trkpt>
      <trkpt lat="46.61533" lon="5.22607">
        <ele>174.6</ele>
        <time>2021-11-22T13:04:39Z</time>
      </trkpt>
      <trkpt lat="46.61501" lon="5.22625">
        <ele>174.8</ele>
        <time>2021-11-22T13:04:44Z</time>
      </trkpt>
      <trkpt lat="46.61465" lon="5.2266">
        <ele>175</ele>
        <time>2021-11-22T13:04:50Z</time>
      </trkpt>
      <trkpt lat="46.6146" lon="5.22667">
        <ele>175</ele>
        <time>2021-11-22T13:04:51Z</time>
      </trkpt>
      <trkpt lat="46.6142" lon="5.22723">
        <ele>175.2</ele>
        <time>2021-11-22T13:04:59Z</time>
      </trkpt>
      <trkpt lat="46.61381" lon="5.22778">
        <ele>175.2</ele>
        <time>2021-11-22T13:05:07Z</time>
      </trkpt>
      <trkpt lat="46.61362" lon="5.22804">
        <ele>175.2</ele>
        <time>2021-11-22T13:05:11Z</time>
      </trkpt>
      <trkpt lat="46.61321" lon="5.22863">
        <ele>175.4</ele>
        <time>2021-11-22T13:05:20Z</time>
      </trkpt>
      <trkpt lat="46.61312" lon="5.22875">
        <ele>175.4</ele>
        <time>2021-11-22T13:05:22Z</time>
      </trkpt>
      <trkpt lat="46.61274" lon="5.22929">
        <ele>176</ele>
        <time>2021-11-22T13:05:30Z</time>
      </trkpt>
      <trkpt lat="46.61264" lon="5.22944">
        <ele>176.2</ele>
        <time>2021-11-22T13:05:32Z</time>
      </trkpt>
      <trkpt lat="46.61239" lon="5.22982">
        <ele>176.4</ele>
        <time>2021-11-22T13:05:37Z</time>
      </trkpt>
      <trkpt lat="46.61235" lon="5.23">
        <ele>176.4</ele>
        <time>2021-11-22T13:05:39Z</time>
      </trkpt>
      <trkpt lat="46.61236" lon="5.2301">
        <ele>176.4</ele>
        <time>2021-11-22T13:05:40Z</time>
      </trkpt>
      <trkpt lat="46.61239" lon="5.2302">
        <ele>176.6</ele>
        <time>2021-11-22T13:05:41Z</time>
      </trkpt>
      <trkpt lat="46.61246" lon="5.23037">
        <ele>176.6</ele>
        <time>2021-11-22T13:05:43Z</time>
      </trkpt>
      <trkpt lat="46.61271" lon="5.23086">
        <ele>176</ele>
        <time>2021-11-22T13:05:49Z</time>
      </trkpt>
      <trkpt lat="46.6129" lon="5.2313">
        <ele>175.6</ele>
        <time>2021-11-22T13:05:54Z</time>
      </trkpt>
      <trkpt lat="46.61292" lon="5.2314">
        <ele>175.6</ele>
        <time>2021-11-22T13:05:55Z</time>
      </trkpt>
      <trkpt lat="46.613" lon="5.23182">
        <ele>175</ele>
        <time>2021-11-22T13:05:59Z</time>
      </trkpt>
      <trkpt lat="46.61303" lon="5.23192">
        <ele>174.8</ele>
        <time>2021-11-22T13:06:00Z</time>
      </trkpt>
      <trkpt lat="46.61306" lon="5.23201">
        <ele>174.6</ele>
        <time>2021-11-22T13:06:01Z</time>
      </trkpt>
      <trkpt lat="46.61316" lon="5.23217">
        <ele>174.4</ele>
        <time>2021-11-22T13:06:03Z</time>
      </trkpt>
      <trkpt lat="46.61351" lon="5.23265">
        <ele>173.8</ele>
        <time>2021-11-22T13:06:10Z</time>
      </trkpt>
      <trkpt lat="46.61355" lon="5.23272">
        <ele>173.8</ele>
        <time>2021-11-22T13:06:11Z</time>
      </trkpt>
      <trkpt lat="46.61374" lon="5.233">
        <ele>173.6</ele>
        <time>2021-11-22T13:06:15Z</time>
      </trkpt>
      <trkpt lat="46.61377" lon="5.23308">
        <ele>173.4</ele>
        <time>2021-11-22T13:06:16Z</time>
      </trkpt>
      <trkpt lat="46.61378" lon="5.23317">
        <ele>173.4</ele>
        <time>2021-11-22T13:06:17Z</time>
      </trkpt>
      <trkpt lat="46.61377" lon="5.23336">
        <ele>173.6</ele>
        <time>2021-11-22T13:06:19Z</time>
      </trkpt>
      <trkpt lat="46.61356" lon="5.23407">
        <ele>174.6</ele>
        <time>2021-11-22T13:06:27Z</time>
      </trkpt>
      <trkpt lat="46.61352" lon="5.23425">
        <ele>174.8</ele>
        <time>2021-11-22T13:06:29Z</time>
      </trkpt>
      <trkpt lat="46.61343" lon="5.23473">
        <ele>175</ele>
        <time>2021-11-22T13:06:34Z</time>
      </trkpt>
      <trkpt lat="46.61338" lon="5.2355">
        <ele>175.2</ele>
        <time>2021-11-22T13:06:42Z</time>
      </trkpt>
      <trkpt lat="46.61334" lon="5.23632">
        <ele>175.2</ele>
        <time>2021-11-22T13:06:51Z</time>
      </trkpt>
      <trkpt lat="46.61334" lon="5.23641">
        <ele>175.2</ele>
        <time>2021-11-22T13:06:52Z</time>
      </trkpt>
      <trkpt lat="46.61328" lon="5.2372">
        <ele>175.2</ele>
        <time>2021-11-22T13:07:01Z</time>
      </trkpt>
      <trkpt lat="46.61323" lon="5.23783">
        <ele>175.2</ele>
        <time>2021-11-22T13:07:08Z</time>
      </trkpt>
      <trkpt lat="46.61327" lon="5.23836">
        <ele>175.4</ele>
        <time>2021-11-22T13:07:14Z</time>
      </trkpt>
      <trkpt lat="46.61332" lon="5.23905">
        <ele>175.8</ele>
        <time>2021-11-22T13:07:22Z</time>
      </trkpt>
      <trkpt lat="46.61333" lon="5.23922">
        <ele>176</ele>
        <time>2021-11-22T13:07:24Z</time>
      </trkpt>
      <trkpt lat="46.6134" lon="5.2399">
        <ele>177</ele>
        <time>2021-11-22T13:07:32Z</time>
      </trkpt>
      <trkpt lat="46.61341" lon="5.23999">
        <ele>177</ele>
        <time>2021-11-22T13:07:33Z</time>
      </trkpt>
      <trkpt lat="46.61344" lon="5.2406">
        <ele>178</ele>
        <time>2021-11-22T13:07:40Z</time>
      </trkpt>
      <trkpt lat="46.61347" lon="5.24096">
        <ele>178.4</ele>
        <time>2021-11-22T13:07:44Z</time>
      </trkpt>
      <trkpt lat="46.61351" lon="5.24169">
        <ele>179</ele>
        <time>2021-11-22T13:07:52Z</time>
      </trkpt>
      <trkpt lat="46.61348" lon="5.24246">
        <ele>179</ele>
        <time>2021-11-22T13:08:00Z</time>
      </trkpt>
      <trkpt lat="46.61337" lon="5.2429">
        <ele>178.8</ele>
        <time>2021-11-22T13:08:05Z</time>
      </trkpt>
      <trkpt lat="46.61321" lon="5.24354">
        <ele>178.4</ele>
        <time>2021-11-22T13:08:12Z</time>
      </trkpt>
      <trkpt lat="46.61313" lon="5.24384">
        <ele>178.2</ele>
        <time>2021-11-22T13:08:15Z</time>
      </trkpt>
      <trkpt lat="46.61304" lon="5.24402">
        <ele>177.8</ele>
        <time>2021-11-22T13:08:17Z</time>
      </trkpt>
      <trkpt lat="46.61284" lon="5.2445">
        <ele>176.8</ele>
        <time>2021-11-22T13:08:22Z</time>
      </trkpt>
      <trkpt lat="46.61281" lon="5.24461">
        <ele>176.8</ele>
        <time>2021-11-22T13:08:23Z</time>
      </trkpt>
      <trkpt lat="46.61261" lon="5.24535">
        <ele>176</ele>
        <time>2021-11-22T13:08:30Z</time>
      </trkpt>
      <trkpt lat="46.61259" lon="5.24546">
        <ele>175.8</ele>
        <time>2021-11-22T13:08:31Z</time>
      </trkpt>
      <trkpt lat="46.61248" lon="5.24632">
        <ele>175.6</ele>
        <time>2021-11-22T13:08:39Z</time>
      </trkpt>
      <trkpt lat="46.61229" lon="5.24714">
        <ele>175.4</ele>
        <time>2021-11-22T13:08:47Z</time>
      </trkpt>
      <trkpt lat="46.61211" lon="5.24793">
        <ele>175.6</ele>
        <time>2021-11-22T13:08:55Z</time>
      </trkpt>
      <trkpt lat="46.61209" lon="5.24803">
        <ele>175.6</ele>
        <time>2021-11-22T13:08:56Z</time>
      </trkpt>
      <trkpt lat="46.61186" lon="5.24879">
        <ele>175.8</ele>
        <time>2021-11-22T13:09:04Z</time>
      </trkpt>
      <trkpt lat="46.61158" lon="5.24942">
        <ele>175.4</ele>
        <time>2021-11-22T13:09:11Z</time>
      </trkpt>
      <trkpt lat="46.61139" lon="5.25001">
        <ele>175.2</ele>
        <time>2021-11-22T13:09:17Z</time>
      </trkpt>
      <trkpt lat="46.61126" lon="5.25061">
        <ele>175.2</ele>
        <time>2021-11-22T13:09:23Z</time>
      </trkpt>
      <trkpt lat="46.6111" lon="5.25094">
        <ele>175.2</ele>
        <time>2021-11-22T13:09:27Z</time>
      </trkpt>
      <trkpt lat="46.61104" lon="5.25102">
        <ele>175.4</ele>
        <time>2021-11-22T13:09:28Z</time>
      </trkpt>
      <trkpt lat="46.61063" lon="5.2516">
        <ele>175.6</ele>
        <time>2021-11-22T13:09:36Z</time>
      </trkpt>
      <trkpt lat="46.61058" lon="5.25168">
        <ele>175.6</ele>
        <time>2021-11-22T13:09:37Z</time>
      </trkpt>
      <trkpt lat="46.61022" lon="5.25229">
        <ele>176</ele>
        <time>2021-11-22T13:09:45Z</time>
      </trkpt>
      <trkpt lat="46.61013" lon="5.25244">
        <ele>176.2</ele>
        <time>2021-11-22T13:09:47Z</time>
      </trkpt>
      <trkpt lat="46.60986" lon="5.25303">
        <ele>176.2</ele>
        <time>2021-11-22T13:09:54Z</time>
      </trkpt>
      <trkpt lat="46.60964" lon="5.25376">
        <ele>176.2</ele>
        <time>2021-11-22T13:10:02Z</time>
      </trkpt>
      <trkpt lat="46.60962" lon="5.25396">
        <ele>176.2</ele>
        <time>2021-11-22T13:10:04Z</time>
      </trkpt>
      <trkpt lat="46.60963" lon="5.25416">
        <ele>176.2</ele>
        <time>2021-11-22T13:10:06Z</time>
      </trkpt>
      <trkpt lat="46.60971" lon="5.25467">
        <ele>175.6</ele>
        <time>2021-11-22T13:10:11Z</time>
      </trkpt>
      <trkpt lat="46.60972" lon="5.25477">
        <ele>175.6</ele>
        <time>2021-11-22T13:10:12Z</time>
      </trkpt>
      <trkpt lat="46.60973" lon="5.25497">
        <ele>175.6</ele>
        <time>2021-11-22T13:10:14Z</time>
      </trkpt>
      <trkpt lat="46.60971" lon="5.25527">
        <ele>175.4</ele>
        <time>2021-11-22T13:10:17Z</time>
      </trkpt>
      <trkpt lat="46.60955" lon="5.25604">
        <ele>175.4</ele>
        <time>2021-11-22T13:10:25Z</time>
      </trkpt>
      <trkpt lat="46.60938" lon="5.25648">
        <ele>175.4</ele>
        <time>2021-11-22T13:10:30Z</time>
      </trkpt>
      <trkpt lat="46.6091" lon="5.25692">
        <ele>175.2</ele>
        <time>2021-11-22T13:10:36Z</time>
      </trkpt>
      <trkpt lat="46.60868" lon="5.25748">
        <ele>175.4</ele>
        <time>2021-11-22T13:10:44Z</time>
      </trkpt>
      <trkpt lat="46.60824" lon="5.25808">
        <ele>175.8</ele>
        <time>2021-11-22T13:10:53Z</time>
      </trkpt>
      <trkpt lat="46.60809" lon="5.25828">
        <ele>176.4</ele>
        <time>2021-11-22T13:10:56Z</time>
      </trkpt>
      <trkpt lat="46.60788" lon="5.25855">
        <ele>176.6</ele>
        <time>2021-11-22T13:11:00Z</time>
      </trkpt>
      <trkpt lat="46.60765" lon="5.2588">
        <ele>176.8</ele>
        <time>2021-11-22T13:11:04Z</time>
      </trkpt>
      <trkpt lat="46.60722" lon="5.25933">
        <ele>176.8</ele>
        <time>2021-11-22T13:11:12Z</time>
      </trkpt>
      <trkpt lat="46.60698" lon="5.25982">
        <ele>176.6</ele>
        <time>2021-11-22T13:11:18Z</time>
      </trkpt>
      <trkpt lat="46.60677" lon="5.26034">
        <ele>176.2</ele>
        <time>2021-11-22T13:11:25Z</time>
      </trkpt>
      <trkpt lat="46.60673" lon="5.2605">
        <ele>176.4</ele>
        <time>2021-11-22T13:11:27Z</time>
      </trkpt>
      <trkpt lat="46.60667" lon="5.26077">
        <ele>176.2</ele>
        <time>2021-11-22T13:11:30Z</time>
      </trkpt>
      <trkpt lat="46.60666" lon="5.26095">
        <ele>176.2</ele>
        <time>2021-11-22T13:11:32Z</time>
      </trkpt>
      <trkpt lat="46.60666" lon="5.26123">
        <ele>176</ele>
        <time>2021-11-22T13:11:35Z</time>
      </trkpt>
      <trkpt lat="46.60671" lon="5.2621">
        <ele>176</ele>
        <time>2021-11-22T13:11:44Z</time>
      </trkpt>
      <trkpt lat="46.60686" lon="5.26261">
        <ele>176</ele>
        <time>2021-11-22T13:11:50Z</time>
      </trkpt>
      <trkpt lat="46.60711" lon="5.26339">
        <ele>176.2</ele>
        <time>2021-11-22T13:11:59Z</time>
      </trkpt>
      <trkpt lat="46.60717" lon="5.26357">
        <ele>176.4</ele>
        <time>2021-11-22T13:12:01Z</time>
      </trkpt>
      <trkpt lat="46.6074" lon="5.26425">
        <ele>176.4</ele>
        <time>2021-11-22T13:12:09Z</time>
      </trkpt>
      <trkpt lat="46.60757" lon="5.26492">
        <ele>176.8</ele>
        <time>2021-11-22T13:12:17Z</time>
      </trkpt>
      <trkpt lat="46.60771" lon="5.26548">
        <ele>177.6</ele>
        <time>2021-11-22T13:12:24Z</time>
      </trkpt>
      <trkpt lat="46.60784" lon="5.26578">
        <ele>178.6</ele>
        <time>2021-11-22T13:12:29Z</time>
      </trkpt>
      <trkpt lat="46.60787" lon="5.26583">
        <ele>178.8</ele>
        <time>2021-11-22T13:12:30Z</time>
      </trkpt>
      <trkpt lat="46.60799" lon="5.26601">
        <ele>180</ele>
        <time>2021-11-22T13:12:34Z</time>
      </trkpt>
      <trkpt lat="46.60809" lon="5.26612">
        <ele>181</ele>
        <time>2021-11-22T13:12:37Z</time>
      </trkpt>
      <trkpt lat="46.60824" lon="5.26624">
        <ele>182.2</ele>
        <time>2021-11-22T13:12:41Z</time>
      </trkpt>
      <trkpt lat="46.60841" lon="5.26636">
        <ele>183</ele>
        <time>2021-11-22T13:12:45Z</time>
      </trkpt>
      <trkpt lat="46.60854" lon="5.26646">
        <ele>183.2</ele>
        <time>2021-11-22T13:12:48Z</time>
      </trkpt>
      <trkpt lat="46.6087" lon="5.26655">
        <ele>183.6</ele>
        <time>2021-11-22T13:12:51Z</time>
      </trkpt>
      <trkpt lat="46.60875" lon="5.26656">
        <ele>183.6</ele>
        <time>2021-11-22T13:12:52Z</time>
      </trkpt>
      <trkpt lat="46.60881" lon="5.26657">
        <ele>183.6</ele>
        <time>2021-11-22T13:12:53Z</time>
      </trkpt>
      <trkpt lat="46.609" lon="5.26651">
        <ele>183.6</ele>
        <time>2021-11-22T13:12:56Z</time>
      </trkpt>
      <trkpt lat="46.60907" lon="5.26649">
        <ele>183.2</ele>
        <time>2021-11-22T13:12:57Z</time>
      </trkpt>
      <trkpt lat="46.60923" lon="5.26652">
        <ele>182.6</ele>
        <time>2021-11-22T13:12:59Z</time>
      </trkpt>
      <trkpt lat="46.60938" lon="5.26665">
        <ele>181.6</ele>
        <time>2021-11-22T13:13:01Z</time>
      </trkpt>
      <trkpt lat="46.60944" lon="5.26674">
        <ele>181.4</ele>
        <time>2021-11-22T13:13:02Z</time>
      </trkpt>
      <trkpt lat="46.6095" lon="5.26683">
        <ele>180.6</ele>
        <time>2021-11-22T13:13:03Z</time>
      </trkpt>
      <trkpt lat="46.60964" lon="5.267">
        <ele>179.2</ele>
        <time>2021-11-22T13:13:05Z</time>
      </trkpt>
      <trkpt lat="46.60979" lon="5.26715">
        <ele>178</ele>
        <time>2021-11-22T13:13:07Z</time>
      </trkpt>
      <trkpt lat="46.60994" lon="5.26728">
        <ele>176.8</ele>
        <time>2021-11-22T13:13:09Z</time>
      </trkpt>
      <trkpt lat="46.61008" lon="5.26742">
        <ele>175.8</ele>
        <time>2021-11-22T13:13:11Z</time>
      </trkpt>
      <trkpt lat="46.61047" lon="5.26783">
        <ele>174.8</ele>
        <time>2021-11-22T13:13:17Z</time>
      </trkpt>
      <trkpt lat="46.61062" lon="5.26808">
        <ele>174.8</ele>
        <time>2021-11-22T13:13:20Z</time>
      </trkpt>
      <trkpt lat="46.61067" lon="5.26816">
        <ele>174.8</ele>
        <time>2021-11-22T13:13:21Z</time>
      </trkpt>
      <trkpt lat="46.6107" lon="5.26825">
        <ele>174.8</ele>
        <time>2021-11-22T13:13:22Z</time>
      </trkpt>
      <trkpt lat="46.61079" lon="5.26852">
        <ele>175</ele>
        <time>2021-11-22T13:13:25Z</time>
      </trkpt>
      <trkpt lat="46.61103" lon="5.26913">
        <ele>175.4</ele>
        <time>2021-11-22T13:13:32Z</time>
      </trkpt>
      <trkpt lat="46.6113" lon="5.26958">
        <ele>175.2</ele>
        <time>2021-11-22T13:13:38Z</time>
      </trkpt>
      <trkpt lat="46.61142" lon="5.2697">
        <ele>175.2</ele>
        <time>2021-11-22T13:13:40Z</time>
      </trkpt>
      <trkpt lat="46.6116" lon="5.26986">
        <ele>175</ele>
        <time>2021-11-22T13:13:43Z</time>
      </trkpt>
      <trkpt lat="46.61184" lon="5.27023">
        <ele>174.8</ele>
        <time>2021-11-22T13:13:48Z</time>
      </trkpt>
      <trkpt lat="46.61205" lon="5.27055">
        <ele>175</ele>
        <time>2021-11-22T13:13:53Z</time>
      </trkpt>
      <trkpt lat="46.6122" lon="5.27074">
        <ele>175</ele>
        <time>2021-11-22T13:13:57Z</time>
      </trkpt>
      <trkpt lat="46.61223" lon="5.27077">
        <ele>175</ele>
        <time>2021-11-22T13:13:58Z</time>
      </trkpt>
      <trkpt lat="46.61226" lon="5.27078">
        <ele>175</ele>
        <time>2021-11-22T13:13:59Z</time>
      </trkpt>
      <trkpt lat="46.61232" lon="5.27072">
        <ele>175</ele>
        <time>2021-11-22T13:14:01Z</time>
      </trkpt>
      <trkpt lat="46.61238" lon="5.27055">
        <ele>175.6</ele>
        <time>2021-11-22T13:14:04Z</time>
      </trkpt>
      <trkpt lat="46.61243" lon="5.27042">
        <ele>175.8</ele>
        <time>2021-11-22T13:14:06Z</time>
      </trkpt>
      <trkpt lat="46.61248" lon="5.27029">
        <ele>176</ele>
        <time>2021-11-22T13:14:08Z</time>
      </trkpt>
      <trkpt lat="46.61258" lon="5.26998">
        <ele>176.2</ele>
        <time>2021-11-22T13:14:12Z</time>
      </trkpt>
      <trkpt lat="46.61261" lon="5.26991">
        <ele>176.4</ele>
        <time>2021-11-22T13:14:13Z</time>
      </trkpt>
      <trkpt lat="46.61275" lon="5.26969">
        <ele>176.6</ele>
        <time>2021-11-22T13:14:16Z</time>
      </trkpt>
      <trkpt lat="46.613" lon="5.26938">
        <ele>176.4</ele>
        <time>2021-11-22T13:14:21Z</time>
      </trkpt>
      <trkpt lat="46.61305" lon="5.26932">
        <ele>176.4</ele>
        <time>2021-11-22T13:14:22Z</time>
      </trkpt>
      <trkpt lat="46.61318" lon="5.26927">
        <ele>176.4</ele>
        <time>2021-11-22T13:14:24Z</time>
      </trkpt>
      <trkpt lat="46.61331" lon="5.2693">
        <ele>176.4</ele>
        <time>2021-11-22T13:14:26Z</time>
      </trkpt>
      <trkpt lat="46.61338" lon="5.26934">
        <ele>176.2</ele>
        <time>2021-11-22T13:14:27Z</time>
      </trkpt>
      <trkpt lat="46.61387" lon="5.26965">
        <ele>175.2</ele>
        <time>2021-11-22T13:14:35Z</time>
      </trkpt>
      <trkpt lat="46.61437" lon="5.2698">
        <ele>174.8</ele>
        <time>2021-11-22T13:14:43Z</time>
      </trkpt>
      <trkpt lat="46.61491" lon="5.26996">
        <ele>175</ele>
        <time>2021-11-22T13:14:52Z</time>
      </trkpt>
      <trkpt lat="46.61499" lon="5.26998">
        <ele>175</ele>
        <time>2021-11-22T13:14:53Z</time>
      </trkpt>
      <trkpt lat="46.61523" lon="5.27002">
        <ele>175.2</ele>
        <time>2021-11-22T13:14:57Z</time>
      </trkpt>
      <trkpt lat="46.61535" lon="5.26997">
        <ele>175.2</ele>
        <time>2021-11-22T13:14:59Z</time>
      </trkpt>
      <trkpt lat="46.61545" lon="5.26988">
        <ele>175.2</ele>
        <time>2021-11-22T13:15:01Z</time>
      </trkpt>
      <trkpt lat="46.61553" lon="5.26977">
        <ele>175.4</ele>
        <time>2021-11-22T13:15:03Z</time>
      </trkpt>
      <trkpt lat="46.61583" lon="5.26925">
        <ele>175.6</ele>
        <time>2021-11-22T13:15:11Z</time>
      </trkpt>
      <trkpt lat="46.6161" lon="5.26875">
        <ele>176.8</ele>
        <time>2021-11-22T13:15:19Z</time>
      </trkpt>
      <trkpt lat="46.61622" lon="5.2686">
        <ele>177.2</ele>
        <time>2021-11-22T13:15:22Z</time>
      </trkpt>
      <trkpt lat="46.61632" lon="5.26851">
        <ele>177.2</ele>
        <time>2021-11-22T13:15:24Z</time>
      </trkpt>
      <trkpt lat="46.61651" lon="5.26836">
        <ele>177.6</ele>
        <time>2021-11-22T13:15:28Z</time>
      </trkpt>
      <trkpt lat="46.61662" lon="5.26831">
        <ele>177.6</ele>
        <time>2021-11-22T13:15:30Z</time>
      </trkpt>
      <trkpt lat="46.61668" lon="5.2683">
        <ele>177.6</ele>
        <time>2021-11-22T13:15:31Z</time>
      </trkpt>
      <trkpt lat="46.61673" lon="5.2683">
        <ele>177.6</ele>
        <time>2021-11-22T13:15:32Z</time>
      </trkpt>
      <trkpt lat="46.61684" lon="5.26834">
        <ele>177.6</ele>
        <time>2021-11-22T13:15:34Z</time>
      </trkpt>
      <trkpt lat="46.61688" lon="5.26837">
        <ele>177.6</ele>
        <time>2021-11-22T13:15:35Z</time>
      </trkpt>
      <trkpt lat="46.6172" lon="5.26867">
        <ele>177.4</ele>
        <time>2021-11-22T13:15:42Z</time>
      </trkpt>
      <trkpt lat="46.61733" lon="5.26883">
        <ele>178</ele>
        <time>2021-11-22T13:15:45Z</time>
      </trkpt>
      <trkpt lat="46.61753" lon="5.26912">
        <ele>178.4</ele>
        <time>2021-11-22T13:15:50Z</time>
      </trkpt>
      <trkpt lat="46.61786" lon="5.2697">
        <ele>178.6</ele>
        <time>2021-11-22T13:15:59Z</time>
      </trkpt>
      <trkpt lat="46.6181" lon="5.27011">
        <ele>178.6</ele>
        <time>2021-11-22T13:16:06Z</time>
      </trkpt>
      <trkpt lat="46.61813" lon="5.27016">
        <ele>178.8</ele>
        <time>2021-11-22T13:16:07Z</time>
      </trkpt>
      <trkpt lat="46.61817" lon="5.27021">
        <ele>178.8</ele>
        <time>2021-11-22T13:16:08Z</time>
      </trkpt>
      <trkpt lat="46.6182" lon="5.27032">
        <ele>179</ele>
        <time>2021-11-22T13:16:10Z</time>
      </trkpt>
      <trkpt lat="46.61818" lon="5.27055">
        <ele>179.2</ele>
        <time>2021-11-22T13:16:13Z</time>
      </trkpt>
      <trkpt lat="46.61817" lon="5.27063">
        <ele>179.4</ele>
        <time>2021-11-22T13:16:14Z</time>
      </trkpt>
      <trkpt lat="46.6181" lon="5.27108">
        <ele>179.8</ele>
        <time>2021-11-22T13:16:19Z</time>
      </trkpt>
      <trkpt lat="46.61808" lon="5.27127">
        <ele>180</ele>
        <time>2021-11-22T13:16:21Z</time>
      </trkpt>
      <trkpt lat="46.618" lon="5.27188">
        <ele>180</ele>
        <time>2021-11-22T13:16:28Z</time>
      </trkpt>
      <trkpt lat="46.61792" lon="5.2725">
        <ele>180.4</ele>
        <time>2021-11-22T13:16:35Z</time>
      </trkpt>
      <trkpt lat="46.61786" lon="5.27293">
        <ele>180.8</ele>
        <time>2021-11-22T13:16:40Z</time>
      </trkpt>
      <trkpt lat="46.6178" lon="5.27335">
        <ele>181.2</ele>
        <time>2021-11-22T13:16:45Z</time>
      </trkpt>
      <trkpt lat="46.61774" lon="5.27384">
        <ele>181.4</ele>
        <time>2021-11-22T13:16:51Z</time>
      </trkpt>
      <trkpt lat="46.61768" lon="5.27431">
        <ele>181.6</ele>
        <time>2021-11-22T13:16:57Z</time>
      </trkpt>
      <trkpt lat="46.61767" lon="5.27446">
        <ele>182</ele>
        <time>2021-11-22T13:16:59Z</time>
      </trkpt>
      <trkpt lat="46.61766" lon="5.27502">
        <ele>182.2</ele>
        <time>2021-11-22T13:17:06Z</time>
      </trkpt>
      <trkpt lat="46.61768" lon="5.27549">
        <ele>182.6</ele>
        <time>2021-11-22T13:17:12Z</time>
      </trkpt>
      <trkpt lat="46.61771" lon="5.27571">
        <ele>182.8</ele>
        <time>2021-11-22T13:17:15Z</time>
      </trkpt>
      <trkpt lat="46.6178" lon="5.27618">
        <ele>182.8</ele>
        <time>2021-11-22T13:17:20Z</time>
      </trkpt>
      <trkpt lat="46.61794" lon="5.27682">
        <ele>181.6</ele>
        <time>2021-11-22T13:17:26Z</time>
      </trkpt>
      <trkpt lat="46.61799" lon="5.27703">
        <ele>180.8</ele>
        <time>2021-11-22T13:17:28Z</time>
      </trkpt>
      <trkpt lat="46.61809" lon="5.27743">
        <ele>179.8</ele>
        <time>2021-11-22T13:17:32Z</time>
      </trkpt>
      <trkpt lat="46.61814" lon="5.27763">
        <ele>179.4</ele>
        <time>2021-11-22T13:17:34Z</time>
      </trkpt>
      <trkpt lat="46.61831" lon="5.27838">
        <ele>179</ele>
        <time>2021-11-22T13:17:42Z</time>
      </trkpt>
      <trkpt lat="46.61833" lon="5.27847">
        <ele>179</ele>
        <time>2021-11-22T13:17:43Z</time>
      </trkpt>
      <trkpt lat="46.61842" lon="5.27904">
        <ele>179</ele>
        <time>2021-11-22T13:17:49Z</time>
      </trkpt>
      <trkpt lat="46.61842" lon="5.27981">
        <ele>178.8</ele>
        <time>2021-11-22T13:17:57Z</time>
      </trkpt>
      <trkpt lat="46.61841" lon="5.28001">
        <ele>178.8</ele>
        <time>2021-11-22T13:17:59Z</time>
      </trkpt>
      <trkpt lat="46.61835" lon="5.28052">
        <ele>178.2</ele>
        <time>2021-11-22T13:18:04Z</time>
      </trkpt>
      <trkpt lat="46.61821" lon="5.28112">
        <ele>177.6</ele>
        <time>2021-11-22T13:18:10Z</time>
      </trkpt>
      <trkpt lat="46.61818" lon="5.28121">
        <ele>177.6</ele>
        <time>2021-11-22T13:18:11Z</time>
      </trkpt>
      <trkpt lat="46.61792" lon="5.28195">
        <ele>176.8</ele>
        <time>2021-11-22T13:18:19Z</time>
      </trkpt>
      <trkpt lat="46.6179" lon="5.28202">
        <ele>176.8</ele>
        <time>2021-11-22T13:18:20Z</time>
      </trkpt>
      <trkpt lat="46.61786" lon="5.28213">
        <ele>176.6</ele>
        <time>2021-11-22T13:18:21Z</time>
      </trkpt>
      <trkpt lat="46.61767" lon="5.28265">
        <ele>176.8</ele>
        <time>2021-11-22T13:18:27Z</time>
      </trkpt>
      <trkpt lat="46.61744" lon="5.28336">
        <ele>177.2</ele>
        <time>2021-11-22T13:18:35Z</time>
      </trkpt>
      <trkpt lat="46.61716" lon="5.28413">
        <ele>177.2</ele>
        <time>2021-11-22T13:18:44Z</time>
      </trkpt>
      <trkpt lat="46.61689" lon="5.2849">
        <ele>177.4</ele>
        <time>2021-11-22T13:18:53Z</time>
      </trkpt>
      <trkpt lat="46.6168" lon="5.28517">
        <ele>177.4</ele>
        <time>2021-11-22T13:18:56Z</time>
      </trkpt>
      <trkpt lat="46.61672" lon="5.28543">
        <ele>177.8</ele>
        <time>2021-11-22T13:18:59Z</time>
      </trkpt>
      <trkpt lat="46.61657" lon="5.28586">
        <ele>178</ele>
        <time>2021-11-22T13:19:04Z</time>
      </trkpt>
      <trkpt lat="46.61633" lon="5.28654">
        <ele>178.4</ele>
        <time>2021-11-22T13:19:12Z</time>
      </trkpt>
      <trkpt lat="46.61616" lon="5.28702">
        <ele>178.8</ele>
        <time>2021-11-22T13:19:18Z</time>
      </trkpt>
      <trkpt lat="46.61611" lon="5.28717">
        <ele>179</ele>
        <time>2021-11-22T13:19:20Z</time>
      </trkpt>
      <trkpt lat="46.61595" lon="5.28762">
        <ele>180</ele>
        <time>2021-11-22T13:19:26Z</time>
      </trkpt>
      <trkpt lat="46.61589" lon="5.28777">
        <ele>180.4</ele>
        <time>2021-11-22T13:19:28Z</time>
      </trkpt>
      <trkpt lat="46.6158" lon="5.28804">
        <ele>181</ele>
        <time>2021-11-22T13:19:32Z</time>
      </trkpt>
      <trkpt lat="46.61574" lon="5.28821">
        <ele>181.4</ele>
        <time>2021-11-22T13:19:35Z</time>
      </trkpt>
      <trkpt lat="46.61566" lon="5.28844">
        <ele>182.4</ele>
        <time>2021-11-22T13:19:39Z</time>
      </trkpt>
      <trkpt lat="46.61558" lon="5.28868">
        <ele>183.4</ele>
        <time>2021-11-22T13:19:43Z</time>
      </trkpt>
      <trkpt lat="46.61552" lon="5.2889">
        <ele>184.8</ele>
        <time>2021-11-22T13:19:47Z</time>
      </trkpt>
      <trkpt lat="46.61544" lon="5.2891">
        <ele>185.8</ele>
        <time>2021-11-22T13:19:51Z</time>
      </trkpt>
      <trkpt lat="46.61542" lon="5.28915">
        <ele>186.2</ele>
        <time>2021-11-22T13:19:52Z</time>
      </trkpt>
      <trkpt lat="46.61533" lon="5.28941">
        <ele>187.4</ele>
        <time>2021-11-22T13:19:57Z</time>
      </trkpt>
      <trkpt lat="46.61524" lon="5.28966">
        <ele>188.2</ele>
        <time>2021-11-22T13:20:02Z</time>
      </trkpt>
      <trkpt lat="46.61521" lon="5.28974">
        <ele>188.8</ele>
        <time>2021-11-22T13:20:04Z</time>
      </trkpt>
      <trkpt lat="46.61512" lon="5.28999">
        <ele>189.8</ele>
        <time>2021-11-22T13:20:09Z</time>
      </trkpt>
      <trkpt lat="46.6151" lon="5.29004">
        <ele>190</ele>
        <time>2021-11-22T13:20:10Z</time>
      </trkpt>
      <trkpt lat="46.61501" lon="5.29029">
        <ele>191</ele>
        <time>2021-11-22T13:20:15Z</time>
      </trkpt>
      <trkpt lat="46.61492" lon="5.29055">
        <ele>192.4</ele>
        <time>2021-11-22T13:20:20Z</time>
      </trkpt>
      <trkpt lat="46.6149" lon="5.2906">
        <ele>192.6</ele>
        <time>2021-11-22T13:20:21Z</time>
      </trkpt>
      <trkpt lat="46.61482" lon="5.29086">
        <ele>193.6</ele>
        <time>2021-11-22T13:20:26Z</time>
      </trkpt>
      <trkpt lat="46.61472" lon="5.29116">
        <ele>194.6</ele>
        <time>2021-11-22T13:20:31Z</time>
      </trkpt>
      <trkpt lat="46.61469" lon="5.29122">
        <ele>194.6</ele>
        <time>2021-11-22T13:20:32Z</time>
      </trkpt>
      <trkpt lat="46.61453" lon="5.29172">
        <ele>195.6</ele>
        <time>2021-11-22T13:20:40Z</time>
      </trkpt>
      <trkpt lat="46.61451" lon="5.29178">
        <ele>195.6</ele>
        <time>2021-11-22T13:20:41Z</time>
      </trkpt>
      <trkpt lat="46.61449" lon="5.29184">
        <ele>195.6</ele>
        <time>2021-11-22T13:20:42Z</time>
      </trkpt>
      <trkpt lat="46.61444" lon="5.29195">
        <ele>195.8</ele>
        <time>2021-11-22T13:20:44Z</time>
      </trkpt>
      <trkpt lat="46.61443" lon="5.29199">
        <ele>195.8</ele>
        <time>2021-11-22T13:20:45Z</time>
      </trkpt>
      <trkpt lat="46.6144" lon="5.29207">
        <ele>196</ele>
        <time>2021-11-22T13:20:49Z</time>
      </trkpt>
      <trkpt lat="46.6144" lon="5.29207">
        <ele>196</ele>
        <time>2021-11-22T13:20:51Z</time>
      </trkpt>
      <trkpt lat="46.61439" lon="5.29214">
        <ele>195.8</ele>
        <time>2021-11-22T13:21:52Z</time>
      </trkpt>
      <trkpt lat="46.61439" lon="5.29218">
        <ele>195.8</ele>
        <time>2021-11-22T13:21:53Z</time>
      </trkpt>
      <trkpt lat="46.61434" lon="5.29247">
        <ele>195.6</ele>
        <time>2021-11-22T13:21:57Z</time>
      </trkpt>
      <trkpt lat="46.6143" lon="5.29287">
        <ele>194.8</ele>
        <time>2021-11-22T13:22:01Z</time>
      </trkpt>
      <trkpt lat="46.61429" lon="5.29297">
        <ele>194.6</ele>
        <time>2021-11-22T13:22:02Z</time>
      </trkpt>
      <trkpt lat="46.61424" lon="5.29343">
        <ele>193.4</ele>
        <time>2021-11-22T13:22:06Z</time>
      </trkpt>
      <trkpt lat="46.61422" lon="5.29353">
        <ele>192.8</ele>
        <time>2021-11-22T13:22:07Z</time>
      </trkpt>
      <trkpt lat="46.61421" lon="5.29363">
        <ele>191.8</ele>
        <time>2021-11-22T13:22:08Z</time>
      </trkpt>
      <trkpt lat="46.61425" lon="5.2938">
        <ele>190.8</ele>
        <time>2021-11-22T13:22:10Z</time>
      </trkpt>
      <trkpt lat="46.61436" lon="5.29388">
        <ele>189.8</ele>
        <time>2021-11-22T13:22:12Z</time>
      </trkpt>
      <trkpt lat="46.61443" lon="5.29391">
        <ele>189.2</ele>
        <time>2021-11-22T13:22:13Z</time>
      </trkpt>
      <trkpt lat="46.6145" lon="5.29395">
        <ele>189</ele>
        <time>2021-11-22T13:22:14Z</time>
      </trkpt>
      <trkpt lat="46.61471" lon="5.29408">
        <ele>187.8</ele>
        <time>2021-11-22T13:22:17Z</time>
      </trkpt>
      <trkpt lat="46.61492" lon="5.29425">
        <ele>186.4</ele>
        <time>2021-11-22T13:22:20Z</time>
      </trkpt>
      <trkpt lat="46.61514" lon="5.2944">
        <ele>185.2</ele>
        <time>2021-11-22T13:22:23Z</time>
      </trkpt>
      <trkpt lat="46.61521" lon="5.29445">
        <ele>184.4</ele>
        <time>2021-11-22T13:22:24Z</time>
      </trkpt>
      <trkpt lat="46.61536" lon="5.29454">
        <ele>183.8</ele>
        <time>2021-11-22T13:22:26Z</time>
      </trkpt>
      <trkpt lat="46.61582" lon="5.29481">
        <ele>183.2</ele>
        <time>2021-11-22T13:22:33Z</time>
      </trkpt>
      <trkpt lat="46.61616" lon="5.295">
        <ele>183.2</ele>
        <time>2021-11-22T13:22:39Z</time>
      </trkpt>
      <trkpt lat="46.61647" lon="5.29521">
        <ele>183.6</ele>
        <time>2021-11-22T13:22:45Z</time>
      </trkpt>
      <trkpt lat="46.61652" lon="5.29526">
        <ele>183.8</ele>
        <time>2021-11-22T13:22:46Z</time>
      </trkpt>
      <trkpt lat="46.61656" lon="5.29532">
        <ele>183.8</ele>
        <time>2021-11-22T13:22:47Z</time>
      </trkpt>
      <trkpt lat="46.61662" lon="5.29547">
        <ele>183.8</ele>
        <time>2021-11-22T13:22:49Z</time>
      </trkpt>
      <trkpt lat="46.61664" lon="5.29556">
        <ele>184</ele>
        <time>2021-11-22T13:22:50Z</time>
      </trkpt>
      <trkpt lat="46.6167" lon="5.2958">
        <ele>184.6</ele>
        <time>2021-11-22T13:22:53Z</time>
      </trkpt>
      <trkpt lat="46.61677" lon="5.29592">
        <ele>184.6</ele>
        <time>2021-11-22T13:22:55Z</time>
      </trkpt>
      <trkpt lat="46.61687" lon="5.29598">
        <ele>184.6</ele>
        <time>2021-11-22T13:22:57Z</time>
      </trkpt>
      <trkpt lat="46.61693" lon="5.29599">
        <ele>184.2</ele>
        <time>2021-11-22T13:22:58Z</time>
      </trkpt>
      <trkpt lat="46.61728" lon="5.296">
        <ele>184</ele>
        <time>2021-11-22T13:23:05Z</time>
      </trkpt>
      <trkpt lat="46.61742" lon="5.296">
        <ele>185</ele>
        <time>2021-11-22T13:23:08Z</time>
      </trkpt>
      <trkpt lat="46.61757" lon="5.296">
        <ele>185.6</ele>
        <time>2021-11-22T13:23:11Z</time>
      </trkpt>
      <trkpt lat="46.61768" lon="5.29598">
        <ele>185.6</ele>
        <time>2021-11-22T13:23:13Z</time>
      </trkpt>
      <trkpt lat="46.61779" lon="5.29593">
        <ele>185.6</ele>
        <time>2021-11-22T13:23:15Z</time>
      </trkpt>
      <trkpt lat="46.61808" lon="5.29562">
        <ele>185.4</ele>
        <time>2021-11-22T13:23:21Z</time>
      </trkpt>
      <trkpt lat="46.61846" lon="5.29524">
        <ele>185.2</ele>
        <time>2021-11-22T13:23:28Z</time>
      </trkpt>
      <trkpt lat="46.61878" lon="5.2951">
        <ele>185.4</ele>
        <time>2021-11-22T13:23:33Z</time>
      </trkpt>
      <trkpt lat="46.61897" lon="5.29507">
        <ele>185.4</ele>
        <time>2021-11-22T13:23:36Z</time>
      </trkpt>
      <trkpt lat="46.61909" lon="5.29509">
        <ele>185.4</ele>
        <time>2021-11-22T13:23:38Z</time>
      </trkpt>
      <trkpt lat="46.61949" lon="5.29509">
        <ele>185.8</ele>
        <time>2021-11-22T13:23:45Z</time>
      </trkpt>
      <trkpt lat="46.61966" lon="5.29506">
        <ele>186.2</ele>
        <time>2021-11-22T13:23:48Z</time>
      </trkpt>
      <trkpt lat="46.62" lon="5.29499">
        <ele>186.8</ele>
        <time>2021-11-22T13:23:54Z</time>
      </trkpt>
      <trkpt lat="46.62047" lon="5.29492">
        <ele>187.4</ele>
        <time>2021-11-22T13:24:02Z</time>
      </trkpt>
      <trkpt lat="46.62059" lon="5.29492">
        <ele>187.4</ele>
        <time>2021-11-22T13:24:04Z</time>
      </trkpt>
      <trkpt lat="46.62109" lon="5.29495">
        <ele>188.4</ele>
        <time>2021-11-22T13:24:13Z</time>
      </trkpt>
      <trkpt lat="46.62158" lon="5.29498">
        <ele>189.4</ele>
        <time>2021-11-22T13:24:22Z</time>
      </trkpt>
      <trkpt lat="46.62217" lon="5.29495">
        <ele>189.8</ele>
        <time>2021-11-22T13:24:32Z</time>
      </trkpt>
      <trkpt lat="46.62267" lon="5.29475">
        <ele>189.8</ele>
        <time>2021-11-22T13:24:40Z</time>
      </trkpt>
      <trkpt lat="46.62304" lon="5.29464">
        <ele>189</ele>
        <time>2021-11-22T13:24:46Z</time>
      </trkpt>
      <trkpt lat="46.62311" lon="5.29464">
        <ele>188.8</ele>
        <time>2021-11-22T13:24:47Z</time>
      </trkpt>
      <trkpt lat="46.62317" lon="5.29465">
        <ele>188.8</ele>
        <time>2021-11-22T13:24:48Z</time>
      </trkpt>
      <trkpt lat="46.62342" lon="5.29478">
        <ele>188.4</ele>
        <time>2021-11-22T13:24:52Z</time>
      </trkpt>
      <trkpt lat="46.62354" lon="5.29487">
        <ele>188.2</ele>
        <time>2021-11-22T13:24:54Z</time>
      </trkpt>
      <trkpt lat="46.62374" lon="5.295">
        <ele>187.2</ele>
        <time>2021-11-22T13:24:57Z</time>
      </trkpt>
      <trkpt lat="46.62388" lon="5.2951">
        <ele>186.4</ele>
        <time>2021-11-22T13:24:59Z</time>
      </trkpt>
      <trkpt lat="46.62403" lon="5.2952">
        <ele>185.6</ele>
        <time>2021-11-22T13:25:01Z</time>
      </trkpt>
      <trkpt lat="46.62425" lon="5.29535">
        <ele>184.6</ele>
        <time>2021-11-22T13:25:04Z</time>
      </trkpt>
      <trkpt lat="46.62433" lon="5.2954">
        <ele>183.8</ele>
        <time>2021-11-22T13:25:05Z</time>
      </trkpt>
      <trkpt lat="46.62455" lon="5.29555">
        <ele>182.4</ele>
        <time>2021-11-22T13:25:08Z</time>
      </trkpt>
      <trkpt lat="46.6247" lon="5.29565">
        <ele>181.2</ele>
        <time>2021-11-22T13:25:10Z</time>
      </trkpt>
      <trkpt lat="46.62484" lon="5.29574">
        <ele>180.6</ele>
        <time>2021-11-22T13:25:12Z</time>
      </trkpt>
      <trkpt lat="46.62503" lon="5.29587">
        <ele>180</ele>
        <time>2021-11-22T13:25:15Z</time>
      </trkpt>
      <trkpt lat="46.62528" lon="5.29604">
        <ele>179</ele>
        <time>2021-11-22T13:25:19Z</time>
      </trkpt>
      <trkpt lat="46.62568" lon="5.29631">
        <ele>179</ele>
        <time>2021-11-22T13:25:26Z</time>
      </trkpt>
      <trkpt lat="46.62608" lon="5.29659">
        <ele>179.4</ele>
        <time>2021-11-22T13:25:34Z</time>
      </trkpt>
      <trkpt lat="46.62636" lon="5.2968">
        <ele>180</ele>
        <time>2021-11-22T13:25:40Z</time>
      </trkpt>
      <trkpt lat="46.62659" lon="5.29696">
        <ele>180.6</ele>
        <time>2021-11-22T13:25:45Z</time>
      </trkpt>
      <trkpt lat="46.62674" lon="5.29706">
        <ele>181.2</ele>
        <time>2021-11-22T13:25:48Z</time>
      </trkpt>
      <trkpt lat="46.62717" lon="5.29734">
        <ele>182</ele>
        <time>2021-11-22T13:25:57Z</time>
      </trkpt>
      <trkpt lat="46.62771" lon="5.29769">
        <ele>182</ele>
        <time>2021-11-22T13:26:08Z</time>
      </trkpt>
      <trkpt lat="46.62799" lon="5.29787">
        <ele>182.2</ele>
        <time>2021-11-22T13:26:14Z</time>
      </trkpt>
      <trkpt lat="46.62818" lon="5.29799">
        <ele>182.4</ele>
        <time>2021-11-22T13:26:18Z</time>
      </trkpt>
      <trkpt lat="46.62839" lon="5.29813">
        <ele>183.6</ele>
        <time>2021-11-22T13:26:23Z</time>
      </trkpt>
      <trkpt lat="46.62851" lon="5.29821">
        <ele>183.8</ele>
        <time>2021-11-22T13:26:26Z</time>
      </trkpt>
      <trkpt lat="46.62856" lon="5.29828">
        <ele>184.2</ele>
        <time>2021-11-22T13:26:28Z</time>
      </trkpt>
      <trkpt lat="46.62857" lon="5.29833">
        <ele>184.2</ele>
        <time>2021-11-22T13:26:29Z</time>
      </trkpt>
      <trkpt lat="46.62856" lon="5.29839">
        <ele>184.4</ele>
        <time>2021-11-22T13:26:31Z</time>
      </trkpt>
      <trkpt lat="46.62856" lon="5.29841">
        <ele>184.6</ele>
        <time>2021-11-22T13:26:32Z</time>
      </trkpt>
      <trkpt lat="46.62855" lon="5.29843">
        <ele>184.8</ele>
        <time>2021-11-22T13:26:33Z</time>
      </trkpt>
      <trkpt lat="46.62855" lon="5.29843">
        <ele>185.4</ele>
        <time>2021-11-22T13:26:35Z</time>
      </trkpt>
      <trkpt lat="46.62858" lon="5.29842">
        <ele>185</ele>
        <time>2021-11-22T13:30:49Z</time>
      </trkpt>
      <trkpt lat="46.62859" lon="5.2984">
        <ele>185</ele>
        <time>2021-11-22T13:30:50Z</time>
      </trkpt>
      <trkpt lat="46.62865" lon="5.29834">
        <ele>185</ele>
        <time>2021-11-22T13:30:53Z</time>
      </trkpt>
      <trkpt lat="46.6287" lon="5.29834">
        <ele>184.8</ele>
        <time>2021-11-22T13:30:54Z</time>
      </trkpt>
      <trkpt lat="46.62874" lon="5.29836">
        <ele>184.8</ele>
        <time>2021-11-22T13:30:55Z</time>
      </trkpt>
      <trkpt lat="46.62888" lon="5.29845">
        <ele>184.8</ele>
        <time>2021-11-22T13:30:58Z</time>
      </trkpt>
      <trkpt lat="46.62923" lon="5.2987">
        <ele>185.2</ele>
        <time>2021-11-22T13:31:06Z</time>
      </trkpt>
      <trkpt lat="46.62935" lon="5.29878">
        <ele>186.2</ele>
        <time>2021-11-22T13:31:09Z</time>
      </trkpt>
      <trkpt lat="46.62951" lon="5.29889">
        <ele>187.4</ele>
        <time>2021-11-22T13:31:13Z</time>
      </trkpt>
      <trkpt lat="46.62959" lon="5.29895">
        <ele>187.8</ele>
        <time>2021-11-22T13:31:15Z</time>
      </trkpt>
      <trkpt lat="46.62976" lon="5.29906">
        <ele>188.4</ele>
        <time>2021-11-22T13:31:19Z</time>
      </trkpt>
      <trkpt lat="46.63019" lon="5.29937">
        <ele>189.4</ele>
        <time>2021-11-22T13:31:29Z</time>
      </trkpt>
      <trkpt lat="46.63023" lon="5.2994">
        <ele>189.4</ele>
        <time>2021-11-22T13:31:30Z</time>
      </trkpt>
      <trkpt lat="46.63066" lon="5.29971">
        <ele>190.2</ele>
        <time>2021-11-22T13:31:40Z</time>
      </trkpt>
      <trkpt lat="46.63074" lon="5.29976">
        <ele>190.6</ele>
        <time>2021-11-22T13:31:42Z</time>
      </trkpt>
      <trkpt lat="46.63095" lon="5.29986">
        <ele>191</ele>
        <time>2021-11-22T13:31:47Z</time>
      </trkpt>
      <trkpt lat="46.63103" lon="5.29988">
        <ele>191.2</ele>
        <time>2021-11-22T13:31:49Z</time>
      </trkpt>
      <trkpt lat="46.63108" lon="5.29989">
        <ele>191.2</ele>
        <time>2021-11-22T13:31:50Z</time>
      </trkpt>
      <trkpt lat="46.63116" lon="5.2999">
        <ele>191.4</ele>
        <time>2021-11-22T13:31:52Z</time>
      </trkpt>
      <trkpt lat="46.63139" lon="5.2999">
        <ele>192.8</ele>
        <time>2021-11-22T13:31:57Z</time>
      </trkpt>
      <trkpt lat="46.63178" lon="5.29985">
        <ele>193.6</ele>
        <time>2021-11-22T13:32:05Z</time>
      </trkpt>
      <trkpt lat="46.63183" lon="5.29984">
        <ele>193.8</ele>
        <time>2021-11-22T13:32:06Z</time>
      </trkpt>
      <trkpt lat="46.6323" lon="5.29979">
        <ele>194.2</ele>
        <time>2021-11-22T13:32:15Z</time>
      </trkpt>
      <trkpt lat="46.63287" lon="5.29975">
        <ele>194.6</ele>
        <time>2021-11-22T13:32:25Z</time>
      </trkpt>
      <trkpt lat="46.63293" lon="5.29975">
        <ele>194.6</ele>
        <time>2021-11-22T13:32:26Z</time>
      </trkpt>
      <trkpt lat="46.63352" lon="5.29975">
        <ele>194.6</ele>
        <time>2021-11-22T13:32:36Z</time>
      </trkpt>
      <trkpt lat="46.63364" lon="5.29976">
        <ele>194.6</ele>
        <time>2021-11-22T13:32:38Z</time>
      </trkpt>
      <trkpt lat="46.63408" lon="5.29986">
        <ele>194.2</ele>
        <time>2021-11-22T13:32:45Z</time>
      </trkpt>
      <trkpt lat="46.63465" lon="5.30012">
        <ele>193.6</ele>
        <time>2021-11-22T13:32:54Z</time>
      </trkpt>
      <trkpt lat="46.63473" lon="5.30013">
        <ele>193.6</ele>
        <time>2021-11-22T13:32:55Z</time>
      </trkpt>
      <trkpt lat="46.63489" lon="5.30012">
        <ele>193.4</ele>
        <time>2021-11-22T13:32:57Z</time>
      </trkpt>
      <trkpt lat="46.63496" lon="5.30009">
        <ele>193</ele>
        <time>2021-11-22T13:32:58Z</time>
      </trkpt>
      <trkpt lat="46.63511" lon="5.30002">
        <ele>192.8</ele>
        <time>2021-11-22T13:33:00Z</time>
      </trkpt>
      <trkpt lat="46.63541" lon="5.29986">
        <ele>191.8</ele>
        <time>2021-11-22T13:33:04Z</time>
      </trkpt>
      <trkpt lat="46.63549" lon="5.29982">
        <ele>191.6</ele>
        <time>2021-11-22T13:33:05Z</time>
      </trkpt>
      <trkpt lat="46.636" lon="5.29957">
        <ele>190.8</ele>
        <time>2021-11-22T13:33:12Z</time>
      </trkpt>
      <trkpt lat="46.63607" lon="5.29953">
        <ele>190.6</ele>
        <time>2021-11-22T13:33:13Z</time>
      </trkpt>
      <trkpt lat="46.63639" lon="5.29936">
        <ele>189.4</ele>
        <time>2021-11-22T13:33:18Z</time>
      </trkpt>
      <trkpt lat="46.63658" lon="5.29926">
        <ele>188.8</ele>
        <time>2021-11-22T13:33:21Z</time>
      </trkpt>
      <trkpt lat="46.63672" lon="5.29919">
        <ele>188.4</ele>
        <time>2021-11-22T13:33:23Z</time>
      </trkpt>
      <trkpt lat="46.63685" lon="5.29913">
        <ele>188.2</ele>
        <time>2021-11-22T13:33:25Z</time>
      </trkpt>
      <trkpt lat="46.63692" lon="5.29914">
        <ele>188</ele>
        <time>2021-11-22T13:33:26Z</time>
      </trkpt>
      <trkpt lat="46.63698" lon="5.29919">
        <ele>187.8</ele>
        <time>2021-11-22T13:33:27Z</time>
      </trkpt>
      <trkpt lat="46.63705" lon="5.29933">
        <ele>187.4</ele>
        <time>2021-11-22T13:33:29Z</time>
      </trkpt>
      <trkpt lat="46.63706" lon="5.29942">
        <ele>187</ele>
        <time>2021-11-22T13:33:30Z</time>
      </trkpt>
      <trkpt lat="46.63706" lon="5.29951">
        <ele>187</ele>
        <time>2021-11-22T13:33:31Z</time>
      </trkpt>
      <trkpt lat="46.63705" lon="5.29969">
        <ele>186.8</ele>
        <time>2021-11-22T13:33:33Z</time>
      </trkpt>
      <trkpt lat="46.637" lon="5.30043">
        <ele>186.8</ele>
        <time>2021-11-22T13:33:40Z</time>
      </trkpt>
      <trkpt lat="46.63691" lon="5.30103">
        <ele>186</ele>
        <time>2021-11-22T13:33:45Z</time>
      </trkpt>
      <trkpt lat="46.63685" lon="5.30126">
        <ele>184.8</ele>
        <time>2021-11-22T13:33:47Z</time>
      </trkpt>
      <trkpt lat="46.6367" lon="5.30171">
        <ele>183.6</ele>
        <time>2021-11-22T13:33:51Z</time>
      </trkpt>
      <trkpt lat="46.63656" lon="5.30213">
        <ele>182.6</ele>
        <time>2021-11-22T13:33:55Z</time>
      </trkpt>
      <trkpt lat="46.63639" lon="5.30264">
        <ele>181.6</ele>
        <time>2021-11-22T13:34:00Z</time>
      </trkpt>
      <trkpt lat="46.63614" lon="5.30343">
        <ele>181.4</ele>
        <time>2021-11-22T13:34:08Z</time>
      </trkpt>
      <trkpt lat="46.63611" lon="5.30353">
        <ele>181.6</ele>
        <time>2021-11-22T13:34:09Z</time>
      </trkpt>
      <trkpt lat="46.63591" lon="5.30418">
        <ele>181.6</ele>
        <time>2021-11-22T13:34:16Z</time>
      </trkpt>
      <trkpt lat="46.63575" lon="5.3046">
        <ele>182</ele>
        <time>2021-11-22T13:34:21Z</time>
      </trkpt>
      <trkpt lat="46.63543" lon="5.30526">
        <ele>182.4</ele>
        <time>2021-11-22T13:34:29Z</time>
      </trkpt>
      <trkpt lat="46.63535" lon="5.30543">
        <ele>182.6</ele>
        <time>2021-11-22T13:34:31Z</time>
      </trkpt>
      <trkpt lat="46.63509" lon="5.30603">
        <ele>182.8</ele>
        <time>2021-11-22T13:34:38Z</time>
      </trkpt>
      <trkpt lat="46.63507" lon="5.30612">
        <ele>182.8</ele>
        <time>2021-11-22T13:34:39Z</time>
      </trkpt>
      <trkpt lat="46.63498" lon="5.30658">
        <ele>183</ele>
        <time>2021-11-22T13:34:44Z</time>
      </trkpt>
      <trkpt lat="46.63493" lon="5.307">
        <ele>183.4</ele>
        <time>2021-11-22T13:34:49Z</time>
      </trkpt>
      <trkpt lat="46.63491" lon="5.30716">
        <ele>183.6</ele>
        <time>2021-11-22T13:34:51Z</time>
      </trkpt>
      <trkpt lat="46.63486" lon="5.30752">
        <ele>184.6</ele>
        <time>2021-11-22T13:34:56Z</time>
      </trkpt>
      <trkpt lat="46.63485" lon="5.30766">
        <ele>185</ele>
        <time>2021-11-22T13:34:58Z</time>
      </trkpt>
      <trkpt lat="46.63484" lon="5.3078">
        <ele>185.8</ele>
        <time>2021-11-22T13:35:00Z</time>
      </trkpt>
      <trkpt lat="46.63482" lon="5.30802">
        <ele>187</ele>
        <time>2021-11-22T13:35:03Z</time>
      </trkpt>
      <trkpt lat="46.63481" lon="5.30827">
        <ele>187.6</ele>
        <time>2021-11-22T13:35:06Z</time>
      </trkpt>
      <trkpt lat="46.63476" lon="5.30877">
        <ele>187.8</ele>
        <time>2021-11-22T13:35:11Z</time>
      </trkpt>
      <trkpt lat="46.63464" lon="5.30953">
        <ele>185.6</ele>
        <time>2021-11-22T13:35:17Z</time>
      </trkpt>
      <trkpt lat="46.63457" lon="5.30994">
        <ele>184.6</ele>
        <time>2021-11-22T13:35:20Z</time>
      </trkpt>
      <trkpt lat="46.6345" lon="5.31032">
        <ele>183.2</ele>
        <time>2021-11-22T13:35:23Z</time>
      </trkpt>
      <trkpt lat="46.63447" lon="5.31045">
        <ele>182.6</ele>
        <time>2021-11-22T13:35:24Z</time>
      </trkpt>
      <trkpt lat="46.6344" lon="5.31068">
        <ele>182</ele>
        <time>2021-11-22T13:35:26Z</time>
      </trkpt>
      <trkpt lat="46.63429" lon="5.311">
        <ele>181.8</ele>
        <time>2021-11-22T13:35:29Z</time>
      </trkpt>
      <trkpt lat="46.63414" lon="5.31153">
        <ele>181.6</ele>
        <time>2021-11-22T13:35:34Z</time>
      </trkpt>
      <trkpt lat="46.63396" lon="5.31235">
        <ele>182.2</ele>
        <time>2021-11-22T13:35:42Z</time>
      </trkpt>
      <trkpt lat="46.63385" lon="5.31267">
        <ele>182.6</ele>
        <time>2021-11-22T13:35:46Z</time>
      </trkpt>
      <trkpt lat="46.63381" lon="5.31274">
        <ele>182.6</ele>
        <time>2021-11-22T13:35:47Z</time>
      </trkpt>
      <trkpt lat="46.63373" lon="5.31287">
        <ele>182.8</ele>
        <time>2021-11-22T13:35:49Z</time>
      </trkpt>
      <trkpt lat="46.63363" lon="5.31295">
        <ele>183.2</ele>
        <time>2021-11-22T13:35:51Z</time>
      </trkpt>
      <trkpt lat="46.63342" lon="5.31307">
        <ele>184.2</ele>
        <time>2021-11-22T13:35:55Z</time>
      </trkpt>
      <trkpt lat="46.63332" lon="5.31317">
        <ele>184.4</ele>
        <time>2021-11-22T13:35:57Z</time>
      </trkpt>
      <trkpt lat="46.633" lon="5.31353">
        <ele>185.6</ele>
        <time>2021-11-22T13:36:04Z</time>
      </trkpt>
      <trkpt lat="46.63291" lon="5.31363">
        <ele>186.2</ele>
        <time>2021-11-22T13:36:06Z</time>
      </trkpt>
      <trkpt lat="46.63286" lon="5.31367">
        <ele>186.8</ele>
        <time>2021-11-22T13:36:07Z</time>
      </trkpt>
      <trkpt lat="46.6326" lon="5.31384">
        <ele>187.8</ele>
        <time>2021-11-22T13:36:12Z</time>
      </trkpt>
      <trkpt lat="46.63255" lon="5.31386">
        <ele>188.2</ele>
        <time>2021-11-22T13:36:13Z</time>
      </trkpt>
      <trkpt lat="46.63239" lon="5.31397">
        <ele>188.6</ele>
        <time>2021-11-22T13:36:16Z</time>
      </trkpt>
      <trkpt lat="46.63231" lon="5.31409">
        <ele>188.6</ele>
        <time>2021-11-22T13:36:18Z</time>
      </trkpt>
      <trkpt lat="46.63224" lon="5.31425">
        <ele>188.8</ele>
        <time>2021-11-22T13:36:20Z</time>
      </trkpt>
      <trkpt lat="46.63221" lon="5.31434">
        <ele>188.8</ele>
        <time>2021-11-22T13:36:21Z</time>
      </trkpt>
      <trkpt lat="46.6322" lon="5.31443">
        <ele>188.6</ele>
        <time>2021-11-22T13:36:22Z</time>
      </trkpt>
      <trkpt lat="46.63218" lon="5.31474">
        <ele>188.4</ele>
        <time>2021-11-22T13:36:25Z</time>
      </trkpt>
      <trkpt lat="46.63216" lon="5.31547">
        <ele>187</ele>
        <time>2021-11-22T13:36:32Z</time>
      </trkpt>
      <trkpt lat="46.63212" lon="5.31577">
        <ele>186.8</ele>
        <time>2021-11-22T13:36:35Z</time>
      </trkpt>
      <trkpt lat="46.63206" lon="5.31597">
        <ele>186.6</ele>
        <time>2021-11-22T13:36:37Z</time>
      </trkpt>
      <trkpt lat="46.63191" lon="5.3166">
        <ele>186.2</ele>
        <time>2021-11-22T13:36:44Z</time>
      </trkpt>
      <trkpt lat="46.63184" lon="5.31724">
        <ele>186.4</ele>
        <time>2021-11-22T13:36:51Z</time>
      </trkpt>
      <trkpt lat="46.63177" lon="5.31782">
        <ele>187.2</ele>
        <time>2021-11-22T13:36:58Z</time>
      </trkpt>
      <trkpt lat="46.63172" lon="5.31828">
        <ele>188.2</ele>
        <time>2021-11-22T13:37:04Z</time>
      </trkpt>
      <trkpt lat="46.6317" lon="5.31843">
        <ele>188.4</ele>
        <time>2021-11-22T13:37:06Z</time>
      </trkpt>
      <trkpt lat="46.63165" lon="5.31903">
        <ele>189.2</ele>
        <time>2021-11-22T13:37:14Z</time>
      </trkpt>
      <trkpt lat="46.63163" lon="5.31945">
        <ele>190.2</ele>
        <time>2021-11-22T13:37:20Z</time>
      </trkpt>
      <trkpt lat="46.63163" lon="5.31959">
        <ele>190.6</ele>
        <time>2021-11-22T13:37:22Z</time>
      </trkpt>
      <trkpt lat="46.63162" lon="5.31979">
        <ele>191.2</ele>
        <time>2021-11-22T13:37:25Z</time>
      </trkpt>
      <trkpt lat="46.63161" lon="5.32013">
        <ele>192.2</ele>
        <time>2021-11-22T13:37:30Z</time>
      </trkpt>
      <trkpt lat="46.6316" lon="5.32027">
        <ele>192.6</ele>
        <time>2021-11-22T13:37:32Z</time>
      </trkpt>
      <trkpt lat="46.63156" lon="5.32064">
        <ele>193.6</ele>
        <time>2021-11-22T13:37:37Z</time>
      </trkpt>
      <trkpt lat="46.63153" lon="5.32095">
        <ele>194.4</ele>
        <time>2021-11-22T13:37:41Z</time>
      </trkpt>
      <trkpt lat="46.63151" lon="5.32117">
        <ele>194.6</ele>
        <time>2021-11-22T13:37:44Z</time>
      </trkpt>
      <trkpt lat="46.63147" lon="5.32148">
        <ele>194.6</ele>
        <time>2021-11-22T13:37:48Z</time>
      </trkpt>
      <trkpt lat="46.63138" lon="5.32192">
        <ele>194.4</ele>
        <time>2021-11-22T13:37:53Z</time>
      </trkpt>
      <trkpt lat="46.6313" lon="5.32245">
        <ele>195</ele>
        <time>2021-11-22T13:37:59Z</time>
      </trkpt>
      <trkpt lat="46.63133" lon="5.32299">
        <ele>195.6</ele>
        <time>2021-11-22T13:38:05Z</time>
      </trkpt>
      <trkpt lat="46.63134" lon="5.32307">
        <ele>195.6</ele>
        <time>2021-11-22T13:38:06Z</time>
      </trkpt>
      <trkpt lat="46.63142" lon="5.32373">
        <ele>196.2</ele>
        <time>2021-11-22T13:38:14Z</time>
      </trkpt>
      <trkpt lat="46.63143" lon="5.32396">
        <ele>196.6</ele>
        <time>2021-11-22T13:38:17Z</time>
      </trkpt>
      <trkpt lat="46.63143" lon="5.32428">
        <ele>197.2</ele>
        <time>2021-11-22T13:38:21Z</time>
      </trkpt>
      <trkpt lat="46.63144" lon="5.32461">
        <ele>197.8</ele>
        <time>2021-11-22T13:38:25Z</time>
      </trkpt>
      <trkpt lat="46.63144" lon="5.32481">
        <ele>198</ele>
        <time>2021-11-22T13:38:27Z</time>
      </trkpt>
      <trkpt lat="46.63145" lon="5.32531">
        <ele>197.4</ele>
        <time>2021-11-22T13:38:32Z</time>
      </trkpt>
      <trkpt lat="46.63146" lon="5.3254">
        <ele>197.2</ele>
        <time>2021-11-22T13:38:33Z</time>
      </trkpt>
      <trkpt lat="46.63148" lon="5.3257">
        <ele>196.8</ele>
        <time>2021-11-22T13:38:36Z</time>
      </trkpt>
      <trkpt lat="46.6315" lon="5.32601">
        <ele>196.2</ele>
        <time>2021-11-22T13:38:39Z</time>
      </trkpt>
      <trkpt lat="46.63153" lon="5.32612">
        <ele>196</ele>
        <time>2021-11-22T13:38:40Z</time>
      </trkpt>
      <trkpt lat="46.63157" lon="5.32621">
        <ele>196</ele>
        <time>2021-11-22T13:38:41Z</time>
      </trkpt>
      <trkpt lat="46.6317" lon="5.32646">
        <ele>195.8</ele>
        <time>2021-11-22T13:38:44Z</time>
      </trkpt>
      <trkpt lat="46.63177" lon="5.32666">
        <ele>195.6</ele>
        <time>2021-11-22T13:38:46Z</time>
      </trkpt>
      <trkpt lat="46.63179" lon="5.32676">
        <ele>195.4</ele>
        <time>2021-11-22T13:38:47Z</time>
      </trkpt>
      <trkpt lat="46.6318" lon="5.32687">
        <ele>194.8</ele>
        <time>2021-11-22T13:38:48Z</time>
      </trkpt>
      <trkpt lat="46.63179" lon="5.32708">
        <ele>194.2</ele>
        <time>2021-11-22T13:38:50Z</time>
      </trkpt>
      <trkpt lat="46.63178" lon="5.32728">
        <ele>193.2</ele>
        <time>2021-11-22T13:38:52Z</time>
      </trkpt>
      <trkpt lat="46.63178" lon="5.32738">
        <ele>193.2</ele>
        <time>2021-11-22T13:38:53Z</time>
      </trkpt>
      <trkpt lat="46.63177" lon="5.32749">
        <ele>192.8</ele>
        <time>2021-11-22T13:38:54Z</time>
      </trkpt>
      <trkpt lat="46.6317" lon="5.3277">
        <ele>192.4</ele>
        <time>2021-11-22T13:38:56Z</time>
      </trkpt>
      <trkpt lat="46.63141" lon="5.32838">
        <ele>192</ele>
        <time>2021-11-22T13:39:03Z</time>
      </trkpt>
      <trkpt lat="46.6313" lon="5.32865">
        <ele>192</ele>
        <time>2021-11-22T13:39:06Z</time>
      </trkpt>
      <trkpt lat="46.63126" lon="5.32874">
        <ele>192</ele>
        <time>2021-11-22T13:39:07Z</time>
      </trkpt>
      <trkpt lat="46.63094" lon="5.32934">
        <ele>193.4</ele>
        <time>2021-11-22T13:39:15Z</time>
      </trkpt>
      <trkpt lat="46.63077" lon="5.32966">
        <ele>193.8</ele>
        <time>2021-11-22T13:39:20Z</time>
      </trkpt>
      <trkpt lat="46.63056" lon="5.33004">
        <ele>194.8</ele>
        <time>2021-11-22T13:39:26Z</time>
      </trkpt>
      <trkpt lat="46.63052" lon="5.3301">
        <ele>195</ele>
        <time>2021-11-22T13:39:27Z</time>
      </trkpt>
      <trkpt lat="46.63044" lon="5.33026">
        <ele>196</ele>
        <time>2021-11-22T13:39:30Z</time>
      </trkpt>
      <trkpt lat="46.63038" lon="5.33039">
        <ele>196.8</ele>
        <time>2021-11-22T13:39:32Z</time>
      </trkpt>
      <trkpt lat="46.63035" lon="5.33044">
        <ele>197.2</ele>
        <time>2021-11-22T13:39:33Z</time>
      </trkpt>
      <trkpt lat="46.63031" lon="5.3305">
        <ele>197.4</ele>
        <time>2021-11-22T13:39:34Z</time>
      </trkpt>
      <trkpt lat="46.63027" lon="5.33056">
        <ele>197.8</ele>
        <time>2021-11-22T13:39:35Z</time>
      </trkpt>
      <trkpt lat="46.63013" lon="5.33068">
        <ele>198.2</ele>
        <time>2021-11-22T13:39:38Z</time>
      </trkpt>
      <trkpt lat="46.63002" lon="5.33076">
        <ele>198.4</ele>
        <time>2021-11-22T13:39:40Z</time>
      </trkpt>
      <trkpt lat="46.62986" lon="5.33089">
        <ele>198.4</ele>
        <time>2021-11-22T13:39:43Z</time>
      </trkpt>
      <trkpt lat="46.62978" lon="5.33097">
        <ele>198</ele>
        <time>2021-11-22T13:39:45Z</time>
      </trkpt>
      <trkpt lat="46.62975" lon="5.33101">
        <ele>197.8</ele>
        <time>2021-11-22T13:39:46Z</time>
      </trkpt>
      <trkpt lat="46.62972" lon="5.33107">
        <ele>197.2</ele>
        <time>2021-11-22T13:39:48Z</time>
      </trkpt>
      <trkpt lat="46.6297" lon="5.3311">
        <ele>197</ele>
        <time>2021-11-22T13:39:49Z</time>
      </trkpt>
      <trkpt lat="46.62969" lon="5.33113">
        <ele>197</ele>
        <time>2021-11-22T13:39:50Z</time>
      </trkpt>
      <trkpt lat="46.62973" lon="5.33118">
        <ele>196.8</ele>
        <time>2021-11-22T13:39:52Z</time>
      </trkpt>
      <trkpt lat="46.62991" lon="5.33123">
        <ele>196.8</ele>
        <time>2021-11-22T13:39:57Z</time>
      </trkpt>
      <trkpt lat="46.63025" lon="5.33138">
        <ele>197.8</ele>
        <time>2021-11-22T13:40:06Z</time>
      </trkpt>
      <trkpt lat="46.63045" lon="5.3315">
        <ele>198.4</ele>
        <time>2021-11-22T13:40:11Z</time>
      </trkpt>
      <trkpt lat="46.63055" lon="5.33159">
        <ele>198.8</ele>
        <time>2021-11-22T13:40:14Z</time>
      </trkpt>
      <trkpt lat="46.63077" lon="5.33178">
        <ele>199.6</ele>
        <time>2021-11-22T13:40:20Z</time>
      </trkpt>
      <trkpt lat="46.63087" lon="5.33188">
        <ele>200</ele>
        <time>2021-11-22T13:40:23Z</time>
      </trkpt>
      <trkpt lat="46.63095" lon="5.33195">
        <ele>200.2</ele>
        <time>2021-11-22T13:40:25Z</time>
      </trkpt>
      <trkpt lat="46.63101" lon="5.33204">
        <ele>200.2</ele>
        <time>2021-11-22T13:40:27Z</time>
      </trkpt>
      <trkpt lat="46.63103" lon="5.3321">
        <ele>200.2</ele>
        <time>2021-11-22T13:40:28Z</time>
      </trkpt>
      <trkpt lat="46.63106" lon="5.33238">
        <ele>200.4</ele>
        <time>2021-11-22T13:40:32Z</time>
      </trkpt>
      <trkpt lat="46.63109" lon="5.33252">
        <ele>200.4</ele>
        <time>2021-11-22T13:40:34Z</time>
      </trkpt>
      <trkpt lat="46.63127" lon="5.33316">
        <ele>200.2</ele>
        <time>2021-11-22T13:40:44Z</time>
      </trkpt>
      <trkpt lat="46.63129" lon="5.33323">
        <ele>200.2</ele>
        <time>2021-11-22T13:40:45Z</time>
      </trkpt>
      <trkpt lat="46.63142" lon="5.3337">
        <ele>199.2</ele>
        <time>2021-11-22T13:40:51Z</time>
      </trkpt>
      <trkpt lat="46.63154" lon="5.33414">
        <ele>198.4</ele>
        <time>2021-11-22T13:40:56Z</time>
      </trkpt>
      <trkpt lat="46.6316" lon="5.33432">
        <ele>198</ele>
        <time>2021-11-22T13:40:58Z</time>
      </trkpt>
      <trkpt lat="46.63168" lon="5.3346">
        <ele>197.2</ele>
        <time>2021-11-22T13:41:01Z</time>
      </trkpt>
      <trkpt lat="46.63176" lon="5.3349">
        <ele>196.2</ele>
        <time>2021-11-22T13:41:04Z</time>
      </trkpt>
      <trkpt lat="46.63179" lon="5.335">
        <ele>196.2</ele>
        <time>2021-11-22T13:41:05Z</time>
      </trkpt>
      <trkpt lat="46.63195" lon="5.33553">
        <ele>195</ele>
        <time>2021-11-22T13:41:10Z</time>
      </trkpt>
      <trkpt lat="46.63201" lon="5.33574">
        <ele>194.6</ele>
        <time>2021-11-22T13:41:12Z</time>
      </trkpt>
      <trkpt lat="46.63211" lon="5.33606">
        <ele>193.8</ele>
        <time>2021-11-22T13:41:15Z</time>
      </trkpt>
      <trkpt lat="46.63224" lon="5.33653">
        <ele>192.4</ele>
        <time>2021-11-22T13:41:19Z</time>
      </trkpt>
      <trkpt lat="46.63231" lon="5.33677">
        <ele>191.2</ele>
        <time>2021-11-22T13:41:21Z</time>
      </trkpt>
      <trkpt lat="46.63241" lon="5.33712">
        <ele>189.8</ele>
        <time>2021-11-22T13:41:24Z</time>
      </trkpt>
      <trkpt lat="46.63257" lon="5.33769">
        <ele>188.8</ele>
        <time>2021-11-22T13:41:29Z</time>
      </trkpt>
      <trkpt lat="46.63273" lon="5.3385">
        <ele>188</ele>
        <time>2021-11-22T13:41:36Z</time>
      </trkpt>
      <trkpt lat="46.63276" lon="5.33875">
        <ele>187.6</ele>
        <time>2021-11-22T13:41:38Z</time>
      </trkpt>
      <trkpt lat="46.63278" lon="5.33922">
        <ele>187.2</ele>
        <time>2021-11-22T13:41:42Z</time>
      </trkpt>
      <trkpt lat="46.6328" lon="5.33976">
        <ele>187.2</ele>
        <time>2021-11-22T13:41:47Z</time>
      </trkpt>
      <trkpt lat="46.63281" lon="5.34026">
        <ele>187.8</ele>
        <time>2021-11-22T13:41:52Z</time>
      </trkpt>
      <trkpt lat="46.63283" lon="5.34064">
        <ele>188.6</ele>
        <time>2021-11-22T13:41:56Z</time>
      </trkpt>
      <trkpt lat="46.63284" lon="5.34089">
        <ele>189.2</ele>
        <time>2021-11-22T13:41:59Z</time>
      </trkpt>
      <trkpt lat="46.63284" lon="5.34106">
        <ele>189.6</ele>
        <time>2021-11-22T13:42:01Z</time>
      </trkpt>
      <trkpt lat="46.63285" lon="5.34139">
        <ele>190.2</ele>
        <time>2021-11-22T13:42:05Z</time>
      </trkpt>
      <trkpt lat="46.63285" lon="5.34155">
        <ele>190.6</ele>
        <time>2021-11-22T13:42:07Z</time>
      </trkpt>
      <trkpt lat="46.63287" lon="5.34187">
        <ele>191.4</ele>
        <time>2021-11-22T13:42:11Z</time>
      </trkpt>
      <trkpt lat="46.63286" lon="5.34232">
        <ele>191.8</ele>
        <time>2021-11-22T13:42:17Z</time>
      </trkpt>
      <trkpt lat="46.63285" lon="5.34239">
        <ele>191.8</ele>
        <time>2021-11-22T13:42:18Z</time>
      </trkpt>
      <trkpt lat="46.63282" lon="5.34251">
        <ele>192.8</ele>
        <time>2021-11-22T13:42:20Z</time>
      </trkpt>
      <trkpt lat="46.63279" lon="5.34266">
        <ele>193.8</ele>
        <time>2021-11-22T13:42:22Z</time>
      </trkpt>
      <trkpt lat="46.63277" lon="5.34273">
        <ele>194.6</ele>
        <time>2021-11-22T13:42:23Z</time>
      </trkpt>
      <trkpt lat="46.63274" lon="5.34288">
        <ele>195</ele>
        <time>2021-11-22T13:42:25Z</time>
      </trkpt>
      <trkpt lat="46.63261" lon="5.34346">
        <ele>195</ele>
        <time>2021-11-22T13:42:32Z</time>
      </trkpt>
      <trkpt lat="46.63259" lon="5.34356">
        <ele>194.8</ele>
        <time>2021-11-22T13:42:33Z</time>
      </trkpt>
      <trkpt lat="46.63258" lon="5.34376">
        <ele>194.6</ele>
        <time>2021-11-22T13:42:35Z</time>
      </trkpt>
      <trkpt lat="46.63259" lon="5.34385">
        <ele>194.6</ele>
        <time>2021-11-22T13:42:36Z</time>
      </trkpt>
      <trkpt lat="46.6326" lon="5.34395">
        <ele>194.4</ele>
        <time>2021-11-22T13:42:37Z</time>
      </trkpt>
      <trkpt lat="46.63268" lon="5.34445">
        <ele>194</ele>
        <time>2021-11-22T13:42:42Z</time>
      </trkpt>
      <trkpt lat="46.6327" lon="5.34455">
        <ele>194</ele>
        <time>2021-11-22T13:42:43Z</time>
      </trkpt>
      <trkpt lat="46.63276" lon="5.34512">
        <ele>193.2</ele>
        <time>2021-11-22T13:42:48Z</time>
      </trkpt>
      <trkpt lat="46.63278" lon="5.34523">
        <ele>193</ele>
        <time>2021-11-22T13:42:49Z</time>
      </trkpt>
      <trkpt lat="46.63281" lon="5.3457">
        <ele>191.6</ele>
        <time>2021-11-22T13:42:53Z</time>
      </trkpt>
      <trkpt lat="46.63282" lon="5.34605">
        <ele>191</ele>
        <time>2021-11-22T13:42:56Z</time>
      </trkpt>
      <trkpt lat="46.63278" lon="5.34671">
        <ele>190.8</ele>
        <time>2021-11-22T13:43:02Z</time>
      </trkpt>
      <trkpt lat="46.63268" lon="5.34751">
        <ele>191.2</ele>
        <time>2021-11-22T13:43:10Z</time>
      </trkpt>
      <trkpt lat="46.63269" lon="5.34814">
        <ele>191.2</ele>
        <time>2021-11-22T13:43:16Z</time>
      </trkpt>
      <trkpt lat="46.63278" lon="5.34893">
        <ele>191</ele>
        <time>2021-11-22T13:43:24Z</time>
      </trkpt>
      <trkpt lat="46.63278" lon="5.34902">
        <ele>191</ele>
        <time>2021-11-22T13:43:25Z</time>
      </trkpt>
      <trkpt lat="46.6328" lon="5.3496">
        <ele>191.8</ele>
        <time>2021-11-22T13:43:31Z</time>
      </trkpt>
      <trkpt lat="46.63281" lon="5.34969">
        <ele>191.8</ele>
        <time>2021-11-22T13:43:32Z</time>
      </trkpt>
      <trkpt lat="46.63283" lon="5.34979">
        <ele>191.8</ele>
        <time>2021-11-22T13:43:33Z</time>
      </trkpt>
      <trkpt lat="46.6329" lon="5.34996">
        <ele>191.8</ele>
        <time>2021-11-22T13:43:35Z</time>
      </trkpt>
      <trkpt lat="46.63294" lon="5.35003">
        <ele>191.8</ele>
        <time>2021-11-22T13:43:36Z</time>
      </trkpt>
      <trkpt lat="46.63331" lon="5.3507">
        <ele>192.2</ele>
        <time>2021-11-22T13:43:45Z</time>
      </trkpt>
      <trkpt lat="46.63334" lon="5.35078">
        <ele>192.2</ele>
        <time>2021-11-22T13:43:46Z</time>
      </trkpt>
      <trkpt lat="46.63337" lon="5.35095">
        <ele>192.4</ele>
        <time>2021-11-22T13:43:48Z</time>
      </trkpt>
      <trkpt lat="46.63338" lon="5.35105">
        <ele>192.6</ele>
        <time>2021-11-22T13:43:49Z</time>
      </trkpt>
      <trkpt lat="46.63339" lon="5.35114">
        <ele>192.6</ele>
        <time>2021-11-22T13:43:50Z</time>
      </trkpt>
      <trkpt lat="46.63341" lon="5.35196">
        <ele>191.8</ele>
        <time>2021-11-22T13:43:58Z</time>
      </trkpt>
      <trkpt lat="46.63341" lon="5.35206">
        <ele>191.8</ele>
        <time>2021-11-22T13:43:59Z</time>
      </trkpt>
      <trkpt lat="46.63342" lon="5.35227">
        <ele>191.2</ele>
        <time>2021-11-22T13:44:01Z</time>
      </trkpt>
      <trkpt lat="46.63343" lon="5.35267">
        <ele>190.4</ele>
        <time>2021-11-22T13:44:05Z</time>
      </trkpt>
      <trkpt lat="46.63343" lon="5.35276">
        <ele>190.2</ele>
        <time>2021-11-22T13:44:06Z</time>
      </trkpt>
      <trkpt lat="46.63343" lon="5.35332">
        <ele>190.2</ele>
        <time>2021-11-22T13:44:12Z</time>
      </trkpt>
      <trkpt lat="46.63346" lon="5.35373">
        <ele>191</ele>
        <time>2021-11-22T13:44:17Z</time>
      </trkpt>
      <trkpt lat="46.63348" lon="5.3538">
        <ele>191</ele>
        <time>2021-11-22T13:44:18Z</time>
      </trkpt>
      <trkpt lat="46.63362" lon="5.35431">
        <ele>191.2</ele>
        <time>2021-11-22T13:44:25Z</time>
      </trkpt>
      <trkpt lat="46.63364" lon="5.35438">
        <ele>191.2</ele>
        <time>2021-11-22T13:44:26Z</time>
      </trkpt>
      <trkpt lat="46.6337" lon="5.35465">
        <ele>191.6</ele>
        <time>2021-11-22T13:44:30Z</time>
      </trkpt>
      <trkpt lat="46.63371" lon="5.35471">
        <ele>191.6</ele>
        <time>2021-11-22T13:44:31Z</time>
      </trkpt>
      <trkpt lat="46.63377" lon="5.35491">
        <ele>191.8</ele>
        <time>2021-11-22T13:44:35Z</time>
      </trkpt>
      <trkpt lat="46.63381" lon="5.35501">
        <ele>192.6</ele>
        <time>2021-11-22T13:44:37Z</time>
      </trkpt>
      <trkpt lat="46.63384" lon="5.35512">
        <ele>192.8</ele>
        <time>2021-11-22T13:44:39Z</time>
      </trkpt>
      <trkpt lat="46.63383" lon="5.35525">
        <ele>193</ele>
        <time>2021-11-22T13:44:41Z</time>
      </trkpt>
      <trkpt lat="46.63379" lon="5.35539">
        <ele>193.2</ele>
        <time>2021-11-22T13:44:43Z</time>
      </trkpt>
      <trkpt lat="46.6337" lon="5.35557">
        <ele>193.4</ele>
        <time>2021-11-22T13:44:46Z</time>
      </trkpt>
      <trkpt lat="46.63357" lon="5.35588">
        <ele>193.6</ele>
        <time>2021-11-22T13:44:50Z</time>
      </trkpt>
      <trkpt lat="46.63348" lon="5.35605">
        <ele>193.4</ele>
        <time>2021-11-22T13:44:52Z</time>
      </trkpt>
      <trkpt lat="46.63337" lon="5.35622">
        <ele>192.8</ele>
        <time>2021-11-22T13:44:54Z</time>
      </trkpt>
      <trkpt lat="46.63325" lon="5.35638">
        <ele>192.4</ele>
        <time>2021-11-22T13:44:56Z</time>
      </trkpt>
      <trkpt lat="46.63308" lon="5.35663">
        <ele>191.2</ele>
        <time>2021-11-22T13:44:59Z</time>
      </trkpt>
      <trkpt lat="46.63294" lon="5.35688">
        <ele>190</ele>
        <time>2021-11-22T13:45:02Z</time>
      </trkpt>
      <trkpt lat="46.63264" lon="5.35754">
        <ele>189.2</ele>
        <time>2021-11-22T13:45:09Z</time>
      </trkpt>
      <trkpt lat="46.63261" lon="5.35763">
        <ele>189</ele>
        <time>2021-11-22T13:45:10Z</time>
      </trkpt>
      <trkpt lat="46.63244" lon="5.35817">
        <ele>189.6</ele>
        <time>2021-11-22T13:45:16Z</time>
      </trkpt>
      <trkpt lat="46.63229" lon="5.35875">
        <ele>189.8</ele>
        <time>2021-11-22T13:45:22Z</time>
      </trkpt>
      <trkpt lat="46.63228" lon="5.35886">
        <ele>189.8</ele>
        <time>2021-11-22T13:45:23Z</time>
      </trkpt>
      <trkpt lat="46.63227" lon="5.35896">
        <ele>189.8</ele>
        <time>2021-11-22T13:45:24Z</time>
      </trkpt>
      <trkpt lat="46.6323" lon="5.35917">
        <ele>189.6</ele>
        <time>2021-11-22T13:45:26Z</time>
      </trkpt>
      <trkpt lat="46.63232" lon="5.35927">
        <ele>189.4</ele>
        <time>2021-11-22T13:45:27Z</time>
      </trkpt>
      <trkpt lat="46.63241" lon="5.35953">
        <ele>189</ele>
        <time>2021-11-22T13:45:30Z</time>
      </trkpt>
      <trkpt lat="46.63243" lon="5.35961">
        <ele>188.4</ele>
        <time>2021-11-22T13:45:31Z</time>
      </trkpt>
      <trkpt lat="46.63245" lon="5.35969">
        <ele>188.2</ele>
        <time>2021-11-22T13:45:32Z</time>
      </trkpt>
      <trkpt lat="46.63248" lon="5.36003">
        <ele>188.2</ele>
        <time>2021-11-22T13:45:36Z</time>
      </trkpt>
      <trkpt lat="46.63248" lon="5.36011">
        <ele>188.4</ele>
        <time>2021-11-22T13:45:37Z</time>
      </trkpt>
      <trkpt lat="46.63245" lon="5.36066">
        <ele>189.2</ele>
        <time>2021-11-22T13:45:44Z</time>
      </trkpt>
      <trkpt lat="46.63244" lon="5.36081">
        <ele>190</ele>
        <time>2021-11-22T13:45:46Z</time>
      </trkpt>
      <trkpt lat="46.63241" lon="5.3611">
        <ele>191.2</ele>
        <time>2021-11-22T13:45:50Z</time>
      </trkpt>
      <trkpt lat="46.63238" lon="5.36132">
        <ele>192.4</ele>
        <time>2021-11-22T13:45:53Z</time>
      </trkpt>
      <trkpt lat="46.63237" lon="5.36139">
        <ele>193</ele>
        <time>2021-11-22T13:45:54Z</time>
      </trkpt>
      <trkpt lat="46.63235" lon="5.36152">
        <ele>193.8</ele>
        <time>2021-11-22T13:45:56Z</time>
      </trkpt>
      <trkpt lat="46.63229" lon="5.36187">
        <ele>194.8</ele>
        <time>2021-11-22T13:46:01Z</time>
      </trkpt>
      <trkpt lat="46.63224" lon="5.36211">
        <ele>195</ele>
        <time>2021-11-22T13:46:04Z</time>
      </trkpt>
      <trkpt lat="46.63211" lon="5.36269">
        <ele>195</ele>
        <time>2021-11-22T13:46:10Z</time>
      </trkpt>
      <trkpt lat="46.63202" lon="5.36313">
        <ele>193.6</ele>
        <time>2021-11-22T13:46:14Z</time>
      </trkpt>
      <trkpt lat="46.63194" lon="5.36348">
        <ele>192.8</ele>
        <time>2021-11-22T13:46:17Z</time>
      </trkpt>
      <trkpt lat="46.63191" lon="5.3636">
        <ele>192.4</ele>
        <time>2021-11-22T13:46:18Z</time>
      </trkpt>
      <trkpt lat="46.63184" lon="5.36394">
        <ele>191.2</ele>
        <time>2021-11-22T13:46:21Z</time>
      </trkpt>
      <trkpt lat="46.63184" lon="5.36416">
        <ele>191</ele>
        <time>2021-11-22T13:46:23Z</time>
      </trkpt>
      <trkpt lat="46.63193" lon="5.36434">
        <ele>190.8</ele>
        <time>2021-11-22T13:46:25Z</time>
      </trkpt>
      <trkpt lat="46.63221" lon="5.36463">
        <ele>190.4</ele>
        <time>2021-11-22T13:46:30Z</time>
      </trkpt>
      <trkpt lat="46.63228" lon="5.36479">
        <ele>190.4</ele>
        <time>2021-11-22T13:46:32Z</time>
      </trkpt>
      <trkpt lat="46.6323" lon="5.36488">
        <ele>190.4</ele>
        <time>2021-11-22T13:46:33Z</time>
      </trkpt>
      <trkpt lat="46.63231" lon="5.36497">
        <ele>190.4</ele>
        <time>2021-11-22T13:46:34Z</time>
      </trkpt>
      <trkpt lat="46.6323" lon="5.36524">
        <ele>190.8</ele>
        <time>2021-11-22T13:46:37Z</time>
      </trkpt>
      <trkpt lat="46.63228" lon="5.36532">
        <ele>190.8</ele>
        <time>2021-11-22T13:46:38Z</time>
      </trkpt>
      <trkpt lat="46.63222" lon="5.36565">
        <ele>191.6</ele>
        <time>2021-11-22T13:46:42Z</time>
      </trkpt>
      <trkpt lat="46.63217" lon="5.36588">
        <ele>192.4</ele>
        <time>2021-11-22T13:46:45Z</time>
      </trkpt>
      <trkpt lat="46.63211" lon="5.36617">
        <ele>193.4</ele>
        <time>2021-11-22T13:46:49Z</time>
      </trkpt>
      <trkpt lat="46.63209" lon="5.36625">
        <ele>193.4</ele>
        <time>2021-11-22T13:46:50Z</time>
      </trkpt>
      <trkpt lat="46.63204" lon="5.36653">
        <ele>194.6</ele>
        <time>2021-11-22T13:46:54Z</time>
      </trkpt>
      <trkpt lat="46.632" lon="5.3668">
        <ele>196.2</ele>
        <time>2021-11-22T13:46:58Z</time>
      </trkpt>
      <trkpt lat="46.63198" lon="5.36694">
        <ele>196.6</ele>
        <time>2021-11-22T13:47:00Z</time>
      </trkpt>
      <trkpt lat="46.63196" lon="5.36721">
        <ele>197.2</ele>
        <time>2021-11-22T13:47:04Z</time>
      </trkpt>
      <trkpt lat="46.63194" lon="5.36752">
        <ele>198</ele>
        <time>2021-11-22T13:47:08Z</time>
      </trkpt>
      <trkpt lat="46.63194" lon="5.3676">
        <ele>198.4</ele>
        <time>2021-11-22T13:47:09Z</time>
      </trkpt>
      <trkpt lat="46.63194" lon="5.36775">
        <ele>198.8</ele>
        <time>2021-11-22T13:47:11Z</time>
      </trkpt>
      <trkpt lat="46.63192" lon="5.36799">
        <ele>199</ele>
        <time>2021-11-22T13:47:14Z</time>
      </trkpt>
      <trkpt lat="46.63181" lon="5.36862">
        <ele>199.2</ele>
        <time>2021-11-22T13:47:22Z</time>
      </trkpt>
      <trkpt lat="46.63177" lon="5.36884">
        <ele>199.6</ele>
        <time>2021-11-22T13:47:25Z</time>
      </trkpt>
      <trkpt lat="46.63168" lon="5.36927">
        <ele>200</ele>
        <time>2021-11-22T13:47:31Z</time>
      </trkpt>
      <trkpt lat="46.63161" lon="5.36948">
        <ele>200.6</ele>
        <time>2021-11-22T13:47:34Z</time>
      </trkpt>
      <trkpt lat="46.6315" lon="5.36978">
        <ele>200.8</ele>
        <time>2021-11-22T13:47:39Z</time>
      </trkpt>
      <trkpt lat="46.63144" lon="5.36983">
        <ele>200.6</ele>
        <time>2021-11-22T13:47:42Z</time>
      </trkpt>
      <trkpt lat="46.63129" lon="5.36979">
        <ele>200</ele>
        <time>2021-11-22T13:47:46Z</time>
      </trkpt>
      <trkpt lat="46.63106" lon="5.36968">
        <ele>199.4</ele>
        <time>2021-11-22T13:47:50Z</time>
      </trkpt>
      <trkpt lat="46.63099" lon="5.36964">
        <ele>199.2</ele>
        <time>2021-11-22T13:47:51Z</time>
      </trkpt>
      <trkpt lat="46.63078" lon="5.36953">
        <ele>198.2</ele>
        <time>2021-11-22T13:47:54Z</time>
      </trkpt>
      <trkpt lat="46.63063" lon="5.36945">
        <ele>197</ele>
        <time>2021-11-22T13:47:56Z</time>
      </trkpt>
      <trkpt lat="46.63056" lon="5.3694">
        <ele>196.8</ele>
        <time>2021-11-22T13:47:57Z</time>
      </trkpt>
      <trkpt lat="46.63042" lon="5.36926">
        <ele>196.6</ele>
        <time>2021-11-22T13:47:59Z</time>
      </trkpt>
      <trkpt lat="46.63029" lon="5.36909">
        <ele>196.2</ele>
        <time>2021-11-22T13:48:01Z</time>
      </trkpt>
      <trkpt lat="46.63023" lon="5.369">
        <ele>196</ele>
        <time>2021-11-22T13:48:02Z</time>
      </trkpt>
      <trkpt lat="46.62996" lon="5.3687">
        <ele>194.8</ele>
        <time>2021-11-22T13:48:06Z</time>
      </trkpt>
      <trkpt lat="46.62989" lon="5.36863">
        <ele>194.6</ele>
        <time>2021-11-22T13:48:07Z</time>
      </trkpt>
      <trkpt lat="46.62952" lon="5.36829">
        <ele>193.8</ele>
        <time>2021-11-22T13:48:12Z</time>
      </trkpt>
      <trkpt lat="46.62928" lon="5.36812">
        <ele>193.2</ele>
        <time>2021-11-22T13:48:15Z</time>
      </trkpt>
      <trkpt lat="46.62884" lon="5.36796">
        <ele>192.4</ele>
        <time>2021-11-22T13:48:20Z</time>
      </trkpt>
      <trkpt lat="46.6283" lon="5.36775">
        <ele>191</ele>
        <time>2021-11-22T13:48:26Z</time>
      </trkpt>
      <trkpt lat="46.628" lon="5.36766">
        <ele>189.6</ele>
        <time>2021-11-22T13:48:29Z</time>
      </trkpt>
      <trkpt lat="46.6279" lon="5.36764">
        <ele>189.4</ele>
        <time>2021-11-22T13:48:30Z</time>
      </trkpt>
      <trkpt lat="46.62769" lon="5.36761">
        <ele>188.6</ele>
        <time>2021-11-22T13:48:32Z</time>
      </trkpt>
      <trkpt lat="46.62748" lon="5.36758">
        <ele>187.8</ele>
        <time>2021-11-22T13:48:34Z</time>
      </trkpt>
      <trkpt lat="46.62738" lon="5.36756">
        <ele>187.6</ele>
        <time>2021-11-22T13:48:35Z</time>
      </trkpt>
      <trkpt lat="46.62727" lon="5.36754">
        <ele>187.2</ele>
        <time>2021-11-22T13:48:36Z</time>
      </trkpt>
      <trkpt lat="46.62697" lon="5.36749">
        <ele>186.4</ele>
        <time>2021-11-22T13:48:39Z</time>
      </trkpt>
      <trkpt lat="46.62659" lon="5.36744">
        <ele>185.8</ele>
        <time>2021-11-22T13:48:43Z</time>
      </trkpt>
      <trkpt lat="46.62604" lon="5.36735">
        <ele>185.8</ele>
        <time>2021-11-22T13:48:49Z</time>
      </trkpt>
      <trkpt lat="46.62595" lon="5.36734">
        <ele>185.8</ele>
        <time>2021-11-22T13:48:50Z</time>
      </trkpt>
      <trkpt lat="46.62534" lon="5.36724">
        <ele>186.6</ele>
        <time>2021-11-22T13:48:57Z</time>
      </trkpt>
      <trkpt lat="46.62526" lon="5.36723">
        <ele>186.8</ele>
        <time>2021-11-22T13:48:58Z</time>
      </trkpt>
      <trkpt lat="46.62501" lon="5.36718">
        <ele>187.6</ele>
        <time>2021-11-22T13:49:01Z</time>
      </trkpt>
      <trkpt lat="46.62458" lon="5.36712">
        <ele>188.6</ele>
        <time>2021-11-22T13:49:06Z</time>
      </trkpt>
      <trkpt lat="46.624" lon="5.36703">
        <ele>189.4</ele>
        <time>2021-11-22T13:49:13Z</time>
      </trkpt>
      <trkpt lat="46.62384" lon="5.367">
        <ele>189.6</ele>
        <time>2021-11-22T13:49:15Z</time>
      </trkpt>
      <trkpt lat="46.62375" lon="5.36699">
        <ele>189.8</ele>
        <time>2021-11-22T13:49:16Z</time>
      </trkpt>
      <trkpt lat="46.62319" lon="5.36689">
        <ele>190.2</ele>
        <time>2021-11-22T13:49:23Z</time>
      </trkpt>
      <trkpt lat="46.62287" lon="5.36684">
        <ele>190.8</ele>
        <time>2021-11-22T13:49:27Z</time>
      </trkpt>
      <trkpt lat="46.62279" lon="5.36683">
        <ele>191</ele>
        <time>2021-11-22T13:49:28Z</time>
      </trkpt>
      <trkpt lat="46.62241" lon="5.36677">
        <ele>192</ele>
        <time>2021-11-22T13:49:33Z</time>
      </trkpt>
      <trkpt lat="46.62218" lon="5.36672">
        <ele>192.8</ele>
        <time>2021-11-22T13:49:36Z</time>
      </trkpt>
      <trkpt lat="46.6221" lon="5.3667">
        <ele>193</ele>
        <time>2021-11-22T13:49:37Z</time>
      </trkpt>
      <trkpt lat="46.62164" lon="5.3666">
        <ele>194</ele>
        <time>2021-11-22T13:49:43Z</time>
      </trkpt>
      <trkpt lat="46.62156" lon="5.36657">
        <ele>194.2</ele>
        <time>2021-11-22T13:49:44Z</time>
      </trkpt>
      <trkpt lat="46.62099" lon="5.36639">
        <ele>194.6</ele>
        <time>2021-11-22T13:49:52Z</time>
      </trkpt>
      <trkpt lat="46.62046" lon="5.36624">
        <ele>194.4</ele>
        <time>2021-11-22T13:49:59Z</time>
      </trkpt>
      <trkpt lat="46.6203" lon="5.3662">
        <ele>194.4</ele>
        <time>2021-11-22T13:50:01Z</time>
      </trkpt>
      <trkpt lat="46.61975" lon="5.36604">
        <ele>193.6</ele>
        <time>2021-11-22T13:50:08Z</time>
      </trkpt>
      <trkpt lat="46.61968" lon="5.366">
        <ele>193.4</ele>
        <time>2021-11-22T13:50:09Z</time>
      </trkpt>
      <trkpt lat="46.61954" lon="5.36592">
        <ele>192.8</ele>
        <time>2021-11-22T13:50:11Z</time>
      </trkpt>
      <trkpt lat="46.61941" lon="5.3658">
        <ele>192.4</ele>
        <time>2021-11-22T13:50:13Z</time>
      </trkpt>
      <trkpt lat="46.61901" lon="5.36538">
        <ele>192.2</ele>
        <time>2021-11-22T13:50:20Z</time>
      </trkpt>
      <trkpt lat="46.6187" lon="5.36512">
        <ele>194</ele>
        <time>2021-11-22T13:50:25Z</time>
      </trkpt>
      <trkpt lat="46.61857" lon="5.36501">
        <ele>194.4</ele>
        <time>2021-11-22T13:50:27Z</time>
      </trkpt>
      <trkpt lat="46.6183" lon="5.36482">
        <ele>195.2</ele>
        <time>2021-11-22T13:50:31Z</time>
      </trkpt>
      <trkpt lat="46.6181" lon="5.36467">
        <ele>195.6</ele>
        <time>2021-11-22T13:50:34Z</time>
      </trkpt>
      <trkpt lat="46.61772" lon="5.36432">
        <ele>196</ele>
        <time>2021-11-22T13:50:40Z</time>
      </trkpt>
      <trkpt lat="46.61751" lon="5.36402">
        <ele>196.2</ele>
        <time>2021-11-22T13:50:44Z</time>
      </trkpt>
      <trkpt lat="46.61745" lon="5.36396">
        <ele>196.2</ele>
        <time>2021-11-22T13:50:45Z</time>
      </trkpt>
      <trkpt lat="46.61739" lon="5.36391">
        <ele>196.4</ele>
        <time>2021-11-22T13:50:46Z</time>
      </trkpt>
      <trkpt lat="46.61725" lon="5.36385">
        <ele>196.6</ele>
        <time>2021-11-22T13:50:48Z</time>
      </trkpt>
      <trkpt lat="46.61719" lon="5.36383">
        <ele>196.6</ele>
        <time>2021-11-22T13:50:49Z</time>
      </trkpt>
      <trkpt lat="46.61712" lon="5.36382">
        <ele>196.8</ele>
        <time>2021-11-22T13:50:50Z</time>
      </trkpt>
      <trkpt lat="46.61697" lon="5.36384">
        <ele>197.2</ele>
        <time>2021-11-22T13:50:52Z</time>
      </trkpt>
      <trkpt lat="46.6169" lon="5.36386">
        <ele>197.2</ele>
        <time>2021-11-22T13:50:53Z</time>
      </trkpt>
      <trkpt lat="46.61667" lon="5.36394">
        <ele>197.2</ele>
        <time>2021-11-22T13:50:56Z</time>
      </trkpt>
      <trkpt lat="46.61651" lon="5.36393">
        <ele>197.2</ele>
        <time>2021-11-22T13:50:58Z</time>
      </trkpt>
      <trkpt lat="46.61638" lon="5.36383">
        <ele>197</ele>
        <time>2021-11-22T13:51:00Z</time>
      </trkpt>
      <trkpt lat="46.61633" lon="5.36375">
        <ele>197</ele>
        <time>2021-11-22T13:51:01Z</time>
      </trkpt>
      <trkpt lat="46.6163" lon="5.36367">
        <ele>197</ele>
        <time>2021-11-22T13:51:02Z</time>
      </trkpt>
      <trkpt lat="46.61624" lon="5.36339">
        <ele>197</ele>
        <time>2021-11-22T13:51:05Z</time>
      </trkpt>
      <trkpt lat="46.61621" lon="5.36329">
        <ele>197.2</ele>
        <time>2021-11-22T13:51:06Z</time>
      </trkpt>
      <trkpt lat="46.61617" lon="5.36321">
        <ele>197.6</ele>
        <time>2021-11-22T13:51:07Z</time>
      </trkpt>
      <trkpt lat="46.61607" lon="5.36309">
        <ele>198.4</ele>
        <time>2021-11-22T13:51:09Z</time>
      </trkpt>
      <trkpt lat="46.61575" lon="5.36288">
        <ele>199.4</ele>
        <time>2021-11-22T13:51:14Z</time>
      </trkpt>
      <trkpt lat="46.61568" lon="5.36284">
        <ele>199.6</ele>
        <time>2021-11-22T13:51:15Z</time>
      </trkpt>
      <trkpt lat="46.61519" lon="5.36255">
        <ele>199.8</ele>
        <time>2021-11-22T13:51:22Z</time>
      </trkpt>
      <trkpt lat="46.61512" lon="5.36251">
        <ele>199.8</ele>
        <time>2021-11-22T13:51:23Z</time>
      </trkpt>
      <trkpt lat="46.61497" lon="5.36248">
        <ele>199.6</ele>
        <time>2021-11-22T13:51:25Z</time>
      </trkpt>
      <trkpt lat="46.61489" lon="5.36248">
        <ele>199.4</ele>
        <time>2021-11-22T13:51:26Z</time>
      </trkpt>
      <trkpt lat="46.61482" lon="5.36249">
        <ele>199.4</ele>
        <time>2021-11-22T13:51:27Z</time>
      </trkpt>
      <trkpt lat="46.61452" lon="5.36255">
        <ele>199.2</ele>
        <time>2021-11-22T13:51:31Z</time>
      </trkpt>
      <trkpt lat="46.61436" lon="5.36256">
        <ele>199.2</ele>
        <time>2021-11-22T13:51:33Z</time>
      </trkpt>
      <trkpt lat="46.61421" lon="5.36253">
        <ele>199.2</ele>
        <time>2021-11-22T13:51:35Z</time>
      </trkpt>
      <trkpt lat="46.61413" lon="5.3625">
        <ele>199.2</ele>
        <time>2021-11-22T13:51:36Z</time>
      </trkpt>
      <trkpt lat="46.61363" lon="5.36219">
        <ele>199.2</ele>
        <time>2021-11-22T13:51:43Z</time>
      </trkpt>
      <trkpt lat="46.6134" lon="5.36207">
        <ele>199.2</ele>
        <time>2021-11-22T13:51:46Z</time>
      </trkpt>
      <trkpt lat="46.61323" lon="5.36201">
        <ele>199</ele>
        <time>2021-11-22T13:51:48Z</time>
      </trkpt>
      <trkpt lat="46.61298" lon="5.36194">
        <ele>198.6</ele>
        <time>2021-11-22T13:51:51Z</time>
      </trkpt>
      <trkpt lat="46.61273" lon="5.36185">
        <ele>198.2</ele>
        <time>2021-11-22T13:51:54Z</time>
      </trkpt>
      <trkpt lat="46.61266" lon="5.3618">
        <ele>198.2</ele>
        <time>2021-11-22T13:51:55Z</time>
      </trkpt>
      <trkpt lat="46.61235" lon="5.36145">
        <ele>197.6</ele>
        <time>2021-11-22T13:52:00Z</time>
      </trkpt>
      <trkpt lat="46.61216" lon="5.3611">
        <ele>198.2</ele>
        <time>2021-11-22T13:52:04Z</time>
      </trkpt>
      <trkpt lat="46.61212" lon="5.361">
        <ele>198.4</ele>
        <time>2021-11-22T13:52:05Z</time>
      </trkpt>
      <trkpt lat="46.61179" lon="5.36039">
        <ele>198.8</ele>
        <time>2021-11-22T13:52:12Z</time>
      </trkpt>
      <trkpt lat="46.61173" lon="5.36032">
        <ele>198.8</ele>
        <time>2021-11-22T13:52:13Z</time>
      </trkpt>
      <trkpt lat="46.61153" lon="5.36017">
        <ele>198.2</ele>
        <time>2021-11-22T13:52:16Z</time>
      </trkpt>
      <trkpt lat="46.61104" lon="5.35979">
        <ele>197.4</ele>
        <time>2021-11-22T13:52:23Z</time>
      </trkpt>
      <trkpt lat="46.61097" lon="5.35972">
        <ele>197.4</ele>
        <time>2021-11-22T13:52:24Z</time>
      </trkpt>
      <trkpt lat="46.61085" lon="5.35956">
        <ele>197.4</ele>
        <time>2021-11-22T13:52:26Z</time>
      </trkpt>
      <trkpt lat="46.61075" lon="5.35937">
        <ele>197.6</ele>
        <time>2021-11-22T13:52:28Z</time>
      </trkpt>
      <trkpt lat="46.61044" lon="5.35873">
        <ele>198</ele>
        <time>2021-11-22T13:52:35Z</time>
      </trkpt>
      <trkpt lat="46.61025" lon="5.35836">
        <ele>197.8</ele>
        <time>2021-11-22T13:52:39Z</time>
      </trkpt>
      <trkpt lat="46.61007" lon="5.35801">
        <ele>197.8</ele>
        <time>2021-11-22T13:52:43Z</time>
      </trkpt>
      <trkpt lat="46.60999" lon="5.35783">
        <ele>197.6</ele>
        <time>2021-11-22T13:52:45Z</time>
      </trkpt>
      <trkpt lat="46.6097" lon="5.35721">
        <ele>198.2</ele>
        <time>2021-11-22T13:52:52Z</time>
      </trkpt>
      <trkpt lat="46.60945" lon="5.35655">
        <ele>198</ele>
        <time>2021-11-22T13:52:59Z</time>
      </trkpt>
      <trkpt lat="46.60942" lon="5.35645">
        <ele>198.2</ele>
        <time>2021-11-22T13:53:00Z</time>
      </trkpt>
      <trkpt lat="46.6094" lon="5.35625">
        <ele>198.4</ele>
        <time>2021-11-22T13:53:02Z</time>
      </trkpt>
      <trkpt lat="46.60946" lon="5.35586">
        <ele>198.6</ele>
        <time>2021-11-22T13:53:06Z</time>
      </trkpt>
      <trkpt lat="46.60951" lon="5.35567">
        <ele>198.8</ele>
        <time>2021-11-22T13:53:08Z</time>
      </trkpt>
      <trkpt lat="46.60952" lon="5.35557">
        <ele>199</ele>
        <time>2021-11-22T13:53:09Z</time>
      </trkpt>
      <trkpt lat="46.60954" lon="5.35537">
        <ele>199</ele>
        <time>2021-11-22T13:53:11Z</time>
      </trkpt>
      <trkpt lat="46.60952" lon="5.35476">
        <ele>199.4</ele>
        <time>2021-11-22T13:53:17Z</time>
      </trkpt>
      <trkpt lat="46.6095" lon="5.35466">
        <ele>199.6</ele>
        <time>2021-11-22T13:53:18Z</time>
      </trkpt>
      <trkpt lat="46.60948" lon="5.35457">
        <ele>199.8</ele>
        <time>2021-11-22T13:53:19Z</time>
      </trkpt>
      <trkpt lat="46.60941" lon="5.35439">
        <ele>199.8</ele>
        <time>2021-11-22T13:53:21Z</time>
      </trkpt>
      <trkpt lat="46.60932" lon="5.35425">
        <ele>200</ele>
        <time>2021-11-22T13:53:23Z</time>
      </trkpt>
      <trkpt lat="46.60919" lon="5.35416">
        <ele>200</ele>
        <time>2021-11-22T13:53:25Z</time>
      </trkpt>
      <trkpt lat="46.60872" lon="5.35393">
        <ele>200.4</ele>
        <time>2021-11-22T13:53:32Z</time>
      </trkpt>
      <trkpt lat="46.60857" lon="5.35396">
        <ele>200.4</ele>
        <time>2021-11-22T13:53:34Z</time>
      </trkpt>
      <trkpt lat="46.6085" lon="5.35399">
        <ele>200.4</ele>
        <time>2021-11-22T13:53:35Z</time>
      </trkpt>
      <trkpt lat="46.60824" lon="5.3542">
        <ele>199.8</ele>
        <time>2021-11-22T13:53:39Z</time>
      </trkpt>
      <trkpt lat="46.60808" lon="5.35427">
        <ele>199.4</ele>
        <time>2021-11-22T13:53:41Z</time>
      </trkpt>
      <trkpt lat="46.60792" lon="5.35428">
        <ele>199.2</ele>
        <time>2021-11-22T13:53:43Z</time>
      </trkpt>
      <trkpt lat="46.60784" lon="5.35425">
        <ele>199</ele>
        <time>2021-11-22T13:53:44Z</time>
      </trkpt>
      <trkpt lat="46.60767" lon="5.35418">
        <ele>198.6</ele>
        <time>2021-11-22T13:53:46Z</time>
      </trkpt>
      <trkpt lat="46.60752" lon="5.35408">
        <ele>198.2</ele>
        <time>2021-11-22T13:53:48Z</time>
      </trkpt>
      <trkpt lat="46.60737" lon="5.35395">
        <ele>197.4</ele>
        <time>2021-11-22T13:53:50Z</time>
      </trkpt>
      <trkpt lat="46.60723" lon="5.35379">
        <ele>196.8</ele>
        <time>2021-11-22T13:53:52Z</time>
      </trkpt>
      <trkpt lat="46.60711" lon="5.35359">
        <ele>196.2</ele>
        <time>2021-11-22T13:53:54Z</time>
      </trkpt>
      <trkpt lat="46.60691" lon="5.3533">
        <ele>195.4</ele>
        <time>2021-11-22T13:53:57Z</time>
      </trkpt>
      <trkpt lat="46.60684" lon="5.35321">
        <ele>195.2</ele>
        <time>2021-11-22T13:53:58Z</time>
      </trkpt>
      <trkpt lat="46.60661" lon="5.353">
        <ele>194</ele>
        <time>2021-11-22T13:54:01Z</time>
      </trkpt>
      <trkpt lat="46.60626" lon="5.35278">
        <ele>192.4</ele>
        <time>2021-11-22T13:54:05Z</time>
      </trkpt>
      <trkpt lat="46.60618" lon="5.35271">
        <ele>191.8</ele>
        <time>2021-11-22T13:54:06Z</time>
      </trkpt>
      <trkpt lat="46.60602" lon="5.35255">
        <ele>191</ele>
        <time>2021-11-22T13:54:08Z</time>
      </trkpt>
      <trkpt lat="46.60588" lon="5.35237">
        <ele>190.2</ele>
        <time>2021-11-22T13:54:10Z</time>
      </trkpt>
      <trkpt lat="46.60582" lon="5.35226">
        <ele>190</ele>
        <time>2021-11-22T13:54:11Z</time>
      </trkpt>
      <trkpt lat="46.60564" lon="5.35199">
        <ele>188.8</ele>
        <time>2021-11-22T13:54:14Z</time>
      </trkpt>
      <trkpt lat="46.60556" lon="5.35184">
        <ele>188.4</ele>
        <time>2021-11-22T13:54:16Z</time>
      </trkpt>
      <trkpt lat="46.60555" lon="5.35166">
        <ele>188.2</ele>
        <time>2021-11-22T13:54:18Z</time>
      </trkpt>
      <trkpt lat="46.60558" lon="5.35147">
        <ele>188</ele>
        <time>2021-11-22T13:54:20Z</time>
      </trkpt>
      <trkpt lat="46.6056" lon="5.35118">
        <ele>188.2</ele>
        <time>2021-11-22T13:54:23Z</time>
      </trkpt>
      <trkpt lat="46.60559" lon="5.35063">
        <ele>188.4</ele>
        <time>2021-11-22T13:54:28Z</time>
      </trkpt>
      <trkpt lat="46.60557" lon="5.35002">
        <ele>187.6</ele>
        <time>2021-11-22T13:54:33Z</time>
      </trkpt>
      <trkpt lat="46.60555" lon="5.34976">
        <ele>187</ele>
        <time>2021-11-22T13:54:35Z</time>
      </trkpt>
      <trkpt lat="46.60554" lon="5.34963">
        <ele>186.6</ele>
        <time>2021-11-22T13:54:36Z</time>
      </trkpt>
      <trkpt lat="46.60552" lon="5.34923">
        <ele>185.2</ele>
        <time>2021-11-22T13:54:39Z</time>
      </trkpt>
      <trkpt lat="46.60551" lon="5.34897">
        <ele>184.2</ele>
        <time>2021-11-22T13:54:41Z</time>
      </trkpt>
      <trkpt lat="46.6055" lon="5.34884">
        <ele>183.6</ele>
        <time>2021-11-22T13:54:42Z</time>
      </trkpt>
      <trkpt lat="46.60549" lon="5.34848">
        <ele>183</ele>
        <time>2021-11-22T13:54:45Z</time>
      </trkpt>
      <trkpt lat="46.60548" lon="5.34826">
        <ele>183</ele>
        <time>2021-11-22T13:54:47Z</time>
      </trkpt>
      <trkpt lat="46.60545" lon="5.34764">
        <ele>184.2</ele>
        <time>2021-11-22T13:54:53Z</time>
      </trkpt>
      <trkpt lat="46.60545" lon="5.34756">
        <ele>184.4</ele>
        <time>2021-11-22T13:54:54Z</time>
      </trkpt>
      <trkpt lat="46.60543" lon="5.34728">
        <ele>185.2</ele>
        <time>2021-11-22T13:54:57Z</time>
      </trkpt>
      <trkpt lat="46.60541" lon="5.34692">
        <ele>185.8</ele>
        <time>2021-11-22T13:55:01Z</time>
      </trkpt>
      <trkpt lat="46.6054" lon="5.34667">
        <ele>186.4</ele>
        <time>2021-11-22T13:55:04Z</time>
      </trkpt>
      <trkpt lat="46.60539" lon="5.34642">
        <ele>187.4</ele>
        <time>2021-11-22T13:55:07Z</time>
      </trkpt>
      <trkpt lat="46.60538" lon="5.34625">
        <ele>187.8</ele>
        <time>2021-11-22T13:55:09Z</time>
      </trkpt>
      <trkpt lat="46.60535" lon="5.34557">
        <ele>188</ele>
        <time>2021-11-22T13:55:16Z</time>
      </trkpt>
      <trkpt lat="46.60531" lon="5.34475">
        <ele>187.8</ele>
        <time>2021-11-22T13:55:24Z</time>
      </trkpt>
      <trkpt lat="46.60528" lon="5.34404">
        <ele>188.6</ele>
        <time>2021-11-22T13:55:32Z</time>
      </trkpt>
      <trkpt lat="46.60526" lon="5.34372">
        <ele>189.8</ele>
        <time>2021-11-22T13:55:36Z</time>
      </trkpt>
      <trkpt lat="46.60525" lon="5.34342">
        <ele>190.8</ele>
        <time>2021-11-22T13:55:40Z</time>
      </trkpt>
      <trkpt lat="46.60525" lon="5.34336">
        <ele>191.2</ele>
        <time>2021-11-22T13:55:41Z</time>
      </trkpt>
      <trkpt lat="46.60524" lon="5.34308">
        <ele>192.2</ele>
        <time>2021-11-22T13:55:45Z</time>
      </trkpt>
      <trkpt lat="46.60524" lon="5.34288">
        <ele>193.2</ele>
        <time>2021-11-22T13:55:48Z</time>
      </trkpt>
      <trkpt lat="46.60522" lon="5.34253">
        <ele>194.4</ele>
        <time>2021-11-22T13:55:53Z</time>
      </trkpt>
      <trkpt lat="46.60521" lon="5.34234">
        <ele>195.2</ele>
        <time>2021-11-22T13:55:56Z</time>
      </trkpt>
      <trkpt lat="46.60521" lon="5.34226">
        <ele>195.6</ele>
        <time>2021-11-22T13:55:57Z</time>
      </trkpt>
      <trkpt lat="46.60519" lon="5.34207">
        <ele>196.2</ele>
        <time>2021-11-22T13:56:00Z</time>
      </trkpt>
      <trkpt lat="46.60519" lon="5.342">
        <ele>196.6</ele>
        <time>2021-11-22T13:56:01Z</time>
      </trkpt>
      <trkpt lat="46.60514" lon="5.3418">
        <ele>197.8</ele>
        <time>2021-11-22T13:56:04Z</time>
      </trkpt>
      <trkpt lat="46.60512" lon="5.34174">
        <ele>198</ele>
        <time>2021-11-22T13:56:05Z</time>
      </trkpt>
      <trkpt lat="46.60497" lon="5.34144">
        <ele>199.2</ele>
        <time>2021-11-22T13:56:10Z</time>
      </trkpt>
      <trkpt lat="46.6047" lon="5.34101">
        <ele>200.2</ele>
        <time>2021-11-22T13:56:17Z</time>
      </trkpt>
      <trkpt lat="46.60466" lon="5.34094">
        <ele>200.2</ele>
        <time>2021-11-22T13:56:18Z</time>
      </trkpt>
      <trkpt lat="46.60449" lon="5.3406">
        <ele>200.4</ele>
        <time>2021-11-22T13:56:23Z</time>
      </trkpt>
      <trkpt lat="46.60444" lon="5.34043">
        <ele>200.6</ele>
        <time>2021-11-22T13:56:25Z</time>
      </trkpt>
      <trkpt lat="46.60432" lon="5.33976">
        <ele>200.6</ele>
        <time>2021-11-22T13:56:32Z</time>
      </trkpt>
      <trkpt lat="46.60422" lon="5.33891">
        <ele>200.6</ele>
        <time>2021-11-22T13:56:40Z</time>
      </trkpt>
      <trkpt lat="46.60424" lon="5.33827">
        <ele>200.2</ele>
        <time>2021-11-22T13:56:46Z</time>
      </trkpt>
      <trkpt lat="46.60431" lon="5.33744">
        <ele>199.8</ele>
        <time>2021-11-22T13:56:54Z</time>
      </trkpt>
      <trkpt lat="46.60432" lon="5.33734">
        <ele>199.8</ele>
        <time>2021-11-22T13:56:55Z</time>
      </trkpt>
      <trkpt lat="46.6044" lon="5.33654">
        <ele>199.8</ele>
        <time>2021-11-22T13:57:03Z</time>
      </trkpt>
      <trkpt lat="46.60443" lon="5.33634">
        <ele>199.8</ele>
        <time>2021-11-22T13:57:05Z</time>
      </trkpt>
      <trkpt lat="46.60457" lon="5.33558">
        <ele>200.2</ele>
        <time>2021-11-22T13:57:13Z</time>
      </trkpt>
      <trkpt lat="46.60476" lon="5.33481">
        <ele>200.2</ele>
        <time>2021-11-22T13:57:21Z</time>
      </trkpt>
      <trkpt lat="46.60483" lon="5.33452">
        <ele>200.2</ele>
        <time>2021-11-22T13:57:24Z</time>
      </trkpt>
      <trkpt lat="46.605" lon="5.33379">
        <ele>199.8</ele>
        <time>2021-11-22T13:57:31Z</time>
      </trkpt>
      <trkpt lat="46.60515" lon="5.33324">
        <ele>199.2</ele>
        <time>2021-11-22T13:57:36Z</time>
      </trkpt>
      <trkpt lat="46.60518" lon="5.33312">
        <ele>198.8</ele>
        <time>2021-11-22T13:57:37Z</time>
      </trkpt>
      <trkpt lat="46.60528" lon="5.33265">
        <ele>198</ele>
        <time>2021-11-22T13:57:41Z</time>
      </trkpt>
      <trkpt lat="46.60531" lon="5.33254">
        <ele>197.8</ele>
        <time>2021-11-22T13:57:42Z</time>
      </trkpt>
      <trkpt lat="46.6055" lon="5.33173">
        <ele>197.6</ele>
        <time>2021-11-22T13:57:50Z</time>
      </trkpt>
      <trkpt lat="46.60556" lon="5.33118">
        <ele>198.6</ele>
        <time>2021-11-22T13:57:56Z</time>
      </trkpt>
      <trkpt lat="46.60557" lon="5.33087">
        <ele>198.8</ele>
        <time>2021-11-22T13:57:59Z</time>
      </trkpt>
      <trkpt lat="46.60557" lon="5.33053">
        <ele>198.4</ele>
        <time>2021-11-22T13:58:02Z</time>
      </trkpt>
      <trkpt lat="46.60556" lon="5.33018">
        <ele>197.6</ele>
        <time>2021-11-22T13:58:05Z</time>
      </trkpt>
      <trkpt lat="46.60556" lon="5.32994">
        <ele>196.4</ele>
        <time>2021-11-22T13:58:07Z</time>
      </trkpt>
      <trkpt lat="46.60556" lon="5.32956">
        <ele>195.8</ele>
        <time>2021-11-22T13:58:10Z</time>
      </trkpt>
      <trkpt lat="46.60556" lon="5.32944">
        <ele>195.4</ele>
        <time>2021-11-22T13:58:11Z</time>
      </trkpt>
      <trkpt lat="46.60557" lon="5.32857">
        <ele>194.4</ele>
        <time>2021-11-22T13:58:18Z</time>
      </trkpt>
      <trkpt lat="46.60556" lon="5.32845">
        <ele>194.4</ele>
        <time>2021-11-22T13:58:19Z</time>
      </trkpt>
      <trkpt lat="46.60557" lon="5.32792">
        <ele>194.8</ele>
        <time>2021-11-22T13:58:24Z</time>
      </trkpt>
      <trkpt lat="46.60557" lon="5.32736">
        <ele>195.4</ele>
        <time>2021-11-22T13:58:30Z</time>
      </trkpt>
      <trkpt lat="46.60557" lon="5.3271">
        <ele>196.6</ele>
        <time>2021-11-22T13:58:33Z</time>
      </trkpt>
      <trkpt lat="46.60556" lon="5.32658">
        <ele>197.4</ele>
        <time>2021-11-22T13:58:39Z</time>
      </trkpt>
      <trkpt lat="46.60555" lon="5.32601">
        <ele>198.4</ele>
        <time>2021-11-22T13:58:45Z</time>
      </trkpt>
      <trkpt lat="46.60552" lon="5.32583">
        <ele>198.8</ele>
        <time>2021-11-22T13:58:47Z</time>
      </trkpt>
      <trkpt lat="46.60531" lon="5.3251">
        <ele>198.8</ele>
        <time>2021-11-22T13:58:55Z</time>
      </trkpt>
      <trkpt lat="46.60508" lon="5.32438">
        <ele>198.8</ele>
        <time>2021-11-22T13:59:03Z</time>
      </trkpt>
      <trkpt lat="46.60499" lon="5.32411">
        <ele>199</ele>
        <time>2021-11-22T13:59:06Z</time>
      </trkpt>
      <trkpt lat="46.60473" lon="5.32333">
        <ele>199.4</ele>
        <time>2021-11-22T13:59:15Z</time>
      </trkpt>
      <trkpt lat="46.6047" lon="5.32324">
        <ele>199.4</ele>
        <time>2021-11-22T13:59:16Z</time>
      </trkpt>
      <trkpt lat="46.60468" lon="5.32315">
        <ele>199.6</ele>
        <time>2021-11-22T13:59:17Z</time>
      </trkpt>
      <trkpt lat="46.60441" lon="5.32254">
        <ele>199.4</ele>
        <time>2021-11-22T13:59:24Z</time>
      </trkpt>
      <trkpt lat="46.60408" lon="5.32185">
        <ele>198.6</ele>
        <time>2021-11-22T13:59:32Z</time>
      </trkpt>
      <trkpt lat="46.60399" lon="5.32167">
        <ele>198.6</ele>
        <time>2021-11-22T13:59:34Z</time>
      </trkpt>
      <trkpt lat="46.60395" lon="5.32159">
        <ele>198.4</ele>
        <time>2021-11-22T13:59:35Z</time>
      </trkpt>
      <trkpt lat="46.6036" lon="5.32089">
        <ele>198</ele>
        <time>2021-11-22T13:59:43Z</time>
      </trkpt>
      <trkpt lat="46.60328" lon="5.32025">
        <ele>198.2</ele>
        <time>2021-11-22T13:59:51Z</time>
      </trkpt>
      <trkpt lat="46.60295" lon="5.31961">
        <ele>198.4</ele>
        <time>2021-11-22T13:59:59Z</time>
      </trkpt>
      <trkpt lat="46.60277" lon="5.31926">
        <ele>198.2</ele>
        <time>2021-11-22T14:00:03Z</time>
      </trkpt>
      <trkpt lat="46.60247" lon="5.31864">
        <ele>197.8</ele>
        <time>2021-11-22T14:00:10Z</time>
      </trkpt>
      <trkpt lat="46.60221" lon="5.31813">
        <ele>197.2</ele>
        <time>2021-11-22T14:00:16Z</time>
      </trkpt>
      <trkpt lat="46.60211" lon="5.31793">
        <ele>197</ele>
        <time>2021-11-22T14:00:18Z</time>
      </trkpt>
      <trkpt lat="46.60178" lon="5.31728">
        <ele>196.8</ele>
        <time>2021-11-22T14:00:25Z</time>
      </trkpt>
      <trkpt lat="46.60168" lon="5.31707">
        <ele>196.8</ele>
        <time>2021-11-22T14:00:27Z</time>
      </trkpt>
      <trkpt lat="46.60152" lon="5.31676">
        <ele>196</ele>
        <time>2021-11-22T14:00:30Z</time>
      </trkpt>
      <trkpt lat="46.60136" lon="5.31644">
        <ele>194.8</ele>
        <time>2021-11-22T14:00:33Z</time>
      </trkpt>
      <trkpt lat="46.60126" lon="5.31623">
        <ele>194.2</ele>
        <time>2021-11-22T14:00:35Z</time>
      </trkpt>
      <trkpt lat="46.60115" lon="5.31602">
        <ele>193.4</ele>
        <time>2021-11-22T14:00:37Z</time>
      </trkpt>
      <trkpt lat="46.6008" lon="5.31533">
        <ele>192.6</ele>
        <time>2021-11-22T14:00:44Z</time>
      </trkpt>
      <trkpt lat="46.60059" lon="5.31473">
        <ele>193</ele>
        <time>2021-11-22T14:00:50Z</time>
      </trkpt>
      <trkpt lat="46.60056" lon="5.31462">
        <ele>193</ele>
        <time>2021-11-22T14:00:51Z</time>
      </trkpt>
      <trkpt lat="46.60053" lon="5.31429">
        <ele>193.2</ele>
        <time>2021-11-22T14:00:54Z</time>
      </trkpt>
      <trkpt lat="46.60053" lon="5.31419">
        <ele>193.2</ele>
        <time>2021-11-22T14:00:55Z</time>
      </trkpt>
      <trkpt lat="46.60055" lon="5.31377">
        <ele>193.8</ele>
        <time>2021-11-22T14:00:59Z</time>
      </trkpt>
      <trkpt lat="46.6006" lon="5.31316">
        <ele>194.4</ele>
        <time>2021-11-22T14:01:05Z</time>
      </trkpt>
      <trkpt lat="46.6006" lon="5.31306">
        <ele>194.6</ele>
        <time>2021-11-22T14:01:06Z</time>
      </trkpt>
      <trkpt lat="46.60065" lon="5.31226">
        <ele>195.2</ele>
        <time>2021-11-22T14:01:14Z</time>
      </trkpt>
      <trkpt lat="46.60068" lon="5.31165">
        <ele>195.6</ele>
        <time>2021-11-22T14:01:20Z</time>
      </trkpt>
      <trkpt lat="46.60071" lon="5.31119">
        <ele>195.8</ele>
        <time>2021-11-22T14:01:24Z</time>
      </trkpt>
      <trkpt lat="46.60074" lon="5.31089">
        <ele>195.8</ele>
        <time>2021-11-22T14:01:27Z</time>
      </trkpt>
      <trkpt lat="46.6008" lon="5.31068">
        <ele>195.6</ele>
        <time>2021-11-22T14:01:29Z</time>
      </trkpt>
      <trkpt lat="46.60087" lon="5.31049">
        <ele>195.6</ele>
        <time>2021-11-22T14:01:31Z</time>
      </trkpt>
      <trkpt lat="46.60101" lon="5.31023">
        <ele>195.4</ele>
        <time>2021-11-22T14:01:34Z</time>
      </trkpt>
      <trkpt lat="46.60109" lon="5.31008">
        <ele>195.4</ele>
        <time>2021-11-22T14:01:36Z</time>
      </trkpt>
      <trkpt lat="46.60109" lon="5.30995">
        <ele>195.4</ele>
        <time>2021-11-22T14:01:38Z</time>
      </trkpt>
      <trkpt lat="46.60087" lon="5.30971">
        <ele>195.6</ele>
        <time>2021-11-22T14:01:42Z</time>
      </trkpt>
      <trkpt lat="46.60055" lon="5.30934">
        <ele>195.4</ele>
        <time>2021-11-22T14:01:47Z</time>
      </trkpt>
      <trkpt lat="46.60013" lon="5.30889">
        <ele>194.4</ele>
        <time>2021-11-22T14:01:53Z</time>
      </trkpt>
      <trkpt lat="46.60006" lon="5.30881">
        <ele>194</ele>
        <time>2021-11-22T14:01:54Z</time>
      </trkpt>
      <trkpt lat="46.59991" lon="5.30865">
        <ele>193.4</ele>
        <time>2021-11-22T14:01:56Z</time>
      </trkpt>
      <trkpt lat="46.59959" lon="5.30835">
        <ele>192.8</ele>
        <time>2021-11-22T14:02:00Z</time>
      </trkpt>
      <trkpt lat="46.59949" lon="5.30831">
        <ele>192.2</ele>
        <time>2021-11-22T14:02:01Z</time>
      </trkpt>
      <trkpt lat="46.5993" lon="5.30827">
        <ele>191.6</ele>
        <time>2021-11-22T14:02:03Z</time>
      </trkpt>
      <trkpt lat="46.5992" lon="5.30826">
        <ele>191.2</ele>
        <time>2021-11-22T14:02:04Z</time>
      </trkpt>
      <trkpt lat="46.59878" lon="5.30818">
        <ele>190</ele>
        <time>2021-11-22T14:02:08Z</time>
      </trkpt>
      <trkpt lat="46.59868" lon="5.30816">
        <ele>190</ele>
        <time>2021-11-22T14:02:09Z</time>
      </trkpt>
      <trkpt lat="46.59837" lon="5.30807">
        <ele>189</ele>
        <time>2021-11-22T14:02:12Z</time>
      </trkpt>
      <trkpt lat="46.59797" lon="5.30791">
        <ele>188</ele>
        <time>2021-11-22T14:02:16Z</time>
      </trkpt>
      <trkpt lat="46.59787" lon="5.30787">
        <ele>187.6</ele>
        <time>2021-11-22T14:02:17Z</time>
      </trkpt>
      <trkpt lat="46.59766" lon="5.30784">
        <ele>187.2</ele>
        <time>2021-11-22T14:02:19Z</time>
      </trkpt>
      <trkpt lat="46.59755" lon="5.30784">
        <ele>187</ele>
        <time>2021-11-22T14:02:20Z</time>
      </trkpt>
      <trkpt lat="46.59732" lon="5.30785">
        <ele>186.4</ele>
        <time>2021-11-22T14:02:22Z</time>
      </trkpt>
      <trkpt lat="46.59696" lon="5.30788">
        <ele>185.2</ele>
        <time>2021-11-22T14:02:25Z</time>
      </trkpt>
      <trkpt lat="46.59684" lon="5.30789">
        <ele>184.2</ele>
        <time>2021-11-22T14:02:26Z</time>
      </trkpt>
      <trkpt lat="46.59672" lon="5.3079">
        <ele>184</ele>
        <time>2021-11-22T14:02:27Z</time>
      </trkpt>
      <trkpt lat="46.5966" lon="5.30791">
        <ele>183</ele>
        <time>2021-11-22T14:02:28Z</time>
      </trkpt>
      <trkpt lat="46.59636" lon="5.30793">
        <ele>181.4</ele>
        <time>2021-11-22T14:02:30Z</time>
      </trkpt>
      <trkpt lat="46.59624" lon="5.30794">
        <ele>180.2</ele>
        <time>2021-11-22T14:02:31Z</time>
      </trkpt>
      <trkpt lat="46.596" lon="5.30798">
        <ele>179.2</ele>
        <time>2021-11-22T14:02:33Z</time>
      </trkpt>
      <trkpt lat="46.59589" lon="5.30799">
        <ele>179</ele>
        <time>2021-11-22T14:02:34Z</time>
      </trkpt>
      <trkpt lat="46.59556" lon="5.30804">
        <ele>178.2</ele>
        <time>2021-11-22T14:02:37Z</time>
      </trkpt>
      <trkpt lat="46.59535" lon="5.30807">
        <ele>178</ele>
        <time>2021-11-22T14:02:39Z</time>
      </trkpt>
      <trkpt lat="46.59476" lon="5.30814">
        <ele>178.2</ele>
        <time>2021-11-22T14:02:45Z</time>
      </trkpt>
      <trkpt lat="46.59447" lon="5.30819">
        <ele>178.6</ele>
        <time>2021-11-22T14:02:48Z</time>
      </trkpt>
      <trkpt lat="46.59401" lon="5.30825">
        <ele>179.2</ele>
        <time>2021-11-22T14:02:53Z</time>
      </trkpt>
      <trkpt lat="46.59376" lon="5.30828">
        <ele>179.4</ele>
        <time>2021-11-22T14:02:56Z</time>
      </trkpt>
      <trkpt lat="46.59338" lon="5.30833">
        <ele>180.2</ele>
        <time>2021-11-22T14:03:01Z</time>
      </trkpt>
      <trkpt lat="46.59331" lon="5.30834">
        <ele>180.6</ele>
        <time>2021-11-22T14:03:02Z</time>
      </trkpt>
      <trkpt lat="46.59304" lon="5.30838">
        <ele>181.4</ele>
        <time>2021-11-22T14:03:06Z</time>
      </trkpt>
      <trkpt lat="46.59278" lon="5.30841">
        <ele>182.4</ele>
        <time>2021-11-22T14:03:10Z</time>
      </trkpt>
      <trkpt lat="46.59254" lon="5.30845">
        <ele>183.4</ele>
        <time>2021-11-22T14:03:14Z</time>
      </trkpt>
      <trkpt lat="46.59249" lon="5.30845">
        <ele>183.8</ele>
        <time>2021-11-22T14:03:15Z</time>
      </trkpt>
      <trkpt lat="46.59244" lon="5.30843">
        <ele>184</ele>
        <time>2021-11-22T14:03:16Z</time>
      </trkpt>
      <trkpt lat="46.59242" lon="5.30839">
        <ele>184</ele>
        <time>2021-11-22T14:03:17Z</time>
      </trkpt>
      <trkpt lat="46.59242" lon="5.30833">
        <ele>184.4</ele>
        <time>2021-11-22T14:03:18Z</time>
      </trkpt>
      <trkpt lat="46.59245" lon="5.30799">
        <ele>185.2</ele>
        <time>2021-11-22T14:03:23Z</time>
      </trkpt>
      <trkpt lat="46.59246" lon="5.30791">
        <ele>185.6</ele>
        <time>2021-11-22T14:03:25Z</time>
      </trkpt>
      <trkpt lat="46.59246" lon="5.30787">
        <ele>186</ele>
        <time>2021-11-22T14:03:27Z</time>
      </trkpt>
      <trkpt lat="46.59246" lon="5.30786">
        <ele>186.4</ele>
        <time>2021-11-22T14:03:30Z</time>
      </trkpt>
      <trkpt lat="46.59245" lon="5.30793">
        <ele>186.6</ele>
        <time>2021-11-22T14:04:51Z</time>
      </trkpt>
      <trkpt lat="46.59244" lon="5.30797">
        <ele>186.6</ele>
        <time>2021-11-22T14:04:52Z</time>
      </trkpt>
      <trkpt lat="46.59242" lon="5.30823">
        <ele>186.4</ele>
        <time>2021-11-22T14:04:57Z</time>
      </trkpt>
      <trkpt lat="46.59241" lon="5.30839">
        <ele>185.8</ele>
        <time>2021-11-22T14:05:02Z</time>
      </trkpt>
      <trkpt lat="46.59239" lon="5.30846">
        <ele>185.4</ele>
        <time>2021-11-22T14:05:03Z</time>
      </trkpt>
      <trkpt lat="46.59236" lon="5.30849">
        <ele>185.6</ele>
        <time>2021-11-22T14:05:04Z</time>
      </trkpt>
      <trkpt lat="46.59232" lon="5.3085">
        <ele>185.2</ele>
        <time>2021-11-22T14:05:05Z</time>
      </trkpt>
      <trkpt lat="46.59206" lon="5.30852">
        <ele>185.4</ele>
        <time>2021-11-22T14:05:10Z</time>
      </trkpt>
      <trkpt lat="46.59182" lon="5.30855">
        <ele>186.6</ele>
        <time>2021-11-22T14:05:16Z</time>
      </trkpt>
      <trkpt lat="46.59167" lon="5.30857">
        <ele>187</ele>
        <time>2021-11-22T14:05:18Z</time>
      </trkpt>
      <trkpt lat="46.59144" lon="5.30859">
        <ele>187.6</ele>
        <time>2021-11-22T14:05:23Z</time>
      </trkpt>
      <trkpt lat="46.5912" lon="5.30862">
        <ele>188.4</ele>
        <time>2021-11-22T14:05:28Z</time>
      </trkpt>
      <trkpt lat="46.59093" lon="5.30866">
        <ele>189.4</ele>
        <time>2021-11-22T14:05:34Z</time>
      </trkpt>
      <trkpt lat="46.59076" lon="5.30868">
        <ele>190.4</ele>
        <time>2021-11-22T14:05:39Z</time>
      </trkpt>
      <trkpt lat="46.59067" lon="5.30868">
        <ele>190.6</ele>
        <time>2021-11-22T14:05:40Z</time>
      </trkpt>
      <trkpt lat="46.59046" lon="5.30871">
        <ele>191.6</ele>
        <time>2021-11-22T14:05:45Z</time>
      </trkpt>
      <trkpt lat="46.59037" lon="5.30872">
        <ele>192</ele>
        <time>2021-11-22T14:05:47Z</time>
      </trkpt>
      <trkpt lat="46.59024" lon="5.30874">
        <ele>192.8</ele>
        <time>2021-11-22T14:05:50Z</time>
      </trkpt>
      <trkpt lat="46.59007" lon="5.30877">
        <ele>194</ele>
        <time>2021-11-22T14:05:55Z</time>
      </trkpt>
      <trkpt lat="46.58986" lon="5.30879">
        <ele>195</ele>
        <time>2021-11-22T14:05:59Z</time>
      </trkpt>
      <trkpt lat="46.58981" lon="5.3088">
        <ele>195.2</ele>
        <time>2021-11-22T14:06:00Z</time>
      </trkpt>
      <trkpt lat="46.58968" lon="5.30882">
        <ele>196.2</ele>
        <time>2021-11-22T14:06:04Z</time>
      </trkpt>
      <trkpt lat="46.58936" lon="5.30886">
        <ele>197.2</ele>
        <time>2021-11-22T14:06:10Z</time>
      </trkpt>
      <trkpt lat="46.58931" lon="5.30886">
        <ele>197.4</ele>
        <time>2021-11-22T14:06:11Z</time>
      </trkpt>
      <trkpt lat="46.58926" lon="5.30887">
        <ele>197.4</ele>
        <time>2021-11-22T14:06:12Z</time>
      </trkpt>
      <trkpt lat="46.58916" lon="5.30888">
        <ele>198.2</ele>
        <time>2021-11-22T14:06:14Z</time>
      </trkpt>
      <trkpt lat="46.58868" lon="5.30894">
        <ele>199</ele>
        <time>2021-11-22T14:06:23Z</time>
      </trkpt>
      <trkpt lat="46.58837" lon="5.30899">
        <ele>199.4</ele>
        <time>2021-11-22T14:06:29Z</time>
      </trkpt>
      <trkpt lat="46.58818" lon="5.30904">
        <ele>199.4</ele>
        <time>2021-11-22T14:06:31Z</time>
      </trkpt>
      <trkpt lat="46.58805" lon="5.30911">
        <ele>199.4</ele>
        <time>2021-11-22T14:06:33Z</time>
      </trkpt>
      <trkpt lat="46.58793" lon="5.3092">
        <ele>199.4</ele>
        <time>2021-11-22T14:06:35Z</time>
      </trkpt>
      <trkpt lat="46.58755" lon="5.30959">
        <ele>198.6</ele>
        <time>2021-11-22T14:06:41Z</time>
      </trkpt>
      <trkpt lat="46.58743" lon="5.30971">
        <ele>198.2</ele>
        <time>2021-11-22T14:06:43Z</time>
      </trkpt>
      <trkpt lat="46.58729" lon="5.30987">
        <ele>197.8</ele>
        <time>2021-11-22T14:06:46Z</time>
      </trkpt>
      <trkpt lat="46.58721" lon="5.30996">
        <ele>197.6</ele>
        <time>2021-11-22T14:06:48Z</time>
      </trkpt>
      <trkpt lat="46.58707" lon="5.31013">
        <ele>197</ele>
        <time>2021-11-22T14:06:52Z</time>
      </trkpt>
      <trkpt lat="46.58698" lon="5.3102">
        <ele>196.8</ele>
        <time>2021-11-22T14:06:53Z</time>
      </trkpt>
      <trkpt lat="46.58694" lon="5.31023">
        <ele>196.4</ele>
        <time>2021-11-22T14:06:55Z</time>
      </trkpt>
      <trkpt lat="46.58696" lon="5.31021">
        <ele>196.2</ele>
        <time>2021-11-22T14:06:57Z</time>
      </trkpt>
      <trkpt lat="46.58703" lon="5.31015">
        <ele>196</ele>
        <time>2021-11-22T14:06:59Z</time>
      </trkpt>
      <trkpt lat="46.58712" lon="5.31006">
        <ele>195.8</ele>
        <time>2021-11-22T14:07:01Z</time>
      </trkpt>
      <trkpt lat="46.58738" lon="5.30979">
        <ele>195.6</ele>
        <time>2021-11-22T14:07:06Z</time>
      </trkpt>
      <trkpt lat="46.58759" lon="5.30961">
        <ele>195.6</ele>
        <time>2021-11-22T14:07:10Z</time>
      </trkpt>
      <trkpt lat="46.58762" lon="5.3096">
        <ele>195.8</ele>
        <time>2021-11-22T14:07:11Z</time>
      </trkpt>
      <trkpt lat="46.58765" lon="5.30958">
        <ele>196</ele>
        <time>2021-11-22T14:07:12Z</time>
      </trkpt>
      <trkpt lat="46.58766" lon="5.30956">
        <ele>196.4</ele>
        <time>2021-11-22T14:07:14Z</time>
      </trkpt>
      <trkpt lat="46.58766" lon="5.30956">
        <ele>197</ele>
        <time>2021-11-22T14:07:16Z</time>
      </trkpt>
      <trkpt lat="46.58765" lon="5.30955">
        <ele>197.6</ele>
        <time>2021-11-22T14:09:35Z</time>
      </trkpt>
      <trkpt lat="46.5876" lon="5.30957">
        <ele>197.6</ele>
        <time>2021-11-22T14:09:36Z</time>
      </trkpt>
      <trkpt lat="46.58748" lon="5.30969">
        <ele>197.6</ele>
        <time>2021-11-22T14:09:39Z</time>
      </trkpt>
      <trkpt lat="46.5872" lon="5.30998">
        <ele>197.2</ele>
        <time>2021-11-22T14:09:44Z</time>
      </trkpt>
      <trkpt lat="46.58682" lon="5.31037">
        <ele>195.6</ele>
        <time>2021-11-22T14:09:50Z</time>
      </trkpt>
      <trkpt lat="46.5867" lon="5.31049">
        <ele>195</ele>
        <time>2021-11-22T14:09:52Z</time>
      </trkpt>
      <trkpt lat="46.58618" lon="5.31102">
        <ele>194.6</ele>
        <time>2021-11-22T14:10:00Z</time>
      </trkpt>
      <trkpt lat="46.58612" lon="5.31108">
        <ele>194.6</ele>
        <time>2021-11-22T14:10:01Z</time>
      </trkpt>
      <trkpt lat="46.58566" lon="5.31155">
        <ele>195</ele>
        <time>2021-11-22T14:10:09Z</time>
      </trkpt>
      <trkpt lat="46.58559" lon="5.31161">
        <ele>195</ele>
        <time>2021-11-22T14:10:10Z</time>
      </trkpt>
      <trkpt lat="46.58529" lon="5.31183">
        <ele>195.6</ele>
        <time>2021-11-22T14:10:15Z</time>
      </trkpt>
      <trkpt lat="46.58521" lon="5.31187">
        <ele>195.6</ele>
        <time>2021-11-22T14:10:16Z</time>
      </trkpt>
      <trkpt lat="46.58466" lon="5.31211">
        <ele>196.2</ele>
        <time>2021-11-22T14:10:24Z</time>
      </trkpt>
      <trkpt lat="46.58445" lon="5.3122">
        <ele>196.4</ele>
        <time>2021-11-22T14:10:27Z</time>
      </trkpt>
      <trkpt lat="46.58431" lon="5.31226">
        <ele>196.6</ele>
        <time>2021-11-22T14:10:29Z</time>
      </trkpt>
      <trkpt lat="46.58381" lon="5.31248">
        <ele>196.8</ele>
        <time>2021-11-22T14:10:36Z</time>
      </trkpt>
      <trkpt lat="46.58323" lon="5.31278">
        <ele>196.4</ele>
        <time>2021-11-22T14:10:44Z</time>
      </trkpt>
      <trkpt lat="46.58274" lon="5.31317">
        <ele>196.6</ele>
        <time>2021-11-22T14:10:52Z</time>
      </trkpt>
      <trkpt lat="46.58222" lon="5.31358">
        <ele>197.2</ele>
        <time>2021-11-22T14:11:00Z</time>
      </trkpt>
      <trkpt lat="46.58217" lon="5.31362">
        <ele>197.4</ele>
        <time>2021-11-22T14:11:01Z</time>
      </trkpt>
      <trkpt lat="46.58192" lon="5.31382">
        <ele>197.8</ele>
        <time>2021-11-22T14:11:05Z</time>
      </trkpt>
      <trkpt lat="46.58162" lon="5.31407">
        <ele>198.6</ele>
        <time>2021-11-22T14:11:10Z</time>
      </trkpt>
      <trkpt lat="46.58151" lon="5.31416">
        <ele>199</ele>
        <time>2021-11-22T14:11:12Z</time>
      </trkpt>
      <trkpt lat="46.58119" lon="5.31431">
        <ele>199.4</ele>
        <time>2021-11-22T14:11:17Z</time>
      </trkpt>
      <trkpt lat="46.58097" lon="5.31431">
        <ele>199.8</ele>
        <time>2021-11-22T14:11:20Z</time>
      </trkpt>
      <trkpt lat="46.58082" lon="5.31429">
        <ele>199.8</ele>
        <time>2021-11-22T14:11:22Z</time>
      </trkpt>
      <trkpt lat="46.58029" lon="5.31429">
        <ele>200</ele>
        <time>2021-11-22T14:11:29Z</time>
      </trkpt>
      <trkpt lat="46.58013" lon="5.31433">
        <ele>200</ele>
        <time>2021-11-22T14:11:31Z</time>
      </trkpt>
      <trkpt lat="46.57974" lon="5.31443">
        <ele>199.8</ele>
        <time>2021-11-22T14:11:36Z</time>
      </trkpt>
      <trkpt lat="46.5792" lon="5.31458">
        <ele>199.8</ele>
        <time>2021-11-22T14:11:43Z</time>
      </trkpt>
      <trkpt lat="46.57906" lon="5.31462">
        <ele>200</ele>
        <time>2021-11-22T14:11:45Z</time>
      </trkpt>
      <trkpt lat="46.57897" lon="5.31465">
        <ele>200.2</ele>
        <time>2021-11-22T14:11:46Z</time>
      </trkpt>
      <trkpt lat="46.5784" lon="5.31483">
        <ele>201</ele>
        <time>2021-11-22T14:11:54Z</time>
      </trkpt>
      <trkpt lat="46.57833" lon="5.31486">
        <ele>201.2</ele>
        <time>2021-11-22T14:11:55Z</time>
      </trkpt>
      <trkpt lat="46.57787" lon="5.31513">
        <ele>201.4</ele>
        <time>2021-11-22T14:12:02Z</time>
      </trkpt>
      <trkpt lat="46.57754" lon="5.31541">
        <ele>202</ele>
        <time>2021-11-22T14:12:08Z</time>
      </trkpt>
      <trkpt lat="46.57748" lon="5.31546">
        <ele>202</ele>
        <time>2021-11-22T14:12:09Z</time>
      </trkpt>
      <trkpt lat="46.57692" lon="5.31579">
        <ele>203</ele>
        <time>2021-11-22T14:12:18Z</time>
      </trkpt>
      <trkpt lat="46.57686" lon="5.31581">
        <ele>203.2</ele>
        <time>2021-11-22T14:12:19Z</time>
      </trkpt>
      <trkpt lat="46.57646" lon="5.31589">
        <ele>204</ele>
        <time>2021-11-22T14:12:25Z</time>
      </trkpt>
      <trkpt lat="46.5759" lon="5.31595">
        <ele>204</ele>
        <time>2021-11-22T14:12:33Z</time>
      </trkpt>
      <trkpt lat="46.57582" lon="5.31597">
        <ele>204</ele>
        <time>2021-11-22T14:12:34Z</time>
      </trkpt>
      <trkpt lat="46.57568" lon="5.31599">
        <ele>204.2</ele>
        <time>2021-11-22T14:12:36Z</time>
      </trkpt>
      <trkpt lat="46.57517" lon="5.31606">
        <ele>204.4</ele>
        <time>2021-11-22T14:12:43Z</time>
      </trkpt>
      <trkpt lat="46.57465" lon="5.3161">
        <ele>204.6</ele>
        <time>2021-11-22T14:12:50Z</time>
      </trkpt>
      <trkpt lat="46.57412" lon="5.31613">
        <ele>204.8</ele>
        <time>2021-11-22T14:12:57Z</time>
      </trkpt>
      <trkpt lat="46.57366" lon="5.31612">
        <ele>205</ele>
        <time>2021-11-22T14:13:04Z</time>
      </trkpt>
      <trkpt lat="46.57352" lon="5.31607">
        <ele>205</ele>
        <time>2021-11-22T14:13:05Z</time>
      </trkpt>
      <trkpt lat="46.57337" lon="5.31595">
        <ele>205</ele>
        <time>2021-11-22T14:13:07Z</time>
      </trkpt>
      <trkpt lat="46.57325" lon="5.31582">
        <ele>205</ele>
        <time>2021-11-22T14:13:09Z</time>
      </trkpt>
      <trkpt lat="46.57303" lon="5.31551">
        <ele>205</ele>
        <time>2021-11-22T14:13:13Z</time>
      </trkpt>
      <trkpt lat="46.57261" lon="5.31486">
        <ele>205</ele>
        <time>2021-11-22T14:13:21Z</time>
      </trkpt>
      <trkpt lat="46.57251" lon="5.31468">
        <ele>205.2</ele>
        <time>2021-11-22T14:13:23Z</time>
      </trkpt>
      <trkpt lat="46.57247" lon="5.31459">
        <ele>205.2</ele>
        <time>2021-11-22T14:13:24Z</time>
      </trkpt>
      <trkpt lat="46.57243" lon="5.31449">
        <ele>205.4</ele>
        <time>2021-11-22T14:13:25Z</time>
      </trkpt>
      <trkpt lat="46.57236" lon="5.31428">
        <ele>205.4</ele>
        <time>2021-11-22T14:13:27Z</time>
      </trkpt>
      <trkpt lat="46.57222" lon="5.31372">
        <ele>205</ele>
        <time>2021-11-22T14:13:32Z</time>
      </trkpt>
      <trkpt lat="46.57218" lon="5.31362">
        <ele>204.6</ele>
        <time>2021-11-22T14:13:33Z</time>
      </trkpt>
      <trkpt lat="46.57207" lon="5.31343">
        <ele>204.4</ele>
        <time>2021-11-22T14:13:35Z</time>
      </trkpt>
      <trkpt lat="46.57201" lon="5.31334">
        <ele>204.2</ele>
        <time>2021-11-22T14:13:36Z</time>
      </trkpt>
      <trkpt lat="46.57188" lon="5.31318">
        <ele>203.8</ele>
        <time>2021-11-22T14:13:38Z</time>
      </trkpt>
      <trkpt lat="46.57181" lon="5.31311">
        <ele>203.8</ele>
        <time>2021-11-22T14:13:39Z</time>
      </trkpt>
      <trkpt lat="46.57164" lon="5.313">
        <ele>203</ele>
        <time>2021-11-22T14:13:41Z</time>
      </trkpt>
      <trkpt lat="46.57155" lon="5.31296">
        <ele>202.6</ele>
        <time>2021-11-22T14:13:42Z</time>
      </trkpt>
      <trkpt lat="46.57146" lon="5.31295">
        <ele>202.4</ele>
        <time>2021-11-22T14:13:43Z</time>
      </trkpt>
      <trkpt lat="46.57115" lon="5.31294">
        <ele>202</ele>
        <time>2021-11-22T14:13:46Z</time>
      </trkpt>
      <trkpt lat="46.57104" lon="5.31293">
        <ele>201.8</ele>
        <time>2021-11-22T14:13:47Z</time>
      </trkpt>
      <trkpt lat="46.57093" lon="5.31291">
        <ele>201.8</ele>
        <time>2021-11-22T14:13:48Z</time>
      </trkpt>
      <trkpt lat="46.57073" lon="5.31282">
        <ele>201.2</ele>
        <time>2021-11-22T14:13:50Z</time>
      </trkpt>
      <trkpt lat="46.57065" lon="5.31277">
        <ele>200.4</ele>
        <time>2021-11-22T14:13:51Z</time>
      </trkpt>
      <trkpt lat="46.57035" lon="5.31252">
        <ele>199.4</ele>
        <time>2021-11-22T14:13:54Z</time>
      </trkpt>
      <trkpt lat="46.57026" lon="5.31244">
        <ele>199</ele>
        <time>2021-11-22T14:13:55Z</time>
      </trkpt>
      <trkpt lat="46.57" lon="5.3122">
        <ele>198.2</ele>
        <time>2021-11-22T14:13:58Z</time>
      </trkpt>
      <trkpt lat="46.56957" lon="5.31181">
        <ele>197.2</ele>
        <time>2021-11-22T14:14:03Z</time>
      </trkpt>
      <trkpt lat="46.56948" lon="5.31174">
        <ele>197.2</ele>
        <time>2021-11-22T14:14:04Z</time>
      </trkpt>
      <trkpt lat="46.56931" lon="5.31161">
        <ele>197</ele>
        <time>2021-11-22T14:14:06Z</time>
      </trkpt>
      <trkpt lat="46.56923" lon="5.31158">
        <ele>197</ele>
        <time>2021-11-22T14:14:07Z</time>
      </trkpt>
      <trkpt lat="46.56911" lon="5.31155">
        <ele>197</ele>
        <time>2021-11-22T14:14:08Z</time>
      </trkpt>
      <trkpt lat="46.56891" lon="5.31153">
        <ele>196.8</ele>
        <time>2021-11-22T14:14:10Z</time>
      </trkpt>
      <trkpt lat="46.5687" lon="5.31148">
        <ele>196.8</ele>
        <time>2021-11-22T14:14:12Z</time>
      </trkpt>
      <trkpt lat="46.5685" lon="5.31137">
        <ele>196.8</ele>
        <time>2021-11-22T14:14:14Z</time>
      </trkpt>
      <trkpt lat="46.56833" lon="5.31118">
        <ele>196.4</ele>
        <time>2021-11-22T14:14:16Z</time>
      </trkpt>
      <trkpt lat="46.56826" lon="5.31107">
        <ele>196</ele>
        <time>2021-11-22T14:14:17Z</time>
      </trkpt>
      <trkpt lat="46.5682" lon="5.31095">
        <ele>195.8</ele>
        <time>2021-11-22T14:14:18Z</time>
      </trkpt>
      <trkpt lat="46.56812" lon="5.31068">
        <ele>195.2</ele>
        <time>2021-11-22T14:14:20Z</time>
      </trkpt>
      <trkpt lat="46.56809" lon="5.31054">
        <ele>195.2</ele>
        <time>2021-11-22T14:14:21Z</time>
      </trkpt>
      <trkpt lat="46.56806" lon="5.31025">
        <ele>195</ele>
        <time>2021-11-22T14:14:23Z</time>
      </trkpt>
      <trkpt lat="46.56809" lon="5.30969">
        <ele>194.4</ele>
        <time>2021-11-22T14:14:27Z</time>
      </trkpt>
      <trkpt lat="46.56807" lon="5.30901">
        <ele>194.2</ele>
        <time>2021-11-22T14:14:32Z</time>
      </trkpt>
      <trkpt lat="46.56799" lon="5.30851">
        <ele>193.8</ele>
        <time>2021-11-22T14:14:36Z</time>
      </trkpt>
      <trkpt lat="46.56794" lon="5.30827">
        <ele>193.8</ele>
        <time>2021-11-22T14:14:38Z</time>
      </trkpt>
      <trkpt lat="46.56777" lon="5.30777">
        <ele>194.2</ele>
        <time>2021-11-22T14:14:43Z</time>
      </trkpt>
      <trkpt lat="46.56759" lon="5.30742">
        <ele>195</ele>
        <time>2021-11-22T14:14:47Z</time>
      </trkpt>
      <trkpt lat="46.56755" lon="5.30733">
        <ele>195.2</ele>
        <time>2021-11-22T14:14:48Z</time>
      </trkpt>
      <trkpt lat="46.56742" lon="5.30708">
        <ele>196</ele>
        <time>2021-11-22T14:14:51Z</time>
      </trkpt>
      <trkpt lat="46.56719" lon="5.30668">
        <ele>197</ele>
        <time>2021-11-22T14:14:56Z</time>
      </trkpt>
      <trkpt lat="46.56697" lon="5.30644">
        <ele>198.2</ele>
        <time>2021-11-22T14:15:00Z</time>
      </trkpt>
      <trkpt lat="46.56685" lon="5.30634">
        <ele>198.6</ele>
        <time>2021-11-22T14:15:02Z</time>
      </trkpt>
      <trkpt lat="46.56647" lon="5.30609">
        <ele>199.4</ele>
        <time>2021-11-22T14:15:08Z</time>
      </trkpt>
      <trkpt lat="46.56607" lon="5.30599">
        <ele>200</ele>
        <time>2021-11-22T14:15:14Z</time>
      </trkpt>
      <trkpt lat="46.56557" lon="5.30598">
        <ele>200</ele>
        <time>2021-11-22T14:15:21Z</time>
      </trkpt>
      <trkpt lat="46.56501" lon="5.30608">
        <ele>199.8</ele>
        <time>2021-11-22T14:15:29Z</time>
      </trkpt>
      <trkpt lat="46.56486" lon="5.3061">
        <ele>199.6</ele>
        <time>2021-11-22T14:15:31Z</time>
      </trkpt>
      <trkpt lat="46.56452" lon="5.30619">
        <ele>200</ele>
        <time>2021-11-22T14:15:36Z</time>
      </trkpt>
      <trkpt lat="46.56441" lon="5.30623">
        <ele>200</ele>
        <time>2021-11-22T14:15:38Z</time>
      </trkpt>
      <trkpt lat="46.5643" lon="5.3062">
        <ele>200.2</ele>
        <time>2021-11-22T14:15:40Z</time>
      </trkpt>
      <trkpt lat="46.56427" lon="5.30618">
        <ele>200.4</ele>
        <time>2021-11-22T14:15:41Z</time>
      </trkpt>
      <trkpt lat="46.56427" lon="5.30618">
        <ele>200.4</ele>
        <time>2021-11-22T14:15:44Z</time>
      </trkpt>
      <trkpt lat="46.56423" lon="5.30613">
        <ele>201</ele>
        <time>2021-11-22T14:15:48Z</time>
      </trkpt>
      <trkpt lat="46.56418" lon="5.30614">
        <ele>201</ele>
        <time>2021-11-22T14:15:50Z</time>
      </trkpt>
      <trkpt lat="46.56415" lon="5.30615">
        <ele>200.8</ele>
        <time>2021-11-22T14:15:51Z</time>
      </trkpt>
      <trkpt lat="46.56408" lon="5.30613">
        <ele>200.8</ele>
        <time>2021-11-22T14:15:53Z</time>
      </trkpt>
      <trkpt lat="46.56391" lon="5.3059">
        <ele>200.8</ele>
        <time>2021-11-22T14:15:57Z</time>
      </trkpt>
      <trkpt lat="46.56358" lon="5.30544">
        <ele>200.8</ele>
        <time>2021-11-22T14:16:04Z</time>
      </trkpt>
      <trkpt lat="46.56324" lon="5.30496">
        <ele>201.2</ele>
        <time>2021-11-22T14:16:11Z</time>
      </trkpt>
      <trkpt lat="46.56282" lon="5.30437">
        <ele>201.8</ele>
        <time>2021-11-22T14:16:19Z</time>
      </trkpt>
      <trkpt lat="46.56276" lon="5.3043">
        <ele>201.8</ele>
        <time>2021-11-22T14:16:20Z</time>
      </trkpt>
      <trkpt lat="46.5624" lon="5.30379">
        <ele>201.6</ele>
        <time>2021-11-22T14:16:27Z</time>
      </trkpt>
      <trkpt lat="46.56211" lon="5.30328">
        <ele>201.4</ele>
        <time>2021-11-22T14:16:33Z</time>
      </trkpt>
      <trkpt lat="46.56181" lon="5.30279">
        <ele>201.2</ele>
        <time>2021-11-22T14:16:39Z</time>
      </trkpt>
      <trkpt lat="46.56141" lon="5.30227">
        <ele>201</ele>
        <time>2021-11-22T14:16:46Z</time>
      </trkpt>
      <trkpt lat="46.56129" lon="5.30212">
        <ele>200.8</ele>
        <time>2021-11-22T14:16:48Z</time>
      </trkpt>
      <trkpt lat="46.56089" lon="5.30158">
        <ele>200.8</ele>
        <time>2021-11-22T14:16:55Z</time>
      </trkpt>
      <trkpt lat="46.56065" lon="5.30125">
        <ele>200.8</ele>
        <time>2021-11-22T14:16:59Z</time>
      </trkpt>
      <trkpt lat="46.56023" lon="5.30069">
        <ele>200.4</ele>
        <time>2021-11-22T14:17:06Z</time>
      </trkpt>
      <trkpt lat="46.56015" lon="5.30058">
        <ele>199.8</ele>
        <time>2021-11-22T14:17:07Z</time>
      </trkpt>
      <trkpt lat="46.55993" lon="5.30029">
        <ele>198.2</ele>
        <time>2021-11-22T14:17:10Z</time>
      </trkpt>
      <trkpt lat="46.55971" lon="5.3">
        <ele>197.2</ele>
        <time>2021-11-22T14:17:13Z</time>
      </trkpt>
      <trkpt lat="46.55965" lon="5.29991">
        <ele>196.8</ele>
        <time>2021-11-22T14:17:14Z</time>
      </trkpt>
      <trkpt lat="46.55948" lon="5.2997">
        <ele>195.6</ele>
        <time>2021-11-22T14:17:16Z</time>
      </trkpt>
      <trkpt lat="46.55928" lon="5.29943">
        <ele>194.4</ele>
        <time>2021-11-22T14:17:19Z</time>
      </trkpt>
      <trkpt lat="46.55914" lon="5.29923">
        <ele>194.2</ele>
        <time>2021-11-22T14:17:21Z</time>
      </trkpt>
      <trkpt lat="46.55879" lon="5.29877">
        <ele>195.2</ele>
        <time>2021-11-22T14:17:27Z</time>
      </trkpt>
      <trkpt lat="46.55874" lon="5.2987">
        <ele>195.4</ele>
        <time>2021-11-22T14:17:28Z</time>
      </trkpt>
      <trkpt lat="46.55849" lon="5.29835">
        <ele>197</ele>
        <time>2021-11-22T14:17:33Z</time>
      </trkpt>
      <trkpt lat="46.55844" lon="5.29829">
        <ele>197.4</ele>
        <time>2021-11-22T14:17:34Z</time>
      </trkpt>
      <trkpt lat="46.55829" lon="5.29808">
        <ele>198.6</ele>
        <time>2021-11-22T14:17:37Z</time>
      </trkpt>
      <trkpt lat="46.55797" lon="5.29764">
        <ele>199.6</ele>
        <time>2021-11-22T14:17:43Z</time>
      </trkpt>
      <trkpt lat="46.55782" lon="5.29743">
        <ele>199.8</ele>
        <time>2021-11-22T14:17:46Z</time>
      </trkpt>
      <trkpt lat="46.55777" lon="5.29736">
        <ele>199.6</ele>
        <time>2021-11-22T14:17:47Z</time>
      </trkpt>
      <trkpt lat="46.55773" lon="5.29729">
        <ele>199.6</ele>
        <time>2021-11-22T14:17:48Z</time>
      </trkpt>
      <trkpt lat="46.55761" lon="5.29717">
        <ele>199.6</ele>
        <time>2021-11-22T14:17:50Z</time>
      </trkpt>
      <trkpt lat="46.55748" lon="5.29708">
        <ele>199.2</ele>
        <time>2021-11-22T14:17:52Z</time>
      </trkpt>
      <trkpt lat="46.55712" lon="5.29692">
        <ele>198.8</ele>
        <time>2021-11-22T14:17:56Z</time>
      </trkpt>
      <trkpt lat="46.55705" lon="5.29691">
        <ele>198.6</ele>
        <time>2021-11-22T14:17:57Z</time>
      </trkpt>
      <trkpt lat="46.55672" lon="5.29689">
        <ele>197.2</ele>
        <time>2021-11-22T14:18:00Z</time>
      </trkpt>
      <trkpt lat="46.55662" lon="5.29688">
        <ele>197</ele>
        <time>2021-11-22T14:18:01Z</time>
      </trkpt>
      <trkpt lat="46.55643" lon="5.29683">
        <ele>196</ele>
        <time>2021-11-22T14:18:03Z</time>
      </trkpt>
      <trkpt lat="46.55621" lon="5.29673">
        <ele>195</ele>
        <time>2021-11-22T14:18:05Z</time>
      </trkpt>
      <trkpt lat="46.55611" lon="5.29668">
        <ele>193.8</ele>
        <time>2021-11-22T14:18:06Z</time>
      </trkpt>
      <trkpt lat="46.55582" lon="5.29652">
        <ele>192.8</ele>
        <time>2021-11-22T14:18:09Z</time>
      </trkpt>
      <trkpt lat="46.55544" lon="5.29627">
        <ele>192.2</ele>
        <time>2021-11-22T14:18:13Z</time>
      </trkpt>
      <trkpt lat="46.55499" lon="5.29595">
        <ele>191.4</ele>
        <time>2021-11-22T14:18:18Z</time>
      </trkpt>
      <trkpt lat="46.55483" lon="5.29583">
        <ele>191.4</ele>
        <time>2021-11-22T14:18:21Z</time>
      </trkpt>
      <trkpt lat="46.55432" lon="5.29545">
        <ele>190.8</ele>
        <time>2021-11-22T14:18:26Z</time>
      </trkpt>
      <trkpt lat="46.55415" lon="5.29534">
        <ele>190.6</ele>
        <time>2021-11-22T14:18:28Z</time>
      </trkpt>
      <trkpt lat="46.55389" lon="5.29521">
        <ele>190.4</ele>
        <time>2021-11-22T14:18:31Z</time>
      </trkpt>
      <trkpt lat="46.55372" lon="5.29514">
        <ele>190.4</ele>
        <time>2021-11-22T14:18:33Z</time>
      </trkpt>
      <trkpt lat="46.55362" lon="5.29512">
        <ele>190.2</ele>
        <time>2021-11-22T14:18:34Z</time>
      </trkpt>
      <trkpt lat="46.55303" lon="5.295">
        <ele>190.2</ele>
        <time>2021-11-22T14:18:41Z</time>
      </trkpt>
      <trkpt lat="46.55295" lon="5.29497">
        <ele>190.2</ele>
        <time>2021-11-22T14:18:42Z</time>
      </trkpt>
      <trkpt lat="46.55281" lon="5.29486">
        <ele>190.4</ele>
        <time>2021-11-22T14:18:44Z</time>
      </trkpt>
      <trkpt lat="46.55275" lon="5.29479">
        <ele>190.6</ele>
        <time>2021-11-22T14:18:45Z</time>
      </trkpt>
      <trkpt lat="46.55271" lon="5.29471">
        <ele>190.8</ele>
        <time>2021-11-22T14:18:46Z</time>
      </trkpt>
      <trkpt lat="46.55264" lon="5.29451">
        <ele>191.2</ele>
        <time>2021-11-22T14:18:48Z</time>
      </trkpt>
      <trkpt lat="46.5526" lon="5.29431">
        <ele>191.6</ele>
        <time>2021-11-22T14:18:50Z</time>
      </trkpt>
      <trkpt lat="46.55254" lon="5.29404">
        <ele>192.8</ele>
        <time>2021-11-22T14:18:53Z</time>
      </trkpt>
      <trkpt lat="46.55249" lon="5.29377">
        <ele>194.4</ele>
        <time>2021-11-22T14:18:56Z</time>
      </trkpt>
      <trkpt lat="46.55248" lon="5.29368">
        <ele>195.2</ele>
        <time>2021-11-22T14:18:57Z</time>
      </trkpt>
      <trkpt lat="46.55249" lon="5.29359">
        <ele>195.6</ele>
        <time>2021-11-22T14:18:58Z</time>
      </trkpt>
      <trkpt lat="46.55255" lon="5.2933">
        <ele>196.6</ele>
        <time>2021-11-22T14:19:01Z</time>
      </trkpt>
      <trkpt lat="46.55264" lon="5.29298">
        <ele>196.6</ele>
        <time>2021-11-22T14:19:04Z</time>
      </trkpt>
      <trkpt lat="46.55267" lon="5.29286">
        <ele>196.6</ele>
        <time>2021-11-22T14:19:05Z</time>
      </trkpt>
      <trkpt lat="46.55279" lon="5.29249">
        <ele>195.4</ele>
        <time>2021-11-22T14:19:08Z</time>
      </trkpt>
      <trkpt lat="46.55286" lon="5.29224">
        <ele>193.8</ele>
        <time>2021-11-22T14:19:10Z</time>
      </trkpt>
      <trkpt lat="46.55288" lon="5.29212">
        <ele>193.2</ele>
        <time>2021-11-22T14:19:11Z</time>
      </trkpt>
      <trkpt lat="46.5529" lon="5.292">
        <ele>192.4</ele>
        <time>2021-11-22T14:19:12Z</time>
      </trkpt>
      <trkpt lat="46.55285" lon="5.29175">
        <ele>191.2</ele>
        <time>2021-11-22T14:19:14Z</time>
      </trkpt>
      <trkpt lat="46.55274" lon="5.29155">
        <ele>190.2</ele>
        <time>2021-11-22T14:19:16Z</time>
      </trkpt>
      <trkpt lat="46.55267" lon="5.29146">
        <ele>189.8</ele>
        <time>2021-11-22T14:19:17Z</time>
      </trkpt>
      <trkpt lat="46.55231" lon="5.29097">
        <ele>188.8</ele>
        <time>2021-11-22T14:19:22Z</time>
      </trkpt>
      <trkpt lat="46.55225" lon="5.29085">
        <ele>188.6</ele>
        <time>2021-11-22T14:19:23Z</time>
      </trkpt>
      <trkpt lat="46.55204" lon="5.29047">
        <ele>187.2</ele>
        <time>2021-11-22T14:19:26Z</time>
      </trkpt>
      <trkpt lat="46.5519" lon="5.29021">
        <ele>186.2</ele>
        <time>2021-11-22T14:19:28Z</time>
      </trkpt>
      <trkpt lat="46.55182" lon="5.29008">
        <ele>184.8</ele>
        <time>2021-11-22T14:19:29Z</time>
      </trkpt>
      <trkpt lat="46.55168" lon="5.28981">
        <ele>183</ele>
        <time>2021-11-22T14:19:31Z</time>
      </trkpt>
      <trkpt lat="46.55155" lon="5.28956">
        <ele>181.6</ele>
        <time>2021-11-22T14:19:33Z</time>
      </trkpt>
      <trkpt lat="46.5515" lon="5.28941">
        <ele>181</ele>
        <time>2021-11-22T14:19:34Z</time>
      </trkpt>
      <trkpt lat="46.55147" lon="5.28925">
        <ele>179.8</ele>
        <time>2021-11-22T14:19:35Z</time>
      </trkpt>
      <trkpt lat="46.55145" lon="5.2891">
        <ele>178.4</ele>
        <time>2021-11-22T14:19:36Z</time>
      </trkpt>
      <trkpt lat="46.55145" lon="5.28891">
        <ele>178</ele>
        <time>2021-11-22T14:19:37Z</time>
      </trkpt>
      <trkpt lat="46.55147" lon="5.28876">
        <ele>177.2</ele>
        <time>2021-11-22T14:19:38Z</time>
      </trkpt>
      <trkpt lat="46.55153" lon="5.28819">
        <ele>176</ele>
        <time>2021-11-22T14:19:42Z</time>
      </trkpt>
      <trkpt lat="46.55154" lon="5.28806">
        <ele>175.8</ele>
        <time>2021-11-22T14:19:43Z</time>
      </trkpt>
      <trkpt lat="46.55151" lon="5.2878">
        <ele>175.8</ele>
        <time>2021-11-22T14:19:45Z</time>
      </trkpt>
      <trkpt lat="46.55142" lon="5.28759">
        <ele>175.8</ele>
        <time>2021-11-22T14:19:47Z</time>
      </trkpt>
      <trkpt lat="46.55136" lon="5.2875">
        <ele>175.8</ele>
        <time>2021-11-22T14:19:48Z</time>
      </trkpt>
      <trkpt lat="46.55107" lon="5.28707">
        <ele>176.4</ele>
        <time>2021-11-22T14:19:53Z</time>
      </trkpt>
      <trkpt lat="46.5507" lon="5.28642">
        <ele>176.8</ele>
        <time>2021-11-22T14:20:00Z</time>
      </trkpt>
      <trkpt lat="46.55055" lon="5.28616">
        <ele>176.6</ele>
        <time>2021-11-22T14:20:03Z</time>
      </trkpt>
      <trkpt lat="46.55027" lon="5.28567">
        <ele>177</ele>
        <time>2021-11-22T14:20:09Z</time>
      </trkpt>
      <trkpt lat="46.55007" lon="5.28529">
        <ele>178.4</ele>
        <time>2021-11-22T14:20:14Z</time>
      </trkpt>
      <trkpt lat="46.55003" lon="5.28522">
        <ele>178.4</ele>
        <time>2021-11-22T14:20:15Z</time>
      </trkpt>
      <trkpt lat="46.54979" lon="5.28479">
        <ele>179.4</ele>
        <time>2021-11-22T14:20:21Z</time>
      </trkpt>
      <trkpt lat="46.54974" lon="5.28473">
        <ele>179.4</ele>
        <time>2021-11-22T14:20:22Z</time>
      </trkpt>
      <trkpt lat="46.54953" lon="5.28455">
        <ele>180.4</ele>
        <time>2021-11-22T14:20:26Z</time>
      </trkpt>
      <trkpt lat="46.54947" lon="5.28452">
        <ele>180.4</ele>
        <time>2021-11-22T14:20:27Z</time>
      </trkpt>
      <trkpt lat="46.54917" lon="5.28439">
        <ele>181.6</ele>
        <time>2021-11-22T14:20:32Z</time>
      </trkpt>
      <trkpt lat="46.54905" lon="5.28433">
        <ele>182.2</ele>
        <time>2021-11-22T14:20:34Z</time>
      </trkpt>
      <trkpt lat="46.549" lon="5.28428">
        <ele>182.8</ele>
        <time>2021-11-22T14:20:35Z</time>
      </trkpt>
      <trkpt lat="46.54873" lon="5.28406">
        <ele>183.8</ele>
        <time>2021-11-22T14:20:40Z</time>
      </trkpt>
      <trkpt lat="46.54862" lon="5.28398">
        <ele>184</ele>
        <time>2021-11-22T14:20:42Z</time>
      </trkpt>
      <trkpt lat="46.54836" lon="5.28382">
        <ele>184.8</ele>
        <time>2021-11-22T14:20:47Z</time>
      </trkpt>
      <trkpt lat="46.54821" lon="5.28374">
        <ele>185.8</ele>
        <time>2021-11-22T14:20:50Z</time>
      </trkpt>
      <trkpt lat="46.54816" lon="5.2837">
        <ele>186</ele>
        <time>2021-11-22T14:20:51Z</time>
      </trkpt>
      <trkpt lat="46.54796" lon="5.28358">
        <ele>187.2</ele>
        <time>2021-11-22T14:20:55Z</time>
      </trkpt>
      <trkpt lat="46.54786" lon="5.28357">
        <ele>187.6</ele>
        <time>2021-11-22T14:20:57Z</time>
      </trkpt>
      <trkpt lat="46.54774" lon="5.28365">
        <ele>188</ele>
        <time>2021-11-22T14:20:59Z</time>
      </trkpt>
      <trkpt lat="46.54769" lon="5.28371">
        <ele>188</ele>
        <time>2021-11-22T14:21:00Z</time>
      </trkpt>
      <trkpt lat="46.54759" lon="5.28384">
        <ele>188.2</ele>
        <time>2021-11-22T14:21:02Z</time>
      </trkpt>
      <trkpt lat="46.5474" lon="5.28402">
        <ele>188.2</ele>
        <time>2021-11-22T14:21:05Z</time>
      </trkpt>
      <trkpt lat="46.54707" lon="5.28417">
        <ele>187.8</ele>
        <time>2021-11-22T14:21:09Z</time>
      </trkpt>
      <trkpt lat="46.54662" lon="5.28439">
        <ele>187</ele>
        <time>2021-11-22T14:21:14Z</time>
      </trkpt>
      <trkpt lat="46.54652" lon="5.28443">
        <ele>186.2</ele>
        <time>2021-11-22T14:21:15Z</time>
      </trkpt>
      <trkpt lat="46.54642" lon="5.28447">
        <ele>185.8</ele>
        <time>2021-11-22T14:21:16Z</time>
      </trkpt>
      <trkpt lat="46.54611" lon="5.28453">
        <ele>184.6</ele>
        <time>2021-11-22T14:21:19Z</time>
      </trkpt>
      <trkpt lat="46.54601" lon="5.28455">
        <ele>184</ele>
        <time>2021-11-22T14:21:20Z</time>
      </trkpt>
      <trkpt lat="46.54581" lon="5.28454">
        <ele>183.2</ele>
        <time>2021-11-22T14:21:22Z</time>
      </trkpt>
      <trkpt lat="46.54561" lon="5.2845">
        <ele>182.6</ele>
        <time>2021-11-22T14:21:24Z</time>
      </trkpt>
      <trkpt lat="46.54541" lon="5.28446">
        <ele>182.2</ele>
        <time>2021-11-22T14:21:26Z</time>
      </trkpt>
      <trkpt lat="46.54521" lon="5.28447">
        <ele>181.8</ele>
        <time>2021-11-22T14:21:28Z</time>
      </trkpt>
      <trkpt lat="46.54481" lon="5.28449">
        <ele>181.2</ele>
        <time>2021-11-22T14:21:32Z</time>
      </trkpt>
      <trkpt lat="46.54462" lon="5.28448">
        <ele>181</ele>
        <time>2021-11-22T14:21:34Z</time>
      </trkpt>
      <trkpt lat="46.54442" lon="5.28449">
        <ele>181</ele>
        <time>2021-11-22T14:21:36Z</time>
      </trkpt>
      <trkpt lat="46.54424" lon="5.28456">
        <ele>181</ele>
        <time>2021-11-22T14:21:38Z</time>
      </trkpt>
      <trkpt lat="46.54392" lon="5.28484">
        <ele>181.2</ele>
        <time>2021-11-22T14:21:42Z</time>
      </trkpt>
      <trkpt lat="46.54338" lon="5.28528">
        <ele>182</ele>
        <time>2021-11-22T14:21:49Z</time>
      </trkpt>
      <trkpt lat="46.54331" lon="5.28534">
        <ele>182.4</ele>
        <time>2021-11-22T14:21:50Z</time>
      </trkpt>
      <trkpt lat="46.54305" lon="5.28553">
        <ele>183.6</ele>
        <time>2021-11-22T14:21:54Z</time>
      </trkpt>
      <trkpt lat="46.54294" lon="5.28562">
        <ele>184</ele>
        <time>2021-11-22T14:21:56Z</time>
      </trkpt>
      <trkpt lat="46.54278" lon="5.28574">
        <ele>185</ele>
        <time>2021-11-22T14:21:59Z</time>
      </trkpt>
      <trkpt lat="46.54268" lon="5.28582">
        <ele>186</ele>
        <time>2021-11-22T14:22:01Z</time>
      </trkpt>
      <trkpt lat="46.54248" lon="5.28597">
        <ele>187</ele>
        <time>2021-11-22T14:22:05Z</time>
      </trkpt>
      <trkpt lat="46.5423" lon="5.2861">
        <ele>188.2</ele>
        <time>2021-11-22T14:22:09Z</time>
      </trkpt>
      <trkpt lat="46.5421" lon="5.28623">
        <ele>189</ele>
        <time>2021-11-22T14:22:13Z</time>
      </trkpt>
      <trkpt lat="46.54205" lon="5.28625">
        <ele>189.2</ele>
        <time>2021-11-22T14:22:14Z</time>
      </trkpt>
      <trkpt lat="46.54182" lon="5.28637">
        <ele>190.4</ele>
        <time>2021-11-22T14:22:19Z</time>
      </trkpt>
      <trkpt lat="46.54178" lon="5.28639">
        <ele>190.6</ele>
        <time>2021-11-22T14:22:20Z</time>
      </trkpt>
      <trkpt lat="46.54168" lon="5.28641">
        <ele>191.6</ele>
        <time>2021-11-22T14:22:22Z</time>
      </trkpt>
      <trkpt lat="46.54148" lon="5.28647">
        <ele>192.6</ele>
        <time>2021-11-22T14:22:26Z</time>
      </trkpt>
      <trkpt lat="46.54127" lon="5.28652">
        <ele>194</ele>
        <time>2021-11-22T14:22:30Z</time>
      </trkpt>
      <trkpt lat="46.54122" lon="5.28652">
        <ele>194.4</ele>
        <time>2021-11-22T14:22:31Z</time>
      </trkpt>
      <trkpt lat="46.54106" lon="5.28652">
        <ele>195.2</ele>
        <time>2021-11-22T14:22:34Z</time>
      </trkpt>
      <trkpt lat="46.5408" lon="5.28647">
        <ele>196</ele>
        <time>2021-11-22T14:22:39Z</time>
      </trkpt>
      <trkpt lat="46.54075" lon="5.28647">
        <ele>196.2</ele>
        <time>2021-11-22T14:22:40Z</time>
      </trkpt>
      <trkpt lat="46.54041" lon="5.28645">
        <ele>196.8</ele>
        <time>2021-11-22T14:22:46Z</time>
      </trkpt>
      <trkpt lat="46.53986" lon="5.28639">
        <ele>197.4</ele>
        <time>2021-11-22T14:22:55Z</time>
      </trkpt>
      <trkpt lat="46.53932" lon="5.28635">
        <ele>198</ele>
        <time>2021-11-22T14:23:04Z</time>
      </trkpt>
      <trkpt lat="46.53914" lon="5.28634">
        <ele>198.4</ele>
        <time>2021-11-22T14:23:07Z</time>
      </trkpt>
      <trkpt lat="46.53885" lon="5.28631">
        <ele>199.4</ele>
        <time>2021-11-22T14:23:12Z</time>
      </trkpt>
      <trkpt lat="46.53856" lon="5.28628">
        <ele>199.8</ele>
        <time>2021-11-22T14:23:17Z</time>
      </trkpt>
      <trkpt lat="46.53795" lon="5.28623">
        <ele>200.4</ele>
        <time>2021-11-22T14:23:26Z</time>
      </trkpt>
      <trkpt lat="46.53788" lon="5.28623">
        <ele>200.6</ele>
        <time>2021-11-22T14:23:27Z</time>
      </trkpt>
      <trkpt lat="46.5373" lon="5.28618">
        <ele>200.6</ele>
        <time>2021-11-22T14:23:35Z</time>
      </trkpt>
      <trkpt lat="46.53715" lon="5.28617">
        <ele>200.6</ele>
        <time>2021-11-22T14:23:37Z</time>
      </trkpt>
      <trkpt lat="46.53653" lon="5.28612">
        <ele>200</ele>
        <time>2021-11-22T14:23:45Z</time>
      </trkpt>
      <trkpt lat="46.53637" lon="5.28612">
        <ele>199.8</ele>
        <time>2021-11-22T14:23:47Z</time>
      </trkpt>
      <trkpt lat="46.53612" lon="5.2861">
        <ele>199.2</ele>
        <time>2021-11-22T14:23:50Z</time>
      </trkpt>
      <trkpt lat="46.53563" lon="5.28605">
        <ele>198.4</ele>
        <time>2021-11-22T14:23:56Z</time>
      </trkpt>
      <trkpt lat="46.53555" lon="5.28605">
        <ele>198.2</ele>
        <time>2021-11-22T14:23:57Z</time>
      </trkpt>
      <trkpt lat="46.53498" lon="5.28602">
        <ele>197.4</ele>
        <time>2021-11-22T14:24:04Z</time>
      </trkpt>
      <trkpt lat="46.5349" lon="5.28602">
        <ele>197.2</ele>
        <time>2021-11-22T14:24:05Z</time>
      </trkpt>
      <trkpt lat="46.53481" lon="5.28601">
        <ele>197</ele>
        <time>2021-11-22T14:24:06Z</time>
      </trkpt>
      <trkpt lat="46.53444" lon="5.28595">
        <ele>196.2</ele>
        <time>2021-11-22T14:24:10Z</time>
      </trkpt>
      <trkpt lat="46.53434" lon="5.28592">
        <ele>195.8</ele>
        <time>2021-11-22T14:24:11Z</time>
      </trkpt>
      <trkpt lat="46.53425" lon="5.28588">
        <ele>195.8</ele>
        <time>2021-11-22T14:24:12Z</time>
      </trkpt>
      <trkpt lat="46.53405" lon="5.28576">
        <ele>195</ele>
        <time>2021-11-22T14:24:14Z</time>
      </trkpt>
      <trkpt lat="46.53395" lon="5.2857">
        <ele>194.2</ele>
        <time>2021-11-22T14:24:15Z</time>
      </trkpt>
      <trkpt lat="46.53376" lon="5.28557">
        <ele>192.8</ele>
        <time>2021-11-22T14:24:17Z</time>
      </trkpt>
      <trkpt lat="46.53366" lon="5.28551">
        <ele>192</ele>
        <time>2021-11-22T14:24:18Z</time>
      </trkpt>
      <trkpt lat="46.53356" lon="5.28544">
        <ele>191.8</ele>
        <time>2021-11-22T14:24:19Z</time>
      </trkpt>
      <trkpt lat="46.53346" lon="5.28537">
        <ele>190.8</ele>
        <time>2021-11-22T14:24:20Z</time>
      </trkpt>
      <trkpt lat="46.53325" lon="5.28526">
        <ele>189.2</ele>
        <time>2021-11-22T14:24:22Z</time>
      </trkpt>
      <trkpt lat="46.53303" lon="5.28521">
        <ele>188</ele>
        <time>2021-11-22T14:24:24Z</time>
      </trkpt>
      <trkpt lat="46.53281" lon="5.2852">
        <ele>186.8</ele>
        <time>2021-11-22T14:24:26Z</time>
      </trkpt>
      <trkpt lat="46.53241" lon="5.2852">
        <ele>186.2</ele>
        <time>2021-11-22T14:24:30Z</time>
      </trkpt>
      <trkpt lat="46.53211" lon="5.28522">
        <ele>186</ele>
        <time>2021-11-22T14:24:34Z</time>
      </trkpt>
      <trkpt lat="46.53183" lon="5.28525">
        <ele>188</ele>
        <time>2021-11-22T14:24:38Z</time>
      </trkpt>
      <trkpt lat="46.5317" lon="5.28528">
        <ele>188.8</ele>
        <time>2021-11-22T14:24:40Z</time>
      </trkpt>
      <trkpt lat="46.53163" lon="5.28529">
        <ele>189</ele>
        <time>2021-11-22T14:24:41Z</time>
      </trkpt>
      <trkpt lat="46.53151" lon="5.2853">
        <ele>190.4</ele>
        <time>2021-11-22T14:24:43Z</time>
      </trkpt>
      <trkpt lat="46.53145" lon="5.28531">
        <ele>190.8</ele>
        <time>2021-11-22T14:24:44Z</time>
      </trkpt>
      <trkpt lat="46.5314" lon="5.28532">
        <ele>191.6</ele>
        <time>2021-11-22T14:24:45Z</time>
      </trkpt>
      <trkpt lat="46.53121" lon="5.28536">
        <ele>192.4</ele>
        <time>2021-11-22T14:24:48Z</time>
      </trkpt>
      <trkpt lat="46.53114" lon="5.28539">
        <ele>192.8</ele>
        <time>2021-11-22T14:24:49Z</time>
      </trkpt>
      <trkpt lat="46.5308" lon="5.28546">
        <ele>194</ele>
        <time>2021-11-22T14:24:54Z</time>
      </trkpt>
      <trkpt lat="46.53067" lon="5.28549">
        <ele>194</ele>
        <time>2021-11-22T14:24:56Z</time>
      </trkpt>
      <trkpt lat="46.53035" lon="5.28556">
        <ele>195</ele>
        <time>2021-11-22T14:25:01Z</time>
      </trkpt>
      <trkpt lat="46.53029" lon="5.28558">
        <ele>195</ele>
        <time>2021-11-22T14:25:02Z</time>
      </trkpt>
      <trkpt lat="46.52998" lon="5.28564">
        <ele>196.2</ele>
        <time>2021-11-22T14:25:07Z</time>
      </trkpt>
      <trkpt lat="46.52992" lon="5.28565">
        <ele>196.4</ele>
        <time>2021-11-22T14:25:08Z</time>
      </trkpt>
      <trkpt lat="46.52965" lon="5.2857">
        <ele>197.2</ele>
        <time>2021-11-22T14:25:12Z</time>
      </trkpt>
      <trkpt lat="46.52939" lon="5.28576">
        <ele>198.2</ele>
        <time>2021-11-22T14:25:16Z</time>
      </trkpt>
      <trkpt lat="46.52932" lon="5.28577">
        <ele>198.4</ele>
        <time>2021-11-22T14:25:17Z</time>
      </trkpt>
      <trkpt lat="46.52872" lon="5.28587">
        <ele>199</ele>
        <time>2021-11-22T14:25:26Z</time>
      </trkpt>
      <trkpt lat="46.52817" lon="5.28601">
        <ele>198.6</ele>
        <time>2021-11-22T14:25:34Z</time>
      </trkpt>
      <trkpt lat="46.52761" lon="5.28611">
        <ele>198.2</ele>
        <time>2021-11-22T14:25:41Z</time>
      </trkpt>
      <trkpt lat="46.52753" lon="5.28613">
        <ele>198.2</ele>
        <time>2021-11-22T14:25:42Z</time>
      </trkpt>
      <trkpt lat="46.52734" lon="5.28617">
        <ele>198</ele>
        <time>2021-11-22T14:25:44Z</time>
      </trkpt>
      <trkpt lat="46.52674" lon="5.28627">
        <ele>197</ele>
        <time>2021-11-22T14:25:51Z</time>
      </trkpt>
      <trkpt lat="46.52634" lon="5.28617">
        <ele>196.4</ele>
        <time>2021-11-22T14:25:56Z</time>
      </trkpt>
      <trkpt lat="46.52601" lon="5.28608">
        <ele>196.2</ele>
        <time>2021-11-22T14:26:00Z</time>
      </trkpt>
      <trkpt lat="46.52584" lon="5.28608">
        <ele>196</ele>
        <time>2021-11-22T14:26:02Z</time>
      </trkpt>
      <trkpt lat="46.52567" lon="5.2861">
        <ele>195.8</ele>
        <time>2021-11-22T14:26:04Z</time>
      </trkpt>
      <trkpt lat="46.5254" lon="5.28615">
        <ele>194.8</ele>
        <time>2021-11-22T14:26:07Z</time>
      </trkpt>
      <trkpt lat="46.52481" lon="5.28625">
        <ele>193.6</ele>
        <time>2021-11-22T14:26:13Z</time>
      </trkpt>
      <trkpt lat="46.52461" lon="5.28629">
        <ele>192.2</ele>
        <time>2021-11-22T14:26:15Z</time>
      </trkpt>
      <trkpt lat="46.52429" lon="5.28635">
        <ele>191</ele>
        <time>2021-11-22T14:26:18Z</time>
      </trkpt>
      <trkpt lat="46.52408" lon="5.28639">
        <ele>189.6</ele>
        <time>2021-11-22T14:26:20Z</time>
      </trkpt>
      <trkpt lat="46.52386" lon="5.28643">
        <ele>188.2</ele>
        <time>2021-11-22T14:26:22Z</time>
      </trkpt>
      <trkpt lat="46.52364" lon="5.28647">
        <ele>187.2</ele>
        <time>2021-11-22T14:26:24Z</time>
      </trkpt>
      <trkpt lat="46.52341" lon="5.28651">
        <ele>185.8</ele>
        <time>2021-11-22T14:26:26Z</time>
      </trkpt>
      <trkpt lat="46.52306" lon="5.28655">
        <ele>184</ele>
        <time>2021-11-22T14:26:29Z</time>
      </trkpt>
      <trkpt lat="46.52295" lon="5.28656">
        <ele>183.6</ele>
        <time>2021-11-22T14:26:30Z</time>
      </trkpt>
      <trkpt lat="46.52283" lon="5.28656">
        <ele>182.8</ele>
        <time>2021-11-22T14:26:31Z</time>
      </trkpt>
      <trkpt lat="46.52248" lon="5.2866">
        <ele>181.2</ele>
        <time>2021-11-22T14:26:34Z</time>
      </trkpt>
      <trkpt lat="46.52203" lon="5.2867">
        <ele>180</ele>
        <time>2021-11-22T14:26:38Z</time>
      </trkpt>
      <trkpt lat="46.5217" lon="5.28683">
        <ele>179</ele>
        <time>2021-11-22T14:26:41Z</time>
      </trkpt>
      <trkpt lat="46.52129" lon="5.28699">
        <ele>178.4</ele>
        <time>2021-11-22T14:26:45Z</time>
      </trkpt>
      <trkpt lat="46.52069" lon="5.28715">
        <ele>178.6</ele>
        <time>2021-11-22T14:26:51Z</time>
      </trkpt>
      <trkpt lat="46.52022" lon="5.28728">
        <ele>179</ele>
        <time>2021-11-22T14:26:56Z</time>
      </trkpt>
      <trkpt lat="46.5198" lon="5.28749">
        <ele>179.6</ele>
        <time>2021-11-22T14:27:01Z</time>
      </trkpt>
      <trkpt lat="46.51963" lon="5.28751">
        <ele>179.8</ele>
        <time>2021-11-22T14:27:03Z</time>
      </trkpt>
      <trkpt lat="46.51946" lon="5.2875">
        <ele>180</ele>
        <time>2021-11-22T14:27:05Z</time>
      </trkpt>
      <trkpt lat="46.51937" lon="5.28749">
        <ele>180.2</ele>
        <time>2021-11-22T14:27:06Z</time>
      </trkpt>
      <trkpt lat="46.51894" lon="5.28739">
        <ele>181</ele>
        <time>2021-11-22T14:27:11Z</time>
      </trkpt>
      <trkpt lat="46.51886" lon="5.28733">
        <ele>181.4</ele>
        <time>2021-11-22T14:27:12Z</time>
      </trkpt>
      <trkpt lat="46.51865" lon="5.28714">
        <ele>182.2</ele>
        <time>2021-11-22T14:27:15Z</time>
      </trkpt>
      <trkpt lat="46.51835" lon="5.28696">
        <ele>182.4</ele>
        <time>2021-11-22T14:27:19Z</time>
      </trkpt>
      <trkpt lat="46.51827" lon="5.28694">
        <ele>182.6</ele>
        <time>2021-11-22T14:27:20Z</time>
      </trkpt>
      <trkpt lat="46.5181" lon="5.2869">
        <ele>183</ele>
        <time>2021-11-22T14:27:22Z</time>
      </trkpt>
      <trkpt lat="46.51785" lon="5.28688">
        <ele>183.4</ele>
        <time>2021-11-22T14:27:25Z</time>
      </trkpt>
      <trkpt lat="46.51776" lon="5.28686">
        <ele>183.6</ele>
        <time>2021-11-22T14:27:26Z</time>
      </trkpt>
      <trkpt lat="46.51768" lon="5.28681">
        <ele>183.8</ele>
        <time>2021-11-22T14:27:27Z</time>
      </trkpt>
      <trkpt lat="46.51761" lon="5.28675">
        <ele>184</ele>
        <time>2021-11-22T14:27:28Z</time>
      </trkpt>
      <trkpt lat="46.51725" lon="5.28647">
        <ele>184.4</ele>
        <time>2021-11-22T14:27:33Z</time>
      </trkpt>
      <trkpt lat="46.51717" lon="5.28644">
        <ele>184.4</ele>
        <time>2021-11-22T14:27:34Z</time>
      </trkpt>
      <trkpt lat="46.51709" lon="5.28642">
        <ele>184.4</ele>
        <time>2021-11-22T14:27:35Z</time>
      </trkpt>
      <trkpt lat="46.51685" lon="5.28643">
        <ele>184.6</ele>
        <time>2021-11-22T14:27:38Z</time>
      </trkpt>
      <trkpt lat="46.51623" lon="5.28652">
        <ele>184</ele>
        <time>2021-11-22T14:27:45Z</time>
      </trkpt>
      <trkpt lat="46.51614" lon="5.28654">
        <ele>183.8</ele>
        <time>2021-11-22T14:27:46Z</time>
      </trkpt>
      <trkpt lat="46.51605" lon="5.28657">
        <ele>183.6</ele>
        <time>2021-11-22T14:27:47Z</time>
      </trkpt>
      <trkpt lat="46.51589" lon="5.2867">
        <ele>183.2</ele>
        <time>2021-11-22T14:27:49Z</time>
      </trkpt>
      <trkpt lat="46.51575" lon="5.2869">
        <ele>182.4</ele>
        <time>2021-11-22T14:27:51Z</time>
      </trkpt>
      <trkpt lat="46.51569" lon="5.28701">
        <ele>182.2</ele>
        <time>2021-11-22T14:27:52Z</time>
      </trkpt>
      <trkpt lat="46.51547" lon="5.28745">
        <ele>180.8</ele>
        <time>2021-11-22T14:27:56Z</time>
      </trkpt>
      <trkpt lat="46.51519" lon="5.28798">
        <ele>179.8</ele>
        <time>2021-11-22T14:28:01Z</time>
      </trkpt>
      <trkpt lat="46.51514" lon="5.28808">
        <ele>179.8</ele>
        <time>2021-11-22T14:28:02Z</time>
      </trkpt>
      <trkpt lat="46.5151" lon="5.2882">
        <ele>179.6</ele>
        <time>2021-11-22T14:28:03Z</time>
      </trkpt>
      <trkpt lat="46.515" lon="5.28858">
        <ele>179.2</ele>
        <time>2021-11-22T14:28:06Z</time>
      </trkpt>
      <trkpt lat="46.51498" lon="5.2887">
        <ele>178.8</ele>
        <time>2021-11-22T14:28:07Z</time>
      </trkpt>
      <trkpt lat="46.51484" lon="5.28951">
        <ele>178.4</ele>
        <time>2021-11-22T14:28:14Z</time>
      </trkpt>
      <trkpt lat="46.51475" lon="5.29002">
        <ele>178.4</ele>
        <time>2021-11-22T14:28:19Z</time>
      </trkpt>
      <trkpt lat="46.51464" lon="5.29069">
        <ele>179.2</ele>
        <time>2021-11-22T14:28:26Z</time>
      </trkpt>
      <trkpt lat="46.51453" lon="5.29132">
        <ele>179.8</ele>
        <time>2021-11-22T14:28:33Z</time>
      </trkpt>
      <trkpt lat="46.51451" lon="5.29141">
        <ele>180</ele>
        <time>2021-11-22T14:28:34Z</time>
      </trkpt>
      <trkpt lat="46.51437" lon="5.29202">
        <ele>180.8</ele>
        <time>2021-11-22T14:28:41Z</time>
      </trkpt>
      <trkpt lat="46.51434" lon="5.2921">
        <ele>180.6</ele>
        <time>2021-11-22T14:28:42Z</time>
      </trkpt>
      <trkpt lat="46.51431" lon="5.29217">
        <ele>180.8</ele>
        <time>2021-11-22T14:28:43Z</time>
      </trkpt>
      <trkpt lat="46.51423" lon="5.29232">
        <ele>180.8</ele>
        <time>2021-11-22T14:28:45Z</time>
      </trkpt>
      <trkpt lat="46.51418" lon="5.29238">
        <ele>181</ele>
        <time>2021-11-22T14:28:46Z</time>
      </trkpt>
      <trkpt lat="46.51388" lon="5.29289">
        <ele>181.2</ele>
        <time>2021-11-22T14:28:53Z</time>
      </trkpt>
      <trkpt lat="46.51353" lon="5.29342">
        <ele>181.2</ele>
        <time>2021-11-22T14:29:00Z</time>
      </trkpt>
      <trkpt lat="46.51319" lon="5.29363">
        <ele>180.8</ele>
        <time>2021-11-22T14:29:05Z</time>
      </trkpt>
      <trkpt lat="46.5127" lon="5.29391">
        <ele>180.8</ele>
        <time>2021-11-22T14:29:12Z</time>
      </trkpt>
      <trkpt lat="46.51233" lon="5.294">
        <ele>181.2</ele>
        <time>2021-11-22T14:29:17Z</time>
      </trkpt>
      <trkpt lat="46.51177" lon="5.29414">
        <ele>181.4</ele>
        <time>2021-11-22T14:29:25Z</time>
      </trkpt>
      <trkpt lat="46.51163" lon="5.29418">
        <ele>181.6</ele>
        <time>2021-11-22T14:29:27Z</time>
      </trkpt>
      <trkpt lat="46.5115" lon="5.29421">
        <ele>181.8</ele>
        <time>2021-11-22T14:29:29Z</time>
      </trkpt>
      <trkpt lat="46.51092" lon="5.29439">
        <ele>182.4</ele>
        <time>2021-11-22T14:29:37Z</time>
      </trkpt>
      <trkpt lat="46.51085" lon="5.29441">
        <ele>182.4</ele>
        <time>2021-11-22T14:29:38Z</time>
      </trkpt>
      <trkpt lat="46.51045" lon="5.29459">
        <ele>182.6</ele>
        <time>2021-11-22T14:29:44Z</time>
      </trkpt>
      <trkpt lat="46.51034" lon="5.29467">
        <ele>182.8</ele>
        <time>2021-11-22T14:29:46Z</time>
      </trkpt>
      <trkpt lat="46.51012" lon="5.29485">
        <ele>183</ele>
        <time>2021-11-22T14:29:50Z</time>
      </trkpt>
      <trkpt lat="46.50996" lon="5.29498">
        <ele>184</ele>
        <time>2021-11-22T14:29:53Z</time>
      </trkpt>
      <trkpt lat="46.50977" lon="5.29513">
        <ele>185.2</ele>
        <time>2021-11-22T14:29:57Z</time>
      </trkpt>
      <trkpt lat="46.50958" lon="5.29526">
        <ele>186.2</ele>
        <time>2021-11-22T14:30:01Z</time>
      </trkpt>
      <trkpt lat="46.50941" lon="5.29539">
        <ele>187.8</ele>
        <time>2021-11-22T14:30:05Z</time>
      </trkpt>
      <trkpt lat="46.50937" lon="5.29543">
        <ele>188</ele>
        <time>2021-11-22T14:30:06Z</time>
      </trkpt>
      <trkpt lat="46.50929" lon="5.2955">
        <ele>189</ele>
        <time>2021-11-22T14:30:08Z</time>
      </trkpt>
      <trkpt lat="46.50918" lon="5.29559">
        <ele>189.8</ele>
        <time>2021-11-22T14:30:11Z</time>
      </trkpt>
      <trkpt lat="46.50914" lon="5.29561">
        <ele>190</ele>
        <time>2021-11-22T14:30:12Z</time>
      </trkpt>
      <trkpt lat="46.50899" lon="5.29569">
        <ele>191</ele>
        <time>2021-11-22T14:30:16Z</time>
      </trkpt>
      <trkpt lat="46.5089" lon="5.29571">
        <ele>191.8</ele>
        <time>2021-11-22T14:30:18Z</time>
      </trkpt>
      <trkpt lat="46.50881" lon="5.29571">
        <ele>192.2</ele>
        <time>2021-11-22T14:30:20Z</time>
      </trkpt>
      <trkpt lat="46.50868" lon="5.2957">
        <ele>193.4</ele>
        <time>2021-11-22T14:30:23Z</time>
      </trkpt>
      <trkpt lat="46.50856" lon="5.29569">
        <ele>194</ele>
        <time>2021-11-22T14:30:26Z</time>
      </trkpt>
      <trkpt lat="46.50848" lon="5.29568">
        <ele>194.4</ele>
        <time>2021-11-22T14:30:28Z</time>
      </trkpt>
      <trkpt lat="46.5084" lon="5.29567">
        <ele>195.4</ele>
        <time>2021-11-22T14:30:30Z</time>
      </trkpt>
      <trkpt lat="46.50824" lon="5.29565">
        <ele>196.6</ele>
        <time>2021-11-22T14:30:34Z</time>
      </trkpt>
      <trkpt lat="46.50804" lon="5.29564">
        <ele>197.6</ele>
        <time>2021-11-22T14:30:39Z</time>
      </trkpt>
      <trkpt lat="46.5079" lon="5.29563">
        <ele>198.8</ele>
        <time>2021-11-22T14:30:43Z</time>
      </trkpt>
      <trkpt lat="46.50764" lon="5.29561">
        <ele>199.8</ele>
        <time>2021-11-22T14:30:50Z</time>
      </trkpt>
      <trkpt lat="46.5076" lon="5.2956">
        <ele>199.8</ele>
        <time>2021-11-22T14:30:51Z</time>
      </trkpt>
      <trkpt lat="46.50745" lon="5.29556">
        <ele>201.2</ele>
        <time>2021-11-22T14:30:55Z</time>
      </trkpt>
      <trkpt lat="46.50726" lon="5.29549">
        <ele>201.8</ele>
        <time>2021-11-22T14:31:00Z</time>
      </trkpt>
      <trkpt lat="46.5071" lon="5.29542">
        <ele>202.4</ele>
        <time>2021-11-22T14:31:04Z</time>
      </trkpt>
      <trkpt lat="46.50686" lon="5.29531">
        <ele>203.2</ele>
        <time>2021-11-22T14:31:10Z</time>
      </trkpt>
      <trkpt lat="46.50682" lon="5.29529">
        <ele>203.4</ele>
        <time>2021-11-22T14:31:11Z</time>
      </trkpt>
      <trkpt lat="46.50652" lon="5.29524">
        <ele>204.6</ele>
        <time>2021-11-22T14:31:18Z</time>
      </trkpt>
      <trkpt lat="46.50642" lon="5.29526">
        <ele>205</ele>
        <time>2021-11-22T14:31:20Z</time>
      </trkpt>
      <trkpt lat="46.50623" lon="5.29537">
        <ele>205.4</ele>
        <time>2021-11-22T14:31:24Z</time>
      </trkpt>
      <trkpt lat="46.50613" lon="5.29545">
        <ele>205.8</ele>
        <time>2021-11-22T14:31:26Z</time>
      </trkpt>
      <trkpt lat="46.50587" lon="5.29566">
        <ele>206.2</ele>
        <time>2021-11-22T14:31:31Z</time>
      </trkpt>
      <trkpt lat="46.50541" lon="5.29601">
        <ele>206.2</ele>
        <time>2021-11-22T14:31:39Z</time>
      </trkpt>
      <trkpt lat="46.5049" lon="5.29637">
        <ele>206.4</ele>
        <time>2021-11-22T14:31:47Z</time>
      </trkpt>
      <trkpt lat="46.50446" lon="5.29667">
        <ele>206.6</ele>
        <time>2021-11-22T14:31:54Z</time>
      </trkpt>
      <trkpt lat="46.50401" lon="5.29697">
        <ele>206.8</ele>
        <time>2021-11-22T14:32:01Z</time>
      </trkpt>
      <trkpt lat="46.50395" lon="5.29701">
        <ele>206.8</ele>
        <time>2021-11-22T14:32:02Z</time>
      </trkpt>
      <trkpt lat="46.50348" lon="5.29725">
        <ele>207.2</ele>
        <time>2021-11-22T14:32:09Z</time>
      </trkpt>
      <trkpt lat="46.5029" lon="5.29749">
        <ele>206.8</ele>
        <time>2021-11-22T14:32:17Z</time>
      </trkpt>
      <trkpt lat="46.50282" lon="5.29753">
        <ele>206.6</ele>
        <time>2021-11-22T14:32:18Z</time>
      </trkpt>
      <trkpt lat="46.50229" lon="5.29768">
        <ele>206</ele>
        <time>2021-11-22T14:32:25Z</time>
      </trkpt>
      <trkpt lat="46.50174" lon="5.29767">
        <ele>205.8</ele>
        <time>2021-11-22T14:32:32Z</time>
      </trkpt>
      <trkpt lat="46.50126" lon="5.29775">
        <ele>205.6</ele>
        <time>2021-11-22T14:32:38Z</time>
      </trkpt>
      <trkpt lat="46.5009" lon="5.29788">
        <ele>204.6</ele>
        <time>2021-11-22T14:32:42Z</time>
      </trkpt>
      <trkpt lat="46.50081" lon="5.29792">
        <ele>204.6</ele>
        <time>2021-11-22T14:32:43Z</time>
      </trkpt>
      <trkpt lat="46.50062" lon="5.29801">
        <ele>203.6</ele>
        <time>2021-11-22T14:32:45Z</time>
      </trkpt>
      <trkpt lat="46.50053" lon="5.29807">
        <ele>202.8</ele>
        <time>2021-11-22T14:32:46Z</time>
      </trkpt>
      <trkpt lat="46.50044" lon="5.29814">
        <ele>202.4</ele>
        <time>2021-11-22T14:32:47Z</time>
      </trkpt>
      <trkpt lat="46.50037" lon="5.29822">
        <ele>201.8</ele>
        <time>2021-11-22T14:32:48Z</time>
      </trkpt>
      <trkpt lat="46.50025" lon="5.2984">
        <ele>201</ele>
        <time>2021-11-22T14:32:50Z</time>
      </trkpt>
      <trkpt lat="46.50016" lon="5.29855">
        <ele>200.6</ele>
        <time>2021-11-22T14:32:52Z</time>
      </trkpt>
      <trkpt lat="46.50014" lon="5.29864">
        <ele>200.4</ele>
        <time>2021-11-22T14:32:53Z</time>
      </trkpt>
      <trkpt lat="46.50015" lon="5.29871">
        <ele>200.4</ele>
        <time>2021-11-22T14:32:54Z</time>
      </trkpt>
      <trkpt lat="46.50018" lon="5.29877">
        <ele>200.2</ele>
        <time>2021-11-22T14:32:55Z</time>
      </trkpt>
      <trkpt lat="46.50022" lon="5.29883">
        <ele>200</ele>
        <time>2021-11-22T14:32:56Z</time>
      </trkpt>
      <trkpt lat="46.50027" lon="5.29888">
        <ele>200</ele>
        <time>2021-11-22T14:32:57Z</time>
      </trkpt>
      <trkpt lat="46.50041" lon="5.29906">
        <ele>200</ele>
        <time>2021-11-22T14:33:00Z</time>
      </trkpt>
      <trkpt lat="46.50059" lon="5.29933">
        <ele>200.2</ele>
        <time>2021-11-22T14:33:04Z</time>
      </trkpt>
      <trkpt lat="46.50067" lon="5.29949">
        <ele>200.4</ele>
        <time>2021-11-22T14:33:06Z</time>
      </trkpt>
      <trkpt lat="46.50079" lon="5.29993">
        <ele>200.8</ele>
        <time>2021-11-22T14:33:11Z</time>
      </trkpt>
      <trkpt lat="46.50083" lon="5.3003">
        <ele>201.2</ele>
        <time>2021-11-22T14:33:15Z</time>
      </trkpt>
      <trkpt lat="46.50084" lon="5.30057">
        <ele>201.8</ele>
        <time>2021-11-22T14:33:18Z</time>
      </trkpt>
      <trkpt lat="46.50084" lon="5.30135">
        <ele>202</ele>
        <time>2021-11-22T14:33:26Z</time>
      </trkpt>
      <trkpt lat="46.50086" lon="5.3022">
        <ele>201.6</ele>
        <time>2021-11-22T14:33:34Z</time>
      </trkpt>
      <trkpt lat="46.50078" lon="5.30306">
        <ele>200.6</ele>
        <time>2021-11-22T14:33:42Z</time>
      </trkpt>
      <trkpt lat="46.50072" lon="5.30329">
        <ele>200.4</ele>
        <time>2021-11-22T14:33:44Z</time>
      </trkpt>
      <trkpt lat="46.50064" lon="5.3035">
        <ele>200.2</ele>
        <time>2021-11-22T14:33:46Z</time>
      </trkpt>
      <trkpt lat="46.50059" lon="5.3036">
        <ele>199.8</ele>
        <time>2021-11-22T14:33:47Z</time>
      </trkpt>
      <trkpt lat="46.50047" lon="5.30379">
        <ele>199.4</ele>
        <time>2021-11-22T14:33:49Z</time>
      </trkpt>
      <trkpt lat="46.5004" lon="5.30387">
        <ele>199.4</ele>
        <time>2021-11-22T14:33:50Z</time>
      </trkpt>
      <trkpt lat="46.50025" lon="5.30402">
        <ele>198.6</ele>
        <time>2021-11-22T14:33:52Z</time>
      </trkpt>
      <trkpt lat="46.50002" lon="5.30419">
        <ele>198.2</ele>
        <time>2021-11-22T14:33:55Z</time>
      </trkpt>
      <trkpt lat="46.49971" lon="5.30448">
        <ele>198.2</ele>
        <time>2021-11-22T14:34:00Z</time>
      </trkpt>
      <trkpt lat="46.49952" lon="5.30477">
        <ele>199.2</ele>
        <time>2021-11-22T14:34:04Z</time>
      </trkpt>
      <trkpt lat="46.49948" lon="5.30485">
        <ele>199.6</ele>
        <time>2021-11-22T14:34:05Z</time>
      </trkpt>
      <trkpt lat="46.49937" lon="5.30519">
        <ele>200.8</ele>
        <time>2021-11-22T14:34:09Z</time>
      </trkpt>
      <trkpt lat="46.49933" lon="5.30536">
        <ele>201</ele>
        <time>2021-11-22T14:34:11Z</time>
      </trkpt>
      <trkpt lat="46.49929" lon="5.30562">
        <ele>202</ele>
        <time>2021-11-22T14:34:14Z</time>
      </trkpt>
      <trkpt lat="46.49929" lon="5.30579">
        <ele>202.4</ele>
        <time>2021-11-22T14:34:16Z</time>
      </trkpt>
      <trkpt lat="46.49929" lon="5.30588">
        <ele>202.8</ele>
        <time>2021-11-22T14:34:17Z</time>
      </trkpt>
      <trkpt lat="46.49931" lon="5.30605">
        <ele>203</ele>
        <time>2021-11-22T14:34:19Z</time>
      </trkpt>
      <trkpt lat="46.49933" lon="5.30623">
        <ele>203.4</ele>
        <time>2021-11-22T14:34:21Z</time>
      </trkpt>
      <trkpt lat="46.49938" lon="5.30648">
        <ele>204.2</ele>
        <time>2021-11-22T14:34:24Z</time>
      </trkpt>
      <trkpt lat="46.49947" lon="5.30689">
        <ele>205.2</ele>
        <time>2021-11-22T14:34:29Z</time>
      </trkpt>
      <trkpt lat="46.49956" lon="5.3073">
        <ele>206.2</ele>
        <time>2021-11-22T14:34:34Z</time>
      </trkpt>
      <trkpt lat="46.49961" lon="5.30765">
        <ele>206.8</ele>
        <time>2021-11-22T14:34:38Z</time>
      </trkpt>
      <trkpt lat="46.49971" lon="5.30812">
        <ele>207</ele>
        <time>2021-11-22T14:34:43Z</time>
      </trkpt>
      <trkpt lat="46.49988" lon="5.30867">
        <ele>206.6</ele>
        <time>2021-11-22T14:34:49Z</time>
      </trkpt>
      <trkpt lat="46.50015" lon="5.30936">
        <ele>205</ele>
        <time>2021-11-22T14:34:56Z</time>
      </trkpt>
      <trkpt lat="46.50019" lon="5.30947">
        <ele>204.4</ele>
        <time>2021-11-22T14:34:57Z</time>
      </trkpt>
      <trkpt lat="46.50023" lon="5.30958">
        <ele>204</ele>
        <time>2021-11-22T14:34:58Z</time>
      </trkpt>
      <trkpt lat="46.5003" lon="5.3098">
        <ele>203</ele>
        <time>2021-11-22T14:35:00Z</time>
      </trkpt>
      <trkpt lat="46.50042" lon="5.31014">
        <ele>202</ele>
        <time>2021-11-22T14:35:03Z</time>
      </trkpt>
      <trkpt lat="46.5005" lon="5.31037">
        <ele>201</ele>
        <time>2021-11-22T14:35:05Z</time>
      </trkpt>
      <trkpt lat="46.50062" lon="5.31074">
        <ele>199.6</ele>
        <time>2021-11-22T14:35:08Z</time>
      </trkpt>
      <trkpt lat="46.50071" lon="5.31099">
        <ele>198.2</ele>
        <time>2021-11-22T14:35:10Z</time>
      </trkpt>
      <trkpt lat="46.50075" lon="5.31112">
        <ele>197.4</ele>
        <time>2021-11-22T14:35:11Z</time>
      </trkpt>
      <trkpt lat="46.50079" lon="5.31124">
        <ele>197</ele>
        <time>2021-11-22T14:35:12Z</time>
      </trkpt>
      <trkpt lat="46.50087" lon="5.31148">
        <ele>195.8</ele>
        <time>2021-11-22T14:35:14Z</time>
      </trkpt>
      <trkpt lat="46.50094" lon="5.31169">
        <ele>194.6</ele>
        <time>2021-11-22T14:35:16Z</time>
      </trkpt>
      <trkpt lat="46.50098" lon="5.31179">
        <ele>194</ele>
        <time>2021-11-22T14:35:17Z</time>
      </trkpt>
      <trkpt lat="46.50116" lon="5.31231">
        <ele>193.8</ele>
        <time>2021-11-22T14:35:23Z</time>
      </trkpt>
      <trkpt lat="46.50134" lon="5.31282">
        <ele>195.6</ele>
        <time>2021-11-22T14:35:29Z</time>
      </trkpt>
      <trkpt lat="46.50138" lon="5.3129">
        <ele>195.6</ele>
        <time>2021-11-22T14:35:30Z</time>
      </trkpt>
      <trkpt lat="46.50149" lon="5.31325">
        <ele>196.8</ele>
        <time>2021-11-22T14:35:34Z</time>
      </trkpt>
      <trkpt lat="46.50164" lon="5.3137">
        <ele>197</ele>
        <time>2021-11-22T14:35:39Z</time>
      </trkpt>
      <trkpt lat="46.50184" lon="5.31431">
        <ele>196</ele>
        <time>2021-11-22T14:35:45Z</time>
      </trkpt>
      <trkpt lat="46.50192" lon="5.31454">
        <ele>195.4</ele>
        <time>2021-11-22T14:35:47Z</time>
      </trkpt>
      <trkpt lat="46.50208" lon="5.315">
        <ele>194</ele>
        <time>2021-11-22T14:35:51Z</time>
      </trkpt>
      <trkpt lat="46.50217" lon="5.31523">
        <ele>193</ele>
        <time>2021-11-22T14:35:53Z</time>
      </trkpt>
      <trkpt lat="46.50233" lon="5.31553">
        <ele>191.6</ele>
        <time>2021-11-22T14:35:56Z</time>
      </trkpt>
      <trkpt lat="46.50245" lon="5.3157">
        <ele>190</ele>
        <time>2021-11-22T14:35:58Z</time>
      </trkpt>
      <trkpt lat="46.50258" lon="5.31584">
        <ele>189</ele>
        <time>2021-11-22T14:36:00Z</time>
      </trkpt>
      <trkpt lat="46.50264" lon="5.31591">
        <ele>188.4</ele>
        <time>2021-11-22T14:36:01Z</time>
      </trkpt>
      <trkpt lat="46.5029" lon="5.31613">
        <ele>188</ele>
        <time>2021-11-22T14:36:05Z</time>
      </trkpt>
      <trkpt lat="46.5031" lon="5.31628">
        <ele>188</ele>
        <time>2021-11-22T14:36:08Z</time>
      </trkpt>
      <trkpt lat="46.5036" lon="5.31667">
        <ele>188</ele>
        <time>2021-11-22T14:36:16Z</time>
      </trkpt>
      <trkpt lat="46.50366" lon="5.31673">
        <ele>188.2</ele>
        <time>2021-11-22T14:36:17Z</time>
      </trkpt>
      <trkpt lat="46.50379" lon="5.31694">
        <ele>188.6</ele>
        <time>2021-11-22T14:36:20Z</time>
      </trkpt>
      <trkpt lat="46.50405" lon="5.31749">
        <ele>189.2</ele>
        <time>2021-11-22T14:36:27Z</time>
      </trkpt>
      <trkpt lat="46.50408" lon="5.31757">
        <ele>189.2</ele>
        <time>2021-11-22T14:36:28Z</time>
      </trkpt>
      <trkpt lat="46.5042" lon="5.31801">
        <ele>189.4</ele>
        <time>2021-11-22T14:36:33Z</time>
      </trkpt>
      <trkpt lat="46.50435" lon="5.31879">
        <ele>189.8</ele>
        <time>2021-11-22T14:36:42Z</time>
      </trkpt>
      <trkpt lat="46.50436" lon="5.31897">
        <ele>190</ele>
        <time>2021-11-22T14:36:44Z</time>
      </trkpt>
      <trkpt lat="46.50436" lon="5.31915">
        <ele>190</ele>
        <time>2021-11-22T14:36:46Z</time>
      </trkpt>
      <trkpt lat="46.50436" lon="5.31933">
        <ele>190.4</ele>
        <time>2021-11-22T14:36:48Z</time>
      </trkpt>
      <trkpt lat="46.50434" lon="5.32015">
        <ele>190.6</ele>
        <time>2021-11-22T14:36:57Z</time>
      </trkpt>
      <trkpt lat="46.50433" lon="5.32032">
        <ele>190.6</ele>
        <time>2021-11-22T14:36:59Z</time>
      </trkpt>
      <trkpt lat="46.50431" lon="5.32112">
        <ele>190.8</ele>
        <time>2021-11-22T14:37:08Z</time>
      </trkpt>
      <trkpt lat="46.50431" lon="5.32121">
        <ele>191.2</ele>
        <time>2021-11-22T14:37:09Z</time>
      </trkpt>
      <trkpt lat="46.5043" lon="5.32138">
        <ele>191.4</ele>
        <time>2021-11-22T14:37:11Z</time>
      </trkpt>
      <trkpt lat="46.50429" lon="5.32181">
        <ele>192.6</ele>
        <time>2021-11-22T14:37:16Z</time>
      </trkpt>
      <trkpt lat="46.50429" lon="5.32198">
        <ele>192.6</ele>
        <time>2021-11-22T14:37:18Z</time>
      </trkpt>
      <trkpt lat="46.50429" lon="5.32272">
        <ele>193.2</ele>
        <time>2021-11-22T14:37:27Z</time>
      </trkpt>
      <trkpt lat="46.50436" lon="5.32313">
        <ele>193.6</ele>
        <time>2021-11-22T14:37:32Z</time>
      </trkpt>
      <trkpt lat="46.50441" lon="5.32338">
        <ele>193.8</ele>
        <time>2021-11-22T14:37:35Z</time>
      </trkpt>
      <trkpt lat="46.50456" lon="5.32408">
        <ele>193.6</ele>
        <time>2021-11-22T14:37:43Z</time>
      </trkpt>
      <trkpt lat="46.50466" lon="5.32479">
        <ele>193.6</ele>
        <time>2021-11-22T14:37:51Z</time>
      </trkpt>
      <trkpt lat="46.50471" lon="5.32547">
        <ele>194</ele>
        <time>2021-11-22T14:37:59Z</time>
      </trkpt>
      <trkpt lat="46.50473" lon="5.32597">
        <ele>194.6</ele>
        <time>2021-11-22T14:38:05Z</time>
      </trkpt>
      <trkpt lat="46.50473" lon="5.32629">
        <ele>195.2</ele>
        <time>2021-11-22T14:38:09Z</time>
      </trkpt>
      <trkpt lat="46.50473" lon="5.32677">
        <ele>195.8</ele>
        <time>2021-11-22T14:38:15Z</time>
      </trkpt>
      <trkpt lat="46.50473" lon="5.32717">
        <ele>196.4</ele>
        <time>2021-11-22T14:38:20Z</time>
      </trkpt>
      <trkpt lat="46.50472" lon="5.32749">
        <ele>196.6</ele>
        <time>2021-11-22T14:38:24Z</time>
      </trkpt>
      <trkpt lat="46.50471" lon="5.32798">
        <ele>197.2</ele>
        <time>2021-11-22T14:38:30Z</time>
      </trkpt>
      <trkpt lat="46.5047" lon="5.32879">
        <ele>197.8</ele>
        <time>2021-11-22T14:38:40Z</time>
      </trkpt>
      <trkpt lat="46.50469" lon="5.32914">
        <ele>199</ele>
        <time>2021-11-22T14:38:45Z</time>
      </trkpt>
      <trkpt lat="46.50468" lon="5.32928">
        <ele>199.2</ele>
        <time>2021-11-22T14:38:47Z</time>
      </trkpt>
      <trkpt lat="46.50468" lon="5.32948">
        <ele>200.4</ele>
        <time>2021-11-22T14:38:50Z</time>
      </trkpt>
      <trkpt lat="46.50468" lon="5.32982">
        <ele>201.4</ele>
        <time>2021-11-22T14:38:55Z</time>
      </trkpt>
      <trkpt lat="46.50467" lon="5.32996">
        <ele>201.8</ele>
        <time>2021-11-22T14:38:57Z</time>
      </trkpt>
      <trkpt lat="46.50468" lon="5.33003">
        <ele>202.4</ele>
        <time>2021-11-22T14:38:58Z</time>
      </trkpt>
      <trkpt lat="46.50468" lon="5.33042">
        <ele>203.6</ele>
        <time>2021-11-22T14:39:04Z</time>
      </trkpt>
      <trkpt lat="46.50468" lon="5.33054">
        <ele>204.2</ele>
        <time>2021-11-22T14:39:06Z</time>
      </trkpt>
      <trkpt lat="46.50467" lon="5.33067">
        <ele>205</ele>
        <time>2021-11-22T14:39:08Z</time>
      </trkpt>
      <trkpt lat="46.50464" lon="5.33092">
        <ele>205.6</ele>
        <time>2021-11-22T14:39:12Z</time>
      </trkpt>
      <trkpt lat="46.50464" lon="5.33098">
        <ele>206</ele>
        <time>2021-11-22T14:39:13Z</time>
      </trkpt>
      <trkpt lat="46.50462" lon="5.3311">
        <ele>206.6</ele>
        <time>2021-11-22T14:39:15Z</time>
      </trkpt>
      <trkpt lat="46.50461" lon="5.33128">
        <ele>207.4</ele>
        <time>2021-11-22T14:39:18Z</time>
      </trkpt>
      <trkpt lat="46.5046" lon="5.33141">
        <ele>207.6</ele>
        <time>2021-11-22T14:39:20Z</time>
      </trkpt>
      <trkpt lat="46.50461" lon="5.33154">
        <ele>208</ele>
        <time>2021-11-22T14:39:22Z</time>
      </trkpt>
      <trkpt lat="46.50461" lon="5.3316">
        <ele>208.2</ele>
        <time>2021-11-22T14:39:23Z</time>
      </trkpt>
      <trkpt lat="46.5046" lon="5.33167">
        <ele>208.4</ele>
        <time>2021-11-22T14:39:24Z</time>
      </trkpt>
      <trkpt lat="46.50459" lon="5.33202">
        <ele>209.4</ele>
        <time>2021-11-22T14:39:29Z</time>
      </trkpt>
      <trkpt lat="46.50457" lon="5.33232">
        <ele>210.2</ele>
        <time>2021-11-22T14:39:33Z</time>
      </trkpt>
      <trkpt lat="46.50456" lon="5.3324">
        <ele>210.4</ele>
        <time>2021-11-22T14:39:34Z</time>
      </trkpt>
      <trkpt lat="46.50456" lon="5.33257">
        <ele>210.4</ele>
        <time>2021-11-22T14:39:36Z</time>
      </trkpt>
      <trkpt lat="46.50457" lon="5.33292">
        <ele>210.6</ele>
        <time>2021-11-22T14:39:40Z</time>
      </trkpt>
      <trkpt lat="46.50458" lon="5.33341">
        <ele>210.2</ele>
        <time>2021-11-22T14:39:45Z</time>
      </trkpt>
      <trkpt lat="46.50457" lon="5.33371">
        <ele>210</ele>
        <time>2021-11-22T14:39:48Z</time>
      </trkpt>
      <trkpt lat="46.50452" lon="5.3339">
        <ele>209.8</ele>
        <time>2021-11-22T14:39:50Z</time>
      </trkpt>
      <trkpt lat="46.50451" lon="5.33399">
        <ele>209.6</ele>
        <time>2021-11-22T14:39:51Z</time>
      </trkpt>
      <trkpt lat="46.50445" lon="5.33416">
        <ele>209.6</ele>
        <time>2021-11-22T14:39:53Z</time>
      </trkpt>
      <trkpt lat="46.50437" lon="5.33431">
        <ele>209.8</ele>
        <time>2021-11-22T14:39:55Z</time>
      </trkpt>
      <trkpt lat="46.50409" lon="5.33466">
        <ele>210</ele>
        <time>2021-11-22T14:40:01Z</time>
      </trkpt>
      <trkpt lat="46.50374" lon="5.33505">
        <ele>211</ele>
        <time>2021-11-22T14:40:08Z</time>
      </trkpt>
      <trkpt lat="46.50364" lon="5.33516">
        <ele>211.2</ele>
        <time>2021-11-22T14:40:10Z</time>
      </trkpt>
      <trkpt lat="46.50327" lon="5.33554">
        <ele>211.8</ele>
        <time>2021-11-22T14:40:17Z</time>
      </trkpt>
      <trkpt lat="46.50302" lon="5.33582">
        <ele>212.4</ele>
        <time>2021-11-22T14:40:22Z</time>
      </trkpt>
      <trkpt lat="46.50276" lon="5.3361">
        <ele>212.4</ele>
        <time>2021-11-22T14:40:27Z</time>
      </trkpt>
      <trkpt lat="46.50238" lon="5.33652">
        <ele>213.4</ele>
        <time>2021-11-22T14:40:34Z</time>
      </trkpt>
      <trkpt lat="46.50233" lon="5.33657">
        <ele>213.4</ele>
        <time>2021-11-22T14:40:35Z</time>
      </trkpt>
      <trkpt lat="46.50185" lon="5.33706">
        <ele>214</ele>
        <time>2021-11-22T14:40:44Z</time>
      </trkpt>
      <trkpt lat="46.50169" lon="5.33722">
        <ele>214.2</ele>
        <time>2021-11-22T14:40:47Z</time>
      </trkpt>
      <trkpt lat="46.50164" lon="5.33727">
        <ele>214.2</ele>
        <time>2021-11-22T14:40:48Z</time>
      </trkpt>
      <trkpt lat="46.50148" lon="5.33744">
        <ele>214.2</ele>
        <time>2021-11-22T14:40:51Z</time>
      </trkpt>
      <trkpt lat="46.50112" lon="5.33782">
        <ele>214</ele>
        <time>2021-11-22T14:40:57Z</time>
      </trkpt>
      <trkpt lat="46.50077" lon="5.3382">
        <ele>213.8</ele>
        <time>2021-11-22T14:41:03Z</time>
      </trkpt>
      <trkpt lat="46.50044" lon="5.33855">
        <ele>214.2</ele>
        <time>2021-11-22T14:41:09Z</time>
      </trkpt>
      <trkpt lat="46.5002" lon="5.33882">
        <ele>215.2</ele>
        <time>2021-11-22T14:41:14Z</time>
      </trkpt>
      <trkpt lat="46.50011" lon="5.33892">
        <ele>215.6</ele>
        <time>2021-11-22T14:41:16Z</time>
      </trkpt>
      <trkpt lat="46.49981" lon="5.33924">
        <ele>216.4</ele>
        <time>2021-11-22T14:41:22Z</time>
      </trkpt>
      <trkpt lat="46.49972" lon="5.33934">
        <ele>216.4</ele>
        <time>2021-11-22T14:41:24Z</time>
      </trkpt>
      <trkpt lat="46.49943" lon="5.33966">
        <ele>216.6</ele>
        <time>2021-11-22T14:41:29Z</time>
      </trkpt>
      <trkpt lat="46.4991" lon="5.34001">
        <ele>215.8</ele>
        <time>2021-11-22T14:41:34Z</time>
      </trkpt>
      <trkpt lat="46.49897" lon="5.34017">
        <ele>215.2</ele>
        <time>2021-11-22T14:41:36Z</time>
      </trkpt>
      <trkpt lat="46.4987" lon="5.34048">
        <ele>214.2</ele>
        <time>2021-11-22T14:41:40Z</time>
      </trkpt>
      <trkpt lat="46.49834" lon="5.34099">
        <ele>213.4</ele>
        <time>2021-11-22T14:41:46Z</time>
      </trkpt>
      <trkpt lat="46.49799" lon="5.34156">
        <ele>213.6</ele>
        <time>2021-11-22T14:41:53Z</time>
      </trkpt>
      <trkpt lat="46.49767" lon="5.34213">
        <ele>214</ele>
        <time>2021-11-22T14:42:00Z</time>
      </trkpt>
      <trkpt lat="46.49733" lon="5.34269">
        <ele>213.8</ele>
        <time>2021-11-22T14:42:07Z</time>
      </trkpt>
      <trkpt lat="46.49712" lon="5.34317">
        <ele>213.6</ele>
        <time>2021-11-22T14:42:13Z</time>
      </trkpt>
      <trkpt lat="46.49701" lon="5.34353">
        <ele>213.6</ele>
        <time>2021-11-22T14:42:17Z</time>
      </trkpt>
      <trkpt lat="46.49692" lon="5.34383">
        <ele>213.4</ele>
        <time>2021-11-22T14:42:20Z</time>
      </trkpt>
      <trkpt lat="46.49681" lon="5.34418">
        <ele>212.8</ele>
        <time>2021-11-22T14:42:23Z</time>
      </trkpt>
      <trkpt lat="46.49672" lon="5.34454">
        <ele>211.8</ele>
        <time>2021-11-22T14:42:26Z</time>
      </trkpt>
      <trkpt lat="46.49669" lon="5.34465">
        <ele>211.4</ele>
        <time>2021-11-22T14:42:27Z</time>
      </trkpt>
      <trkpt lat="46.49659" lon="5.34498">
        <ele>210.6</ele>
        <time>2021-11-22T14:42:30Z</time>
      </trkpt>
      <trkpt lat="46.49652" lon="5.34521">
        <ele>210</ele>
        <time>2021-11-22T14:42:32Z</time>
      </trkpt>
      <trkpt lat="46.4964" lon="5.3454">
        <ele>209.8</ele>
        <time>2021-11-22T14:42:34Z</time>
      </trkpt>
      <trkpt lat="46.49624" lon="5.34557">
        <ele>209.4</ele>
        <time>2021-11-22T14:42:36Z</time>
      </trkpt>
      <trkpt lat="46.49606" lon="5.34579">
        <ele>208.8</ele>
        <time>2021-11-22T14:42:39Z</time>
      </trkpt>
      <trkpt lat="46.49589" lon="5.34603">
        <ele>208.2</ele>
        <time>2021-11-22T14:42:42Z</time>
      </trkpt>
      <trkpt lat="46.49578" lon="5.34618">
        <ele>208.2</ele>
        <time>2021-11-22T14:42:44Z</time>
      </trkpt>
      <trkpt lat="46.49549" lon="5.34654">
        <ele>208.8</ele>
        <time>2021-11-22T14:42:50Z</time>
      </trkpt>
      <trkpt lat="46.49541" lon="5.34666">
        <ele>209.6</ele>
        <time>2021-11-22T14:42:52Z</time>
      </trkpt>
      <trkpt lat="46.49521" lon="5.34689">
        <ele>210.6</ele>
        <time>2021-11-22T14:42:57Z</time>
      </trkpt>
      <trkpt lat="46.49514" lon="5.34697">
        <ele>211.2</ele>
        <time>2021-11-22T14:42:59Z</time>
      </trkpt>
      <trkpt lat="46.49505" lon="5.34706">
        <ele>212.2</ele>
        <time>2021-11-22T14:43:01Z</time>
      </trkpt>
      <trkpt lat="46.49501" lon="5.3471">
        <ele>212.2</ele>
        <time>2021-11-22T14:43:02Z</time>
      </trkpt>
      <trkpt lat="46.49485" lon="5.34727">
        <ele>213.2</ele>
        <time>2021-11-22T14:43:06Z</time>
      </trkpt>
      <trkpt lat="46.49477" lon="5.34735">
        <ele>213.4</ele>
        <time>2021-11-22T14:43:08Z</time>
      </trkpt>
      <trkpt lat="46.4947" lon="5.34743">
        <ele>214.8</ele>
        <time>2021-11-22T14:43:10Z</time>
      </trkpt>
      <trkpt lat="46.49462" lon="5.34753">
        <ele>215.6</ele>
        <time>2021-11-22T14:43:13Z</time>
      </trkpt>
      <trkpt lat="46.49459" lon="5.34756">
        <ele>216</ele>
        <time>2021-11-22T14:43:14Z</time>
      </trkpt>
      <trkpt lat="46.49447" lon="5.3477">
        <ele>216.8</ele>
        <time>2021-11-22T14:43:17Z</time>
      </trkpt>
      <trkpt lat="46.49438" lon="5.34779">
        <ele>217.6</ele>
        <time>2021-11-22T14:43:19Z</time>
      </trkpt>
      <trkpt lat="46.49425" lon="5.3479">
        <ele>218.6</ele>
        <time>2021-11-22T14:43:22Z</time>
      </trkpt>
      <trkpt lat="46.49419" lon="5.34796">
        <ele>218.8</ele>
        <time>2021-11-22T14:43:23Z</time>
      </trkpt>
      <trkpt lat="46.49406" lon="5.34805">
        <ele>220</ele>
        <time>2021-11-22T14:43:26Z</time>
      </trkpt>
      <trkpt lat="46.494" lon="5.34808">
        <ele>220</ele>
        <time>2021-11-22T14:43:27Z</time>
      </trkpt>
      <trkpt lat="46.49387" lon="5.34813">
        <ele>220.4</ele>
        <time>2021-11-22T14:43:29Z</time>
      </trkpt>
      <trkpt lat="46.49376" lon="5.34816">
        <ele>220.4</ele>
        <time>2021-11-22T14:43:31Z</time>
      </trkpt>
      <trkpt lat="46.49362" lon="5.34818">
        <ele>220.6</ele>
        <time>2021-11-22T14:43:33Z</time>
      </trkpt>
      <trkpt lat="46.49355" lon="5.34821">
        <ele>220.6</ele>
        <time>2021-11-22T14:43:34Z</time>
      </trkpt>
      <trkpt lat="46.49318" lon="5.34827">
        <ele>220.2</ele>
        <time>2021-11-22T14:43:40Z</time>
      </trkpt>
      <trkpt lat="46.49288" lon="5.34839">
        <ele>220.4</ele>
        <time>2021-11-22T14:43:45Z</time>
      </trkpt>
      <trkpt lat="46.49284" lon="5.34842">
        <ele>220.2</ele>
        <time>2021-11-22T14:43:46Z</time>
      </trkpt>
      <trkpt lat="46.49272" lon="5.34856">
        <ele>220.4</ele>
        <time>2021-11-22T14:43:49Z</time>
      </trkpt>
      <trkpt lat="46.49267" lon="5.34864">
        <ele>220.4</ele>
        <time>2021-11-22T14:43:50Z</time>
      </trkpt>
      <trkpt lat="46.49234" lon="5.34913">
        <ele>220.4</ele>
        <time>2021-11-22T14:43:57Z</time>
      </trkpt>
      <trkpt lat="46.49193" lon="5.34974">
        <ele>220.8</ele>
        <time>2021-11-22T14:44:06Z</time>
      </trkpt>
      <trkpt lat="46.49183" lon="5.34985">
        <ele>221</ele>
        <time>2021-11-22T14:44:08Z</time>
      </trkpt>
      <trkpt lat="46.49172" lon="5.34998">
        <ele>221</ele>
        <time>2021-11-22T14:44:10Z</time>
      </trkpt>
      <trkpt lat="46.49139" lon="5.35027">
        <ele>221</ele>
        <time>2021-11-22T14:44:16Z</time>
      </trkpt>
      <trkpt lat="46.49125" lon="5.35037">
        <ele>221.2</ele>
        <time>2021-11-22T14:44:19Z</time>
      </trkpt>
      <trkpt lat="46.49112" lon="5.35049">
        <ele>221.2</ele>
        <time>2021-11-22T14:44:21Z</time>
      </trkpt>
      <trkpt lat="46.49081" lon="5.35074">
        <ele>221.8</ele>
        <time>2021-11-22T14:44:27Z</time>
      </trkpt>
      <trkpt lat="46.49072" lon="5.35082">
        <ele>222</ele>
        <time>2021-11-22T14:44:29Z</time>
      </trkpt>
      <trkpt lat="46.49047" lon="5.35104">
        <ele>223</ele>
        <time>2021-11-22T14:44:34Z</time>
      </trkpt>
      <trkpt lat="46.49042" lon="5.35109">
        <ele>223</ele>
        <time>2021-11-22T14:44:35Z</time>
      </trkpt>
      <trkpt lat="46.49037" lon="5.35115">
        <ele>223.2</ele>
        <time>2021-11-22T14:44:36Z</time>
      </trkpt>
      <trkpt lat="46.49028" lon="5.35128">
        <ele>223.2</ele>
        <time>2021-11-22T14:44:38Z</time>
      </trkpt>
      <trkpt lat="46.49026" lon="5.35136">
        <ele>223.2</ele>
        <time>2021-11-22T14:44:39Z</time>
      </trkpt>
      <trkpt lat="46.49003" lon="5.3519">
        <ele>223.2</ele>
        <time>2021-11-22T14:44:46Z</time>
      </trkpt>
      <trkpt lat="46.48974" lon="5.35254">
        <ele>222.4</ele>
        <time>2021-11-22T14:44:53Z</time>
      </trkpt>
      <trkpt lat="46.48966" lon="5.35273">
        <ele>222</ele>
        <time>2021-11-22T14:44:55Z</time>
      </trkpt>
      <trkpt lat="46.48933" lon="5.35348">
        <ele>221</ele>
        <time>2021-11-22T14:45:03Z</time>
      </trkpt>
      <trkpt lat="46.48925" lon="5.35367">
        <ele>220.8</ele>
        <time>2021-11-22T14:45:05Z</time>
      </trkpt>
      <trkpt lat="46.48898" lon="5.35426">
        <ele>220.8</ele>
        <time>2021-11-22T14:45:12Z</time>
      </trkpt>
      <trkpt lat="46.48874" lon="5.35483">
        <ele>221.2</ele>
        <time>2021-11-22T14:45:19Z</time>
      </trkpt>
      <trkpt lat="46.4885" lon="5.35538">
        <ele>221.8</ele>
        <time>2021-11-22T14:45:26Z</time>
      </trkpt>
      <trkpt lat="46.48843" lon="5.35554">
        <ele>222</ele>
        <time>2021-11-22T14:45:28Z</time>
      </trkpt>
      <trkpt lat="46.48811" lon="5.35625">
        <ele>221.8</ele>
        <time>2021-11-22T14:45:37Z</time>
      </trkpt>
      <trkpt lat="46.48808" lon="5.35633">
        <ele>221.8</ele>
        <time>2021-11-22T14:45:38Z</time>
      </trkpt>
      <trkpt lat="46.48775" lon="5.35706">
        <ele>221.6</ele>
        <time>2021-11-22T14:45:47Z</time>
      </trkpt>
      <trkpt lat="46.48767" lon="5.35725">
        <ele>221.6</ele>
        <time>2021-11-22T14:45:49Z</time>
      </trkpt>
      <trkpt lat="46.48746" lon="5.35774">
        <ele>221.8</ele>
        <time>2021-11-22T14:45:55Z</time>
      </trkpt>
      <trkpt lat="46.48722" lon="5.35831">
        <ele>222</ele>
        <time>2021-11-22T14:46:02Z</time>
      </trkpt>
      <trkpt lat="46.48702" lon="5.35879">
        <ele>222.2</ele>
        <time>2021-11-22T14:46:08Z</time>
      </trkpt>
      <trkpt lat="46.48692" lon="5.35912">
        <ele>222.6</ele>
        <time>2021-11-22T14:46:12Z</time>
      </trkpt>
      <trkpt lat="46.48686" lon="5.35938">
        <ele>223.2</ele>
        <time>2021-11-22T14:46:15Z</time>
      </trkpt>
      <trkpt lat="46.4868" lon="5.35964">
        <ele>224.2</ele>
        <time>2021-11-22T14:46:18Z</time>
      </trkpt>
      <trkpt lat="46.48676" lon="5.3599">
        <ele>224.8</ele>
        <time>2021-11-22T14:46:21Z</time>
      </trkpt>
      <trkpt lat="46.48668" lon="5.36041">
        <ele>225</ele>
        <time>2021-11-22T14:46:27Z</time>
      </trkpt>
      <trkpt lat="46.48652" lon="5.36112">
        <ele>223.8</ele>
        <time>2021-11-22T14:46:34Z</time>
      </trkpt>
      <trkpt lat="46.48645" lon="5.3616">
        <ele>223.2</ele>
        <time>2021-11-22T14:46:39Z</time>
      </trkpt>
      <trkpt lat="46.48644" lon="5.3617">
        <ele>223.2</ele>
        <time>2021-11-22T14:46:40Z</time>
      </trkpt>
      <trkpt lat="46.48637" lon="5.36245">
        <ele>223.6</ele>
        <time>2021-11-22T14:46:48Z</time>
      </trkpt>
      <trkpt lat="46.48628" lon="5.36295">
        <ele>224.2</ele>
        <time>2021-11-22T14:46:54Z</time>
      </trkpt>
      <trkpt lat="46.48625" lon="5.36302">
        <ele>224.4</ele>
        <time>2021-11-22T14:46:55Z</time>
      </trkpt>
      <trkpt lat="46.48622" lon="5.36308">
        <ele>224.4</ele>
        <time>2021-11-22T14:46:56Z</time>
      </trkpt>
      <trkpt lat="46.48618" lon="5.36312">
        <ele>224.6</ele>
        <time>2021-11-22T14:46:57Z</time>
      </trkpt>
      <trkpt lat="46.48614" lon="5.36316">
        <ele>224.8</ele>
        <time>2021-11-22T14:46:58Z</time>
      </trkpt>
      <trkpt lat="46.48604" lon="5.36322">
        <ele>225.2</ele>
        <time>2021-11-22T14:47:00Z</time>
      </trkpt>
      <trkpt lat="46.48598" lon="5.36323">
        <ele>225.4</ele>
        <time>2021-11-22T14:47:01Z</time>
      </trkpt>
      <trkpt lat="46.48588" lon="5.36323">
        <ele>226.2</ele>
        <time>2021-11-22T14:47:03Z</time>
      </trkpt>
      <trkpt lat="46.48577" lon="5.36325">
        <ele>226.6</ele>
        <time>2021-11-22T14:47:05Z</time>
      </trkpt>
      <trkpt lat="46.48571" lon="5.36326">
        <ele>227</ele>
        <time>2021-11-22T14:47:06Z</time>
      </trkpt>
      <trkpt lat="46.4856" lon="5.36327">
        <ele>228</ele>
        <time>2021-11-22T14:47:08Z</time>
      </trkpt>
      <trkpt lat="46.48538" lon="5.36331">
        <ele>229.2</ele>
        <time>2021-11-22T14:47:12Z</time>
      </trkpt>
      <trkpt lat="46.48515" lon="5.36334">
        <ele>230</ele>
        <time>2021-11-22T14:47:16Z</time>
      </trkpt>
      <trkpt lat="46.48497" lon="5.36337">
        <ele>230.4</ele>
        <time>2021-11-22T14:47:19Z</time>
      </trkpt>
      <trkpt lat="46.48473" lon="5.36341">
        <ele>230.8</ele>
        <time>2021-11-22T14:47:23Z</time>
      </trkpt>
      <trkpt lat="46.48422" lon="5.36352">
        <ele>231</ele>
        <time>2021-11-22T14:47:31Z</time>
      </trkpt>
      <trkpt lat="46.48416" lon="5.36355">
        <ele>231</ele>
        <time>2021-11-22T14:47:32Z</time>
      </trkpt>
      <trkpt lat="46.48392" lon="5.36374">
        <ele>231</ele>
        <time>2021-11-22T14:47:36Z</time>
      </trkpt>
      <trkpt lat="46.48349" lon="5.3642">
        <ele>231.6</ele>
        <time>2021-11-22T14:47:44Z</time>
      </trkpt>
      <trkpt lat="46.48315" lon="5.36457">
        <ele>232.8</ele>
        <time>2021-11-22T14:47:51Z</time>
      </trkpt>
      <trkpt lat="46.48311" lon="5.36462">
        <ele>232.8</ele>
        <time>2021-11-22T14:47:52Z</time>
      </trkpt>
      <trkpt lat="46.48289" lon="5.36487">
        <ele>233.8</ele>
        <time>2021-11-22T14:47:57Z</time>
      </trkpt>
      <trkpt lat="46.48272" lon="5.36506">
        <ele>234.6</ele>
        <time>2021-11-22T14:48:01Z</time>
      </trkpt>
      <trkpt lat="46.48259" lon="5.3652">
        <ele>235</ele>
        <time>2021-11-22T14:48:04Z</time>
      </trkpt>
      <trkpt lat="46.48233" lon="5.36548">
        <ele>236</ele>
        <time>2021-11-22T14:48:10Z</time>
      </trkpt>
      <trkpt lat="46.48228" lon="5.36552">
        <ele>236.2</ele>
        <time>2021-11-22T14:48:11Z</time>
      </trkpt>
      <trkpt lat="46.48223" lon="5.36556">
        <ele>236.4</ele>
        <time>2021-11-22T14:48:12Z</time>
      </trkpt>
      <trkpt lat="46.48213" lon="5.36559">
        <ele>236.6</ele>
        <time>2021-11-22T14:48:14Z</time>
      </trkpt>
      <trkpt lat="46.48203" lon="5.3656">
        <ele>236.8</ele>
        <time>2021-11-22T14:48:16Z</time>
      </trkpt>
      <trkpt lat="46.48194" lon="5.36567">
        <ele>237</ele>
        <time>2021-11-22T14:48:18Z</time>
      </trkpt>
      <trkpt lat="46.48188" lon="5.3658">
        <ele>237.4</ele>
        <time>2021-11-22T14:48:20Z</time>
      </trkpt>
      <trkpt lat="46.48183" lon="5.36595">
        <ele>237.6</ele>
        <time>2021-11-22T14:48:22Z</time>
      </trkpt>
      <trkpt lat="46.48177" lon="5.36608">
        <ele>237.6</ele>
        <time>2021-11-22T14:48:24Z</time>
      </trkpt>
      <trkpt lat="46.48169" lon="5.36617">
        <ele>237.8</ele>
        <time>2021-11-22T14:48:26Z</time>
      </trkpt>
      <trkpt lat="46.48156" lon="5.36631">
        <ele>238</ele>
        <time>2021-11-22T14:48:29Z</time>
      </trkpt>
      <trkpt lat="46.48143" lon="5.36647">
        <ele>238.2</ele>
        <time>2021-11-22T14:48:32Z</time>
      </trkpt>
      <trkpt lat="46.48136" lon="5.36654">
        <ele>238.4</ele>
        <time>2021-11-22T14:48:34Z</time>
      </trkpt>
      <trkpt lat="46.4812" lon="5.36671">
        <ele>238.6</ele>
        <time>2021-11-22T14:48:38Z</time>
      </trkpt>
      <trkpt lat="46.48118" lon="5.36675">
        <ele>238.6</ele>
        <time>2021-11-22T14:48:39Z</time>
      </trkpt>
      <trkpt lat="46.48105" lon="5.36696">
        <ele>239.2</ele>
        <time>2021-11-22T14:48:44Z</time>
      </trkpt>
      <trkpt lat="46.48106" lon="5.36701">
        <ele>239.6</ele>
        <time>2021-11-22T14:48:45Z</time>
      </trkpt>
      <trkpt lat="46.48112" lon="5.36708">
        <ele>240</ele>
        <time>2021-11-22T14:48:47Z</time>
      </trkpt>
      <trkpt lat="46.48135" lon="5.36728">
        <ele>240.6</ele>
        <time>2021-11-22T14:48:54Z</time>
      </trkpt>
      <trkpt lat="46.48138" lon="5.3673">
        <ele>240.6</ele>
        <time>2021-11-22T14:48:55Z</time>
      </trkpt>
      <trkpt lat="46.48154" lon="5.36744">
        <ele>241.6</ele>
        <time>2021-11-22T14:49:00Z</time>
      </trkpt>
      <trkpt lat="46.4817" lon="5.36757">
        <ele>242.8</ele>
        <time>2021-11-22T14:49:05Z</time>
      </trkpt>
      <trkpt lat="46.4819" lon="5.36772">
        <ele>243.8</ele>
        <time>2021-11-22T14:49:11Z</time>
      </trkpt>
      <trkpt lat="46.48197" lon="5.36777">
        <ele>244.4</ele>
        <time>2021-11-22T14:49:13Z</time>
      </trkpt>
      <trkpt lat="46.48206" lon="5.36786">
        <ele>245</ele>
        <time>2021-11-22T14:49:16Z</time>
      </trkpt>
      <trkpt lat="46.48215" lon="5.36793">
        <ele>245.8</ele>
        <time>2021-11-22T14:49:19Z</time>
      </trkpt>
      <trkpt lat="46.48221" lon="5.36799">
        <ele>246.4</ele>
        <time>2021-11-22T14:49:21Z</time>
      </trkpt>
      <trkpt lat="46.48241" lon="5.36815">
        <ele>247.6</ele>
        <time>2021-11-22T14:49:28Z</time>
      </trkpt>
      <trkpt lat="46.48255" lon="5.36828">
        <ele>248.6</ele>
        <time>2021-11-22T14:49:33Z</time>
      </trkpt>
    </trkseg>
  </trk>
</gpx>